<?xml version="1.0" encoding="UTF-8" standalone="no" ?>
<gpx xmlns="http://www.topografix.com/GPX/1/1" xmlns:xsi="http://www.w3.org/2001/XMLSchema-instance" xsi:schemaLocation="http://www.topografix.com/GPX/1/1 http://www.topografix.com/GPX/1/1/gpx.xsd" version="1.1" creator="VisuGPX - https://www.visugpx.com">
  <metadata>
    <name>St Desirat</name>
    <desc><![CDATA[2009-10-10_St Desirat]]></desc>
  </metadata>
  <trk>
    <name><![CDATA[St Desirat]]></name>
    <cmt><![CDATA[Marcel, Jean MArieMIchelPIerre, Bruno, Thierry,Philippe3, Fabien]]></cmt>
    <trkseg>
      <trkpt lat="45.1157" lon="4.96426">
        <ele>236.41700744629</ele>
        <time>2009-10-10T11:23:37Z</time>
      </trkpt>
      <trkpt lat="45.1157" lon="4.96426">
        <ele>235.69999694824</ele>
        <time>2009-10-10T11:23:44Z</time>
      </trkpt>
      <trkpt lat="45.11568" lon="4.96423">
        <ele>235.3630065918</ele>
        <time>2009-10-10T11:23:50Z</time>
      </trkpt>
      <trkpt lat="45.11568" lon="4.96423">
        <ele>235.58099365234</ele>
        <time>2009-10-10T11:23:51Z</time>
      </trkpt>
      <trkpt lat="45.11562" lon="4.96427">
        <ele>234.57899475098</ele>
        <time>2009-10-10T11:23:56Z</time>
      </trkpt>
      <trkpt lat="45.11563" lon="4.96435">
        <ele>234.43499755859</ele>
        <time>2009-10-10T11:23:58Z</time>
      </trkpt>
      <trkpt lat="45.11571" lon="4.96446">
        <ele>234.20799255371</ele>
        <time>2009-10-10T11:24:02Z</time>
      </trkpt>
      <trkpt lat="45.11578" lon="4.96441">
        <ele>234.53799438477</ele>
        <time>2009-10-10T11:24:07Z</time>
      </trkpt>
      <trkpt lat="45.11579" lon="4.96443">
        <ele>234.62600708008</ele>
        <time>2009-10-10T11:24:10Z</time>
      </trkpt>
      <trkpt lat="45.11582" lon="4.96457">
        <ele>234.26499938965</ele>
        <time>2009-10-10T11:24:15Z</time>
      </trkpt>
      <trkpt lat="45.11579" lon="4.96478">
        <ele>233.48300170898</ele>
        <time>2009-10-10T11:24:20Z</time>
      </trkpt>
      <trkpt lat="45.11578" lon="4.96481">
        <ele>233.01499938965</ele>
        <time>2009-10-10T11:24:21Z</time>
      </trkpt>
      <trkpt lat="45.11582" lon="4.96504">
        <ele>232.34899902344</ele>
        <time>2009-10-10T11:24:25Z</time>
      </trkpt>
      <trkpt lat="45.11587" lon="4.96516">
        <ele>232.26499938965</ele>
        <time>2009-10-10T11:24:27Z</time>
      </trkpt>
      <trkpt lat="45.11591" lon="4.96517">
        <ele>233.15899658203</ele>
        <time>2009-10-10T11:24:30Z</time>
      </trkpt>
      <trkpt lat="45.11587" lon="4.96507">
        <ele>232.63499450684</ele>
        <time>2009-10-10T11:24:32Z</time>
      </trkpt>
      <trkpt lat="45.11583" lon="4.96463">
        <ele>233.20500183106</ele>
        <time>2009-10-10T11:24:37Z</time>
      </trkpt>
      <trkpt lat="45.11583" lon="4.96436">
        <ele>234.05000305176</ele>
        <time>2009-10-10T11:24:41Z</time>
      </trkpt>
      <trkpt lat="45.11581" lon="4.96434">
        <ele>233.84899902344</ele>
        <time>2009-10-10T11:24:43Z</time>
      </trkpt>
      <trkpt lat="45.1157" lon="4.96441">
        <ele>233.43400573731</ele>
        <time>2009-10-10T11:24:48Z</time>
      </trkpt>
      <trkpt lat="45.11563" lon="4.96423">
        <ele>233.43299865723</ele>
        <time>2009-10-10T11:24:52Z</time>
      </trkpt>
      <trkpt lat="45.11568" lon="4.96415">
        <ele>234.71000671387</ele>
        <time>2009-10-10T11:24:55Z</time>
      </trkpt>
      <trkpt lat="45.11569" lon="4.96416">
        <ele>234.28999328613</ele>
        <time>2009-10-10T11:24:58Z</time>
      </trkpt>
      <trkpt lat="45.11565" lon="4.96421">
        <ele>233.29299926758</ele>
        <time>2009-10-10T11:25:30Z</time>
      </trkpt>
      <trkpt lat="45.11564" lon="4.96424">
        <ele>233.15299987793</ele>
        <time>2009-10-10T11:25:32Z</time>
      </trkpt>
      <trkpt lat="45.11561" lon="4.96427">
        <ele>232.8869934082</ele>
        <time>2009-10-10T11:25:35Z</time>
      </trkpt>
      <trkpt lat="45.1156" lon="4.9644">
        <ele>231.74099731445</ele>
        <time>2009-10-10T11:25:39Z</time>
      </trkpt>
      <trkpt lat="45.11562" lon="4.96443">
        <ele>231.72200012207</ele>
        <time>2009-10-10T11:25:40Z</time>
      </trkpt>
      <trkpt lat="45.11572" lon="4.96447">
        <ele>232.14100646973</ele>
        <time>2009-10-10T11:25:45Z</time>
      </trkpt>
      <trkpt lat="45.11572" lon="4.96445">
        <ele>232.12699890137</ele>
        <time>2009-10-10T11:25:46Z</time>
      </trkpt>
      <trkpt lat="45.11576" lon="4.96452">
        <ele>232.14900207519</ele>
        <time>2009-10-10T11:25:52Z</time>
      </trkpt>
      <trkpt lat="45.11578" lon="4.96469">
        <ele>231.27600097656</ele>
        <time>2009-10-10T11:25:56Z</time>
      </trkpt>
      <trkpt lat="45.11577" lon="4.96475">
        <ele>231.11700439453</ele>
        <time>2009-10-10T11:25:57Z</time>
      </trkpt>
      <trkpt lat="45.11575" lon="4.96484">
        <ele>231.07600402832</ele>
        <time>2009-10-10T11:26:01Z</time>
      </trkpt>
      <trkpt lat="45.11578" lon="4.96493">
        <ele>230.0119934082</ele>
        <time>2009-10-10T11:26:05Z</time>
      </trkpt>
      <trkpt lat="45.11582" lon="4.96512">
        <ele>229.13900756836</ele>
        <time>2009-10-10T11:26:08Z</time>
      </trkpt>
      <trkpt lat="45.11599" lon="4.96561">
        <ele>229.76100158691</ele>
        <time>2009-10-10T11:26:15Z</time>
      </trkpt>
      <trkpt lat="45.11627" lon="4.96633">
        <ele>229.60499572754</ele>
        <time>2009-10-10T11:26:25Z</time>
      </trkpt>
      <trkpt lat="45.11655" lon="4.96707">
        <ele>229.56799316406</ele>
        <time>2009-10-10T11:26:35Z</time>
      </trkpt>
      <trkpt lat="45.1168" lon="4.96754">
        <ele>229.41299438477</ele>
        <time>2009-10-10T11:26:42Z</time>
      </trkpt>
      <trkpt lat="45.11706" lon="4.96794">
        <ele>230.71299743652</ele>
        <time>2009-10-10T11:26:48Z</time>
      </trkpt>
      <trkpt lat="45.11727" lon="4.96828">
        <ele>230.87100219727</ele>
        <time>2009-10-10T11:26:53Z</time>
      </trkpt>
      <trkpt lat="45.11741" lon="4.96868">
        <ele>230.80299377441</ele>
        <time>2009-10-10T11:26:58Z</time>
      </trkpt>
      <trkpt lat="45.11757" lon="4.9688">
        <ele>231.2559967041</ele>
        <time>2009-10-10T11:27:01Z</time>
      </trkpt>
      <trkpt lat="45.11767" lon="4.96892">
        <ele>231.20700073242</ele>
        <time>2009-10-10T11:27:03Z</time>
      </trkpt>
      <trkpt lat="45.11803" lon="4.9695">
        <ele>231.45300292969</ele>
        <time>2009-10-10T11:27:11Z</time>
      </trkpt>
      <trkpt lat="45.11842" lon="4.97006">
        <ele>230.59399414062</ele>
        <time>2009-10-10T11:27:19Z</time>
      </trkpt>
      <trkpt lat="45.11871" lon="4.97044">
        <ele>230.81300354004</ele>
        <time>2009-10-10T11:27:25Z</time>
      </trkpt>
      <trkpt lat="45.11881" lon="4.97077">
        <ele>230.91600036621</ele>
        <time>2009-10-10T11:27:29Z</time>
      </trkpt>
      <trkpt lat="45.11875" lon="4.97129">
        <ele>229.74000549316</ele>
        <time>2009-10-10T11:27:34Z</time>
      </trkpt>
      <trkpt lat="45.11881" lon="4.97194">
        <ele>228.31799316406</ele>
        <time>2009-10-10T11:27:40Z</time>
      </trkpt>
      <trkpt lat="45.11898" lon="4.97293">
        <ele>227.62699890137</ele>
        <time>2009-10-10T11:27:49Z</time>
      </trkpt>
      <trkpt lat="45.11908" lon="4.97353">
        <ele>227.48899841309</ele>
        <time>2009-10-10T11:27:55Z</time>
      </trkpt>
      <trkpt lat="45.11921" lon="4.97427">
        <ele>228.62199401856</ele>
        <time>2009-10-10T11:28:03Z</time>
      </trkpt>
      <trkpt lat="45.11937" lon="4.97518">
        <ele>229.50300598144</ele>
        <time>2009-10-10T11:28:13Z</time>
      </trkpt>
      <trkpt lat="45.11949" lon="4.97597">
        <ele>229.6309967041</ele>
        <time>2009-10-10T11:28:22Z</time>
      </trkpt>
      <trkpt lat="45.11959" lon="4.97648">
        <ele>230.4109954834</ele>
        <time>2009-10-10T11:28:28Z</time>
      </trkpt>
      <trkpt lat="45.11974" lon="4.97734">
        <ele>229.83700561523</ele>
        <time>2009-10-10T11:28:37Z</time>
      </trkpt>
      <trkpt lat="45.11991" lon="4.97834">
        <ele>230.46099853516</ele>
        <time>2009-10-10T11:28:48Z</time>
      </trkpt>
      <trkpt lat="45.12" lon="4.97889">
        <ele>230.74600219727</ele>
        <time>2009-10-10T11:28:54Z</time>
      </trkpt>
      <trkpt lat="45.12013" lon="4.97952">
        <ele>231.49600219727</ele>
        <time>2009-10-10T11:29:01Z</time>
      </trkpt>
      <trkpt lat="45.12037" lon="4.98032">
        <ele>232.27099609375</ele>
        <time>2009-10-10T11:29:10Z</time>
      </trkpt>
      <trkpt lat="45.12052" lon="4.98096">
        <ele>232.57800292969</ele>
        <time>2009-10-10T11:29:17Z</time>
      </trkpt>
      <trkpt lat="45.12062" lon="4.9816">
        <ele>233.32400512695</ele>
        <time>2009-10-10T11:29:24Z</time>
      </trkpt>
      <trkpt lat="45.12066" lon="4.98225">
        <ele>233.46600341797</ele>
        <time>2009-10-10T11:29:31Z</time>
      </trkpt>
      <trkpt lat="45.12061" lon="4.98293">
        <ele>233.11199951172</ele>
        <time>2009-10-10T11:29:38Z</time>
      </trkpt>
      <trkpt lat="45.12048" lon="4.98353">
        <ele>234.02400207519</ele>
        <time>2009-10-10T11:29:45Z</time>
      </trkpt>
      <trkpt lat="45.12042" lon="4.98376">
        <ele>233.89199829102</ele>
        <time>2009-10-10T11:29:48Z</time>
      </trkpt>
      <trkpt lat="45.12028" lon="4.98397">
        <ele>234.90400695801</ele>
        <time>2009-10-10T11:29:52Z</time>
      </trkpt>
      <trkpt lat="45.12009" lon="4.98393">
        <ele>233.62199401856</ele>
        <time>2009-10-10T11:29:55Z</time>
      </trkpt>
      <trkpt lat="45.11982" lon="4.98386">
        <ele>233.14399719238</ele>
        <time>2009-10-10T11:29:59Z</time>
      </trkpt>
      <trkpt lat="45.11972" lon="4.98399">
        <ele>232.90899658203</ele>
        <time>2009-10-10T11:30:01Z</time>
      </trkpt>
      <trkpt lat="45.11971" lon="4.98418">
        <ele>233.02000427246</ele>
        <time>2009-10-10T11:30:03Z</time>
      </trkpt>
      <trkpt lat="45.1198" lon="4.98435">
        <ele>233.14799499512</ele>
        <time>2009-10-10T11:30:06Z</time>
      </trkpt>
      <trkpt lat="45.11981" lon="4.98437">
        <ele>233.37800598144</ele>
        <time>2009-10-10T11:30:09Z</time>
      </trkpt>
      <trkpt lat="45.11983" lon="4.98437">
        <ele>233.18800354004</ele>
        <time>2009-10-10T11:30:21Z</time>
      </trkpt>
      <trkpt lat="45.11981" lon="4.98437">
        <ele>232.46899414062</ele>
        <time>2009-10-10T11:30:35Z</time>
      </trkpt>
      <trkpt lat="45.11983" lon="4.98438">
        <ele>232.55299377441</ele>
        <time>2009-10-10T11:30:53Z</time>
      </trkpt>
      <trkpt lat="45.11988" lon="4.9844">
        <ele>232.13299560547</ele>
        <time>2009-10-10T11:31:12Z</time>
      </trkpt>
      <trkpt lat="45.11988" lon="4.9844">
        <ele>231.8390045166</ele>
        <time>2009-10-10T11:31:29Z</time>
      </trkpt>
      <trkpt lat="45.11987" lon="4.98441">
        <ele>230.80999755859</ele>
        <time>2009-10-10T11:32:00Z</time>
      </trkpt>
      <trkpt lat="45.11988" lon="4.98441">
        <ele>230.87800598144</ele>
        <time>2009-10-10T11:32:13Z</time>
      </trkpt>
      <trkpt lat="45.11988" lon="4.98441">
        <ele>230.58500671387</ele>
        <time>2009-10-10T11:32:17Z</time>
      </trkpt>
      <trkpt lat="45.11988" lon="4.98441">
        <ele>230.47099304199</ele>
        <time>2009-10-10T11:32:21Z</time>
      </trkpt>
      <trkpt lat="45.11988" lon="4.98441">
        <ele>230.71000671387</ele>
        <time>2009-10-10T11:32:33Z</time>
      </trkpt>
      <trkpt lat="45.11987" lon="4.98441">
        <ele>229.89799499512</ele>
        <time>2009-10-10T11:33:03Z</time>
      </trkpt>
      <trkpt lat="45.11987" lon="4.98441">
        <ele>229.97599792481</ele>
        <time>2009-10-10T11:33:23Z</time>
      </trkpt>
      <trkpt lat="45.11987" lon="4.9844">
        <ele>229.49499511719</ele>
        <time>2009-10-10T11:33:31Z</time>
      </trkpt>
      <trkpt lat="45.11987" lon="4.9844">
        <ele>229.31599426269</ele>
        <time>2009-10-10T11:33:51Z</time>
      </trkpt>
      <trkpt lat="45.11987" lon="4.98438">
        <ele>228.60200500488</ele>
        <time>2009-10-10T11:34:06Z</time>
      </trkpt>
      <trkpt lat="45.11987" lon="4.98438">
        <ele>228.89500427246</ele>
        <time>2009-10-10T11:34:15Z</time>
      </trkpt>
      <trkpt lat="45.11985" lon="4.98439">
        <ele>228.26800537109</ele>
        <time>2009-10-10T11:34:43Z</time>
      </trkpt>
      <trkpt lat="45.11985" lon="4.98438">
        <ele>228.71600341797</ele>
        <time>2009-10-10T11:34:52Z</time>
      </trkpt>
      <trkpt lat="45.11986" lon="4.98439">
        <ele>228.21000671387</ele>
        <time>2009-10-10T11:35:05Z</time>
      </trkpt>
      <trkpt lat="45.11987" lon="4.98438">
        <ele>227.93200683594</ele>
        <time>2009-10-10T11:35:31Z</time>
      </trkpt>
      <trkpt lat="45.11986" lon="4.98438">
        <ele>227.98199462891</ele>
        <time>2009-10-10T11:35:38Z</time>
      </trkpt>
      <trkpt lat="45.11987" lon="4.98437">
        <ele>227.70500183106</ele>
        <time>2009-10-10T11:35:54Z</time>
      </trkpt>
      <trkpt lat="45.11987" lon="4.98436">
        <ele>227.61799621582</ele>
        <time>2009-10-10T11:36:00Z</time>
      </trkpt>
      <trkpt lat="45.11987" lon="4.98436">
        <ele>227.48100280762</ele>
        <time>2009-10-10T11:36:06Z</time>
      </trkpt>
      <trkpt lat="45.11986" lon="4.98436">
        <ele>227.54499816894</ele>
        <time>2009-10-10T11:36:39Z</time>
      </trkpt>
      <trkpt lat="45.11986" lon="4.98437">
        <ele>227.3869934082</ele>
        <time>2009-10-10T11:36:43Z</time>
      </trkpt>
      <trkpt lat="45.11985" lon="4.98436">
        <ele>227.06799316406</ele>
        <time>2009-10-10T11:37:06Z</time>
      </trkpt>
      <trkpt lat="45.11985" lon="4.98436">
        <ele>227.03199768066</ele>
        <time>2009-10-10T11:37:09Z</time>
      </trkpt>
      <trkpt lat="45.11985" lon="4.98436">
        <ele>226.9640045166</ele>
        <time>2009-10-10T11:37:12Z</time>
      </trkpt>
      <trkpt lat="45.11985" lon="4.98436">
        <ele>226.84800720215</ele>
        <time>2009-10-10T11:37:13Z</time>
      </trkpt>
      <trkpt lat="45.11983" lon="4.98437">
        <ele>226.20500183106</ele>
        <time>2009-10-10T11:38:08Z</time>
      </trkpt>
      <trkpt lat="45.11985" lon="4.98441">
        <ele>225.98599243164</ele>
        <time>2009-10-10T11:38:30Z</time>
      </trkpt>
      <trkpt lat="45.11985" lon="4.9844">
        <ele>224.38299560547</ele>
        <time>2009-10-10T11:38:39Z</time>
      </trkpt>
      <trkpt lat="45.11986" lon="4.9844">
        <ele>226.68299865723</ele>
        <time>2009-10-10T11:38:41Z</time>
      </trkpt>
      <trkpt lat="45.11986" lon="4.98439">
        <ele>226.62300109863</ele>
        <time>2009-10-10T11:38:45Z</time>
      </trkpt>
      <trkpt lat="45.11986" lon="4.98438">
        <ele>226.62899780273</ele>
        <time>2009-10-10T11:38:49Z</time>
      </trkpt>
      <trkpt lat="45.11986" lon="4.98439">
        <ele>225.23599243164</ele>
        <time>2009-10-10T11:39:06Z</time>
      </trkpt>
      <trkpt lat="45.11986" lon="4.98439">
        <ele>225.07800292969</ele>
        <time>2009-10-10T11:39:23Z</time>
      </trkpt>
      <trkpt lat="45.11985" lon="4.9844">
        <ele>224.97300720215</ele>
        <time>2009-10-10T11:39:28Z</time>
      </trkpt>
      <trkpt lat="45.11985" lon="4.9844">
        <ele>224.00399780273</ele>
        <time>2009-10-10T11:39:31Z</time>
      </trkpt>
      <trkpt lat="45.11985" lon="4.9844">
        <ele>224.80000305176</ele>
        <time>2009-10-10T11:39:47Z</time>
      </trkpt>
      <trkpt lat="45.11985" lon="4.98439">
        <ele>224.70100402832</ele>
        <time>2009-10-10T11:39:54Z</time>
      </trkpt>
      <trkpt lat="45.11985" lon="4.98439">
        <ele>224.68200683594</ele>
        <time>2009-10-10T11:39:56Z</time>
      </trkpt>
      <trkpt lat="45.11983" lon="4.98439">
        <ele>224.36999511719</ele>
        <time>2009-10-10T11:40:20Z</time>
      </trkpt>
      <trkpt lat="45.11983" lon="4.98438">
        <ele>224.22399902344</ele>
        <time>2009-10-10T11:40:27Z</time>
      </trkpt>
      <trkpt lat="45.11984" lon="4.98439">
        <ele>224.01300048828</ele>
        <time>2009-10-10T11:40:59Z</time>
      </trkpt>
      <trkpt lat="45.11984" lon="4.98439">
        <ele>223.62199401856</ele>
        <time>2009-10-10T11:41:28Z</time>
      </trkpt>
      <trkpt lat="45.11984" lon="4.98439">
        <ele>223.43299865723</ele>
        <time>2009-10-10T11:41:31Z</time>
      </trkpt>
      <trkpt lat="45.11984" lon="4.98437">
        <ele>223.23899841309</ele>
        <time>2009-10-10T11:41:43Z</time>
      </trkpt>
      <trkpt lat="45.11985" lon="4.9843">
        <ele>223.35699462891</ele>
        <time>2009-10-10T11:41:48Z</time>
      </trkpt>
      <trkpt lat="45.11983" lon="4.98414">
        <ele>223.21899414062</ele>
        <time>2009-10-10T11:41:54Z</time>
      </trkpt>
      <trkpt lat="45.11982" lon="4.98396">
        <ele>223.27799987793</ele>
        <time>2009-10-10T11:41:59Z</time>
      </trkpt>
      <trkpt lat="45.11983" lon="4.98392">
        <ele>223.13299560547</ele>
        <time>2009-10-10T11:42:00Z</time>
      </trkpt>
      <trkpt lat="45.11994" lon="4.9839">
        <ele>222.99499511719</ele>
        <time>2009-10-10T11:42:04Z</time>
      </trkpt>
      <trkpt lat="45.12008" lon="4.98397">
        <ele>222.77299499512</ele>
        <time>2009-10-10T11:42:09Z</time>
      </trkpt>
      <trkpt lat="45.12026" lon="4.98409">
        <ele>223.82200622559</ele>
        <time>2009-10-10T11:42:14Z</time>
      </trkpt>
      <trkpt lat="45.1203" lon="4.9842">
        <ele>224.08700561523</ele>
        <time>2009-10-10T11:42:17Z</time>
      </trkpt>
      <trkpt lat="45.12043" lon="4.98433">
        <ele>224.41299438477</ele>
        <time>2009-10-10T11:42:21Z</time>
      </trkpt>
      <trkpt lat="45.12053" lon="4.98425">
        <ele>224.31199645996</ele>
        <time>2009-10-10T11:42:24Z</time>
      </trkpt>
      <trkpt lat="45.12057" lon="4.98401">
        <ele>224.26100158691</ele>
        <time>2009-10-10T11:42:28Z</time>
      </trkpt>
      <trkpt lat="45.12056" lon="4.98394">
        <ele>224.26600646973</ele>
        <time>2009-10-10T11:42:29Z</time>
      </trkpt>
      <trkpt lat="45.12059" lon="4.98353">
        <ele>223.78900146484</ele>
        <time>2009-10-10T11:42:35Z</time>
      </trkpt>
      <trkpt lat="45.12069" lon="4.98277">
        <ele>222.94299316406</ele>
        <time>2009-10-10T11:42:44Z</time>
      </trkpt>
      <trkpt lat="45.12072" lon="4.98254">
        <ele>222.78399658203</ele>
        <time>2009-10-10T11:42:47Z</time>
      </trkpt>
      <trkpt lat="45.12074" lon="4.98197">
        <ele>222.39799499512</ele>
        <time>2009-10-10T11:42:54Z</time>
      </trkpt>
      <trkpt lat="45.12066" lon="4.98126">
        <ele>221.84100341797</ele>
        <time>2009-10-10T11:43:02Z</time>
      </trkpt>
      <trkpt lat="45.12053" lon="4.98061">
        <ele>221.20599365234</ele>
        <time>2009-10-10T11:43:09Z</time>
      </trkpt>
      <trkpt lat="45.1203" lon="4.97975">
        <ele>220.00500488281</ele>
        <time>2009-10-10T11:43:18Z</time>
      </trkpt>
      <trkpt lat="45.12011" lon="4.97898">
        <ele>219.35099792481</ele>
        <time>2009-10-10T11:43:26Z</time>
      </trkpt>
      <trkpt lat="45.11991" lon="4.97784">
        <ele>218.35899353027</ele>
        <time>2009-10-10T11:43:38Z</time>
      </trkpt>
      <trkpt lat="45.11975" lon="4.9769">
        <ele>217.77400207519</ele>
        <time>2009-10-10T11:43:48Z</time>
      </trkpt>
      <trkpt lat="45.11961" lon="4.97608">
        <ele>217.7200012207</ele>
        <time>2009-10-10T11:43:57Z</time>
      </trkpt>
      <trkpt lat="45.11958" lon="4.9759">
        <ele>217.81599426269</ele>
        <time>2009-10-10T11:43:59Z</time>
      </trkpt>
      <trkpt lat="45.11945" lon="4.97516">
        <ele>216.78799438477</ele>
        <time>2009-10-10T11:44:07Z</time>
      </trkpt>
      <trkpt lat="45.11927" lon="4.97411">
        <ele>215.44099426269</ele>
        <time>2009-10-10T11:44:18Z</time>
      </trkpt>
      <trkpt lat="45.11914" lon="4.97335">
        <ele>215.07200622559</ele>
        <time>2009-10-10T11:44:26Z</time>
      </trkpt>
      <trkpt lat="45.119" lon="4.97252">
        <ele>214.85099792481</ele>
        <time>2009-10-10T11:44:35Z</time>
      </trkpt>
      <trkpt lat="45.11889" lon="4.97191">
        <ele>215.10499572754</ele>
        <time>2009-10-10T11:44:42Z</time>
      </trkpt>
      <trkpt lat="45.11882" lon="4.97149">
        <ele>215.45399475098</ele>
        <time>2009-10-10T11:44:47Z</time>
      </trkpt>
      <trkpt lat="45.11882" lon="4.97124">
        <ele>215.55099487305</ele>
        <time>2009-10-10T11:44:50Z</time>
      </trkpt>
      <trkpt lat="45.11894" lon="4.97092">
        <ele>216.61500549316</ele>
        <time>2009-10-10T11:44:55Z</time>
      </trkpt>
      <trkpt lat="45.11906" lon="4.97069">
        <ele>217.25399780273</ele>
        <time>2009-10-10T11:44:59Z</time>
      </trkpt>
      <trkpt lat="45.11897" lon="4.97051">
        <ele>217.04899597168</ele>
        <time>2009-10-10T11:45:02Z</time>
      </trkpt>
      <trkpt lat="45.11881" lon="4.97041">
        <ele>216.76600646973</ele>
        <time>2009-10-10T11:45:05Z</time>
      </trkpt>
      <trkpt lat="45.11877" lon="4.97036">
        <ele>216.68899536133</ele>
        <time>2009-10-10T11:45:06Z</time>
      </trkpt>
      <trkpt lat="45.11845" lon="4.96996">
        <ele>216.26300048828</ele>
        <time>2009-10-10T11:45:13Z</time>
      </trkpt>
      <trkpt lat="45.11814" lon="4.96953">
        <ele>216.07200622559</ele>
        <time>2009-10-10T11:45:20Z</time>
      </trkpt>
      <trkpt lat="45.11786" lon="4.96908">
        <ele>216.0359954834</ele>
        <time>2009-10-10T11:45:27Z</time>
      </trkpt>
      <trkpt lat="45.11771" lon="4.96883">
        <ele>215.84300231934</ele>
        <time>2009-10-10T11:45:31Z</time>
      </trkpt>
      <trkpt lat="45.11766" lon="4.9685">
        <ele>215.93400573731</ele>
        <time>2009-10-10T11:45:35Z</time>
      </trkpt>
      <trkpt lat="45.11756" lon="4.96824">
        <ele>215.80999755859</ele>
        <time>2009-10-10T11:45:39Z</time>
      </trkpt>
      <trkpt lat="45.11734" lon="4.96812">
        <ele>215.5299987793</ele>
        <time>2009-10-10T11:45:43Z</time>
      </trkpt>
      <trkpt lat="45.11718" lon="4.96797">
        <ele>215.65199279785</ele>
        <time>2009-10-10T11:45:46Z</time>
      </trkpt>
      <trkpt lat="45.11684" lon="4.96742">
        <ele>214.76100158691</ele>
        <time>2009-10-10T11:45:54Z</time>
      </trkpt>
      <trkpt lat="45.11672" lon="4.9672">
        <ele>214.39700317383</ele>
        <time>2009-10-10T11:45:57Z</time>
      </trkpt>
      <trkpt lat="45.11648" lon="4.96663">
        <ele>213.67700195312</ele>
        <time>2009-10-10T11:46:04Z</time>
      </trkpt>
      <trkpt lat="45.11617" lon="4.96584">
        <ele>213.26499938965</ele>
        <time>2009-10-10T11:46:13Z</time>
      </trkpt>
      <trkpt lat="45.11594" lon="4.96526">
        <ele>213.3390045166</ele>
        <time>2009-10-10T11:46:20Z</time>
      </trkpt>
      <trkpt lat="45.11586" lon="4.96503">
        <ele>213.42799377441</ele>
        <time>2009-10-10T11:46:23Z</time>
      </trkpt>
      <trkpt lat="45.11583" lon="4.96467">
        <ele>213.875</ele>
        <time>2009-10-10T11:46:28Z</time>
      </trkpt>
      <trkpt lat="45.11584" lon="4.96455">
        <ele>214.42700195312</ele>
        <time>2009-10-10T11:46:30Z</time>
      </trkpt>
      <trkpt lat="45.11579" lon="4.96444">
        <ele>214.44599914551</ele>
        <time>2009-10-10T11:46:34Z</time>
      </trkpt>
      <trkpt lat="45.11578" lon="4.96444">
        <ele>214.66299438477</ele>
        <time>2009-10-10T11:46:40Z</time>
      </trkpt>
      <trkpt lat="45.11577" lon="4.96449">
        <ele>214.33700561523</ele>
        <time>2009-10-10T11:46:55Z</time>
      </trkpt>
      <trkpt lat="45.11572" lon="4.96454">
        <ele>214.24099731445</ele>
        <time>2009-10-10T11:47:00Z</time>
      </trkpt>
      <trkpt lat="45.11563" lon="4.96445">
        <ele>214.16400146484</ele>
        <time>2009-10-10T11:47:03Z</time>
      </trkpt>
      <trkpt lat="45.11562" lon="4.96439">
        <ele>213.86199951172</ele>
        <time>2009-10-10T11:47:04Z</time>
      </trkpt>
      <trkpt lat="45.1156" lon="4.96427">
        <ele>214.57400512695</ele>
        <time>2009-10-10T11:47:06Z</time>
      </trkpt>
      <trkpt lat="45.11565" lon="4.96424">
        <ele>214.83299255371</ele>
        <time>2009-10-10T11:47:10Z</time>
      </trkpt>
      <trkpt lat="45.11566" lon="4.96424">
        <ele>214.7619934082</ele>
        <time>2009-10-10T11:47:13Z</time>
      </trkpt>
      <trkpt lat="45.11566" lon="4.96424">
        <ele>214.77600097656</ele>
        <time>2009-10-10T11:47:16Z</time>
      </trkpt>
      <trkpt lat="45.11567" lon="4.96425">
        <ele>214.53100585938</ele>
        <time>2009-10-10T11:47:38Z</time>
      </trkpt>
      <trkpt lat="45.11567" lon="4.96425">
        <ele>214.58399963379</ele>
        <time>2009-10-10T11:47:39Z</time>
      </trkpt>
      <trkpt lat="45.11567" lon="4.96426">
        <ele>214.26499938965</ele>
        <time>2009-10-10T11:48:02Z</time>
      </trkpt>
      <trkpt lat="45.11567" lon="4.96426">
        <ele>214.35000610352</ele>
        <time>2009-10-10T11:48:03Z</time>
      </trkpt>
      <trkpt lat="45.11567" lon="4.96426">
        <ele>214.17500305176</ele>
        <time>2009-10-10T11:48:06Z</time>
      </trkpt>
      <trkpt lat="45.11567" lon="4.96426">
        <ele>214.24699401856</ele>
        <time>2009-10-10T11:48:07Z</time>
      </trkpt>
      <trkpt lat="45.11567" lon="4.96426">
        <ele>214.28500366211</ele>
        <time>2009-10-10T11:48:08Z</time>
      </trkpt>
      <trkpt lat="45.11567" lon="4.96426">
        <ele>214.33799743652</ele>
        <time>2009-10-10T11:48:12Z</time>
      </trkpt>
      <trkpt lat="45.11567" lon="4.96427">
        <ele>214.32899475098</ele>
        <time>2009-10-10T11:48:15Z</time>
      </trkpt>
      <trkpt lat="45.11562" lon="4.96434">
        <ele>213.63900756836</ele>
        <time>2009-10-10T11:48:21Z</time>
      </trkpt>
      <trkpt lat="45.11564" lon="4.96449">
        <ele>212.97599792481</ele>
        <time>2009-10-10T11:48:25Z</time>
      </trkpt>
      <trkpt lat="45.11572" lon="4.96454">
        <ele>213.26699829102</ele>
        <time>2009-10-10T11:48:28Z</time>
      </trkpt>
      <trkpt lat="45.11576" lon="4.9645">
        <ele>213.39100646973</ele>
        <time>2009-10-10T11:48:32Z</time>
      </trkpt>
      <trkpt lat="45.11581" lon="4.9645">
        <ele>213.3630065918</ele>
        <time>2009-10-10T11:48:39Z</time>
      </trkpt>
      <trkpt lat="45.11581" lon="4.96451">
        <ele>213.23300170898</ele>
        <time>2009-10-10T11:48:41Z</time>
      </trkpt>
      <trkpt lat="45.11581" lon="4.96451">
        <ele>212.74600219727</ele>
        <time>2009-10-10T11:48:42Z</time>
      </trkpt>
      <trkpt lat="45.11581" lon="4.96451">
        <ele>214.02200317383</ele>
        <time>2009-10-10T11:48:43Z</time>
      </trkpt>
      <trkpt lat="45.11581" lon="4.96453">
        <ele>213.10400390625</ele>
        <time>2009-10-10T11:48:46Z</time>
      </trkpt>
      <trkpt lat="45.11582" lon="4.96468">
        <ele>213.3809967041</ele>
        <time>2009-10-10T11:48:53Z</time>
      </trkpt>
      <trkpt lat="45.11581" lon="4.96475">
        <ele>212.38299560547</ele>
        <time>2009-10-10T11:48:55Z</time>
      </trkpt>
      <trkpt lat="45.11581" lon="4.96487">
        <ele>212.17199707031</ele>
        <time>2009-10-10T11:49:00Z</time>
      </trkpt>
      <trkpt lat="45.11576" lon="4.96486">
        <ele>212.05299377441</ele>
        <time>2009-10-10T11:49:05Z</time>
      </trkpt>
      <trkpt lat="45.11575" lon="4.96484">
        <ele>212.08799743652</ele>
        <time>2009-10-10T11:49:09Z</time>
      </trkpt>
      <trkpt lat="45.11568" lon="4.96471">
        <ele>211.86500549316</ele>
        <time>2009-10-10T11:49:15Z</time>
      </trkpt>
      <trkpt lat="45.11564" lon="4.96464">
        <ele>211.91900634766</ele>
        <time>2009-10-10T11:49:17Z</time>
      </trkpt>
      <trkpt lat="45.11562" lon="4.96461">
        <ele>212.02000427246</ele>
        <time>2009-10-10T11:49:18Z</time>
      </trkpt>
      <trkpt lat="45.11541" lon="4.96427">
        <ele>212.30999755859</ele>
        <time>2009-10-10T11:49:26Z</time>
      </trkpt>
      <trkpt lat="45.11517" lon="4.96389">
        <ele>212.53199768066</ele>
        <time>2009-10-10T11:49:34Z</time>
      </trkpt>
      <trkpt lat="45.11488" lon="4.96344">
        <ele>212.90400695801</ele>
        <time>2009-10-10T11:49:43Z</time>
      </trkpt>
      <trkpt lat="45.11454" lon="4.96291">
        <ele>213.98500061035</ele>
        <time>2009-10-10T11:49:53Z</time>
      </trkpt>
      <trkpt lat="45.11422" lon="4.96231">
        <ele>214.40800476074</ele>
        <time>2009-10-10T11:50:03Z</time>
      </trkpt>
      <trkpt lat="45.11393" lon="4.9617">
        <ele>213.60600280762</ele>
        <time>2009-10-10T11:50:12Z</time>
      </trkpt>
      <trkpt lat="45.11364" lon="4.96111">
        <ele>212.74299621582</ele>
        <time>2009-10-10T11:50:20Z</time>
      </trkpt>
      <trkpt lat="45.11332" lon="4.96054">
        <ele>212.13000488281</ele>
        <time>2009-10-10T11:50:28Z</time>
      </trkpt>
      <trkpt lat="45.11296" lon="4.9599">
        <ele>211.42199707031</ele>
        <time>2009-10-10T11:50:37Z</time>
      </trkpt>
      <trkpt lat="45.11288" lon="4.95975">
        <ele>211.11199951172</ele>
        <time>2009-10-10T11:50:39Z</time>
      </trkpt>
      <trkpt lat="45.11283" lon="4.95968">
        <ele>211.03999328613</ele>
        <time>2009-10-10T11:50:40Z</time>
      </trkpt>
      <trkpt lat="45.11252" lon="4.95917">
        <ele>210.34199523926</ele>
        <time>2009-10-10T11:50:47Z</time>
      </trkpt>
      <trkpt lat="45.11229" lon="4.95882">
        <ele>209.66499328613</ele>
        <time>2009-10-10T11:50:52Z</time>
      </trkpt>
      <trkpt lat="45.11174" lon="4.95803">
        <ele>209.42100524902</ele>
        <time>2009-10-10T11:51:04Z</time>
      </trkpt>
      <trkpt lat="45.11161" lon="4.95783">
        <ele>209.16999816894</ele>
        <time>2009-10-10T11:51:07Z</time>
      </trkpt>
      <trkpt lat="45.11153" lon="4.95768">
        <ele>209.34599304199</ele>
        <time>2009-10-10T11:51:09Z</time>
      </trkpt>
      <trkpt lat="45.11124" lon="4.9571">
        <ele>209.81900024414</ele>
        <time>2009-10-10T11:51:17Z</time>
      </trkpt>
      <trkpt lat="45.11116" lon="4.95696">
        <ele>209.80900573731</ele>
        <time>2009-10-10T11:51:19Z</time>
      </trkpt>
      <trkpt lat="45.11082" lon="4.95657">
        <ele>210.57699584961</ele>
        <time>2009-10-10T11:51:26Z</time>
      </trkpt>
      <trkpt lat="45.11045" lon="4.9562">
        <ele>210.68200683594</ele>
        <time>2009-10-10T11:51:33Z</time>
      </trkpt>
      <trkpt lat="45.11003" lon="4.95566">
        <ele>209.83999633789</ele>
        <time>2009-10-10T11:51:41Z</time>
      </trkpt>
      <trkpt lat="45.10975" lon="4.95508">
        <ele>208.70599365234</ele>
        <time>2009-10-10T11:51:48Z</time>
      </trkpt>
      <trkpt lat="45.10953" lon="4.9544">
        <ele>207.79200744629</ele>
        <time>2009-10-10T11:51:55Z</time>
      </trkpt>
      <trkpt lat="45.10935" lon="4.95363">
        <ele>207.42999267578</ele>
        <time>2009-10-10T11:52:03Z</time>
      </trkpt>
      <trkpt lat="45.10912" lon="4.95293">
        <ele>207.21000671387</ele>
        <time>2009-10-10T11:52:11Z</time>
      </trkpt>
      <trkpt lat="45.10889" lon="4.95228">
        <ele>208.30400085449</ele>
        <time>2009-10-10T11:52:19Z</time>
      </trkpt>
      <trkpt lat="45.10872" lon="4.95176">
        <ele>209.60099792481</ele>
        <time>2009-10-10T11:52:26Z</time>
      </trkpt>
      <trkpt lat="45.10857" lon="4.95114">
        <ele>212.16400146484</ele>
        <time>2009-10-10T11:52:35Z</time>
      </trkpt>
      <trkpt lat="45.10854" lon="4.95071">
        <ele>214.56300354004</ele>
        <time>2009-10-10T11:52:42Z</time>
      </trkpt>
      <trkpt lat="45.10855" lon="4.95032">
        <ele>216.75100708008</ele>
        <time>2009-10-10T11:52:49Z</time>
      </trkpt>
      <trkpt lat="45.1086" lon="4.94985">
        <ele>219.07400512695</ele>
        <time>2009-10-10T11:52:58Z</time>
      </trkpt>
      <trkpt lat="45.10862" lon="4.94949">
        <ele>220.86099243164</ele>
        <time>2009-10-10T11:53:05Z</time>
      </trkpt>
      <trkpt lat="45.10863" lon="4.94928">
        <ele>222.21600341797</ele>
        <time>2009-10-10T11:53:09Z</time>
      </trkpt>
      <trkpt lat="45.10865" lon="4.94901">
        <ele>223.27499389648</ele>
        <time>2009-10-10T11:53:14Z</time>
      </trkpt>
      <trkpt lat="45.10867" lon="4.94865">
        <ele>224.90600585938</ele>
        <time>2009-10-10T11:53:21Z</time>
      </trkpt>
      <trkpt lat="45.10875" lon="4.94838">
        <ele>225.77699279785</ele>
        <time>2009-10-10T11:53:27Z</time>
      </trkpt>
      <trkpt lat="45.1089" lon="4.94826">
        <ele>226.71299743652</ele>
        <time>2009-10-10T11:53:32Z</time>
      </trkpt>
      <trkpt lat="45.10923" lon="4.94816">
        <ele>227.14100646973</ele>
        <time>2009-10-10T11:53:40Z</time>
      </trkpt>
      <trkpt lat="45.10954" lon="4.94809">
        <ele>227.56599426269</ele>
        <time>2009-10-10T11:53:47Z</time>
      </trkpt>
      <trkpt lat="45.10995" lon="4.94798">
        <ele>228.02600097656</ele>
        <time>2009-10-10T11:53:56Z</time>
      </trkpt>
      <trkpt lat="45.11029" lon="4.94791">
        <ele>228.10400390625</ele>
        <time>2009-10-10T11:54:03Z</time>
      </trkpt>
      <trkpt lat="45.11077" lon="4.94779">
        <ele>229.28900146484</ele>
        <time>2009-10-10T11:54:13Z</time>
      </trkpt>
      <trkpt lat="45.11129" lon="4.94766">
        <ele>230.50199890137</ele>
        <time>2009-10-10T11:54:24Z</time>
      </trkpt>
      <trkpt lat="45.1117" lon="4.94756">
        <ele>232.07299804688</ele>
        <time>2009-10-10T11:54:33Z</time>
      </trkpt>
      <trkpt lat="45.11216" lon="4.94744">
        <ele>232.97300720215</ele>
        <time>2009-10-10T11:54:43Z</time>
      </trkpt>
      <trkpt lat="45.11259" lon="4.94742">
        <ele>234.93899536133</ele>
        <time>2009-10-10T11:54:52Z</time>
      </trkpt>
      <trkpt lat="45.11315" lon="4.94744">
        <ele>236.62699890137</ele>
        <time>2009-10-10T11:55:04Z</time>
      </trkpt>
      <trkpt lat="45.11362" lon="4.94742">
        <ele>237.56100463867</ele>
        <time>2009-10-10T11:55:14Z</time>
      </trkpt>
      <trkpt lat="45.11393" lon="4.94727">
        <ele>238.06100463867</ele>
        <time>2009-10-10T11:55:21Z</time>
      </trkpt>
      <trkpt lat="45.11427" lon="4.94707">
        <ele>238.59700012207</ele>
        <time>2009-10-10T11:55:29Z</time>
      </trkpt>
      <trkpt lat="45.11477" lon="4.94676">
        <ele>241.22099304199</ele>
        <time>2009-10-10T11:55:41Z</time>
      </trkpt>
      <trkpt lat="45.11509" lon="4.94654">
        <ele>242.1369934082</ele>
        <time>2009-10-10T11:55:49Z</time>
      </trkpt>
      <trkpt lat="45.11517" lon="4.94648">
        <ele>242.43400573731</ele>
        <time>2009-10-10T11:55:51Z</time>
      </trkpt>
      <trkpt lat="45.1153" lon="4.9464">
        <ele>242.48899841309</ele>
        <time>2009-10-10T11:55:54Z</time>
      </trkpt>
      <trkpt lat="45.11552" lon="4.94621">
        <ele>243.26899719238</ele>
        <time>2009-10-10T11:55:59Z</time>
      </trkpt>
      <trkpt lat="45.11557" lon="4.9461">
        <ele>243.18299865723</ele>
        <time>2009-10-10T11:56:01Z</time>
      </trkpt>
      <trkpt lat="45.11562" lon="4.94579">
        <ele>242.93099975586</ele>
        <time>2009-10-10T11:56:07Z</time>
      </trkpt>
      <trkpt lat="45.11562" lon="4.94573">
        <ele>243.07699584961</ele>
        <time>2009-10-10T11:56:08Z</time>
      </trkpt>
      <trkpt lat="45.11562" lon="4.94549">
        <ele>242.68800354004</ele>
        <time>2009-10-10T11:56:12Z</time>
      </trkpt>
      <trkpt lat="45.11564" lon="4.94537">
        <ele>242.60200500488</ele>
        <time>2009-10-10T11:56:14Z</time>
      </trkpt>
      <trkpt lat="45.11567" lon="4.94525">
        <ele>242.50500488281</ele>
        <time>2009-10-10T11:56:16Z</time>
      </trkpt>
      <trkpt lat="45.11586" lon="4.94493">
        <ele>240.43800354004</ele>
        <time>2009-10-10T11:56:22Z</time>
      </trkpt>
      <trkpt lat="45.11597" lon="4.94476">
        <ele>239.30400085449</ele>
        <time>2009-10-10T11:56:25Z</time>
      </trkpt>
      <trkpt lat="45.11602" lon="4.9447">
        <ele>238.7559967041</ele>
        <time>2009-10-10T11:56:26Z</time>
      </trkpt>
      <trkpt lat="45.11607" lon="4.94463">
        <ele>238.02200317383</ele>
        <time>2009-10-10T11:56:27Z</time>
      </trkpt>
      <trkpt lat="45.11618" lon="4.94452">
        <ele>237.36700439453</ele>
        <time>2009-10-10T11:56:29Z</time>
      </trkpt>
      <trkpt lat="45.11628" lon="4.94444">
        <ele>235.69299316406</ele>
        <time>2009-10-10T11:56:31Z</time>
      </trkpt>
      <trkpt lat="45.11654" lon="4.94438">
        <ele>234.17900085449</ele>
        <time>2009-10-10T11:56:34Z</time>
      </trkpt>
      <trkpt lat="45.1168" lon="4.94425">
        <ele>232.30700683594</ele>
        <time>2009-10-10T11:56:38Z</time>
      </trkpt>
      <trkpt lat="45.11715" lon="4.94419">
        <ele>229.75300598144</ele>
        <time>2009-10-10T11:56:42Z</time>
      </trkpt>
      <trkpt lat="45.11723" lon="4.94414">
        <ele>229.72999572754</ele>
        <time>2009-10-10T11:56:43Z</time>
      </trkpt>
      <trkpt lat="45.1175" lon="4.94389">
        <ele>228.31599426269</ele>
        <time>2009-10-10T11:56:47Z</time>
      </trkpt>
      <trkpt lat="45.11786" lon="4.94326">
        <ele>227.84599304199</ele>
        <time>2009-10-10T11:56:54Z</time>
      </trkpt>
      <trkpt lat="45.11793" lon="4.94281">
        <ele>227.76699829102</ele>
        <time>2009-10-10T11:56:59Z</time>
      </trkpt>
      <trkpt lat="45.11793" lon="4.94248">
        <ele>227.8390045166</ele>
        <time>2009-10-10T11:57:03Z</time>
      </trkpt>
      <trkpt lat="45.11793" lon="4.94239">
        <ele>227.80499267578</ele>
        <time>2009-10-10T11:57:04Z</time>
      </trkpt>
      <trkpt lat="45.1179" lon="4.94221">
        <ele>227.82000732422</ele>
        <time>2009-10-10T11:57:06Z</time>
      </trkpt>
      <trkpt lat="45.11793" lon="4.94167">
        <ele>229.08599853516</ele>
        <time>2009-10-10T11:57:12Z</time>
      </trkpt>
      <trkpt lat="45.11805" lon="4.94115">
        <ele>229.47900390625</ele>
        <time>2009-10-10T11:57:18Z</time>
      </trkpt>
      <trkpt lat="45.11815" lon="4.94067">
        <ele>229.18099975586</ele>
        <time>2009-10-10T11:57:23Z</time>
      </trkpt>
      <trkpt lat="45.1184" lon="4.93956">
        <ele>229.46800231934</ele>
        <time>2009-10-10T11:57:35Z</time>
      </trkpt>
      <trkpt lat="45.11855" lon="4.93913">
        <ele>229.89199829102</ele>
        <time>2009-10-10T11:57:40Z</time>
      </trkpt>
      <trkpt lat="45.11886" lon="4.93869">
        <ele>231.22399902344</ele>
        <time>2009-10-10T11:57:47Z</time>
      </trkpt>
      <trkpt lat="45.11917" lon="4.93826">
        <ele>232.46899414062</ele>
        <time>2009-10-10T11:57:55Z</time>
      </trkpt>
      <trkpt lat="45.11948" lon="4.93786">
        <ele>233.84599304199</ele>
        <time>2009-10-10T11:58:03Z</time>
      </trkpt>
      <trkpt lat="45.11975" lon="4.93744">
        <ele>235.12199401856</ele>
        <time>2009-10-10T11:58:11Z</time>
      </trkpt>
      <trkpt lat="45.11985" lon="4.93718">
        <ele>235.59300231934</ele>
        <time>2009-10-10T11:58:15Z</time>
      </trkpt>
      <trkpt lat="45.1202" lon="4.93654">
        <ele>236.36099243164</ele>
        <time>2009-10-10T11:58:25Z</time>
      </trkpt>
      <trkpt lat="45.12046" lon="4.93623">
        <ele>235.49600219727</ele>
        <time>2009-10-10T11:58:31Z</time>
      </trkpt>
      <trkpt lat="45.12083" lon="4.93589">
        <ele>234.65100097656</ele>
        <time>2009-10-10T11:58:38Z</time>
      </trkpt>
      <trkpt lat="45.12106" lon="4.93567">
        <ele>233.28700256348</ele>
        <time>2009-10-10T11:58:42Z</time>
      </trkpt>
      <trkpt lat="45.12148" lon="4.93529">
        <ele>232.70700073242</ele>
        <time>2009-10-10T11:58:49Z</time>
      </trkpt>
      <trkpt lat="45.12172" lon="4.93504">
        <ele>232.17599487305</ele>
        <time>2009-10-10T11:58:53Z</time>
      </trkpt>
      <trkpt lat="45.12198" lon="4.93464">
        <ele>231.03500366211</ele>
        <time>2009-10-10T11:58:58Z</time>
      </trkpt>
      <trkpt lat="45.12231" lon="4.93402">
        <ele>230.12600708008</ele>
        <time>2009-10-10T11:59:05Z</time>
      </trkpt>
      <trkpt lat="45.12282" lon="4.93299">
        <ele>230.0059967041</ele>
        <time>2009-10-10T11:59:17Z</time>
      </trkpt>
      <trkpt lat="45.12313" lon="4.93228">
        <ele>230.46600341797</ele>
        <time>2009-10-10T11:59:25Z</time>
      </trkpt>
      <trkpt lat="45.12316" lon="4.93219">
        <ele>230.57200622559</ele>
        <time>2009-10-10T11:59:26Z</time>
      </trkpt>
      <trkpt lat="45.12342" lon="4.93153">
        <ele>230.63800048828</ele>
        <time>2009-10-10T11:59:34Z</time>
      </trkpt>
      <trkpt lat="45.1237" lon="4.93083">
        <ele>231.70500183106</ele>
        <time>2009-10-10T11:59:43Z</time>
      </trkpt>
      <trkpt lat="45.12399" lon="4.9302">
        <ele>233.30999755859</ele>
        <time>2009-10-10T11:59:52Z</time>
      </trkpt>
      <trkpt lat="45.12421" lon="4.92984">
        <ele>234.19400024414</ele>
        <time>2009-10-10T11:59:58Z</time>
      </trkpt>
      <trkpt lat="45.12445" lon="4.92948">
        <ele>235.69799804688</ele>
        <time>2009-10-10T12:00:04Z</time>
      </trkpt>
      <trkpt lat="45.12463" lon="4.92917">
        <ele>236.50100708008</ele>
        <time>2009-10-10T12:00:09Z</time>
      </trkpt>
      <trkpt lat="45.12466" lon="4.9291">
        <ele>236.85299682617</ele>
        <time>2009-10-10T12:00:10Z</time>
      </trkpt>
      <trkpt lat="45.12483" lon="4.92858">
        <ele>236.76499938965</ele>
        <time>2009-10-10T12:00:17Z</time>
      </trkpt>
      <trkpt lat="45.12486" lon="4.92842">
        <ele>236.94400024414</ele>
        <time>2009-10-10T12:00:19Z</time>
      </trkpt>
      <trkpt lat="45.12497" lon="4.92802">
        <ele>236.70100402832</ele>
        <time>2009-10-10T12:00:24Z</time>
      </trkpt>
      <trkpt lat="45.12506" lon="4.92788">
        <ele>236.50500488281</ele>
        <time>2009-10-10T12:00:26Z</time>
      </trkpt>
      <trkpt lat="45.12543" lon="4.92744">
        <ele>234.59700012207</ele>
        <time>2009-10-10T12:00:33Z</time>
      </trkpt>
      <trkpt lat="45.12584" lon="4.92701">
        <ele>232.66499328613</ele>
        <time>2009-10-10T12:00:40Z</time>
      </trkpt>
      <trkpt lat="45.12626" lon="4.92657">
        <ele>232.47399902344</ele>
        <time>2009-10-10T12:00:47Z</time>
      </trkpt>
      <trkpt lat="45.12645" lon="4.92637">
        <ele>231.89700317383</ele>
        <time>2009-10-10T12:00:50Z</time>
      </trkpt>
      <trkpt lat="45.12651" lon="4.92631">
        <ele>231.29100036621</ele>
        <time>2009-10-10T12:00:51Z</time>
      </trkpt>
      <trkpt lat="45.12707" lon="4.92572">
        <ele>230.59300231934</ele>
        <time>2009-10-10T12:01:00Z</time>
      </trkpt>
      <trkpt lat="45.12769" lon="4.92506">
        <ele>229.32899475098</ele>
        <time>2009-10-10T12:01:10Z</time>
      </trkpt>
      <trkpt lat="45.12819" lon="4.92455">
        <ele>228.82299804688</ele>
        <time>2009-10-10T12:01:18Z</time>
      </trkpt>
      <trkpt lat="45.12873" lon="4.92404">
        <ele>229.38200378418</ele>
        <time>2009-10-10T12:01:27Z</time>
      </trkpt>
      <trkpt lat="45.12925" lon="4.92355">
        <ele>229.98500061035</ele>
        <time>2009-10-10T12:01:36Z</time>
      </trkpt>
      <trkpt lat="45.1297" lon="4.92313">
        <ele>231.49600219727</ele>
        <time>2009-10-10T12:01:44Z</time>
      </trkpt>
      <trkpt lat="45.13002" lon="4.92288">
        <ele>232.54499816894</ele>
        <time>2009-10-10T12:01:50Z</time>
      </trkpt>
      <trkpt lat="45.13042" lon="4.9227">
        <ele>232.25999450684</ele>
        <time>2009-10-10T12:01:57Z</time>
      </trkpt>
      <trkpt lat="45.131" lon="4.92256">
        <ele>233.63000488281</ele>
        <time>2009-10-10T12:02:07Z</time>
      </trkpt>
      <trkpt lat="45.1316" lon="4.92246">
        <ele>234.4940032959</ele>
        <time>2009-10-10T12:02:17Z</time>
      </trkpt>
      <trkpt lat="45.13209" lon="4.92244">
        <ele>235.3690032959</ele>
        <time>2009-10-10T12:02:25Z</time>
      </trkpt>
      <trkpt lat="45.13249" lon="4.92243">
        <ele>235.95599365234</ele>
        <time>2009-10-10T12:02:32Z</time>
      </trkpt>
      <trkpt lat="45.13293" lon="4.92243">
        <ele>236.96299743652</ele>
        <time>2009-10-10T12:02:40Z</time>
      </trkpt>
      <trkpt lat="45.13319" lon="4.92239">
        <ele>237.4109954834</ele>
        <time>2009-10-10T12:02:45Z</time>
      </trkpt>
      <trkpt lat="45.13335" lon="4.92234">
        <ele>237.64999389648</ele>
        <time>2009-10-10T12:02:48Z</time>
      </trkpt>
      <trkpt lat="45.13371" lon="4.92214">
        <ele>238.52000427246</ele>
        <time>2009-10-10T12:02:55Z</time>
      </trkpt>
      <trkpt lat="45.13409" lon="4.9218">
        <ele>239.41000366211</ele>
        <time>2009-10-10T12:03:03Z</time>
      </trkpt>
      <trkpt lat="45.13448" lon="4.92144">
        <ele>240.06799316406</ele>
        <time>2009-10-10T12:03:12Z</time>
      </trkpt>
      <trkpt lat="45.13496" lon="4.92101">
        <ele>240.90800476074</ele>
        <time>2009-10-10T12:03:22Z</time>
      </trkpt>
      <trkpt lat="45.13543" lon="4.92068">
        <ele>241.51899719238</ele>
        <time>2009-10-10T12:03:31Z</time>
      </trkpt>
      <trkpt lat="45.13588" lon="4.92048">
        <ele>241.17700195312</ele>
        <time>2009-10-10T12:03:39Z</time>
      </trkpt>
      <trkpt lat="45.13648" lon="4.92026">
        <ele>242.24099731445</ele>
        <time>2009-10-10T12:03:49Z</time>
      </trkpt>
      <trkpt lat="45.13684" lon="4.92013">
        <ele>242.38400268555</ele>
        <time>2009-10-10T12:03:55Z</time>
      </trkpt>
      <trkpt lat="45.13745" lon="4.91989">
        <ele>241.83299255371</ele>
        <time>2009-10-10T12:04:05Z</time>
      </trkpt>
      <trkpt lat="45.13795" lon="4.9197">
        <ele>241.03500366211</ele>
        <time>2009-10-10T12:04:13Z</time>
      </trkpt>
      <trkpt lat="45.13845" lon="4.91951">
        <ele>240.40800476074</ele>
        <time>2009-10-10T12:04:21Z</time>
      </trkpt>
      <trkpt lat="45.13863" lon="4.91943">
        <ele>240.29800415039</ele>
        <time>2009-10-10T12:04:24Z</time>
      </trkpt>
      <trkpt lat="45.13869" lon="4.91939">
        <ele>240.19900512695</ele>
        <time>2009-10-10T12:04:25Z</time>
      </trkpt>
      <trkpt lat="45.13908" lon="4.91918">
        <ele>239.58999633789</ele>
        <time>2009-10-10T12:04:31Z</time>
      </trkpt>
      <trkpt lat="45.13935" lon="4.91897">
        <ele>239.34800720215</ele>
        <time>2009-10-10T12:04:36Z</time>
      </trkpt>
      <trkpt lat="45.1395" lon="4.91883">
        <ele>239.06599426269</ele>
        <time>2009-10-10T12:04:39Z</time>
      </trkpt>
      <trkpt lat="45.13987" lon="4.91841">
        <ele>238.27900695801</ele>
        <time>2009-10-10T12:04:46Z</time>
      </trkpt>
      <trkpt lat="45.14025" lon="4.91781">
        <ele>237.93899536133</ele>
        <time>2009-10-10T12:04:54Z</time>
      </trkpt>
      <trkpt lat="45.14047" lon="4.91739">
        <ele>237.2380065918</ele>
        <time>2009-10-10T12:04:59Z</time>
      </trkpt>
      <trkpt lat="45.14082" lon="4.91674">
        <ele>236.13600158691</ele>
        <time>2009-10-10T12:05:07Z</time>
      </trkpt>
      <trkpt lat="45.14094" lon="4.91651">
        <ele>235.98899841309</ele>
        <time>2009-10-10T12:05:10Z</time>
      </trkpt>
      <trkpt lat="45.14101" lon="4.91635">
        <ele>235.8450012207</ele>
        <time>2009-10-10T12:05:12Z</time>
      </trkpt>
      <trkpt lat="45.14142" lon="4.91557">
        <ele>235.08000183106</ele>
        <time>2009-10-10T12:05:22Z</time>
      </trkpt>
      <trkpt lat="45.14165" lon="4.91514">
        <ele>234.78999328613</ele>
        <time>2009-10-10T12:05:28Z</time>
      </trkpt>
      <trkpt lat="45.1419" lon="4.91468">
        <ele>234.40100097656</ele>
        <time>2009-10-10T12:05:34Z</time>
      </trkpt>
      <trkpt lat="45.14218" lon="4.91435">
        <ele>233.7380065918</ele>
        <time>2009-10-10T12:05:39Z</time>
      </trkpt>
      <trkpt lat="45.14261" lon="4.91414">
        <ele>233.42100524902</ele>
        <time>2009-10-10T12:05:45Z</time>
      </trkpt>
      <trkpt lat="45.14316" lon="4.91407">
        <ele>232.39399719238</ele>
        <time>2009-10-10T12:05:52Z</time>
      </trkpt>
      <trkpt lat="45.14354" lon="4.91401">
        <ele>232.36000061035</ele>
        <time>2009-10-10T12:05:57Z</time>
      </trkpt>
      <trkpt lat="45.14394" lon="4.91394">
        <ele>231.73399353027</ele>
        <time>2009-10-10T12:06:03Z</time>
      </trkpt>
      <trkpt lat="45.14455" lon="4.91383">
        <ele>231.04499816894</ele>
        <time>2009-10-10T12:06:12Z</time>
      </trkpt>
      <trkpt lat="45.14527" lon="4.9137">
        <ele>230.8450012207</ele>
        <time>2009-10-10T12:06:23Z</time>
      </trkpt>
      <trkpt lat="45.14584" lon="4.91359">
        <ele>231.48699951172</ele>
        <time>2009-10-10T12:06:32Z</time>
      </trkpt>
      <trkpt lat="45.14626" lon="4.91349">
        <ele>231.44200134277</ele>
        <time>2009-10-10T12:06:39Z</time>
      </trkpt>
      <trkpt lat="45.14656" lon="4.91337">
        <ele>232.72999572754</ele>
        <time>2009-10-10T12:06:44Z</time>
      </trkpt>
      <trkpt lat="45.14697" lon="4.91319">
        <ele>232.72700500488</ele>
        <time>2009-10-10T12:06:51Z</time>
      </trkpt>
      <trkpt lat="45.14741" lon="4.91297">
        <ele>232.82299804688</ele>
        <time>2009-10-10T12:06:59Z</time>
      </trkpt>
      <trkpt lat="45.14784" lon="4.91278">
        <ele>232.79899597168</ele>
        <time>2009-10-10T12:07:07Z</time>
      </trkpt>
      <trkpt lat="45.14808" lon="4.91269">
        <ele>235.00700378418</ele>
        <time>2009-10-10T12:07:11Z</time>
      </trkpt>
      <trkpt lat="45.14849" lon="4.91259">
        <ele>235.25399780273</ele>
        <time>2009-10-10T12:07:18Z</time>
      </trkpt>
      <trkpt lat="45.14908" lon="4.91249">
        <ele>236.54600524902</ele>
        <time>2009-10-10T12:07:28Z</time>
      </trkpt>
      <trkpt lat="45.14964" lon="4.91238">
        <ele>237.40400695801</ele>
        <time>2009-10-10T12:07:38Z</time>
      </trkpt>
      <trkpt lat="45.15031" lon="4.91226">
        <ele>238.66799926758</ele>
        <time>2009-10-10T12:07:50Z</time>
      </trkpt>
      <trkpt lat="45.15084" lon="4.91216">
        <ele>240.23500061035</ele>
        <time>2009-10-10T12:08:00Z</time>
      </trkpt>
      <trkpt lat="45.15128" lon="4.91208">
        <ele>241.66600036621</ele>
        <time>2009-10-10T12:08:09Z</time>
      </trkpt>
      <trkpt lat="45.15173" lon="4.91199">
        <ele>243.63299560547</ele>
        <time>2009-10-10T12:08:18Z</time>
      </trkpt>
      <trkpt lat="45.1521" lon="4.91193">
        <ele>244.77900695801</ele>
        <time>2009-10-10T12:08:26Z</time>
      </trkpt>
      <trkpt lat="45.15218" lon="4.91193">
        <ele>245.30499267578</ele>
        <time>2009-10-10T12:08:28Z</time>
      </trkpt>
      <trkpt lat="45.15247" lon="4.91209">
        <ele>246.05599975586</ele>
        <time>2009-10-10T12:08:34Z</time>
      </trkpt>
      <trkpt lat="45.15251" lon="4.91212">
        <ele>245.99899291992</ele>
        <time>2009-10-10T12:08:35Z</time>
      </trkpt>
      <trkpt lat="45.15296" lon="4.91237">
        <ele>246.80099487305</ele>
        <time>2009-10-10T12:08:44Z</time>
      </trkpt>
      <trkpt lat="45.15334" lon="4.91258">
        <ele>248.03799438477</ele>
        <time>2009-10-10T12:08:52Z</time>
      </trkpt>
      <trkpt lat="45.15357" lon="4.91275">
        <ele>248.29400634766</ele>
        <time>2009-10-10T12:08:57Z</time>
      </trkpt>
      <trkpt lat="45.15366" lon="4.91284">
        <ele>248.38600158691</ele>
        <time>2009-10-10T12:08:59Z</time>
      </trkpt>
      <trkpt lat="45.15393" lon="4.91326">
        <ele>249.04100036621</ele>
        <time>2009-10-10T12:09:07Z</time>
      </trkpt>
      <trkpt lat="45.154" lon="4.91357">
        <ele>248.82299804688</ele>
        <time>2009-10-10T12:09:12Z</time>
      </trkpt>
      <trkpt lat="45.15409" lon="4.91387">
        <ele>249.57600402832</ele>
        <time>2009-10-10T12:09:17Z</time>
      </trkpt>
      <trkpt lat="45.15412" lon="4.91406">
        <ele>248.37800598144</ele>
        <time>2009-10-10T12:09:20Z</time>
      </trkpt>
      <trkpt lat="45.15422" lon="4.9143">
        <ele>249.03700256348</ele>
        <time>2009-10-10T12:09:24Z</time>
      </trkpt>
      <trkpt lat="45.15435" lon="4.91431">
        <ele>249.60899353027</ele>
        <time>2009-10-10T12:09:27Z</time>
      </trkpt>
      <trkpt lat="45.15444" lon="4.91419">
        <ele>250.16000366211</ele>
        <time>2009-10-10T12:09:30Z</time>
      </trkpt>
      <trkpt lat="45.15448" lon="4.91398">
        <ele>251.10499572754</ele>
        <time>2009-10-10T12:09:34Z</time>
      </trkpt>
      <trkpt lat="45.15454" lon="4.91387">
        <ele>251.26400756836</ele>
        <time>2009-10-10T12:09:37Z</time>
      </trkpt>
      <trkpt lat="45.15461" lon="4.91377">
        <ele>251.94700622559</ele>
        <time>2009-10-10T12:09:40Z</time>
      </trkpt>
      <trkpt lat="45.15486" lon="4.91344">
        <ele>253.52900695801</ele>
        <time>2009-10-10T12:09:47Z</time>
      </trkpt>
      <trkpt lat="45.15493" lon="4.91334">
        <ele>253.96000671387</ele>
        <time>2009-10-10T12:09:49Z</time>
      </trkpt>
      <trkpt lat="45.15529" lon="4.91287">
        <ele>255.37300109863</ele>
        <time>2009-10-10T12:09:58Z</time>
      </trkpt>
      <trkpt lat="45.15572" lon="4.91239">
        <ele>256.30700683594</ele>
        <time>2009-10-10T12:10:08Z</time>
      </trkpt>
      <trkpt lat="45.15576" lon="4.91234">
        <ele>256.54400634766</ele>
        <time>2009-10-10T12:10:09Z</time>
      </trkpt>
      <trkpt lat="45.15601" lon="4.91203">
        <ele>255.26699829102</ele>
        <time>2009-10-10T12:10:14Z</time>
      </trkpt>
      <trkpt lat="45.15636" lon="4.91174">
        <ele>253.07400512695</ele>
        <time>2009-10-10T12:10:19Z</time>
      </trkpt>
      <trkpt lat="45.15698" lon="4.91129">
        <ele>251.05400085449</ele>
        <time>2009-10-10T12:10:27Z</time>
      </trkpt>
      <trkpt lat="45.15741" lon="4.91098">
        <ele>249.38299560547</ele>
        <time>2009-10-10T12:10:34Z</time>
      </trkpt>
      <trkpt lat="45.15759" lon="4.91086">
        <ele>247.96299743652</ele>
        <time>2009-10-10T12:10:37Z</time>
      </trkpt>
      <trkpt lat="45.15801" lon="4.91057">
        <ele>246.37600708008</ele>
        <time>2009-10-10T12:10:44Z</time>
      </trkpt>
      <trkpt lat="45.15831" lon="4.91039">
        <ele>245.90199279785</ele>
        <time>2009-10-10T12:10:49Z</time>
      </trkpt>
      <trkpt lat="45.15873" lon="4.91012">
        <ele>244.70700073242</ele>
        <time>2009-10-10T12:10:56Z</time>
      </trkpt>
      <trkpt lat="45.15884" lon="4.91004">
        <ele>244.13800048828</ele>
        <time>2009-10-10T12:10:58Z</time>
      </trkpt>
      <trkpt lat="45.1592" lon="4.90971">
        <ele>242.97799682617</ele>
        <time>2009-10-10T12:11:04Z</time>
      </trkpt>
      <trkpt lat="45.15953" lon="4.9092">
        <ele>241.17100524902</ele>
        <time>2009-10-10T12:11:11Z</time>
      </trkpt>
      <trkpt lat="45.15966" lon="4.90895">
        <ele>239.92500305176</ele>
        <time>2009-10-10T12:11:14Z</time>
      </trkpt>
      <trkpt lat="45.15986" lon="4.90839">
        <ele>239.35400390625</ele>
        <time>2009-10-10T12:11:20Z</time>
      </trkpt>
      <trkpt lat="45.15998" lon="4.90808">
        <ele>238.57800292969</ele>
        <time>2009-10-10T12:11:23Z</time>
      </trkpt>
      <trkpt lat="45.16029" lon="4.90723">
        <ele>236.32000732422</ele>
        <time>2009-10-10T12:11:31Z</time>
      </trkpt>
      <trkpt lat="45.16062" lon="4.9063">
        <ele>235.49099731445</ele>
        <time>2009-10-10T12:11:40Z</time>
      </trkpt>
      <trkpt lat="45.16079" lon="4.90567">
        <ele>233.44299316406</ele>
        <time>2009-10-10T12:11:46Z</time>
      </trkpt>
      <trkpt lat="45.16098" lon="4.90509">
        <ele>231.11399841309</ele>
        <time>2009-10-10T12:11:51Z</time>
      </trkpt>
      <trkpt lat="45.16134" lon="4.90432">
        <ele>229.18699645996</ele>
        <time>2009-10-10T12:11:58Z</time>
      </trkpt>
      <trkpt lat="45.1615" lon="4.904">
        <ele>227.52400207519</ele>
        <time>2009-10-10T12:12:01Z</time>
      </trkpt>
      <trkpt lat="45.16159" lon="4.90379">
        <ele>227.34700012207</ele>
        <time>2009-10-10T12:12:03Z</time>
      </trkpt>
      <trkpt lat="45.16164" lon="4.90369">
        <ele>227.10800170898</ele>
        <time>2009-10-10T12:12:04Z</time>
      </trkpt>
      <trkpt lat="45.16193" lon="4.90308">
        <ele>225.71499633789</ele>
        <time>2009-10-10T12:12:10Z</time>
      </trkpt>
      <trkpt lat="45.16232" lon="4.90226">
        <ele>223.80599975586</ele>
        <time>2009-10-10T12:12:18Z</time>
      </trkpt>
      <trkpt lat="45.16279" lon="4.90147">
        <ele>221.86599731445</ele>
        <time>2009-10-10T12:12:26Z</time>
      </trkpt>
      <trkpt lat="45.16328" lon="4.90072">
        <ele>220.49200439453</ele>
        <time>2009-10-10T12:12:34Z</time>
      </trkpt>
      <trkpt lat="45.16367" lon="4.90005">
        <ele>221.4640045166</ele>
        <time>2009-10-10T12:12:41Z</time>
      </trkpt>
      <trkpt lat="45.16395" lon="4.89934">
        <ele>221.64500427246</ele>
        <time>2009-10-10T12:12:48Z</time>
      </trkpt>
      <trkpt lat="45.16423" lon="4.89862">
        <ele>220.0119934082</ele>
        <time>2009-10-10T12:12:55Z</time>
      </trkpt>
      <trkpt lat="45.16432" lon="4.8984">
        <ele>219.18299865723</ele>
        <time>2009-10-10T12:12:57Z</time>
      </trkpt>
      <trkpt lat="45.16454" lon="4.89766">
        <ele>217.16600036621</ele>
        <time>2009-10-10T12:13:03Z</time>
      </trkpt>
      <trkpt lat="45.16486" lon="4.89635">
        <ele>213.2859954834</ele>
        <time>2009-10-10T12:13:13Z</time>
      </trkpt>
      <trkpt lat="45.16512" lon="4.89524">
        <ele>208.31900024414</ele>
        <time>2009-10-10T12:13:21Z</time>
      </trkpt>
      <trkpt lat="45.16515" lon="4.89509">
        <ele>208.01899719238</ele>
        <time>2009-10-10T12:13:22Z</time>
      </trkpt>
      <trkpt lat="45.16549" lon="4.89363">
        <ele>202.99699401856</ele>
        <time>2009-10-10T12:13:32Z</time>
      </trkpt>
      <trkpt lat="45.16556" lon="4.89335">
        <ele>202.72900390625</ele>
        <time>2009-10-10T12:13:34Z</time>
      </trkpt>
      <trkpt lat="45.16576" lon="4.89272">
        <ele>203.05099487305</ele>
        <time>2009-10-10T12:13:39Z</time>
      </trkpt>
      <trkpt lat="45.166" lon="4.89232">
        <ele>202.61099243164</ele>
        <time>2009-10-10T12:13:43Z</time>
      </trkpt>
      <trkpt lat="45.16607" lon="4.89224">
        <ele>202.66999816894</ele>
        <time>2009-10-10T12:13:44Z</time>
      </trkpt>
      <trkpt lat="45.16637" lon="4.89199">
        <ele>203.18699645996</ele>
        <time>2009-10-10T12:13:48Z</time>
      </trkpt>
      <trkpt lat="45.16692" lon="4.89179">
        <ele>203.40100097656</ele>
        <time>2009-10-10T12:13:55Z</time>
      </trkpt>
      <trkpt lat="45.16775" lon="4.89152">
        <ele>203.69700622559</ele>
        <time>2009-10-10T12:14:06Z</time>
      </trkpt>
      <trkpt lat="45.16809" lon="4.89126">
        <ele>204.50500488281</ele>
        <time>2009-10-10T12:14:11Z</time>
      </trkpt>
      <trkpt lat="45.16837" lon="4.89087">
        <ele>204.44999694824</ele>
        <time>2009-10-10T12:14:16Z</time>
      </trkpt>
      <trkpt lat="45.16853" lon="4.89048">
        <ele>203.84800720215</ele>
        <time>2009-10-10T12:14:20Z</time>
      </trkpt>
      <trkpt lat="45.16866" lon="4.88982">
        <ele>202.94000244141</ele>
        <time>2009-10-10T12:14:26Z</time>
      </trkpt>
      <trkpt lat="45.16882" lon="4.8889">
        <ele>202.48899841309</ele>
        <time>2009-10-10T12:14:34Z</time>
      </trkpt>
      <trkpt lat="45.16899" lon="4.88783">
        <ele>198.58200073242</ele>
        <time>2009-10-10T12:14:43Z</time>
      </trkpt>
      <trkpt lat="45.16917" lon="4.88689">
        <ele>194.27299499512</ele>
        <time>2009-10-10T12:14:50Z</time>
      </trkpt>
      <trkpt lat="45.1693" lon="4.88614">
        <ele>189.09399414062</ele>
        <time>2009-10-10T12:14:55Z</time>
      </trkpt>
      <trkpt lat="45.16936" lon="4.88585">
        <ele>188.37800598144</ele>
        <time>2009-10-10T12:14:57Z</time>
      </trkpt>
      <trkpt lat="45.16949" lon="4.88491">
        <ele>186.54299926758</ele>
        <time>2009-10-10T12:15:03Z</time>
      </trkpt>
      <trkpt lat="45.16967" lon="4.88389">
        <ele>185.59599304199</ele>
        <time>2009-10-10T12:15:10Z</time>
      </trkpt>
      <trkpt lat="45.16985" lon="4.88286">
        <ele>185.75</ele>
        <time>2009-10-10T12:15:18Z</time>
      </trkpt>
      <trkpt lat="45.16989" lon="4.8821">
        <ele>184.7440032959</ele>
        <time>2009-10-10T12:15:24Z</time>
      </trkpt>
      <trkpt lat="45.1698" lon="4.88109">
        <ele>183.34100341797</ele>
        <time>2009-10-10T12:15:32Z</time>
      </trkpt>
      <trkpt lat="45.16975" lon="4.88057">
        <ele>182.21600341797</ele>
        <time>2009-10-10T12:15:36Z</time>
      </trkpt>
      <trkpt lat="45.16969" lon="4.87966">
        <ele>181.8390045166</ele>
        <time>2009-10-10T12:15:43Z</time>
      </trkpt>
      <trkpt lat="45.16976" lon="4.8789">
        <ele>181.45899963379</ele>
        <time>2009-10-10T12:15:49Z</time>
      </trkpt>
      <trkpt lat="45.16989" lon="4.8782">
        <ele>181.41400146484</ele>
        <time>2009-10-10T12:15:55Z</time>
      </trkpt>
      <trkpt lat="45.16997" lon="4.87773">
        <ele>181.04600524902</ele>
        <time>2009-10-10T12:15:59Z</time>
      </trkpt>
      <trkpt lat="45.1701" lon="4.87728">
        <ele>180.89700317383</ele>
        <time>2009-10-10T12:16:03Z</time>
      </trkpt>
      <trkpt lat="45.17015" lon="4.87693">
        <ele>180.56599426269</ele>
        <time>2009-10-10T12:16:06Z</time>
      </trkpt>
      <trkpt lat="45.1703" lon="4.8759">
        <ele>180.75900268555</ele>
        <time>2009-10-10T12:16:15Z</time>
      </trkpt>
      <trkpt lat="45.17027" lon="4.87534">
        <ele>180.72599792481</ele>
        <time>2009-10-10T12:16:20Z</time>
      </trkpt>
      <trkpt lat="45.1702" lon="4.87449">
        <ele>180.9640045166</ele>
        <time>2009-10-10T12:16:28Z</time>
      </trkpt>
      <trkpt lat="45.17017" lon="4.87387">
        <ele>181.36500549316</ele>
        <time>2009-10-10T12:16:34Z</time>
      </trkpt>
      <trkpt lat="45.17013" lon="4.87357">
        <ele>181.82200622559</ele>
        <time>2009-10-10T12:16:37Z</time>
      </trkpt>
      <trkpt lat="45.17006" lon="4.87269">
        <ele>182.17900085449</ele>
        <time>2009-10-10T12:16:46Z</time>
      </trkpt>
      <trkpt lat="45.17004" lon="4.87221">
        <ele>182.57000732422</ele>
        <time>2009-10-10T12:16:51Z</time>
      </trkpt>
      <trkpt lat="45.17007" lon="4.87176">
        <ele>182.72700500488</ele>
        <time>2009-10-10T12:16:56Z</time>
      </trkpt>
      <trkpt lat="45.1701" lon="4.87168">
        <ele>182.92100524902</ele>
        <time>2009-10-10T12:16:57Z</time>
      </trkpt>
      <trkpt lat="45.17041" lon="4.87095">
        <ele>181.47399902344</ele>
        <time>2009-10-10T12:17:05Z</time>
      </trkpt>
      <trkpt lat="45.17073" lon="4.87022">
        <ele>181.19599914551</ele>
        <time>2009-10-10T12:17:13Z</time>
      </trkpt>
      <trkpt lat="45.17111" lon="4.86933">
        <ele>181.99200439453</ele>
        <time>2009-10-10T12:17:23Z</time>
      </trkpt>
      <trkpt lat="45.17114" lon="4.86925">
        <ele>181.96200561523</ele>
        <time>2009-10-10T12:17:24Z</time>
      </trkpt>
      <trkpt lat="45.17144" lon="4.86854">
        <ele>182.72500610352</ele>
        <time>2009-10-10T12:17:32Z</time>
      </trkpt>
      <trkpt lat="45.17171" lon="4.86791">
        <ele>183.3450012207</ele>
        <time>2009-10-10T12:17:39Z</time>
      </trkpt>
      <trkpt lat="45.172" lon="4.86719">
        <ele>183.47300720215</ele>
        <time>2009-10-10T12:17:47Z</time>
      </trkpt>
      <trkpt lat="45.17249" lon="4.86607">
        <ele>182.62800598144</ele>
        <time>2009-10-10T12:17:59Z</time>
      </trkpt>
      <trkpt lat="45.17288" lon="4.86516">
        <ele>180.77200317383</ele>
        <time>2009-10-10T12:18:08Z</time>
      </trkpt>
      <trkpt lat="45.17328" lon="4.86427">
        <ele>179.96099853516</ele>
        <time>2009-10-10T12:18:17Z</time>
      </trkpt>
      <trkpt lat="45.17363" lon="4.86338">
        <ele>180.05700683594</ele>
        <time>2009-10-10T12:18:26Z</time>
      </trkpt>
      <trkpt lat="45.17399" lon="4.8625">
        <ele>179.3809967041</ele>
        <time>2009-10-10T12:18:35Z</time>
      </trkpt>
      <trkpt lat="45.17436" lon="4.86178">
        <ele>179.0890045166</ele>
        <time>2009-10-10T12:18:43Z</time>
      </trkpt>
      <trkpt lat="45.17483" lon="4.86099">
        <ele>177.96499633789</ele>
        <time>2009-10-10T12:18:52Z</time>
      </trkpt>
      <trkpt lat="45.17532" lon="4.86">
        <ele>174.94000244141</ele>
        <time>2009-10-10T12:19:02Z</time>
      </trkpt>
      <trkpt lat="45.17574" lon="4.85909">
        <ele>173.55099487305</ele>
        <time>2009-10-10T12:19:11Z</time>
      </trkpt>
      <trkpt lat="45.17588" lon="4.85855">
        <ele>174.42100524902</ele>
        <time>2009-10-10T12:19:16Z</time>
      </trkpt>
      <trkpt lat="45.17599" lon="4.85804">
        <ele>174.94999694824</ele>
        <time>2009-10-10T12:19:21Z</time>
      </trkpt>
      <trkpt lat="45.17619" lon="4.85763">
        <ele>175.85299682617</ele>
        <time>2009-10-10T12:19:26Z</time>
      </trkpt>
      <trkpt lat="45.17641" lon="4.85743">
        <ele>176.66900634766</ele>
        <time>2009-10-10T12:19:30Z</time>
      </trkpt>
      <trkpt lat="45.17696" lon="4.85713">
        <ele>179.64300537109</ele>
        <time>2009-10-10T12:19:39Z</time>
      </trkpt>
      <trkpt lat="45.17731" lon="4.85686">
        <ele>180.01800537109</ele>
        <time>2009-10-10T12:19:45Z</time>
      </trkpt>
      <trkpt lat="45.17783" lon="4.85638">
        <ele>180.49899291992</ele>
        <time>2009-10-10T12:19:54Z</time>
      </trkpt>
      <trkpt lat="45.17821" lon="4.85601">
        <ele>181.03799438477</ele>
        <time>2009-10-10T12:20:01Z</time>
      </trkpt>
      <trkpt lat="45.17841" lon="4.85567">
        <ele>181.86199951172</ele>
        <time>2009-10-10T12:20:06Z</time>
      </trkpt>
      <trkpt lat="45.17866" lon="4.85518">
        <ele>183.55499267578</ele>
        <time>2009-10-10T12:20:13Z</time>
      </trkpt>
      <trkpt lat="45.17877" lon="4.85493">
        <ele>184.65400695801</ele>
        <time>2009-10-10T12:20:17Z</time>
      </trkpt>
      <trkpt lat="45.17881" lon="4.85476">
        <ele>185.46699523926</ele>
        <time>2009-10-10T12:20:20Z</time>
      </trkpt>
      <trkpt lat="45.17883" lon="4.85445">
        <ele>185.62100219727</ele>
        <time>2009-10-10T12:20:25Z</time>
      </trkpt>
      <trkpt lat="45.17882" lon="4.8542">
        <ele>186.51499938965</ele>
        <time>2009-10-10T12:20:29Z</time>
      </trkpt>
      <trkpt lat="45.1787" lon="4.85371">
        <ele>185.27499389648</ele>
        <time>2009-10-10T12:20:35Z</time>
      </trkpt>
      <trkpt lat="45.17863" lon="4.85328">
        <ele>183.96099853516</ele>
        <time>2009-10-10T12:20:39Z</time>
      </trkpt>
      <trkpt lat="45.17865" lon="4.85269">
        <ele>182.04499816894</ele>
        <time>2009-10-10T12:20:44Z</time>
      </trkpt>
      <trkpt lat="45.17872" lon="4.85233">
        <ele>182.48100280762</ele>
        <time>2009-10-10T12:20:47Z</time>
      </trkpt>
      <trkpt lat="45.17892" lon="4.85188">
        <ele>180.45300292969</ele>
        <time>2009-10-10T12:20:51Z</time>
      </trkpt>
      <trkpt lat="45.17899" lon="4.85179">
        <ele>180.02099609375</ele>
        <time>2009-10-10T12:20:52Z</time>
      </trkpt>
      <trkpt lat="45.17935" lon="4.8513">
        <ele>178.74800109863</ele>
        <time>2009-10-10T12:20:57Z</time>
      </trkpt>
      <trkpt lat="45.17949" lon="4.85111">
        <ele>178.5</ele>
        <time>2009-10-10T12:20:59Z</time>
      </trkpt>
      <trkpt lat="45.17963" lon="4.85091">
        <ele>177.43699645996</ele>
        <time>2009-10-10T12:21:01Z</time>
      </trkpt>
      <trkpt lat="45.17974" lon="4.85068">
        <ele>176.79299926758</ele>
        <time>2009-10-10T12:21:03Z</time>
      </trkpt>
      <trkpt lat="45.17981" lon="4.85045">
        <ele>176.23399353027</ele>
        <time>2009-10-10T12:21:05Z</time>
      </trkpt>
      <trkpt lat="45.17984" lon="4.85025">
        <ele>175.7559967041</ele>
        <time>2009-10-10T12:21:07Z</time>
      </trkpt>
      <trkpt lat="45.17998" lon="4.85004">
        <ele>175.33799743652</ele>
        <time>2009-10-10T12:21:11Z</time>
      </trkpt>
      <trkpt lat="45.18018" lon="4.84997">
        <ele>175.00700378418</ele>
        <time>2009-10-10T12:21:15Z</time>
      </trkpt>
      <trkpt lat="45.18021" lon="4.84997">
        <ele>174.90199279785</ele>
        <time>2009-10-10T12:21:16Z</time>
      </trkpt>
      <trkpt lat="45.18029" lon="4.84998">
        <ele>174.30900573731</ele>
        <time>2009-10-10T12:21:18Z</time>
      </trkpt>
      <trkpt lat="45.18044" lon="4.85013">
        <ele>173.97700500488</ele>
        <time>2009-10-10T12:21:22Z</time>
      </trkpt>
      <trkpt lat="45.18074" lon="4.85057">
        <ele>173.91799926758</ele>
        <time>2009-10-10T12:21:29Z</time>
      </trkpt>
      <trkpt lat="45.18113" lon="4.85101">
        <ele>174.01400756836</ele>
        <time>2009-10-10T12:21:36Z</time>
      </trkpt>
      <trkpt lat="45.18142" lon="4.85119">
        <ele>174.66600036621</ele>
        <time>2009-10-10T12:21:41Z</time>
      </trkpt>
      <trkpt lat="45.18147" lon="4.85122">
        <ele>174.88800048828</ele>
        <time>2009-10-10T12:21:42Z</time>
      </trkpt>
      <trkpt lat="45.18171" lon="4.85147">
        <ele>175.22200012207</ele>
        <time>2009-10-10T12:21:48Z</time>
      </trkpt>
      <trkpt lat="45.18184" lon="4.85157">
        <ele>175.42599487305</ele>
        <time>2009-10-10T12:21:53Z</time>
      </trkpt>
      <trkpt lat="45.18198" lon="4.85155">
        <ele>176.42100524902</ele>
        <time>2009-10-10T12:21:57Z</time>
      </trkpt>
      <trkpt lat="45.18219" lon="4.85162">
        <ele>178.26699829102</ele>
        <time>2009-10-10T12:22:03Z</time>
      </trkpt>
      <trkpt lat="45.18236" lon="4.85165">
        <ele>180.03100585938</ele>
        <time>2009-10-10T12:22:08Z</time>
      </trkpt>
      <trkpt lat="45.18251" lon="4.8517">
        <ele>181.36599731445</ele>
        <time>2009-10-10T12:22:13Z</time>
      </trkpt>
      <trkpt lat="45.18268" lon="4.85175">
        <ele>182.68499755859</ele>
        <time>2009-10-10T12:22:18Z</time>
      </trkpt>
      <trkpt lat="45.1829" lon="4.85176">
        <ele>184.31500244141</ele>
        <time>2009-10-10T12:22:25Z</time>
      </trkpt>
      <trkpt lat="45.18304" lon="4.85173">
        <ele>185.6190032959</ele>
        <time>2009-10-10T12:22:30Z</time>
      </trkpt>
      <trkpt lat="45.18319" lon="4.85168">
        <ele>187.26300048828</ele>
        <time>2009-10-10T12:22:35Z</time>
      </trkpt>
      <trkpt lat="45.18337" lon="4.85166">
        <ele>188.38200378418</ele>
        <time>2009-10-10T12:22:41Z</time>
      </trkpt>
      <trkpt lat="45.1834" lon="4.85164">
        <ele>188.83299255371</ele>
        <time>2009-10-10T12:22:42Z</time>
      </trkpt>
      <trkpt lat="45.1834" lon="4.85156">
        <ele>190.20300292969</ele>
        <time>2009-10-10T12:22:45Z</time>
      </trkpt>
      <trkpt lat="45.18334" lon="4.85156">
        <ele>190.68699645996</ele>
        <time>2009-10-10T12:22:47Z</time>
      </trkpt>
      <trkpt lat="45.18311" lon="4.85158">
        <ele>191.74600219727</ele>
        <time>2009-10-10T12:22:54Z</time>
      </trkpt>
      <trkpt lat="45.18296" lon="4.85161">
        <ele>193.14399719238</ele>
        <time>2009-10-10T12:22:59Z</time>
      </trkpt>
      <trkpt lat="45.1828" lon="4.85156">
        <ele>194.05999755859</ele>
        <time>2009-10-10T12:23:04Z</time>
      </trkpt>
      <trkpt lat="45.18267" lon="4.85148">
        <ele>195.30499267578</ele>
        <time>2009-10-10T12:23:09Z</time>
      </trkpt>
      <trkpt lat="45.18255" lon="4.8513">
        <ele>196.73699951172</ele>
        <time>2009-10-10T12:23:14Z</time>
      </trkpt>
      <trkpt lat="45.18239" lon="4.85108">
        <ele>198.4049987793</ele>
        <time>2009-10-10T12:23:20Z</time>
      </trkpt>
      <trkpt lat="45.18221" lon="4.85105">
        <ele>199.61799621582</ele>
        <time>2009-10-10T12:23:25Z</time>
      </trkpt>
      <trkpt lat="45.182" lon="4.851">
        <ele>201.17700195312</ele>
        <time>2009-10-10T12:23:31Z</time>
      </trkpt>
      <trkpt lat="45.18184" lon="4.85081">
        <ele>202.71699523926</ele>
        <time>2009-10-10T12:23:37Z</time>
      </trkpt>
      <trkpt lat="45.18176" lon="4.85061">
        <ele>203.81900024414</ele>
        <time>2009-10-10T12:23:41Z</time>
      </trkpt>
      <trkpt lat="45.18166" lon="4.85048">
        <ele>205.04200744629</ele>
        <time>2009-10-10T12:23:44Z</time>
      </trkpt>
      <trkpt lat="45.18139" lon="4.85031">
        <ele>207.21200561523</ele>
        <time>2009-10-10T12:23:49Z</time>
      </trkpt>
      <trkpt lat="45.1813" lon="4.85021">
        <ele>207.75999450684</ele>
        <time>2009-10-10T12:23:51Z</time>
      </trkpt>
      <trkpt lat="45.18119" lon="4.84997">
        <ele>209.66900634766</ele>
        <time>2009-10-10T12:23:56Z</time>
      </trkpt>
      <trkpt lat="45.18125" lon="4.84998">
        <ele>210.0059967041</ele>
        <time>2009-10-10T12:23:59Z</time>
      </trkpt>
      <trkpt lat="45.18132" lon="4.85014">
        <ele>211.28900146484</ele>
        <time>2009-10-10T12:24:03Z</time>
      </trkpt>
      <trkpt lat="45.18139" lon="4.8502">
        <ele>211.53199768066</ele>
        <time>2009-10-10T12:24:05Z</time>
      </trkpt>
      <trkpt lat="45.1817" lon="4.85023">
        <ele>214.55099487305</ele>
        <time>2009-10-10T12:24:13Z</time>
      </trkpt>
      <trkpt lat="45.18185" lon="4.85033">
        <ele>215.87699890137</ele>
        <time>2009-10-10T12:24:17Z</time>
      </trkpt>
      <trkpt lat="45.18201" lon="4.85058">
        <ele>217.74200439453</ele>
        <time>2009-10-10T12:24:22Z</time>
      </trkpt>
      <trkpt lat="45.18206" lon="4.85059">
        <ele>218.04600524902</ele>
        <time>2009-10-10T12:24:23Z</time>
      </trkpt>
      <trkpt lat="45.18216" lon="4.85056">
        <ele>218.50799560547</ele>
        <time>2009-10-10T12:24:25Z</time>
      </trkpt>
      <trkpt lat="45.1824" lon="4.85046">
        <ele>220.44299316406</ele>
        <time>2009-10-10T12:24:30Z</time>
      </trkpt>
      <trkpt lat="45.1826" lon="4.85046">
        <ele>222.21699523926</ele>
        <time>2009-10-10T12:24:34Z</time>
      </trkpt>
      <trkpt lat="45.18285" lon="4.85038">
        <ele>224.04699707031</ele>
        <time>2009-10-10T12:24:39Z</time>
      </trkpt>
      <trkpt lat="45.18294" lon="4.85037">
        <ele>224.5119934082</ele>
        <time>2009-10-10T12:24:41Z</time>
      </trkpt>
      <trkpt lat="45.18303" lon="4.85046">
        <ele>225.90299987793</ele>
        <time>2009-10-10T12:24:44Z</time>
      </trkpt>
      <trkpt lat="45.18318" lon="4.85054">
        <ele>226.84100341797</ele>
        <time>2009-10-10T12:24:47Z</time>
      </trkpt>
      <trkpt lat="45.18328" lon="4.85051">
        <ele>227.68200683594</ele>
        <time>2009-10-10T12:24:49Z</time>
      </trkpt>
      <trkpt lat="45.1836" lon="4.85034">
        <ele>229.64300537109</ele>
        <time>2009-10-10T12:24:56Z</time>
      </trkpt>
      <trkpt lat="45.18391" lon="4.85006">
        <ele>232.32400512695</ele>
        <time>2009-10-10T12:25:04Z</time>
      </trkpt>
      <trkpt lat="45.18414" lon="4.84985">
        <ele>234.54299926758</ele>
        <time>2009-10-10T12:25:10Z</time>
      </trkpt>
      <trkpt lat="45.18417" lon="4.84982">
        <ele>234.62899780273</ele>
        <time>2009-10-10T12:25:11Z</time>
      </trkpt>
      <trkpt lat="45.18439" lon="4.84966">
        <ele>236.82000732422</ele>
        <time>2009-10-10T12:25:17Z</time>
      </trkpt>
      <trkpt lat="45.1846" lon="4.84955">
        <ele>238.39700317383</ele>
        <time>2009-10-10T12:25:23Z</time>
      </trkpt>
      <trkpt lat="45.18472" lon="4.84956">
        <ele>239.77699279785</ele>
        <time>2009-10-10T12:25:26Z</time>
      </trkpt>
      <trkpt lat="45.18496" lon="4.84951">
        <ele>241.41700744629</ele>
        <time>2009-10-10T12:25:32Z</time>
      </trkpt>
      <trkpt lat="45.18516" lon="4.8495">
        <ele>242.84100341797</ele>
        <time>2009-10-10T12:25:37Z</time>
      </trkpt>
      <trkpt lat="45.1853" lon="4.84971">
        <ele>244.30799865723</ele>
        <time>2009-10-10T12:25:42Z</time>
      </trkpt>
      <trkpt lat="45.18529" lon="4.84994">
        <ele>245.6369934082</ele>
        <time>2009-10-10T12:25:46Z</time>
      </trkpt>
      <trkpt lat="45.18523" lon="4.85026">
        <ele>247.06799316406</ele>
        <time>2009-10-10T12:25:51Z</time>
      </trkpt>
      <trkpt lat="45.18528" lon="4.85058">
        <ele>248.76300048828</ele>
        <time>2009-10-10T12:25:56Z</time>
      </trkpt>
      <trkpt lat="45.18542" lon="4.85062">
        <ele>250.59300231934</ele>
        <time>2009-10-10T12:25:59Z</time>
      </trkpt>
      <trkpt lat="45.18548" lon="4.85062">
        <ele>250.80099487305</ele>
        <time>2009-10-10T12:26:00Z</time>
      </trkpt>
      <trkpt lat="45.18553" lon="4.8506">
        <ele>251</ele>
        <time>2009-10-10T12:26:01Z</time>
      </trkpt>
      <trkpt lat="45.18563" lon="4.85056">
        <ele>251.62199401856</ele>
        <time>2009-10-10T12:26:03Z</time>
      </trkpt>
      <trkpt lat="45.18585" lon="4.85039">
        <ele>253.36599731445</ele>
        <time>2009-10-10T12:26:08Z</time>
      </trkpt>
      <trkpt lat="45.18595" lon="4.85026">
        <ele>254.40899658203</ele>
        <time>2009-10-10T12:26:11Z</time>
      </trkpt>
      <trkpt lat="45.18613" lon="4.84986">
        <ele>257.35501098633</ele>
        <time>2009-10-10T12:26:19Z</time>
      </trkpt>
      <trkpt lat="45.18623" lon="4.84961">
        <ele>258.78698730469</ele>
        <time>2009-10-10T12:26:27Z</time>
      </trkpt>
      <trkpt lat="45.18633" lon="4.84929">
        <ele>260.24600219727</ele>
        <time>2009-10-10T12:26:36Z</time>
      </trkpt>
      <trkpt lat="45.18635" lon="4.84898">
        <ele>260.88299560547</ele>
        <time>2009-10-10T12:26:44Z</time>
      </trkpt>
      <trkpt lat="45.18633" lon="4.84867">
        <ele>264.01098632812</ele>
        <time>2009-10-10T12:26:52Z</time>
      </trkpt>
      <trkpt lat="45.18625" lon="4.84851">
        <ele>265.18600463867</ele>
        <time>2009-10-10T12:26:57Z</time>
      </trkpt>
      <trkpt lat="45.18615" lon="4.84838">
        <ele>266.03698730469</ele>
        <time>2009-10-10T12:27:02Z</time>
      </trkpt>
      <trkpt lat="45.18613" lon="4.84835">
        <ele>266.32299804688</ele>
        <time>2009-10-10T12:27:03Z</time>
      </trkpt>
      <trkpt lat="45.18617" lon="4.84819">
        <ele>267.68701171875</ele>
        <time>2009-10-10T12:27:08Z</time>
      </trkpt>
      <trkpt lat="45.18632" lon="4.84807">
        <ele>268.93200683594</ele>
        <time>2009-10-10T12:27:14Z</time>
      </trkpt>
      <trkpt lat="45.18639" lon="4.84801">
        <ele>269.89300537109</ele>
        <time>2009-10-10T12:27:17Z</time>
      </trkpt>
      <trkpt lat="45.18651" lon="4.84796">
        <ele>270.82699584961</ele>
        <time>2009-10-10T12:27:21Z</time>
      </trkpt>
      <trkpt lat="45.18673" lon="4.84778">
        <ele>272.52600097656</ele>
        <time>2009-10-10T12:27:29Z</time>
      </trkpt>
      <trkpt lat="45.18694" lon="4.84764">
        <ele>274.16900634766</ele>
        <time>2009-10-10T12:27:36Z</time>
      </trkpt>
      <trkpt lat="45.18718" lon="4.84751">
        <ele>276.14199829102</ele>
        <time>2009-10-10T12:27:43Z</time>
      </trkpt>
      <trkpt lat="45.18727" lon="4.84732">
        <ele>277.23001098633</ele>
        <time>2009-10-10T12:27:47Z</time>
      </trkpt>
      <trkpt lat="45.18729" lon="4.84709">
        <ele>278.38900756836</ele>
        <time>2009-10-10T12:27:51Z</time>
      </trkpt>
      <trkpt lat="45.1874" lon="4.84671">
        <ele>280.38500976562</ele>
        <time>2009-10-10T12:27:58Z</time>
      </trkpt>
      <trkpt lat="45.18753" lon="4.84654">
        <ele>281.74899291992</ele>
        <time>2009-10-10T12:28:03Z</time>
      </trkpt>
      <trkpt lat="45.18769" lon="4.84641">
        <ele>282.55200195312</ele>
        <time>2009-10-10T12:28:09Z</time>
      </trkpt>
      <trkpt lat="45.18782" lon="4.8463">
        <ele>284.63800048828</ele>
        <time>2009-10-10T12:28:15Z</time>
      </trkpt>
      <trkpt lat="45.18801" lon="4.84625">
        <ele>286.20999145508</ele>
        <time>2009-10-10T12:28:21Z</time>
      </trkpt>
      <trkpt lat="45.18818" lon="4.84609">
        <ele>287.56698608398</ele>
        <time>2009-10-10T12:28:27Z</time>
      </trkpt>
      <trkpt lat="45.18835" lon="4.84596">
        <ele>288.95300292969</ele>
        <time>2009-10-10T12:28:32Z</time>
      </trkpt>
      <trkpt lat="45.18868" lon="4.8458">
        <ele>290.97299194336</ele>
        <time>2009-10-10T12:28:42Z</time>
      </trkpt>
      <trkpt lat="45.18887" lon="4.8457">
        <ele>292.51000976562</ele>
        <time>2009-10-10T12:28:48Z</time>
      </trkpt>
      <trkpt lat="45.18904" lon="4.84554">
        <ele>293.57000732422</ele>
        <time>2009-10-10T12:28:54Z</time>
      </trkpt>
      <trkpt lat="45.18923" lon="4.84533">
        <ele>294.68499755859</ele>
        <time>2009-10-10T12:29:01Z</time>
      </trkpt>
      <trkpt lat="45.18941" lon="4.84508">
        <ele>296.82000732422</ele>
        <time>2009-10-10T12:29:09Z</time>
      </trkpt>
      <trkpt lat="45.18952" lon="4.84496">
        <ele>298.42999267578</ele>
        <time>2009-10-10T12:29:14Z</time>
      </trkpt>
      <trkpt lat="45.1897" lon="4.84494">
        <ele>300.2380065918</ele>
        <time>2009-10-10T12:29:20Z</time>
      </trkpt>
      <trkpt lat="45.18988" lon="4.84493">
        <ele>301.67098999023</ele>
        <time>2009-10-10T12:29:26Z</time>
      </trkpt>
      <trkpt lat="45.19011" lon="4.84483">
        <ele>303.27899169922</ele>
        <time>2009-10-10T12:29:33Z</time>
      </trkpt>
      <trkpt lat="45.19043" lon="4.84458">
        <ele>306.13500976562</ele>
        <time>2009-10-10T12:29:43Z</time>
      </trkpt>
      <trkpt lat="45.19071" lon="4.84435">
        <ele>308.73699951172</ele>
        <time>2009-10-10T12:29:51Z</time>
      </trkpt>
      <trkpt lat="45.19094" lon="4.84414">
        <ele>311.54299926758</ele>
        <time>2009-10-10T12:29:58Z</time>
      </trkpt>
      <trkpt lat="45.19114" lon="4.84402">
        <ele>313.65701293945</ele>
        <time>2009-10-10T12:30:04Z</time>
      </trkpt>
      <trkpt lat="45.19136" lon="4.84393">
        <ele>315.55899047852</ele>
        <time>2009-10-10T12:30:11Z</time>
      </trkpt>
      <trkpt lat="45.19141" lon="4.84389">
        <ele>316.33099365234</ele>
        <time>2009-10-10T12:30:13Z</time>
      </trkpt>
      <trkpt lat="45.19138" lon="4.8438">
        <ele>317.25399780273</ele>
        <time>2009-10-10T12:30:18Z</time>
      </trkpt>
      <trkpt lat="45.19135" lon="4.8438">
        <ele>317.0530090332</ele>
        <time>2009-10-10T12:30:19Z</time>
      </trkpt>
      <trkpt lat="45.19112" lon="4.84383">
        <ele>318.4169921875</ele>
        <time>2009-10-10T12:30:26Z</time>
      </trkpt>
      <trkpt lat="45.19086" lon="4.84388">
        <ele>320.27200317383</ele>
        <time>2009-10-10T12:30:34Z</time>
      </trkpt>
      <trkpt lat="45.1906" lon="4.84401">
        <ele>321.82699584961</ele>
        <time>2009-10-10T12:30:42Z</time>
      </trkpt>
      <trkpt lat="45.19054" lon="4.84403">
        <ele>321.78298950195</ele>
        <time>2009-10-10T12:30:44Z</time>
      </trkpt>
      <trkpt lat="45.19046" lon="4.84395">
        <ele>323.22100830078</ele>
        <time>2009-10-10T12:30:48Z</time>
      </trkpt>
      <trkpt lat="45.19054" lon="4.84392">
        <ele>323.6960144043</ele>
        <time>2009-10-10T12:30:51Z</time>
      </trkpt>
      <trkpt lat="45.19072" lon="4.84385">
        <ele>324.3210144043</ele>
        <time>2009-10-10T12:30:56Z</time>
      </trkpt>
      <trkpt lat="45.19097" lon="4.84368">
        <ele>325.89898681641</ele>
        <time>2009-10-10T12:31:03Z</time>
      </trkpt>
      <trkpt lat="45.19123" lon="4.84353">
        <ele>327.37399291992</ele>
        <time>2009-10-10T12:31:10Z</time>
      </trkpt>
      <trkpt lat="45.19155" lon="4.84337">
        <ele>328.45300292969</ele>
        <time>2009-10-10T12:31:18Z</time>
      </trkpt>
      <trkpt lat="45.19174" lon="4.84329">
        <ele>330.53601074219</ele>
        <time>2009-10-10T12:31:23Z</time>
      </trkpt>
      <trkpt lat="45.19189" lon="4.84333">
        <ele>331.92498779297</ele>
        <time>2009-10-10T12:31:27Z</time>
      </trkpt>
      <trkpt lat="45.19198" lon="4.84349">
        <ele>333.50601196289</ele>
        <time>2009-10-10T12:31:31Z</time>
      </trkpt>
      <trkpt lat="45.1921" lon="4.84371">
        <ele>335.3330078125</ele>
        <time>2009-10-10T12:31:37Z</time>
      </trkpt>
      <trkpt lat="45.19216" lon="4.84387">
        <ele>336.39999389648</ele>
        <time>2009-10-10T12:31:41Z</time>
      </trkpt>
      <trkpt lat="45.19212" lon="4.84419">
        <ele>336.73400878906</ele>
        <time>2009-10-10T12:31:47Z</time>
      </trkpt>
      <trkpt lat="45.1922" lon="4.84443">
        <ele>336.94000244141</ele>
        <time>2009-10-10T12:31:51Z</time>
      </trkpt>
      <trkpt lat="45.19236" lon="4.84457">
        <ele>337.48699951172</ele>
        <time>2009-10-10T12:31:55Z</time>
      </trkpt>
      <trkpt lat="45.19281" lon="4.84479">
        <ele>338.92199707031</ele>
        <time>2009-10-10T12:32:05Z</time>
      </trkpt>
      <trkpt lat="45.19324" lon="4.845">
        <ele>340.70300292969</ele>
        <time>2009-10-10T12:32:15Z</time>
      </trkpt>
      <trkpt lat="45.19364" lon="4.84519">
        <ele>343.80200195312</ele>
        <time>2009-10-10T12:32:25Z</time>
      </trkpt>
      <trkpt lat="45.19404" lon="4.84533">
        <ele>346.29000854492</ele>
        <time>2009-10-10T12:32:35Z</time>
      </trkpt>
      <trkpt lat="45.19449" lon="4.84539">
        <ele>347.98498535156</ele>
        <time>2009-10-10T12:32:45Z</time>
      </trkpt>
      <trkpt lat="45.19491" lon="4.84539">
        <ele>349.36199951172</ele>
        <time>2009-10-10T12:32:54Z</time>
      </trkpt>
      <trkpt lat="45.19535" lon="4.84542">
        <ele>350.05801391602</ele>
        <time>2009-10-10T12:33:03Z</time>
      </trkpt>
      <trkpt lat="45.19587" lon="4.84549">
        <ele>350.16500854492</ele>
        <time>2009-10-10T12:33:13Z</time>
      </trkpt>
      <trkpt lat="45.19629" lon="4.84549">
        <ele>349.96301269531</ele>
        <time>2009-10-10T12:33:21Z</time>
      </trkpt>
      <trkpt lat="45.19678" lon="4.84547">
        <ele>349.76000976562</ele>
        <time>2009-10-10T12:33:30Z</time>
      </trkpt>
      <trkpt lat="45.19714" lon="4.84546">
        <ele>350.16799926758</ele>
        <time>2009-10-10T12:33:36Z</time>
      </trkpt>
      <trkpt lat="45.19737" lon="4.84556">
        <ele>350.40600585938</ele>
        <time>2009-10-10T12:33:40Z</time>
      </trkpt>
      <trkpt lat="45.19762" lon="4.84578">
        <ele>350.87600708008</ele>
        <time>2009-10-10T12:33:45Z</time>
      </trkpt>
      <trkpt lat="45.1979" lon="4.8459">
        <ele>350.5119934082</ele>
        <time>2009-10-10T12:33:50Z</time>
      </trkpt>
      <trkpt lat="45.1981" lon="4.84605">
        <ele>350.04901123047</ele>
        <time>2009-10-10T12:33:54Z</time>
      </trkpt>
      <trkpt lat="45.19811" lon="4.84621">
        <ele>350.44000244141</ele>
        <time>2009-10-10T12:33:56Z</time>
      </trkpt>
      <trkpt lat="45.19812" lon="4.84695">
        <ele>349.91799926758</ele>
        <time>2009-10-10T12:34:05Z</time>
      </trkpt>
      <trkpt lat="45.19814" lon="4.84771">
        <ele>349.89700317383</ele>
        <time>2009-10-10T12:34:14Z</time>
      </trkpt>
      <trkpt lat="45.19815" lon="4.84843">
        <ele>348.58700561523</ele>
        <time>2009-10-10T12:34:22Z</time>
      </trkpt>
      <trkpt lat="45.19815" lon="4.84876">
        <ele>349.04000854492</ele>
        <time>2009-10-10T12:34:26Z</time>
      </trkpt>
      <trkpt lat="45.19815" lon="4.84884">
        <ele>348.98098754883</ele>
        <time>2009-10-10T12:34:27Z</time>
      </trkpt>
      <trkpt lat="45.19822" lon="4.849">
        <ele>348.40899658203</ele>
        <time>2009-10-10T12:34:30Z</time>
      </trkpt>
      <trkpt lat="45.19834" lon="4.84896">
        <ele>349.06298828125</ele>
        <time>2009-10-10T12:34:33Z</time>
      </trkpt>
      <trkpt lat="45.19876" lon="4.84872">
        <ele>348.59399414062</ele>
        <time>2009-10-10T12:34:43Z</time>
      </trkpt>
      <trkpt lat="45.19901" lon="4.84849">
        <ele>348.58801269531</ele>
        <time>2009-10-10T12:34:49Z</time>
      </trkpt>
      <trkpt lat="45.19926" lon="4.84808">
        <ele>348.73400878906</ele>
        <time>2009-10-10T12:34:57Z</time>
      </trkpt>
      <trkpt lat="45.19935" lon="4.84792">
        <ele>347.87701416016</ele>
        <time>2009-10-10T12:35:00Z</time>
      </trkpt>
      <trkpt lat="45.19956" lon="4.84756">
        <ele>347.33599853516</ele>
        <time>2009-10-10T12:35:08Z</time>
      </trkpt>
      <trkpt lat="45.19962" lon="4.84747">
        <ele>346.57901000977</ele>
        <time>2009-10-10T12:35:12Z</time>
      </trkpt>
      <trkpt lat="45.19964" lon="4.84741">
        <ele>346.85299682617</ele>
        <time>2009-10-10T12:35:17Z</time>
      </trkpt>
      <trkpt lat="45.19973" lon="4.84728">
        <ele>346.36499023438</ele>
        <time>2009-10-10T12:35:26Z</time>
      </trkpt>
      <trkpt lat="45.19983" lon="4.84711">
        <ele>345.70999145508</ele>
        <time>2009-10-10T12:35:36Z</time>
      </trkpt>
      <trkpt lat="45.19989" lon="4.84696">
        <ele>345.65701293945</ele>
        <time>2009-10-10T12:35:42Z</time>
      </trkpt>
      <trkpt lat="45.19993" lon="4.84687">
        <ele>345.33700561523</ele>
        <time>2009-10-10T12:35:48Z</time>
      </trkpt>
      <trkpt lat="45.19993" lon="4.84686">
        <ele>345.27301025391</ele>
        <time>2009-10-10T12:35:49Z</time>
      </trkpt>
      <trkpt lat="45.19997" lon="4.8467">
        <ele>344.75</ele>
        <time>2009-10-10T12:35:59Z</time>
      </trkpt>
      <trkpt lat="45.20001" lon="4.8465">
        <ele>344.38800048828</ele>
        <time>2009-10-10T12:36:06Z</time>
      </trkpt>
      <trkpt lat="45.20005" lon="4.8462">
        <ele>343.46600341797</ele>
        <time>2009-10-10T12:36:14Z</time>
      </trkpt>
      <trkpt lat="45.20008" lon="4.84589">
        <ele>342.6969909668</ele>
        <time>2009-10-10T12:36:22Z</time>
      </trkpt>
      <trkpt lat="45.20012" lon="4.84556">
        <ele>341.99899291992</ele>
        <time>2009-10-10T12:36:30Z</time>
      </trkpt>
      <trkpt lat="45.20015" lon="4.84523">
        <ele>341.28500366211</ele>
        <time>2009-10-10T12:36:37Z</time>
      </trkpt>
      <trkpt lat="45.20018" lon="4.84504">
        <ele>340.2799987793</ele>
        <time>2009-10-10T12:36:40Z</time>
      </trkpt>
      <trkpt lat="45.20024" lon="4.84453">
        <ele>338.15301513672</ele>
        <time>2009-10-10T12:36:46Z</time>
      </trkpt>
      <trkpt lat="45.20028" lon="4.84409">
        <ele>336.24200439453</ele>
        <time>2009-10-10T12:36:50Z</time>
      </trkpt>
      <trkpt lat="45.20036" lon="4.84331">
        <ele>331.94900512695</ele>
        <time>2009-10-10T12:36:56Z</time>
      </trkpt>
      <trkpt lat="45.20031" lon="4.84271">
        <ele>329.44400024414</ele>
        <time>2009-10-10T12:37:00Z</time>
      </trkpt>
      <trkpt lat="45.20027" lon="4.84257">
        <ele>329.19500732422</ele>
        <time>2009-10-10T12:37:01Z</time>
      </trkpt>
      <trkpt lat="45.20015" lon="4.8423">
        <ele>328.32998657227</ele>
        <time>2009-10-10T12:37:03Z</time>
      </trkpt>
      <trkpt lat="45.19989" lon="4.84186">
        <ele>329.10900878906</ele>
        <time>2009-10-10T12:37:07Z</time>
      </trkpt>
      <trkpt lat="45.19963" lon="4.84143">
        <ele>330.47799682617</ele>
        <time>2009-10-10T12:37:12Z</time>
      </trkpt>
      <trkpt lat="45.19949" lon="4.8412">
        <ele>331.41198730469</ele>
        <time>2009-10-10T12:37:15Z</time>
      </trkpt>
      <trkpt lat="45.19914" lon="4.84061">
        <ele>332.50799560547</ele>
        <time>2009-10-10T12:37:23Z</time>
      </trkpt>
      <trkpt lat="45.19893" lon="4.84028">
        <ele>334.05499267578</ele>
        <time>2009-10-10T12:37:28Z</time>
      </trkpt>
      <trkpt lat="45.19885" lon="4.84014">
        <ele>334.44299316406</ele>
        <time>2009-10-10T12:37:30Z</time>
      </trkpt>
      <trkpt lat="45.19874" lon="4.83982">
        <ele>335.03799438477</ele>
        <time>2009-10-10T12:37:34Z</time>
      </trkpt>
      <trkpt lat="45.19873" lon="4.83947">
        <ele>336.21398925781</ele>
        <time>2009-10-10T12:37:38Z</time>
      </trkpt>
      <trkpt lat="45.19886" lon="4.83887">
        <ele>338.43899536133</ele>
        <time>2009-10-10T12:37:46Z</time>
      </trkpt>
      <trkpt lat="45.19888" lon="4.8388">
        <ele>338.89498901367</ele>
        <time>2009-10-10T12:37:47Z</time>
      </trkpt>
      <trkpt lat="45.19892" lon="4.83846">
        <ele>340.67599487305</ele>
        <time>2009-10-10T12:37:52Z</time>
      </trkpt>
      <trkpt lat="45.19891" lon="4.83808">
        <ele>341.26800537109</ele>
        <time>2009-10-10T12:37:59Z</time>
      </trkpt>
      <trkpt lat="45.19887" lon="4.83763">
        <ele>339.74700927734</ele>
        <time>2009-10-10T12:38:06Z</time>
      </trkpt>
      <trkpt lat="45.19882" lon="4.83717">
        <ele>337.57400512695</ele>
        <time>2009-10-10T12:38:11Z</time>
      </trkpt>
      <trkpt lat="45.19879" lon="4.8367">
        <ele>335.48901367188</ele>
        <time>2009-10-10T12:38:15Z</time>
      </trkpt>
      <trkpt lat="45.19878" lon="4.83632">
        <ele>333.08099365234</ele>
        <time>2009-10-10T12:38:18Z</time>
      </trkpt>
      <trkpt lat="45.19879" lon="4.83607">
        <ele>332.11801147461</ele>
        <time>2009-10-10T12:38:20Z</time>
      </trkpt>
      <trkpt lat="45.19896" lon="4.83582">
        <ele>329.83599853516</ele>
        <time>2009-10-10T12:38:23Z</time>
      </trkpt>
      <trkpt lat="45.19915" lon="4.83585">
        <ele>328.62600708008</ele>
        <time>2009-10-10T12:38:25Z</time>
      </trkpt>
      <trkpt lat="45.19936" lon="4.83613">
        <ele>326.0950012207</ele>
        <time>2009-10-10T12:38:28Z</time>
      </trkpt>
      <trkpt lat="45.19971" lon="4.83668">
        <ele>321.9880065918</ele>
        <time>2009-10-10T12:38:33Z</time>
      </trkpt>
      <trkpt lat="45.2002" lon="4.83733">
        <ele>318.40798950195</ele>
        <time>2009-10-10T12:38:39Z</time>
      </trkpt>
      <trkpt lat="45.20072" lon="4.83774">
        <ele>313.58801269531</ele>
        <time>2009-10-10T12:38:44Z</time>
      </trkpt>
      <trkpt lat="45.20144" lon="4.8383">
        <ele>307.34600830078</ele>
        <time>2009-10-10T12:38:51Z</time>
      </trkpt>
      <trkpt lat="45.20207" lon="4.83879">
        <ele>300.00299072266</ele>
        <time>2009-10-10T12:38:57Z</time>
      </trkpt>
      <trkpt lat="45.20277" lon="4.83928">
        <ele>296.01400756836</ele>
        <time>2009-10-10T12:39:03Z</time>
      </trkpt>
      <trkpt lat="45.20349" lon="4.83966">
        <ele>292.13900756836</ele>
        <time>2009-10-10T12:39:09Z</time>
      </trkpt>
      <trkpt lat="45.20373" lon="4.83979">
        <ele>290.96600341797</ele>
        <time>2009-10-10T12:39:11Z</time>
      </trkpt>
      <trkpt lat="45.20423" lon="4.83994">
        <ele>287.37799072266</ele>
        <time>2009-10-10T12:39:15Z</time>
      </trkpt>
      <trkpt lat="45.20435" lon="4.83995">
        <ele>287.07998657227</ele>
        <time>2009-10-10T12:39:16Z</time>
      </trkpt>
      <trkpt lat="45.20498" lon="4.83997">
        <ele>283.63400268555</ele>
        <time>2009-10-10T12:39:21Z</time>
      </trkpt>
      <trkpt lat="45.20546" lon="4.84002">
        <ele>280.91198730469</ele>
        <time>2009-10-10T12:39:25Z</time>
      </trkpt>
      <trkpt lat="45.20617" lon="4.83974">
        <ele>274.81900024414</ele>
        <time>2009-10-10T12:39:31Z</time>
      </trkpt>
      <trkpt lat="45.20657" lon="4.83928">
        <ele>271.66400146484</ele>
        <time>2009-10-10T12:39:35Z</time>
      </trkpt>
      <trkpt lat="45.20688" lon="4.83912">
        <ele>268.17199707031</ele>
        <time>2009-10-10T12:39:38Z</time>
      </trkpt>
      <trkpt lat="45.20699" lon="4.83918">
        <ele>267.14599609375</ele>
        <time>2009-10-10T12:39:39Z</time>
      </trkpt>
      <trkpt lat="45.20733" lon="4.83934">
        <ele>265.64999389648</ele>
        <time>2009-10-10T12:39:42Z</time>
      </trkpt>
      <trkpt lat="45.20781" lon="4.83943">
        <ele>259.84298706055</ele>
        <time>2009-10-10T12:39:46Z</time>
      </trkpt>
      <trkpt lat="45.20819" lon="4.83939">
        <ele>258.33599853516</ele>
        <time>2009-10-10T12:39:49Z</time>
      </trkpt>
      <trkpt lat="45.20868" lon="4.83923">
        <ele>255.2380065918</ele>
        <time>2009-10-10T12:39:53Z</time>
      </trkpt>
      <trkpt lat="45.20906" lon="4.83913">
        <ele>251.03399658203</ele>
        <time>2009-10-10T12:39:56Z</time>
      </trkpt>
      <trkpt lat="45.20954" lon="4.83883">
        <ele>247.79499816894</ele>
        <time>2009-10-10T12:40:00Z</time>
      </trkpt>
      <trkpt lat="45.20978" lon="4.83864">
        <ele>246.50399780273</ele>
        <time>2009-10-10T12:40:02Z</time>
      </trkpt>
      <trkpt lat="45.21008" lon="4.83822">
        <ele>242.72599792481</ele>
        <time>2009-10-10T12:40:05Z</time>
      </trkpt>
      <trkpt lat="45.21033" lon="4.83808">
        <ele>240.86399841309</ele>
        <time>2009-10-10T12:40:07Z</time>
      </trkpt>
      <trkpt lat="45.21059" lon="4.83817">
        <ele>238.63200378418</ele>
        <time>2009-10-10T12:40:09Z</time>
      </trkpt>
      <trkpt lat="45.21083" lon="4.83838">
        <ele>236.82099914551</ele>
        <time>2009-10-10T12:40:11Z</time>
      </trkpt>
      <trkpt lat="45.21095" lon="4.83869">
        <ele>236.09399414062</ele>
        <time>2009-10-10T12:40:13Z</time>
      </trkpt>
      <trkpt lat="45.21085" lon="4.8391">
        <ele>233.6369934082</ele>
        <time>2009-10-10T12:40:16Z</time>
      </trkpt>
      <trkpt lat="45.21069" lon="4.83956">
        <ele>230.8869934082</ele>
        <time>2009-10-10T12:40:19Z</time>
      </trkpt>
      <trkpt lat="45.21065" lon="4.83986">
        <ele>229.62100219727</ele>
        <time>2009-10-10T12:40:21Z</time>
      </trkpt>
      <trkpt lat="45.21067" lon="4.84014">
        <ele>228.34599304199</ele>
        <time>2009-10-10T12:40:23Z</time>
      </trkpt>
      <trkpt lat="45.2108" lon="4.84032">
        <ele>227.42599487305</ele>
        <time>2009-10-10T12:40:25Z</time>
      </trkpt>
      <trkpt lat="45.21101" lon="4.84035">
        <ele>225.86799621582</ele>
        <time>2009-10-10T12:40:27Z</time>
      </trkpt>
      <trkpt lat="45.21129" lon="4.8402">
        <ele>223.24899291992</ele>
        <time>2009-10-10T12:40:29Z</time>
      </trkpt>
      <trkpt lat="45.21141" lon="4.83992">
        <ele>221.23300170898</ele>
        <time>2009-10-10T12:40:31Z</time>
      </trkpt>
      <trkpt lat="45.2116" lon="4.83945">
        <ele>217.83200073242</ele>
        <time>2009-10-10T12:40:34Z</time>
      </trkpt>
      <trkpt lat="45.21229" lon="4.83852">
        <ele>209.03100585938</ele>
        <time>2009-10-10T12:40:41Z</time>
      </trkpt>
      <trkpt lat="45.2124" lon="4.83839">
        <ele>207.97200012207</ele>
        <time>2009-10-10T12:40:42Z</time>
      </trkpt>
      <trkpt lat="45.21291" lon="4.83804">
        <ele>202.56500244141</ele>
        <time>2009-10-10T12:40:46Z</time>
      </trkpt>
      <trkpt lat="45.21303" lon="4.83794">
        <ele>200.92100524902</ele>
        <time>2009-10-10T12:40:47Z</time>
      </trkpt>
      <trkpt lat="45.21358" lon="4.83767">
        <ele>195.74800109863</ele>
        <time>2009-10-10T12:40:51Z</time>
      </trkpt>
      <trkpt lat="45.21371" lon="4.83756">
        <ele>193.86700439453</ele>
        <time>2009-10-10T12:40:52Z</time>
      </trkpt>
      <trkpt lat="45.21426" lon="4.83718">
        <ele>188.7619934082</ele>
        <time>2009-10-10T12:40:56Z</time>
      </trkpt>
      <trkpt lat="45.21462" lon="4.83682">
        <ele>185.14599609375</ele>
        <time>2009-10-10T12:40:59Z</time>
      </trkpt>
      <trkpt lat="45.21478" lon="4.83644">
        <ele>181.66900634766</ele>
        <time>2009-10-10T12:41:01Z</time>
      </trkpt>
      <trkpt lat="45.21532" lon="4.83487">
        <ele>173.46600341797</ele>
        <time>2009-10-10T12:41:09Z</time>
      </trkpt>
      <trkpt lat="45.21557" lon="4.83432">
        <ele>170.64599609375</ele>
        <time>2009-10-10T12:41:12Z</time>
      </trkpt>
      <trkpt lat="45.21568" lon="4.83418">
        <ele>169.55200195312</ele>
        <time>2009-10-10T12:41:13Z</time>
      </trkpt>
      <trkpt lat="45.21611" lon="4.83364">
        <ele>166.14399719238</ele>
        <time>2009-10-10T12:41:17Z</time>
      </trkpt>
      <trkpt lat="45.21656" lon="4.83317">
        <ele>163.77400207519</ele>
        <time>2009-10-10T12:41:21Z</time>
      </trkpt>
      <trkpt lat="45.21709" lon="4.83263">
        <ele>161.46200561523</ele>
        <time>2009-10-10T12:41:26Z</time>
      </trkpt>
      <trkpt lat="45.21729" lon="4.83239">
        <ele>159.45799255371</ele>
        <time>2009-10-10T12:41:28Z</time>
      </trkpt>
      <trkpt lat="45.21744" lon="4.83212">
        <ele>158.53500366211</ele>
        <time>2009-10-10T12:41:30Z</time>
      </trkpt>
      <trkpt lat="45.21753" lon="4.83184">
        <ele>158.40100097656</ele>
        <time>2009-10-10T12:41:32Z</time>
      </trkpt>
      <trkpt lat="45.21758" lon="4.83169">
        <ele>158.73399353027</ele>
        <time>2009-10-10T12:41:34Z</time>
      </trkpt>
      <trkpt lat="45.21764" lon="4.83165">
        <ele>158.39700317383</ele>
        <time>2009-10-10T12:41:37Z</time>
      </trkpt>
      <trkpt lat="45.2176" lon="4.83157">
        <ele>158.38400268555</ele>
        <time>2009-10-10T12:41:41Z</time>
      </trkpt>
      <trkpt lat="45.21757" lon="4.83163">
        <ele>158.25500488281</ele>
        <time>2009-10-10T12:41:45Z</time>
      </trkpt>
      <trkpt lat="45.2176" lon="4.83171">
        <ele>158.6309967041</ele>
        <time>2009-10-10T12:41:52Z</time>
      </trkpt>
      <trkpt lat="45.2176" lon="4.83171">
        <ele>158.68699645996</ele>
        <time>2009-10-10T12:41:55Z</time>
      </trkpt>
      <trkpt lat="45.21762" lon="4.8317">
        <ele>158.47799682617</ele>
        <time>2009-10-10T12:42:01Z</time>
      </trkpt>
      <trkpt lat="45.21763" lon="4.83169">
        <ele>158.31100463867</ele>
        <time>2009-10-10T12:42:14Z</time>
      </trkpt>
      <trkpt lat="45.21762" lon="4.83169">
        <ele>158.95599365234</ele>
        <time>2009-10-10T12:42:26Z</time>
      </trkpt>
      <trkpt lat="45.21771" lon="4.83174">
        <ele>157.65800476074</ele>
        <time>2009-10-10T12:42:32Z</time>
      </trkpt>
      <trkpt lat="45.21794" lon="4.83191">
        <ele>157.57200622559</ele>
        <time>2009-10-10T12:42:40Z</time>
      </trkpt>
      <trkpt lat="45.21816" lon="4.83205">
        <ele>156.62100219727</ele>
        <time>2009-10-10T12:42:46Z</time>
      </trkpt>
      <trkpt lat="45.21849" lon="4.83222">
        <ele>156.79299926758</ele>
        <time>2009-10-10T12:42:55Z</time>
      </trkpt>
      <trkpt lat="45.21884" lon="4.83234">
        <ele>156.2200012207</ele>
        <time>2009-10-10T12:43:03Z</time>
      </trkpt>
      <trkpt lat="45.21894" lon="4.83238">
        <ele>156.22099304199</ele>
        <time>2009-10-10T12:43:05Z</time>
      </trkpt>
      <trkpt lat="45.21909" lon="4.83248">
        <ele>156.41400146484</ele>
        <time>2009-10-10T12:43:08Z</time>
      </trkpt>
      <trkpt lat="45.2193" lon="4.83256">
        <ele>156.36399841309</ele>
        <time>2009-10-10T12:43:12Z</time>
      </trkpt>
      <trkpt lat="45.21969" lon="4.83272">
        <ele>155.8450012207</ele>
        <time>2009-10-10T12:43:19Z</time>
      </trkpt>
      <trkpt lat="45.22" lon="4.83297">
        <ele>155.73300170898</ele>
        <time>2009-10-10T12:43:25Z</time>
      </trkpt>
      <trkpt lat="45.22034" lon="4.83327">
        <ele>155.00799560547</ele>
        <time>2009-10-10T12:43:31Z</time>
      </trkpt>
      <trkpt lat="45.22076" lon="4.83364">
        <ele>154.43600463867</ele>
        <time>2009-10-10T12:43:38Z</time>
      </trkpt>
      <trkpt lat="45.22126" lon="4.83406">
        <ele>152.61700439453</ele>
        <time>2009-10-10T12:43:46Z</time>
      </trkpt>
      <trkpt lat="45.22163" lon="4.83441">
        <ele>152.93499755859</ele>
        <time>2009-10-10T12:43:52Z</time>
      </trkpt>
      <trkpt lat="45.22206" lon="4.83479">
        <ele>153.07800292969</ele>
        <time>2009-10-10T12:43:59Z</time>
      </trkpt>
      <trkpt lat="45.22246" lon="4.83513">
        <ele>153.80900573731</ele>
        <time>2009-10-10T12:44:06Z</time>
      </trkpt>
      <trkpt lat="45.22288" lon="4.83545">
        <ele>154.11000061035</ele>
        <time>2009-10-10T12:44:14Z</time>
      </trkpt>
      <trkpt lat="45.22334" lon="4.83571">
        <ele>153.83000183106</ele>
        <time>2009-10-10T12:44:22Z</time>
      </trkpt>
      <trkpt lat="45.22394" lon="4.83596">
        <ele>153.75399780273</ele>
        <time>2009-10-10T12:44:32Z</time>
      </trkpt>
      <trkpt lat="45.22444" lon="4.83613">
        <ele>153.84199523926</ele>
        <time>2009-10-10T12:44:40Z</time>
      </trkpt>
      <trkpt lat="45.22486" lon="4.83626">
        <ele>153.83399963379</ele>
        <time>2009-10-10T12:44:47Z</time>
      </trkpt>
      <trkpt lat="45.22501" lon="4.8363">
        <ele>153.68600463867</ele>
        <time>2009-10-10T12:44:50Z</time>
      </trkpt>
      <trkpt lat="45.22518" lon="4.83619">
        <ele>153.80900573731</ele>
        <time>2009-10-10T12:44:54Z</time>
      </trkpt>
      <trkpt lat="45.22523" lon="4.83605">
        <ele>153.53900146484</ele>
        <time>2009-10-10T12:44:56Z</time>
      </trkpt>
      <trkpt lat="45.22549" lon="4.83537">
        <ele>152.60699462891</ele>
        <time>2009-10-10T12:45:04Z</time>
      </trkpt>
      <trkpt lat="45.22588" lon="4.83442">
        <ele>151.86500549316</ele>
        <time>2009-10-10T12:45:14Z</time>
      </trkpt>
      <trkpt lat="45.22622" lon="4.83359">
        <ele>152.35099792481</ele>
        <time>2009-10-10T12:45:23Z</time>
      </trkpt>
      <trkpt lat="45.22667" lon="4.8325">
        <ele>151.71699523926</ele>
        <time>2009-10-10T12:45:35Z</time>
      </trkpt>
      <trkpt lat="45.22693" lon="4.83187">
        <ele>152.01699829102</ele>
        <time>2009-10-10T12:45:42Z</time>
      </trkpt>
      <trkpt lat="45.22723" lon="4.83114">
        <ele>151.98100280762</ele>
        <time>2009-10-10T12:45:50Z</time>
      </trkpt>
      <trkpt lat="45.22762" lon="4.83023">
        <ele>151.49299621582</ele>
        <time>2009-10-10T12:46:00Z</time>
      </trkpt>
      <trkpt lat="45.22808" lon="4.82913">
        <ele>151.51800537109</ele>
        <time>2009-10-10T12:46:12Z</time>
      </trkpt>
      <trkpt lat="45.22848" lon="4.8282">
        <ele>151.32099914551</ele>
        <time>2009-10-10T12:46:22Z</time>
      </trkpt>
      <trkpt lat="45.22873" lon="4.82753">
        <ele>151.4640045166</ele>
        <time>2009-10-10T12:46:29Z</time>
      </trkpt>
      <trkpt lat="45.22905" lon="4.82667">
        <ele>150.94700622559</ele>
        <time>2009-10-10T12:46:38Z</time>
      </trkpt>
      <trkpt lat="45.22946" lon="4.82554">
        <ele>151.06399536133</ele>
        <time>2009-10-10T12:46:50Z</time>
      </trkpt>
      <trkpt lat="45.22974" lon="4.8247">
        <ele>151.87399291992</ele>
        <time>2009-10-10T12:46:59Z</time>
      </trkpt>
      <trkpt lat="45.23" lon="4.82393">
        <ele>151.52099609375</ele>
        <time>2009-10-10T12:47:07Z</time>
      </trkpt>
      <trkpt lat="45.23046" lon="4.8227">
        <ele>151.02299499512</ele>
        <time>2009-10-10T12:47:20Z</time>
      </trkpt>
      <trkpt lat="45.2308" lon="4.82183">
        <ele>150.93899536133</ele>
        <time>2009-10-10T12:47:29Z</time>
      </trkpt>
      <trkpt lat="45.2311" lon="4.82104">
        <ele>150.85600280762</ele>
        <time>2009-10-10T12:47:37Z</time>
      </trkpt>
      <trkpt lat="45.23144" lon="4.8201">
        <ele>150.80299377441</ele>
        <time>2009-10-10T12:47:47Z</time>
      </trkpt>
      <trkpt lat="45.23162" lon="4.8194">
        <ele>150.52900695801</ele>
        <time>2009-10-10T12:47:54Z</time>
      </trkpt>
      <trkpt lat="45.23168" lon="4.81882">
        <ele>150.15400695801</ele>
        <time>2009-10-10T12:48:00Z</time>
      </trkpt>
      <trkpt lat="45.23172" lon="4.81845">
        <ele>149.88400268555</ele>
        <time>2009-10-10T12:48:05Z</time>
      </trkpt>
      <trkpt lat="45.23174" lon="4.81832">
        <ele>149.88400268555</ele>
        <time>2009-10-10T12:48:09Z</time>
      </trkpt>
      <trkpt lat="45.23175" lon="4.8183">
        <ele>149.88400268555</ele>
        <time>2009-10-10T12:48:10Z</time>
      </trkpt>
      <trkpt lat="45.23183" lon="4.8183">
        <ele>150.32600402832</ele>
        <time>2009-10-10T12:48:14Z</time>
      </trkpt>
      <trkpt lat="45.23207" lon="4.81834">
        <ele>151.02299499512</ele>
        <time>2009-10-10T12:48:19Z</time>
      </trkpt>
      <trkpt lat="45.23244" lon="4.81838">
        <ele>151.50399780273</ele>
        <time>2009-10-10T12:48:25Z</time>
      </trkpt>
      <trkpt lat="45.23286" lon="4.81849">
        <ele>153.27900695801</ele>
        <time>2009-10-10T12:48:32Z</time>
      </trkpt>
      <trkpt lat="45.23344" lon="4.81861">
        <ele>154.52499389648</ele>
        <time>2009-10-10T12:48:41Z</time>
      </trkpt>
      <trkpt lat="45.23417" lon="4.81875">
        <ele>153.58599853516</ele>
        <time>2009-10-10T12:48:51Z</time>
      </trkpt>
      <trkpt lat="45.23477" lon="4.81886">
        <ele>153.24699401856</ele>
        <time>2009-10-10T12:48:59Z</time>
      </trkpt>
      <trkpt lat="45.23536" lon="4.81897">
        <ele>153.55000305176</ele>
        <time>2009-10-10T12:49:07Z</time>
      </trkpt>
      <trkpt lat="45.23601" lon="4.8191">
        <ele>154.21000671387</ele>
        <time>2009-10-10T12:49:16Z</time>
      </trkpt>
      <trkpt lat="45.23645" lon="4.81918">
        <ele>154.22900390625</ele>
        <time>2009-10-10T12:49:22Z</time>
      </trkpt>
      <trkpt lat="45.23696" lon="4.81928">
        <ele>154.19400024414</ele>
        <time>2009-10-10T12:49:29Z</time>
      </trkpt>
      <trkpt lat="45.2374" lon="4.81936">
        <ele>154.85099792481</ele>
        <time>2009-10-10T12:49:35Z</time>
      </trkpt>
      <trkpt lat="45.23822" lon="4.81951">
        <ele>155.16900634766</ele>
        <time>2009-10-10T12:49:46Z</time>
      </trkpt>
      <trkpt lat="45.23876" lon="4.81962">
        <ele>156.73599243164</ele>
        <time>2009-10-10T12:49:54Z</time>
      </trkpt>
      <trkpt lat="45.23913" lon="4.81969">
        <ele>157.98300170898</ele>
        <time>2009-10-10T12:50:00Z</time>
      </trkpt>
      <trkpt lat="45.23968" lon="4.81979">
        <ele>159.96099853516</ele>
        <time>2009-10-10T12:50:09Z</time>
      </trkpt>
      <trkpt lat="45.2403" lon="4.8199">
        <ele>160.32600402832</ele>
        <time>2009-10-10T12:50:19Z</time>
      </trkpt>
      <trkpt lat="45.24081" lon="4.81999">
        <ele>159.94900512695</ele>
        <time>2009-10-10T12:50:27Z</time>
      </trkpt>
      <trkpt lat="45.24103" lon="4.82013">
        <ele>159.70799255371</ele>
        <time>2009-10-10T12:50:31Z</time>
      </trkpt>
      <trkpt lat="45.24121" lon="4.82031">
        <ele>160.4940032959</ele>
        <time>2009-10-10T12:50:35Z</time>
      </trkpt>
      <trkpt lat="45.24138" lon="4.82023">
        <ele>160.89300537109</ele>
        <time>2009-10-10T12:50:38Z</time>
      </trkpt>
      <trkpt lat="45.24144" lon="4.82001">
        <ele>160.82699584961</ele>
        <time>2009-10-10T12:50:41Z</time>
      </trkpt>
      <trkpt lat="45.24136" lon="4.8198">
        <ele>160.57299804688</ele>
        <time>2009-10-10T12:50:44Z</time>
      </trkpt>
      <trkpt lat="45.24119" lon="4.81944">
        <ele>160.24600219727</ele>
        <time>2009-10-10T12:50:49Z</time>
      </trkpt>
      <trkpt lat="45.24114" lon="4.81927">
        <ele>160.10299682617</ele>
        <time>2009-10-10T12:50:51Z</time>
      </trkpt>
      <trkpt lat="45.24109" lon="4.81869">
        <ele>158.98899841309</ele>
        <time>2009-10-10T12:50:57Z</time>
      </trkpt>
      <trkpt lat="45.24109" lon="4.81814">
        <ele>157.5059967041</ele>
        <time>2009-10-10T12:51:02Z</time>
      </trkpt>
      <trkpt lat="45.2411" lon="4.81754">
        <ele>155.65199279785</ele>
        <time>2009-10-10T12:51:07Z</time>
      </trkpt>
      <trkpt lat="45.2411" lon="4.81729">
        <ele>154.96699523926</ele>
        <time>2009-10-10T12:51:09Z</time>
      </trkpt>
      <trkpt lat="45.2411" lon="4.81716">
        <ele>154.43200683594</ele>
        <time>2009-10-10T12:51:10Z</time>
      </trkpt>
      <trkpt lat="45.24111" lon="4.81691">
        <ele>153.57800292969</ele>
        <time>2009-10-10T12:51:12Z</time>
      </trkpt>
      <trkpt lat="45.2412" lon="4.81618">
        <ele>150.80499267578</ele>
        <time>2009-10-10T12:51:18Z</time>
      </trkpt>
      <trkpt lat="45.24139" lon="4.81546">
        <ele>148.97999572754</ele>
        <time>2009-10-10T12:51:24Z</time>
      </trkpt>
      <trkpt lat="45.24161" lon="4.81503">
        <ele>146.63000488281</ele>
        <time>2009-10-10T12:51:28Z</time>
      </trkpt>
      <trkpt lat="45.24196" lon="4.81457">
        <ele>144.50900268555</ele>
        <time>2009-10-10T12:51:33Z</time>
      </trkpt>
      <trkpt lat="45.24233" lon="4.81413">
        <ele>142.32600402832</ele>
        <time>2009-10-10T12:51:38Z</time>
      </trkpt>
      <trkpt lat="45.24279" lon="4.81359">
        <ele>142.06199645996</ele>
        <time>2009-10-10T12:51:45Z</time>
      </trkpt>
      <trkpt lat="45.24302" lon="4.81335">
        <ele>141.87100219727</ele>
        <time>2009-10-10T12:51:49Z</time>
      </trkpt>
      <trkpt lat="45.24349" lon="4.81301">
        <ele>142.80900573731</ele>
        <time>2009-10-10T12:51:57Z</time>
      </trkpt>
      <trkpt lat="45.24368" lon="4.8128">
        <ele>143.15600585938</ele>
        <time>2009-10-10T12:52:01Z</time>
      </trkpt>
      <trkpt lat="45.24375" lon="4.81251">
        <ele>142.63499450684</ele>
        <time>2009-10-10T12:52:05Z</time>
      </trkpt>
      <trkpt lat="45.24362" lon="4.81234">
        <ele>143.01800537109</ele>
        <time>2009-10-10T12:52:08Z</time>
      </trkpt>
      <trkpt lat="45.24355" lon="4.81211">
        <ele>142.98300170898</ele>
        <time>2009-10-10T12:52:11Z</time>
      </trkpt>
      <trkpt lat="45.24355" lon="4.81194">
        <ele>143.78399658203</ele>
        <time>2009-10-10T12:52:13Z</time>
      </trkpt>
      <trkpt lat="45.24359" lon="4.81162">
        <ele>144.5359954834</ele>
        <time>2009-10-10T12:52:17Z</time>
      </trkpt>
      <trkpt lat="45.24366" lon="4.81107">
        <ele>147.44700622559</ele>
        <time>2009-10-10T12:52:24Z</time>
      </trkpt>
      <trkpt lat="45.24369" lon="4.81077">
        <ele>148.55099487305</ele>
        <time>2009-10-10T12:52:28Z</time>
      </trkpt>
      <trkpt lat="45.24372" lon="4.81054">
        <ele>149.11000061035</ele>
        <time>2009-10-10T12:52:31Z</time>
      </trkpt>
      <trkpt lat="45.24375" lon="4.81031">
        <ele>149.88400268555</ele>
        <time>2009-10-10T12:52:34Z</time>
      </trkpt>
      <trkpt lat="45.24376" lon="4.81023">
        <ele>150.11999511719</ele>
        <time>2009-10-10T12:52:35Z</time>
      </trkpt>
      <trkpt lat="45.2438" lon="4.80989">
        <ele>150.68600463867</ele>
        <time>2009-10-10T12:52:39Z</time>
      </trkpt>
      <trkpt lat="45.24389" lon="4.80918">
        <ele>151.38900756836</ele>
        <time>2009-10-10T12:52:47Z</time>
      </trkpt>
      <trkpt lat="45.24398" lon="4.8084">
        <ele>151.83099365234</ele>
        <time>2009-10-10T12:52:56Z</time>
      </trkpt>
      <trkpt lat="45.24408" lon="4.80755">
        <ele>150.28700256348</ele>
        <time>2009-10-10T12:53:05Z</time>
      </trkpt>
      <trkpt lat="45.24419" lon="4.80684">
        <ele>147.99299621582</ele>
        <time>2009-10-10T12:53:12Z</time>
      </trkpt>
      <trkpt lat="45.24426" lon="4.80619">
        <ele>147.46699523926</ele>
        <time>2009-10-10T12:53:18Z</time>
      </trkpt>
      <trkpt lat="45.2443" lon="4.80578">
        <ele>147.18499755859</ele>
        <time>2009-10-10T12:53:22Z</time>
      </trkpt>
      <trkpt lat="45.24437" lon="4.80513">
        <ele>146.32299804688</ele>
        <time>2009-10-10T12:53:28Z</time>
      </trkpt>
      <trkpt lat="45.24434" lon="4.80467">
        <ele>145.56500244141</ele>
        <time>2009-10-10T12:53:32Z</time>
      </trkpt>
      <trkpt lat="45.24417" lon="4.80427">
        <ele>144.41299438477</ele>
        <time>2009-10-10T12:53:36Z</time>
      </trkpt>
      <trkpt lat="45.24392" lon="4.80401">
        <ele>143.64799499512</ele>
        <time>2009-10-10T12:53:40Z</time>
      </trkpt>
      <trkpt lat="45.24369" lon="4.80392">
        <ele>142.95300292969</ele>
        <time>2009-10-10T12:53:43Z</time>
      </trkpt>
      <trkpt lat="45.24305" lon="4.80387">
        <ele>141.92300415039</ele>
        <time>2009-10-10T12:53:51Z</time>
      </trkpt>
      <trkpt lat="45.24259" lon="4.8038">
        <ele>142.14399719238</ele>
        <time>2009-10-10T12:53:57Z</time>
      </trkpt>
      <trkpt lat="45.24225" lon="4.80369">
        <ele>141.7440032959</ele>
        <time>2009-10-10T12:54:02Z</time>
      </trkpt>
      <trkpt lat="45.2421" lon="4.80345">
        <ele>141.94200134277</ele>
        <time>2009-10-10T12:54:06Z</time>
      </trkpt>
      <trkpt lat="45.2421" lon="4.80336">
        <ele>141.91799926758</ele>
        <time>2009-10-10T12:54:07Z</time>
      </trkpt>
      <trkpt lat="45.24215" lon="4.80283">
        <ele>142.55999755859</ele>
        <time>2009-10-10T12:54:13Z</time>
      </trkpt>
      <trkpt lat="45.24216" lon="4.80266">
        <ele>143.2200012207</ele>
        <time>2009-10-10T12:54:15Z</time>
      </trkpt>
      <trkpt lat="45.24221" lon="4.80231">
        <ele>144.06799316406</ele>
        <time>2009-10-10T12:54:19Z</time>
      </trkpt>
      <trkpt lat="45.24224" lon="4.8019">
        <ele>145.4640045166</ele>
        <time>2009-10-10T12:54:24Z</time>
      </trkpt>
      <trkpt lat="45.24229" lon="4.80143">
        <ele>147.58200073242</ele>
        <time>2009-10-10T12:54:30Z</time>
      </trkpt>
      <trkpt lat="45.24232" lon="4.80083">
        <ele>146.72300720215</ele>
        <time>2009-10-10T12:54:37Z</time>
      </trkpt>
      <trkpt lat="45.24238" lon="4.80014">
        <ele>144.46899414062</ele>
        <time>2009-10-10T12:54:45Z</time>
      </trkpt>
      <trkpt lat="45.24239" lon="4.80005">
        <ele>144.26400756836</ele>
        <time>2009-10-10T12:54:46Z</time>
      </trkpt>
      <trkpt lat="45.24242" lon="4.79969">
        <ele>142.85000610352</ele>
        <time>2009-10-10T12:54:51Z</time>
      </trkpt>
      <trkpt lat="45.24244" lon="4.79963">
        <ele>142.34199523926</ele>
        <time>2009-10-10T12:54:55Z</time>
      </trkpt>
      <trkpt lat="45.24244" lon="4.79961">
        <ele>142.54600524902</ele>
        <time>2009-10-10T12:54:56Z</time>
      </trkpt>
      <trkpt lat="45.24255" lon="4.79964">
        <ele>142.12600708008</ele>
        <time>2009-10-10T12:55:00Z</time>
      </trkpt>
      <trkpt lat="45.24272" lon="4.79972">
        <ele>141.86099243164</ele>
        <time>2009-10-10T12:55:04Z</time>
      </trkpt>
      <trkpt lat="45.24308" lon="4.79989">
        <ele>141.78199768066</ele>
        <time>2009-10-10T12:55:10Z</time>
      </trkpt>
      <trkpt lat="45.24341" lon="4.80005">
        <ele>141.61700439453</ele>
        <time>2009-10-10T12:55:15Z</time>
      </trkpt>
      <trkpt lat="45.24361" lon="4.80013">
        <ele>141.29200744629</ele>
        <time>2009-10-10T12:55:18Z</time>
      </trkpt>
      <trkpt lat="45.24393" lon="4.80026">
        <ele>140.92199707031</ele>
        <time>2009-10-10T12:55:23Z</time>
      </trkpt>
      <trkpt lat="45.24419" lon="4.80032">
        <ele>140.70199584961</ele>
        <time>2009-10-10T12:55:27Z</time>
      </trkpt>
      <trkpt lat="45.24433" lon="4.80036">
        <ele>140.02900695801</ele>
        <time>2009-10-10T12:55:29Z</time>
      </trkpt>
      <trkpt lat="45.2444" lon="4.80037">
        <ele>139.92900085449</ele>
        <time>2009-10-10T12:55:30Z</time>
      </trkpt>
      <trkpt lat="45.24491" lon="4.80045">
        <ele>139.62199401856</ele>
        <time>2009-10-10T12:55:37Z</time>
      </trkpt>
      <trkpt lat="45.24541" lon="4.80047">
        <ele>139.13900756836</ele>
        <time>2009-10-10T12:55:44Z</time>
      </trkpt>
      <trkpt lat="45.246" lon="4.80047">
        <ele>139.12600708008</ele>
        <time>2009-10-10T12:55:52Z</time>
      </trkpt>
      <trkpt lat="45.24652" lon="4.8004">
        <ele>138.72799682617</ele>
        <time>2009-10-10T12:55:59Z</time>
      </trkpt>
      <trkpt lat="45.24711" lon="4.80032">
        <ele>138.34300231934</ele>
        <time>2009-10-10T12:56:07Z</time>
      </trkpt>
      <trkpt lat="45.24778" lon="4.80027">
        <ele>139.0950012207</ele>
        <time>2009-10-10T12:56:16Z</time>
      </trkpt>
      <trkpt lat="45.24835" lon="4.80027">
        <ele>138.92599487305</ele>
        <time>2009-10-10T12:56:24Z</time>
      </trkpt>
      <trkpt lat="45.24894" lon="4.80035">
        <ele>140.41499328613</ele>
        <time>2009-10-10T12:56:33Z</time>
      </trkpt>
      <trkpt lat="45.2495" lon="4.80037">
        <ele>140.63200378418</ele>
        <time>2009-10-10T12:56:41Z</time>
      </trkpt>
      <trkpt lat="45.25008" lon="4.80038">
        <ele>140.47999572754</ele>
        <time>2009-10-10T12:56:49Z</time>
      </trkpt>
      <trkpt lat="45.25063" lon="4.80039">
        <ele>140.86099243164</ele>
        <time>2009-10-10T12:56:57Z</time>
      </trkpt>
      <trkpt lat="45.25126" lon="4.8004">
        <ele>140.72200012207</ele>
        <time>2009-10-10T12:57:06Z</time>
      </trkpt>
      <trkpt lat="45.25203" lon="4.8004">
        <ele>140.85099792481</ele>
        <time>2009-10-10T12:57:17Z</time>
      </trkpt>
      <trkpt lat="45.25281" lon="4.80042">
        <ele>141.12399291992</ele>
        <time>2009-10-10T12:57:28Z</time>
      </trkpt>
      <trkpt lat="45.25351" lon="4.80039">
        <ele>140.55700683594</ele>
        <time>2009-10-10T12:57:38Z</time>
      </trkpt>
      <trkpt lat="45.25417" lon="4.80035">
        <ele>140.62199401856</ele>
        <time>2009-10-10T12:57:48Z</time>
      </trkpt>
      <trkpt lat="45.25488" lon="4.80033">
        <ele>140.73199462891</ele>
        <time>2009-10-10T12:57:58Z</time>
      </trkpt>
      <trkpt lat="45.25536" lon="4.80032">
        <ele>140.93600463867</ele>
        <time>2009-10-10T12:58:05Z</time>
      </trkpt>
      <trkpt lat="45.25595" lon="4.80033">
        <ele>140.51499938965</ele>
        <time>2009-10-10T12:58:13Z</time>
      </trkpt>
      <trkpt lat="45.25647" lon="4.80032">
        <ele>140.74499511719</ele>
        <time>2009-10-10T12:58:20Z</time>
      </trkpt>
      <trkpt lat="45.25716" lon="4.80032">
        <ele>141.30000305176</ele>
        <time>2009-10-10T12:58:30Z</time>
      </trkpt>
      <trkpt lat="45.25758" lon="4.80031">
        <ele>140.3809967041</ele>
        <time>2009-10-10T12:58:36Z</time>
      </trkpt>
      <trkpt lat="45.25815" lon="4.80034">
        <ele>140.14900207519</ele>
        <time>2009-10-10T12:58:44Z</time>
      </trkpt>
      <trkpt lat="45.25844" lon="4.80039">
        <ele>140.13000488281</ele>
        <time>2009-10-10T12:58:48Z</time>
      </trkpt>
      <trkpt lat="45.25863" lon="4.80033">
        <ele>140.50500488281</ele>
        <time>2009-10-10T12:58:51Z</time>
      </trkpt>
      <trkpt lat="45.2586" lon="4.80018">
        <ele>141.07699584961</ele>
        <time>2009-10-10T12:58:53Z</time>
      </trkpt>
      <trkpt lat="45.25848" lon="4.80016">
        <ele>141.60299682617</ele>
        <time>2009-10-10T12:58:55Z</time>
      </trkpt>
      <trkpt lat="45.25832" lon="4.80017">
        <ele>141.625</ele>
        <time>2009-10-10T12:58:58Z</time>
      </trkpt>
      <trkpt lat="45.25821" lon="4.8002">
        <ele>141.46800231934</ele>
        <time>2009-10-10T12:59:00Z</time>
      </trkpt>
      <trkpt lat="45.25805" lon="4.80021">
        <ele>141.78100585938</ele>
        <time>2009-10-10T12:59:03Z</time>
      </trkpt>
      <trkpt lat="45.25785" lon="4.80009">
        <ele>142.375</ele>
        <time>2009-10-10T12:59:07Z</time>
      </trkpt>
      <trkpt lat="45.2577" lon="4.79973">
        <ele>141.35699462891</ele>
        <time>2009-10-10T12:59:13Z</time>
      </trkpt>
      <trkpt lat="45.25771" lon="4.79964">
        <ele>140.91799926758</ele>
        <time>2009-10-10T12:59:14Z</time>
      </trkpt>
      <trkpt lat="45.25777" lon="4.79889">
        <ele>139.80999755859</ele>
        <time>2009-10-10T12:59:22Z</time>
      </trkpt>
      <trkpt lat="45.25777" lon="4.7987">
        <ele>140.70100402832</ele>
        <time>2009-10-10T12:59:24Z</time>
      </trkpt>
      <trkpt lat="45.25787" lon="4.79823">
        <ele>140.375</ele>
        <time>2009-10-10T12:59:29Z</time>
      </trkpt>
      <trkpt lat="45.25824" lon="4.7976">
        <ele>140.54200744629</ele>
        <time>2009-10-10T12:59:37Z</time>
      </trkpt>
      <trkpt lat="45.25848" lon="4.797">
        <ele>141.45899963379</ele>
        <time>2009-10-10T12:59:44Z</time>
      </trkpt>
      <trkpt lat="45.25861" lon="4.79634">
        <ele>142.14199829102</ele>
        <time>2009-10-10T12:59:51Z</time>
      </trkpt>
      <trkpt lat="45.25869" lon="4.79558">
        <ele>142.69900512695</ele>
        <time>2009-10-10T12:59:59Z</time>
      </trkpt>
      <trkpt lat="45.2587" lon="4.79487">
        <ele>143.29600524902</ele>
        <time>2009-10-10T13:00:06Z</time>
      </trkpt>
      <trkpt lat="45.2587" lon="4.79477">
        <ele>143.3869934082</ele>
        <time>2009-10-10T13:00:07Z</time>
      </trkpt>
      <trkpt lat="45.25859" lon="4.79431">
        <ele>144.68299865723</ele>
        <time>2009-10-10T13:00:12Z</time>
      </trkpt>
      <trkpt lat="45.2586" lon="4.79398">
        <ele>146.03500366211</ele>
        <time>2009-10-10T13:00:16Z</time>
      </trkpt>
      <trkpt lat="45.25857" lon="4.79365">
        <ele>145.8630065918</ele>
        <time>2009-10-10T13:00:20Z</time>
      </trkpt>
      <trkpt lat="45.25858" lon="4.7933">
        <ele>146.80499267578</ele>
        <time>2009-10-10T13:00:24Z</time>
      </trkpt>
      <trkpt lat="45.2587" lon="4.7927">
        <ele>147.77799987793</ele>
        <time>2009-10-10T13:00:31Z</time>
      </trkpt>
      <trkpt lat="45.2587" lon="4.79252">
        <ele>148.25</ele>
        <time>2009-10-10T13:00:33Z</time>
      </trkpt>
      <trkpt lat="45.25864" lon="4.7919">
        <ele>149.25799560547</ele>
        <time>2009-10-10T13:00:40Z</time>
      </trkpt>
      <trkpt lat="45.25862" lon="4.79132">
        <ele>150.17500305176</ele>
        <time>2009-10-10T13:00:47Z</time>
      </trkpt>
      <trkpt lat="45.25854" lon="4.79087">
        <ele>150.43099975586</ele>
        <time>2009-10-10T13:00:53Z</time>
      </trkpt>
      <trkpt lat="45.25838" lon="4.79034">
        <ele>150.50700378418</ele>
        <time>2009-10-10T13:01:00Z</time>
      </trkpt>
      <trkpt lat="45.25825" lon="4.78995">
        <ele>150.72999572754</ele>
        <time>2009-10-10T13:01:06Z</time>
      </trkpt>
      <trkpt lat="45.25822" lon="4.78989">
        <ele>150.53199768066</ele>
        <time>2009-10-10T13:01:07Z</time>
      </trkpt>
      <trkpt lat="45.25797" lon="4.78955">
        <ele>149.76100158691</ele>
        <time>2009-10-10T13:01:13Z</time>
      </trkpt>
      <trkpt lat="45.25783" lon="4.78913">
        <ele>148.70799255371</ele>
        <time>2009-10-10T13:01:18Z</time>
      </trkpt>
      <trkpt lat="45.25782" lon="4.78903">
        <ele>148.41499328613</ele>
        <time>2009-10-10T13:01:19Z</time>
      </trkpt>
      <trkpt lat="45.2578" lon="4.78883">
        <ele>148.61799621582</ele>
        <time>2009-10-10T13:01:21Z</time>
      </trkpt>
      <trkpt lat="45.25768" lon="4.7884">
        <ele>149.22799682617</ele>
        <time>2009-10-10T13:01:26Z</time>
      </trkpt>
      <trkpt lat="45.25756" lon="4.78818">
        <ele>149.24699401856</ele>
        <time>2009-10-10T13:01:29Z</time>
      </trkpt>
      <trkpt lat="45.25729" lon="4.78779">
        <ele>149.40400695801</ele>
        <time>2009-10-10T13:01:35Z</time>
      </trkpt>
      <trkpt lat="45.25696" lon="4.7873">
        <ele>149.16499328613</ele>
        <time>2009-10-10T13:01:42Z</time>
      </trkpt>
      <trkpt lat="45.25676" lon="4.78706">
        <ele>148.64999389648</ele>
        <time>2009-10-10T13:01:46Z</time>
      </trkpt>
      <trkpt lat="45.25655" lon="4.78685">
        <ele>149.23300170898</ele>
        <time>2009-10-10T13:01:50Z</time>
      </trkpt>
      <trkpt lat="45.25628" lon="4.78643">
        <ele>149.59399414062</ele>
        <time>2009-10-10T13:01:56Z</time>
      </trkpt>
      <trkpt lat="45.25598" lon="4.78605">
        <ele>149.83500671387</ele>
        <time>2009-10-10T13:02:02Z</time>
      </trkpt>
      <trkpt lat="45.25581" lon="4.7858">
        <ele>149.74899291992</ele>
        <time>2009-10-10T13:02:06Z</time>
      </trkpt>
      <trkpt lat="45.25572" lon="4.78571">
        <ele>149.69000244141</ele>
        <time>2009-10-10T13:02:08Z</time>
      </trkpt>
      <trkpt lat="45.25563" lon="4.78564">
        <ele>149.94999694824</ele>
        <time>2009-10-10T13:02:10Z</time>
      </trkpt>
      <trkpt lat="45.25546" lon="4.78558">
        <ele>149.81700134277</ele>
        <time>2009-10-10T13:02:14Z</time>
      </trkpt>
      <trkpt lat="45.25541" lon="4.78557">
        <ele>149.64700317383</ele>
        <time>2009-10-10T13:02:15Z</time>
      </trkpt>
      <trkpt lat="45.25525" lon="4.78553">
        <ele>150.22300720215</ele>
        <time>2009-10-10T13:02:18Z</time>
      </trkpt>
      <trkpt lat="45.25508" lon="4.78548">
        <ele>150.30499267578</ele>
        <time>2009-10-10T13:02:21Z</time>
      </trkpt>
      <trkpt lat="45.2549" lon="4.7853">
        <ele>150.72200012207</ele>
        <time>2009-10-10T13:02:25Z</time>
      </trkpt>
      <trkpt lat="45.25458" lon="4.78478">
        <ele>150.77000427246</ele>
        <time>2009-10-10T13:02:33Z</time>
      </trkpt>
      <trkpt lat="45.25422" lon="4.7843">
        <ele>151.80299377441</ele>
        <time>2009-10-10T13:02:41Z</time>
      </trkpt>
      <trkpt lat="45.25416" lon="4.78402">
        <ele>152.48100280762</ele>
        <time>2009-10-10T13:02:45Z</time>
      </trkpt>
      <trkpt lat="45.25418" lon="4.78396">
        <ele>152.39300537109</ele>
        <time>2009-10-10T13:02:46Z</time>
      </trkpt>
      <trkpt lat="45.25432" lon="4.78371">
        <ele>153.84399414062</ele>
        <time>2009-10-10T13:02:51Z</time>
      </trkpt>
      <trkpt lat="45.25438" lon="4.78362">
        <ele>154.46899414062</ele>
        <time>2009-10-10T13:02:53Z</time>
      </trkpt>
      <trkpt lat="45.25458" lon="4.78331">
        <ele>156.10899353027</ele>
        <time>2009-10-10T13:03:00Z</time>
      </trkpt>
      <trkpt lat="45.25475" lon="4.78304">
        <ele>157.1130065918</ele>
        <time>2009-10-10T13:03:06Z</time>
      </trkpt>
      <trkpt lat="45.25477" lon="4.783">
        <ele>157.13400268555</ele>
        <time>2009-10-10T13:03:07Z</time>
      </trkpt>
      <trkpt lat="45.25481" lon="4.78277">
        <ele>157.51100158691</ele>
        <time>2009-10-10T13:03:11Z</time>
      </trkpt>
      <trkpt lat="45.25476" lon="4.78265">
        <ele>157.88400268555</ele>
        <time>2009-10-10T13:03:13Z</time>
      </trkpt>
      <trkpt lat="45.25458" lon="4.78218">
        <ele>159.60099792481</ele>
        <time>2009-10-10T13:03:21Z</time>
      </trkpt>
      <trkpt lat="45.25439" lon="4.78176">
        <ele>160.42399597168</ele>
        <time>2009-10-10T13:03:28Z</time>
      </trkpt>
      <trkpt lat="45.25414" lon="4.78114">
        <ele>162.00999450684</ele>
        <time>2009-10-10T13:03:38Z</time>
      </trkpt>
      <trkpt lat="45.25412" lon="4.78108">
        <ele>162.02000427246</ele>
        <time>2009-10-10T13:03:39Z</time>
      </trkpt>
      <trkpt lat="45.25412" lon="4.78076">
        <ele>163.24099731445</ele>
        <time>2009-10-10T13:03:44Z</time>
      </trkpt>
      <trkpt lat="45.2542" lon="4.78062">
        <ele>164.05900573731</ele>
        <time>2009-10-10T13:03:47Z</time>
      </trkpt>
      <trkpt lat="45.25444" lon="4.78037">
        <ele>167.07000732422</ele>
        <time>2009-10-10T13:03:56Z</time>
      </trkpt>
      <trkpt lat="45.25461" lon="4.78014">
        <ele>169.19900512695</ele>
        <time>2009-10-10T13:04:03Z</time>
      </trkpt>
      <trkpt lat="45.25484" lon="4.77988">
        <ele>172.23599243164</ele>
        <time>2009-10-10T13:04:12Z</time>
      </trkpt>
      <trkpt lat="45.25502" lon="4.77969">
        <ele>174.25</ele>
        <time>2009-10-10T13:04:19Z</time>
      </trkpt>
      <trkpt lat="45.25523" lon="4.77945">
        <ele>176.84899902344</ele>
        <time>2009-10-10T13:04:28Z</time>
      </trkpt>
      <trkpt lat="45.25539" lon="4.77925">
        <ele>179.49600219727</ele>
        <time>2009-10-10T13:04:35Z</time>
      </trkpt>
      <trkpt lat="45.25549" lon="4.77909">
        <ele>180.94099426269</ele>
        <time>2009-10-10T13:04:40Z</time>
      </trkpt>
      <trkpt lat="45.25563" lon="4.77888">
        <ele>183.00199890137</ele>
        <time>2009-10-10T13:04:47Z</time>
      </trkpt>
      <trkpt lat="45.25575" lon="4.77871">
        <ele>184.88200378418</ele>
        <time>2009-10-10T13:04:53Z</time>
      </trkpt>
      <trkpt lat="45.25587" lon="4.77861">
        <ele>186.33500671387</ele>
        <time>2009-10-10T13:04:58Z</time>
      </trkpt>
      <trkpt lat="45.25603" lon="4.77858">
        <ele>188.28300476074</ele>
        <time>2009-10-10T13:05:03Z</time>
      </trkpt>
      <trkpt lat="45.25626" lon="4.77873">
        <ele>190.70599365234</ele>
        <time>2009-10-10T13:05:11Z</time>
      </trkpt>
      <trkpt lat="45.25649" lon="4.77882">
        <ele>192.95199584961</ele>
        <time>2009-10-10T13:05:18Z</time>
      </trkpt>
      <trkpt lat="45.25681" lon="4.77887">
        <ele>195.57200622559</ele>
        <time>2009-10-10T13:05:28Z</time>
      </trkpt>
      <trkpt lat="45.25711" lon="4.7789">
        <ele>198.70100402832</ele>
        <time>2009-10-10T13:05:38Z</time>
      </trkpt>
      <trkpt lat="45.2574" lon="4.77886">
        <ele>201.19700622559</ele>
        <time>2009-10-10T13:05:47Z</time>
      </trkpt>
      <trkpt lat="45.25777" lon="4.77876">
        <ele>204.39199829102</ele>
        <time>2009-10-10T13:05:58Z</time>
      </trkpt>
      <trkpt lat="45.2581" lon="4.77872">
        <ele>206.29800415039</ele>
        <time>2009-10-10T13:06:08Z</time>
      </trkpt>
      <trkpt lat="45.25823" lon="4.77873">
        <ele>207.66299438477</ele>
        <time>2009-10-10T13:06:12Z</time>
      </trkpt>
      <trkpt lat="45.25828" lon="4.77859">
        <ele>209.23399353027</ele>
        <time>2009-10-10T13:06:16Z</time>
      </trkpt>
      <trkpt lat="45.25821" lon="4.77851">
        <ele>210.22399902344</ele>
        <time>2009-10-10T13:06:19Z</time>
      </trkpt>
      <trkpt lat="45.25814" lon="4.7785">
        <ele>211.27000427246</ele>
        <time>2009-10-10T13:06:21Z</time>
      </trkpt>
      <trkpt lat="45.25788" lon="4.77843">
        <ele>213.93099975586</ele>
        <time>2009-10-10T13:06:29Z</time>
      </trkpt>
      <trkpt lat="45.2577" lon="4.77822">
        <ele>215.73300170898</ele>
        <time>2009-10-10T13:06:36Z</time>
      </trkpt>
      <trkpt lat="45.25751" lon="4.77788">
        <ele>218.65100097656</ele>
        <time>2009-10-10T13:06:45Z</time>
      </trkpt>
      <trkpt lat="45.25741" lon="4.77748">
        <ele>221.58399963379</ele>
        <time>2009-10-10T13:06:54Z</time>
      </trkpt>
      <trkpt lat="45.25734" lon="4.77711">
        <ele>224.07000732422</ele>
        <time>2009-10-10T13:07:02Z</time>
      </trkpt>
      <trkpt lat="45.25723" lon="4.77682">
        <ele>226.29200744629</ele>
        <time>2009-10-10T13:07:09Z</time>
      </trkpt>
      <trkpt lat="45.25705" lon="4.77655">
        <ele>228.89700317383</ele>
        <time>2009-10-10T13:07:17Z</time>
      </trkpt>
      <trkpt lat="45.25687" lon="4.77628">
        <ele>230.91200256348</ele>
        <time>2009-10-10T13:07:25Z</time>
      </trkpt>
      <trkpt lat="45.25669" lon="4.77604">
        <ele>232.42300415039</ele>
        <time>2009-10-10T13:07:32Z</time>
      </trkpt>
      <trkpt lat="45.2566" lon="4.77581">
        <ele>233.13200378418</ele>
        <time>2009-10-10T13:07:37Z</time>
      </trkpt>
      <trkpt lat="45.25665" lon="4.77567">
        <ele>233.93600463867</ele>
        <time>2009-10-10T13:07:40Z</time>
      </trkpt>
      <trkpt lat="45.25676" lon="4.77562">
        <ele>234.83000183106</ele>
        <time>2009-10-10T13:07:43Z</time>
      </trkpt>
      <trkpt lat="45.2569" lon="4.77576">
        <ele>236.5299987793</ele>
        <time>2009-10-10T13:07:48Z</time>
      </trkpt>
      <trkpt lat="45.257" lon="4.77596">
        <ele>238.375</ele>
        <time>2009-10-10T13:07:53Z</time>
      </trkpt>
      <trkpt lat="45.25717" lon="4.77618">
        <ele>240.43899536133</ele>
        <time>2009-10-10T13:08:00Z</time>
      </trkpt>
      <trkpt lat="45.25725" lon="4.77621">
        <ele>241.50900268555</ele>
        <time>2009-10-10T13:08:03Z</time>
      </trkpt>
      <trkpt lat="45.25731" lon="4.7761">
        <ele>242.53900146484</ele>
        <time>2009-10-10T13:08:07Z</time>
      </trkpt>
      <trkpt lat="45.25721" lon="4.77591">
        <ele>244.02000427246</ele>
        <time>2009-10-10T13:08:13Z</time>
      </trkpt>
      <trkpt lat="45.25715" lon="4.77585">
        <ele>244.71200561523</ele>
        <time>2009-10-10T13:08:15Z</time>
      </trkpt>
      <trkpt lat="45.25692" lon="4.77552">
        <ele>247.1549987793</ele>
        <time>2009-10-10T13:08:24Z</time>
      </trkpt>
      <trkpt lat="45.25673" lon="4.77517">
        <ele>249.28399658203</ele>
        <time>2009-10-10T13:08:32Z</time>
      </trkpt>
      <trkpt lat="45.25662" lon="4.77486">
        <ele>251.28199768066</ele>
        <time>2009-10-10T13:08:38Z</time>
      </trkpt>
      <trkpt lat="45.25654" lon="4.77449">
        <ele>253.13600158691</ele>
        <time>2009-10-10T13:08:45Z</time>
      </trkpt>
      <trkpt lat="45.25642" lon="4.77401">
        <ele>255.98100280762</ele>
        <time>2009-10-10T13:08:54Z</time>
      </trkpt>
      <trkpt lat="45.25636" lon="4.77374">
        <ele>257.51699829102</ele>
        <time>2009-10-10T13:08:59Z</time>
      </trkpt>
      <trkpt lat="45.25623" lon="4.77318">
        <ele>260.44198608398</ele>
        <time>2009-10-10T13:09:09Z</time>
      </trkpt>
      <trkpt lat="45.25618" lon="4.77276">
        <ele>263.30999755859</ele>
        <time>2009-10-10T13:09:17Z</time>
      </trkpt>
      <trkpt lat="45.25619" lon="4.77254">
        <ele>264.24798583984</ele>
        <time>2009-10-10T13:09:21Z</time>
      </trkpt>
      <trkpt lat="45.25619" lon="4.77244">
        <ele>265.07299804688</ele>
        <time>2009-10-10T13:09:23Z</time>
      </trkpt>
      <trkpt lat="45.25615" lon="4.77219">
        <ele>266.1780090332</ele>
        <time>2009-10-10T13:09:27Z</time>
      </trkpt>
      <trkpt lat="45.25621" lon="4.77201">
        <ele>267.09698486328</ele>
        <time>2009-10-10T13:09:31Z</time>
      </trkpt>
      <trkpt lat="45.25631" lon="4.77209">
        <ele>268.22198486328</ele>
        <time>2009-10-10T13:09:34Z</time>
      </trkpt>
      <trkpt lat="45.25632" lon="4.77221">
        <ele>268.56799316406</ele>
        <time>2009-10-10T13:09:36Z</time>
      </trkpt>
      <trkpt lat="45.25635" lon="4.7726">
        <ele>271.10400390625</ele>
        <time>2009-10-10T13:09:43Z</time>
      </trkpt>
      <trkpt lat="45.25645" lon="4.77291">
        <ele>273.06100463867</ele>
        <time>2009-10-10T13:09:49Z</time>
      </trkpt>
      <trkpt lat="45.25674" lon="4.7734">
        <ele>275.80899047852</ele>
        <time>2009-10-10T13:10:00Z</time>
      </trkpt>
      <trkpt lat="45.25696" lon="4.77374">
        <ele>277.75900268555</ele>
        <time>2009-10-10T13:10:08Z</time>
      </trkpt>
      <trkpt lat="45.2571" lon="4.77396">
        <ele>279.42401123047</ele>
        <time>2009-10-10T13:10:13Z</time>
      </trkpt>
      <trkpt lat="45.25744" lon="4.77446">
        <ele>283.06500244141</ele>
        <time>2009-10-10T13:10:25Z</time>
      </trkpt>
      <trkpt lat="45.25768" lon="4.77486">
        <ele>285.79299926758</ele>
        <time>2009-10-10T13:10:34Z</time>
      </trkpt>
      <trkpt lat="45.25788" lon="4.77513">
        <ele>287.2919921875</ele>
        <time>2009-10-10T13:10:41Z</time>
      </trkpt>
      <trkpt lat="45.25811" lon="4.77535">
        <ele>289.43099975586</ele>
        <time>2009-10-10T13:10:48Z</time>
      </trkpt>
      <trkpt lat="45.25838" lon="4.77558">
        <ele>291.8219909668</ele>
        <time>2009-10-10T13:10:56Z</time>
      </trkpt>
      <trkpt lat="45.25848" lon="4.77568">
        <ele>293.07299804688</ele>
        <time>2009-10-10T13:10:59Z</time>
      </trkpt>
      <trkpt lat="45.25874" lon="4.77587">
        <ele>295.49398803711</ele>
        <time>2009-10-10T13:11:07Z</time>
      </trkpt>
      <trkpt lat="45.25896" lon="4.77596">
        <ele>297.19198608398</ele>
        <time>2009-10-10T13:11:14Z</time>
      </trkpt>
      <trkpt lat="45.25921" lon="4.776">
        <ele>299.60400390625</ele>
        <time>2009-10-10T13:11:21Z</time>
      </trkpt>
      <trkpt lat="45.25929" lon="4.776">
        <ele>300.26800537109</ele>
        <time>2009-10-10T13:11:23Z</time>
      </trkpt>
      <trkpt lat="45.25946" lon="4.77596">
        <ele>301.89599609375</ele>
        <time>2009-10-10T13:11:28Z</time>
      </trkpt>
      <trkpt lat="45.25968" lon="4.77585">
        <ele>303.94198608398</ele>
        <time>2009-10-10T13:11:35Z</time>
      </trkpt>
      <trkpt lat="45.2598" lon="4.77579">
        <ele>305.40701293945</ele>
        <time>2009-10-10T13:11:39Z</time>
      </trkpt>
      <trkpt lat="45.25996" lon="4.77585">
        <ele>306.65200805664</ele>
        <time>2009-10-10T13:11:44Z</time>
      </trkpt>
      <trkpt lat="45.26003" lon="4.77606">
        <ele>308.05099487305</ele>
        <time>2009-10-10T13:11:49Z</time>
      </trkpt>
      <trkpt lat="45.26001" lon="4.77637">
        <ele>309.7919921875</ele>
        <time>2009-10-10T13:11:55Z</time>
      </trkpt>
      <trkpt lat="45.26001" lon="4.77673">
        <ele>311.22198486328</ele>
        <time>2009-10-10T13:12:02Z</time>
      </trkpt>
      <trkpt lat="45.26008" lon="4.777">
        <ele>312.49499511719</ele>
        <time>2009-10-10T13:12:08Z</time>
      </trkpt>
      <trkpt lat="45.26026" lon="4.77732">
        <ele>314.99398803711</ele>
        <time>2009-10-10T13:12:16Z</time>
      </trkpt>
      <trkpt lat="45.26043" lon="4.77757">
        <ele>316.83599853516</ele>
        <time>2009-10-10T13:12:23Z</time>
      </trkpt>
      <trkpt lat="45.2606" lon="4.77783">
        <ele>318.97601318359</ele>
        <time>2009-10-10T13:12:30Z</time>
      </trkpt>
      <trkpt lat="45.26081" lon="4.77813">
        <ele>320.61099243164</ele>
        <time>2009-10-10T13:12:38Z</time>
      </trkpt>
      <trkpt lat="45.26104" lon="4.77832">
        <ele>322.79598999023</ele>
        <time>2009-10-10T13:12:45Z</time>
      </trkpt>
      <trkpt lat="45.26129" lon="4.77842">
        <ele>325.23098754883</ele>
        <time>2009-10-10T13:12:52Z</time>
      </trkpt>
      <trkpt lat="45.26157" lon="4.77853">
        <ele>327.125</ele>
        <time>2009-10-10T13:13:00Z</time>
      </trkpt>
      <trkpt lat="45.26185" lon="4.77866">
        <ele>329.14001464844</ele>
        <time>2009-10-10T13:13:09Z</time>
      </trkpt>
      <trkpt lat="45.26208" lon="4.77879">
        <ele>331.10101318359</ele>
        <time>2009-10-10T13:13:15Z</time>
      </trkpt>
      <trkpt lat="45.26229" lon="4.77889">
        <ele>333.22198486328</ele>
        <time>2009-10-10T13:13:21Z</time>
      </trkpt>
      <trkpt lat="45.26259" lon="4.77899">
        <ele>335.47100830078</ele>
        <time>2009-10-10T13:13:30Z</time>
      </trkpt>
      <trkpt lat="45.26287" lon="4.77896">
        <ele>337.50799560547</ele>
        <time>2009-10-10T13:13:38Z</time>
      </trkpt>
      <trkpt lat="45.2631" lon="4.77888">
        <ele>338.57000732422</ele>
        <time>2009-10-10T13:13:44Z</time>
      </trkpt>
      <trkpt lat="45.26339" lon="4.77879">
        <ele>340.71398925781</ele>
        <time>2009-10-10T13:13:52Z</time>
      </trkpt>
      <trkpt lat="45.26366" lon="4.77883">
        <ele>342.57998657227</ele>
        <time>2009-10-10T13:13:59Z</time>
      </trkpt>
      <trkpt lat="45.26391" lon="4.77893">
        <ele>344.43399047852</ele>
        <time>2009-10-10T13:14:06Z</time>
      </trkpt>
      <trkpt lat="45.26409" lon="4.77898">
        <ele>345.42498779297</ele>
        <time>2009-10-10T13:14:11Z</time>
      </trkpt>
      <trkpt lat="45.26435" lon="4.77903">
        <ele>347.10299682617</ele>
        <time>2009-10-10T13:14:19Z</time>
      </trkpt>
      <trkpt lat="45.26465" lon="4.7791">
        <ele>348.74798583984</ele>
        <time>2009-10-10T13:14:28Z</time>
      </trkpt>
      <trkpt lat="45.26482" lon="4.77904">
        <ele>349.97100830078</ele>
        <time>2009-10-10T13:14:34Z</time>
      </trkpt>
      <trkpt lat="45.26485" lon="4.77902">
        <ele>350.26800537109</ele>
        <time>2009-10-10T13:14:35Z</time>
      </trkpt>
      <trkpt lat="45.26492" lon="4.77885">
        <ele>351.16598510742</ele>
        <time>2009-10-10T13:14:40Z</time>
      </trkpt>
      <trkpt lat="45.26498" lon="4.77865">
        <ele>350.90600585938</ele>
        <time>2009-10-10T13:14:46Z</time>
      </trkpt>
      <trkpt lat="45.26508" lon="4.77845">
        <ele>350.91198730469</ele>
        <time>2009-10-10T13:14:53Z</time>
      </trkpt>
      <trkpt lat="45.26513" lon="4.77834">
        <ele>353.20401000977</ele>
        <time>2009-10-10T13:14:57Z</time>
      </trkpt>
      <trkpt lat="45.26521" lon="4.77809">
        <ele>354.17300415039</ele>
        <time>2009-10-10T13:15:05Z</time>
      </trkpt>
      <trkpt lat="45.2653" lon="4.77784">
        <ele>354.36199951172</ele>
        <time>2009-10-10T13:15:13Z</time>
      </trkpt>
      <trkpt lat="45.26539" lon="4.77759">
        <ele>354.36199951172</ele>
        <time>2009-10-10T13:15:21Z</time>
      </trkpt>
      <trkpt lat="45.26547" lon="4.77741">
        <ele>357.47500610352</ele>
        <time>2009-10-10T13:15:27Z</time>
      </trkpt>
      <trkpt lat="45.2656" lon="4.77713">
        <ele>359.0710144043</ele>
        <time>2009-10-10T13:15:36Z</time>
      </trkpt>
      <trkpt lat="45.26569" lon="4.77694">
        <ele>360.06500244141</ele>
        <time>2009-10-10T13:15:42Z</time>
      </trkpt>
      <trkpt lat="45.26582" lon="4.77671">
        <ele>361.50799560547</ele>
        <time>2009-10-10T13:15:50Z</time>
      </trkpt>
      <trkpt lat="45.26591" lon="4.77652">
        <ele>362.55801391602</ele>
        <time>2009-10-10T13:15:56Z</time>
      </trkpt>
      <trkpt lat="45.26604" lon="4.77623">
        <ele>363.67098999023</ele>
        <time>2009-10-10T13:16:04Z</time>
      </trkpt>
      <trkpt lat="45.26611" lon="4.77599">
        <ele>364.45300292969</ele>
        <time>2009-10-10T13:16:10Z</time>
      </trkpt>
      <trkpt lat="45.26613" lon="4.77566">
        <ele>364.92199707031</ele>
        <time>2009-10-10T13:16:17Z</time>
      </trkpt>
      <trkpt lat="45.26611" lon="4.7753">
        <ele>365.47799682617</ele>
        <time>2009-10-10T13:16:24Z</time>
      </trkpt>
      <trkpt lat="45.26606" lon="4.77506">
        <ele>365.30700683594</ele>
        <time>2009-10-10T13:16:30Z</time>
      </trkpt>
      <trkpt lat="45.26602" lon="4.77483">
        <ele>365.61898803711</ele>
        <time>2009-10-10T13:16:38Z</time>
      </trkpt>
      <trkpt lat="45.266" lon="4.77476">
        <ele>365.53399658203</ele>
        <time>2009-10-10T13:16:41Z</time>
      </trkpt>
      <trkpt lat="45.266" lon="4.77459">
        <ele>364.93200683594</ele>
        <time>2009-10-10T13:16:50Z</time>
      </trkpt>
      <trkpt lat="45.266" lon="4.77451">
        <ele>364.94900512695</ele>
        <time>2009-10-10T13:16:56Z</time>
      </trkpt>
      <trkpt lat="45.26598" lon="4.77438">
        <ele>364.81900024414</ele>
        <time>2009-10-10T13:17:04Z</time>
      </trkpt>
      <trkpt lat="45.26596" lon="4.7742">
        <ele>364.10299682617</ele>
        <time>2009-10-10T13:17:10Z</time>
      </trkpt>
      <trkpt lat="45.26593" lon="4.77389">
        <ele>363.28900146484</ele>
        <time>2009-10-10T13:17:18Z</time>
      </trkpt>
      <trkpt lat="45.2659" lon="4.77367">
        <ele>362.59399414062</ele>
        <time>2009-10-10T13:17:22Z</time>
      </trkpt>
      <trkpt lat="45.26588" lon="4.77353">
        <ele>362.28799438477</ele>
        <time>2009-10-10T13:17:24Z</time>
      </trkpt>
      <trkpt lat="45.26582" lon="4.77295">
        <ele>361.72900390625</ele>
        <time>2009-10-10T13:17:32Z</time>
      </trkpt>
      <trkpt lat="45.26575" lon="4.77231">
        <ele>360.1780090332</ele>
        <time>2009-10-10T13:17:40Z</time>
      </trkpt>
      <trkpt lat="45.26572" lon="4.77184">
        <ele>359.48098754883</ele>
        <time>2009-10-10T13:17:45Z</time>
      </trkpt>
      <trkpt lat="45.26571" lon="4.77144">
        <ele>359.13299560547</ele>
        <time>2009-10-10T13:17:49Z</time>
      </trkpt>
      <trkpt lat="45.26563" lon="4.77097">
        <ele>359.01998901367</ele>
        <time>2009-10-10T13:17:54Z</time>
      </trkpt>
      <trkpt lat="45.26556" lon="4.7708">
        <ele>359.26098632812</ele>
        <time>2009-10-10T13:17:56Z</time>
      </trkpt>
      <trkpt lat="45.26531" lon="4.77025">
        <ele>360.20599365234</ele>
        <time>2009-10-10T13:18:03Z</time>
      </trkpt>
      <trkpt lat="45.26519" lon="4.76976">
        <ele>360.87200927734</ele>
        <time>2009-10-10T13:18:09Z</time>
      </trkpt>
      <trkpt lat="45.26511" lon="4.76907">
        <ele>361.35900878906</ele>
        <time>2009-10-10T13:18:17Z</time>
      </trkpt>
      <trkpt lat="45.26503" lon="4.7684">
        <ele>362.30999755859</ele>
        <time>2009-10-10T13:18:25Z</time>
      </trkpt>
      <trkpt lat="45.26492" lon="4.76775">
        <ele>362.81698608398</ele>
        <time>2009-10-10T13:18:33Z</time>
      </trkpt>
      <trkpt lat="45.26468" lon="4.76705">
        <ele>363.5830078125</ele>
        <time>2009-10-10T13:18:42Z</time>
      </trkpt>
      <trkpt lat="45.26451" lon="4.76638">
        <ele>363.99099731445</ele>
        <time>2009-10-10T13:18:50Z</time>
      </trkpt>
      <trkpt lat="45.26437" lon="4.76559">
        <ele>364.89001464844</ele>
        <time>2009-10-10T13:18:59Z</time>
      </trkpt>
      <trkpt lat="45.26424" lon="4.76491">
        <ele>365.18701171875</ele>
        <time>2009-10-10T13:19:07Z</time>
      </trkpt>
      <trkpt lat="45.26421" lon="4.76436">
        <ele>364.42300415039</ele>
        <time>2009-10-10T13:19:13Z</time>
      </trkpt>
      <trkpt lat="45.26421" lon="4.76426">
        <ele>364.37701416016</ele>
        <time>2009-10-10T13:19:14Z</time>
      </trkpt>
      <trkpt lat="45.26426" lon="4.76379">
        <ele>364.64001464844</ele>
        <time>2009-10-10T13:19:19Z</time>
      </trkpt>
      <trkpt lat="45.26431" lon="4.76324">
        <ele>364.98999023438</ele>
        <time>2009-10-10T13:19:25Z</time>
      </trkpt>
      <trkpt lat="45.26429" lon="4.76271">
        <ele>365.55200195312</ele>
        <time>2009-10-10T13:19:31Z</time>
      </trkpt>
      <trkpt lat="45.26415" lon="4.76194">
        <ele>366.37399291992</ele>
        <time>2009-10-10T13:19:40Z</time>
      </trkpt>
      <trkpt lat="45.26411" lon="4.76141">
        <ele>366.33700561523</ele>
        <time>2009-10-10T13:19:46Z</time>
      </trkpt>
      <trkpt lat="45.26418" lon="4.76076">
        <ele>365.76098632812</ele>
        <time>2009-10-10T13:19:53Z</time>
      </trkpt>
      <trkpt lat="45.26429" lon="4.75996">
        <ele>363.68701171875</ele>
        <time>2009-10-10T13:20:01Z</time>
      </trkpt>
      <trkpt lat="45.26432" lon="4.75973">
        <ele>362.29501342773</ele>
        <time>2009-10-10T13:20:03Z</time>
      </trkpt>
      <trkpt lat="45.26429" lon="4.75921">
        <ele>359.6780090332</ele>
        <time>2009-10-10T13:20:07Z</time>
      </trkpt>
      <trkpt lat="45.26418" lon="4.75897">
        <ele>358.32501220703</ele>
        <time>2009-10-10T13:20:09Z</time>
      </trkpt>
      <trkpt lat="45.26395" lon="4.75871">
        <ele>357.67001342773</ele>
        <time>2009-10-10T13:20:12Z</time>
      </trkpt>
      <trkpt lat="45.26386" lon="4.75865">
        <ele>357.19100952148</ele>
        <time>2009-10-10T13:20:13Z</time>
      </trkpt>
      <trkpt lat="45.26341" lon="4.75842">
        <ele>357.63500976562</ele>
        <time>2009-10-10T13:20:18Z</time>
      </trkpt>
      <trkpt lat="45.26314" lon="4.75814">
        <ele>359</ele>
        <time>2009-10-10T13:20:22Z</time>
      </trkpt>
      <trkpt lat="45.26306" lon="4.75795">
        <ele>359.83999633789</ele>
        <time>2009-10-10T13:20:24Z</time>
      </trkpt>
      <trkpt lat="45.26296" lon="4.75768">
        <ele>361.35400390625</ele>
        <time>2009-10-10T13:20:27Z</time>
      </trkpt>
      <trkpt lat="45.26291" lon="4.75751">
        <ele>362.46200561523</ele>
        <time>2009-10-10T13:20:29Z</time>
      </trkpt>
      <trkpt lat="45.26287" lon="4.75703">
        <ele>363.20300292969</ele>
        <time>2009-10-10T13:20:34Z</time>
      </trkpt>
      <trkpt lat="45.26292" lon="4.75638">
        <ele>363.07800292969</ele>
        <time>2009-10-10T13:20:41Z</time>
      </trkpt>
      <trkpt lat="45.26295" lon="4.75619">
        <ele>363.53100585938</ele>
        <time>2009-10-10T13:20:43Z</time>
      </trkpt>
      <trkpt lat="45.26311" lon="4.75574">
        <ele>363.84100341797</ele>
        <time>2009-10-10T13:20:49Z</time>
      </trkpt>
      <trkpt lat="45.26323" lon="4.75537">
        <ele>362.49600219727</ele>
        <time>2009-10-10T13:20:54Z</time>
      </trkpt>
      <trkpt lat="45.26326" lon="4.75529">
        <ele>362.19500732422</ele>
        <time>2009-10-10T13:20:55Z</time>
      </trkpt>
      <trkpt lat="45.26331" lon="4.75506">
        <ele>362.10598754883</ele>
        <time>2009-10-10T13:20:58Z</time>
      </trkpt>
      <trkpt lat="45.26334" lon="4.75491">
        <ele>362.10400390625</ele>
        <time>2009-10-10T13:21:00Z</time>
      </trkpt>
      <trkpt lat="45.26339" lon="4.75469">
        <ele>362.13101196289</ele>
        <time>2009-10-10T13:21:03Z</time>
      </trkpt>
      <trkpt lat="45.2635" lon="4.75401">
        <ele>362.84201049805</ele>
        <time>2009-10-10T13:21:11Z</time>
      </trkpt>
      <trkpt lat="45.26368" lon="4.75304">
        <ele>365.04598999023</ele>
        <time>2009-10-10T13:21:22Z</time>
      </trkpt>
      <trkpt lat="45.26382" lon="4.75236">
        <ele>365.18701171875</ele>
        <time>2009-10-10T13:21:30Z</time>
      </trkpt>
      <trkpt lat="45.26402" lon="4.75146">
        <ele>363.12701416016</ele>
        <time>2009-10-10T13:21:39Z</time>
      </trkpt>
      <trkpt lat="45.26416" lon="4.75082">
        <ele>362.20401000977</ele>
        <time>2009-10-10T13:21:45Z</time>
      </trkpt>
      <trkpt lat="45.26437" lon="4.74984">
        <ele>361.34201049805</ele>
        <time>2009-10-10T13:21:54Z</time>
      </trkpt>
      <trkpt lat="45.26446" lon="4.74942">
        <ele>361.44299316406</ele>
        <time>2009-10-10T13:21:58Z</time>
      </trkpt>
      <trkpt lat="45.26467" lon="4.74867">
        <ele>361.07901000977</ele>
        <time>2009-10-10T13:22:05Z</time>
      </trkpt>
      <trkpt lat="45.26494" lon="4.74794">
        <ele>361.44198608398</ele>
        <time>2009-10-10T13:22:12Z</time>
      </trkpt>
      <trkpt lat="45.26528" lon="4.74708">
        <ele>362.38500976562</ele>
        <time>2009-10-10T13:22:21Z</time>
      </trkpt>
      <trkpt lat="45.26556" lon="4.74643">
        <ele>363.40899658203</ele>
        <time>2009-10-10T13:22:29Z</time>
      </trkpt>
      <trkpt lat="45.26585" lon="4.74573">
        <ele>364.98300170898</ele>
        <time>2009-10-10T13:22:38Z</time>
      </trkpt>
      <trkpt lat="45.26606" lon="4.74509">
        <ele>367.13500976562</ele>
        <time>2009-10-10T13:22:46Z</time>
      </trkpt>
      <trkpt lat="45.2662" lon="4.74469">
        <ele>367.32000732422</ele>
        <time>2009-10-10T13:22:51Z</time>
      </trkpt>
      <trkpt lat="45.26646" lon="4.74428">
        <ele>368.10998535156</ele>
        <time>2009-10-10T13:22:57Z</time>
      </trkpt>
      <trkpt lat="45.26692" lon="4.74364">
        <ele>369.00500488281</ele>
        <time>2009-10-10T13:23:07Z</time>
      </trkpt>
      <trkpt lat="45.26717" lon="4.7431">
        <ele>369.4700012207</ele>
        <time>2009-10-10T13:23:14Z</time>
      </trkpt>
      <trkpt lat="45.26732" lon="4.74244">
        <ele>369.92300415039</ele>
        <time>2009-10-10T13:23:21Z</time>
      </trkpt>
      <trkpt lat="45.26746" lon="4.7417">
        <ele>368.3330078125</ele>
        <time>2009-10-10T13:23:28Z</time>
      </trkpt>
      <trkpt lat="45.26767" lon="4.74071">
        <ele>369.32901000977</ele>
        <time>2009-10-10T13:23:38Z</time>
      </trkpt>
      <trkpt lat="45.26783" lon="4.7399">
        <ele>369.12600708008</ele>
        <time>2009-10-10T13:23:46Z</time>
      </trkpt>
      <trkpt lat="45.268" lon="4.73958">
        <ele>368.85800170898</ele>
        <time>2009-10-10T13:23:50Z</time>
      </trkpt>
      <trkpt lat="45.26814" lon="4.73956">
        <ele>368.93701171875</ele>
        <time>2009-10-10T13:23:52Z</time>
      </trkpt>
      <trkpt lat="45.26867" lon="4.73962">
        <ele>370.29998779297</ele>
        <time>2009-10-10T13:24:00Z</time>
      </trkpt>
      <trkpt lat="45.26904" lon="4.73974">
        <ele>371.21899414062</ele>
        <time>2009-10-10T13:24:06Z</time>
      </trkpt>
      <trkpt lat="45.26918" lon="4.73974">
        <ele>371.73901367188</ele>
        <time>2009-10-10T13:24:09Z</time>
      </trkpt>
      <trkpt lat="45.26932" lon="4.73974">
        <ele>372.03500366211</ele>
        <time>2009-10-10T13:24:12Z</time>
      </trkpt>
      <trkpt lat="45.26965" lon="4.73963">
        <ele>373.08599853516</ele>
        <time>2009-10-10T13:24:18Z</time>
      </trkpt>
      <trkpt lat="45.26994" lon="4.73945">
        <ele>374.64700317383</ele>
        <time>2009-10-10T13:24:24Z</time>
      </trkpt>
      <trkpt lat="45.27023" lon="4.73924">
        <ele>375.6960144043</ele>
        <time>2009-10-10T13:24:30Z</time>
      </trkpt>
      <trkpt lat="45.27048" lon="4.73915">
        <ele>376.92001342773</ele>
        <time>2009-10-10T13:24:35Z</time>
      </trkpt>
      <trkpt lat="45.27085" lon="4.7392">
        <ele>379.46798706055</ele>
        <time>2009-10-10T13:24:43Z</time>
      </trkpt>
      <trkpt lat="45.2712" lon="4.73928">
        <ele>381.24899291992</ele>
        <time>2009-10-10T13:24:50Z</time>
      </trkpt>
      <trkpt lat="45.2717" lon="4.73935">
        <ele>381.51501464844</ele>
        <time>2009-10-10T13:25:00Z</time>
      </trkpt>
      <trkpt lat="45.27189" lon="4.73938">
        <ele>383.94500732422</ele>
        <time>2009-10-10T13:25:04Z</time>
      </trkpt>
      <trkpt lat="45.27228" lon="4.73944">
        <ele>385.15399169922</ele>
        <time>2009-10-10T13:25:11Z</time>
      </trkpt>
      <trkpt lat="45.27275" lon="4.73953">
        <ele>385.91598510742</ele>
        <time>2009-10-10T13:25:19Z</time>
      </trkpt>
      <trkpt lat="45.27343" lon="4.73973">
        <ele>387</ele>
        <time>2009-10-10T13:25:30Z</time>
      </trkpt>
      <trkpt lat="45.27396" lon="4.73989">
        <ele>388.43798828125</ele>
        <time>2009-10-10T13:25:39Z</time>
      </trkpt>
      <trkpt lat="45.27457" lon="4.74009">
        <ele>390.33999633789</ele>
        <time>2009-10-10T13:25:50Z</time>
      </trkpt>
      <trkpt lat="45.27507" lon="4.74022">
        <ele>392.51901245117</ele>
        <time>2009-10-10T13:25:59Z</time>
      </trkpt>
      <trkpt lat="45.27559" lon="4.74036">
        <ele>393.93600463867</ele>
        <time>2009-10-10T13:26:08Z</time>
      </trkpt>
      <trkpt lat="45.27597" lon="4.74037">
        <ele>393.85900878906</ele>
        <time>2009-10-10T13:26:14Z</time>
      </trkpt>
      <trkpt lat="45.27642" lon="4.74024">
        <ele>394.36401367188</ele>
        <time>2009-10-10T13:26:21Z</time>
      </trkpt>
      <trkpt lat="45.27707" lon="4.74002">
        <ele>393.9460144043</ele>
        <time>2009-10-10T13:26:31Z</time>
      </trkpt>
      <trkpt lat="45.27758" lon="4.73985">
        <ele>393.2919921875</ele>
        <time>2009-10-10T13:26:38Z</time>
      </trkpt>
      <trkpt lat="45.27812" lon="4.7397">
        <ele>392.98999023438</ele>
        <time>2009-10-10T13:26:45Z</time>
      </trkpt>
      <trkpt lat="45.27851" lon="4.73967">
        <ele>391.6969909668</ele>
        <time>2009-10-10T13:26:50Z</time>
      </trkpt>
      <trkpt lat="45.27909" lon="4.73965">
        <ele>391.5530090332</ele>
        <time>2009-10-10T13:26:57Z</time>
      </trkpt>
      <trkpt lat="45.27971" lon="4.73958">
        <ele>391.94900512695</ele>
        <time>2009-10-10T13:27:05Z</time>
      </trkpt>
      <trkpt lat="45.28034" lon="4.73947">
        <ele>393.19198608398</ele>
        <time>2009-10-10T13:27:13Z</time>
      </trkpt>
      <trkpt lat="45.28084" lon="4.73936">
        <ele>393.20901489258</ele>
        <time>2009-10-10T13:27:18Z</time>
      </trkpt>
      <trkpt lat="45.28114" lon="4.73929">
        <ele>392.10800170898</ele>
        <time>2009-10-10T13:27:21Z</time>
      </trkpt>
      <trkpt lat="45.28125" lon="4.73925">
        <ele>392.30999755859</ele>
        <time>2009-10-10T13:27:22Z</time>
      </trkpt>
      <trkpt lat="45.28152" lon="4.73913">
        <ele>394.10000610352</ele>
        <time>2009-10-10T13:27:25Z</time>
      </trkpt>
      <trkpt lat="45.28161" lon="4.7391">
        <ele>394.01000976562</ele>
        <time>2009-10-10T13:27:26Z</time>
      </trkpt>
      <trkpt lat="45.282" lon="4.73892">
        <ele>394.07501220703</ele>
        <time>2009-10-10T13:27:31Z</time>
      </trkpt>
      <trkpt lat="45.28228" lon="4.73876">
        <ele>393.64001464844</ele>
        <time>2009-10-10T13:27:35Z</time>
      </trkpt>
      <trkpt lat="45.28268" lon="4.73848">
        <ele>393.23098754883</ele>
        <time>2009-10-10T13:27:41Z</time>
      </trkpt>
      <trkpt lat="45.28299" lon="4.73805">
        <ele>392.10299682617</ele>
        <time>2009-10-10T13:27:47Z</time>
      </trkpt>
      <trkpt lat="45.28339" lon="4.73746">
        <ele>391.23098754883</ele>
        <time>2009-10-10T13:27:55Z</time>
      </trkpt>
      <trkpt lat="45.28381" lon="4.73685">
        <ele>389.40600585938</ele>
        <time>2009-10-10T13:28:03Z</time>
      </trkpt>
      <trkpt lat="45.28433" lon="4.7361">
        <ele>387.75799560547</ele>
        <time>2009-10-10T13:28:12Z</time>
      </trkpt>
      <trkpt lat="45.28456" lon="4.73563">
        <ele>386.92599487305</ele>
        <time>2009-10-10T13:28:17Z</time>
      </trkpt>
      <trkpt lat="45.28481" lon="4.73506">
        <ele>386.1960144043</ele>
        <time>2009-10-10T13:28:23Z</time>
      </trkpt>
      <trkpt lat="45.28518" lon="4.73437">
        <ele>384.07299804688</ele>
        <time>2009-10-10T13:28:31Z</time>
      </trkpt>
      <trkpt lat="45.28535" lon="4.73396">
        <ele>382.74700927734</ele>
        <time>2009-10-10T13:28:35Z</time>
      </trkpt>
      <trkpt lat="45.28558" lon="4.7333">
        <ele>379.68899536133</ele>
        <time>2009-10-10T13:28:41Z</time>
      </trkpt>
      <trkpt lat="45.2857" lon="4.73276">
        <ele>376.48901367188</ele>
        <time>2009-10-10T13:28:45Z</time>
      </trkpt>
      <trkpt lat="45.28591" lon="4.73233">
        <ele>378.125</ele>
        <time>2009-10-10T13:28:49Z</time>
      </trkpt>
      <trkpt lat="45.28608" lon="4.73207">
        <ele>379.78900146484</ele>
        <time>2009-10-10T13:28:53Z</time>
      </trkpt>
      <trkpt lat="45.28627" lon="4.73175">
        <ele>380.11898803711</ele>
        <time>2009-10-10T13:28:59Z</time>
      </trkpt>
      <trkpt lat="45.28641" lon="4.73139">
        <ele>377.27801513672</ele>
        <time>2009-10-10T13:29:04Z</time>
      </trkpt>
      <trkpt lat="45.28652" lon="4.731">
        <ele>377.01599121094</ele>
        <time>2009-10-10T13:29:08Z</time>
      </trkpt>
      <trkpt lat="45.28658" lon="4.73074">
        <ele>377.80999755859</ele>
        <time>2009-10-10T13:29:11Z</time>
      </trkpt>
      <trkpt lat="45.28659" lon="4.73045">
        <ele>378.80599975586</ele>
        <time>2009-10-10T13:29:15Z</time>
      </trkpt>
      <trkpt lat="45.28658" lon="4.73026">
        <ele>379.35699462891</ele>
        <time>2009-10-10T13:29:18Z</time>
      </trkpt>
      <trkpt lat="45.28662" lon="4.72988">
        <ele>379.45001220703</ele>
        <time>2009-10-10T13:29:25Z</time>
      </trkpt>
      <trkpt lat="45.28676" lon="4.72962">
        <ele>379.41799926758</ele>
        <time>2009-10-10T13:29:31Z</time>
      </trkpt>
      <trkpt lat="45.28686" lon="4.72932">
        <ele>378.86999511719</ele>
        <time>2009-10-10T13:29:36Z</time>
      </trkpt>
      <trkpt lat="45.28684" lon="4.72903">
        <ele>378.59100341797</ele>
        <time>2009-10-10T13:29:40Z</time>
      </trkpt>
      <trkpt lat="45.2868" lon="4.7289">
        <ele>378.53500366211</ele>
        <time>2009-10-10T13:29:42Z</time>
      </trkpt>
      <trkpt lat="45.28682" lon="4.72867">
        <ele>377.65200805664</ele>
        <time>2009-10-10T13:29:46Z</time>
      </trkpt>
      <trkpt lat="45.28687" lon="4.72856">
        <ele>377.31500244141</ele>
        <time>2009-10-10T13:29:50Z</time>
      </trkpt>
      <trkpt lat="45.28688" lon="4.72854">
        <ele>376.92199707031</ele>
        <time>2009-10-10T13:29:51Z</time>
      </trkpt>
      <trkpt lat="45.28682" lon="4.72838">
        <ele>377.03601074219</ele>
        <time>2009-10-10T13:29:56Z</time>
      </trkpt>
      <trkpt lat="45.28675" lon="4.72834">
        <ele>377.39599609375</ele>
        <time>2009-10-10T13:29:58Z</time>
      </trkpt>
      <trkpt lat="45.28654" lon="4.72822">
        <ele>377.84100341797</ele>
        <time>2009-10-10T13:30:04Z</time>
      </trkpt>
      <trkpt lat="45.28622" lon="4.72804">
        <ele>378.70199584961</ele>
        <time>2009-10-10T13:30:11Z</time>
      </trkpt>
      <trkpt lat="45.28598" lon="4.72788">
        <ele>379.14801025391</ele>
        <time>2009-10-10T13:30:17Z</time>
      </trkpt>
      <trkpt lat="45.28589" lon="4.72782">
        <ele>379.55200195312</ele>
        <time>2009-10-10T13:30:19Z</time>
      </trkpt>
      <trkpt lat="45.28552" lon="4.72747">
        <ele>381.35299682617</ele>
        <time>2009-10-10T13:30:28Z</time>
      </trkpt>
      <trkpt lat="45.28521" lon="4.72718">
        <ele>382.47100830078</ele>
        <time>2009-10-10T13:30:36Z</time>
      </trkpt>
      <trkpt lat="45.28476" lon="4.7268">
        <ele>383.85299682617</ele>
        <time>2009-10-10T13:30:47Z</time>
      </trkpt>
      <trkpt lat="45.2844" lon="4.72653">
        <ele>384.58700561523</ele>
        <time>2009-10-10T13:30:55Z</time>
      </trkpt>
      <trkpt lat="45.28395" lon="4.72621">
        <ele>385.58898925781</ele>
        <time>2009-10-10T13:31:04Z</time>
      </trkpt>
      <trkpt lat="45.28355" lon="4.72591">
        <ele>387.57501220703</ele>
        <time>2009-10-10T13:31:13Z</time>
      </trkpt>
      <trkpt lat="45.2833" lon="4.72574">
        <ele>389.25299072266</ele>
        <time>2009-10-10T13:31:19Z</time>
      </trkpt>
      <trkpt lat="45.28302" lon="4.72552">
        <ele>390.80499267578</ele>
        <time>2009-10-10T13:31:26Z</time>
      </trkpt>
      <trkpt lat="45.28276" lon="4.72523">
        <ele>392.64700317383</ele>
        <time>2009-10-10T13:31:33Z</time>
      </trkpt>
      <trkpt lat="45.28273" lon="4.72519">
        <ele>393.08801269531</ele>
        <time>2009-10-10T13:31:34Z</time>
      </trkpt>
      <trkpt lat="45.28267" lon="4.72511">
        <ele>393.26000976562</ele>
        <time>2009-10-10T13:31:36Z</time>
      </trkpt>
      <trkpt lat="45.28248" lon="4.72496">
        <ele>394.17700195312</ele>
        <time>2009-10-10T13:31:41Z</time>
      </trkpt>
      <trkpt lat="45.28224" lon="4.72467">
        <ele>395.95401000977</ele>
        <time>2009-10-10T13:31:48Z</time>
      </trkpt>
      <trkpt lat="45.28207" lon="4.72461">
        <ele>396.81100463867</ele>
        <time>2009-10-10T13:31:52Z</time>
      </trkpt>
      <trkpt lat="45.28178" lon="4.72459">
        <ele>398.6780090332</ele>
        <time>2009-10-10T13:31:58Z</time>
      </trkpt>
      <trkpt lat="45.28143" lon="4.72441">
        <ele>400.83599853516</ele>
        <time>2009-10-10T13:32:05Z</time>
      </trkpt>
      <trkpt lat="45.28099" lon="4.72408">
        <ele>403.36999511719</ele>
        <time>2009-10-10T13:32:14Z</time>
      </trkpt>
      <trkpt lat="45.28048" lon="4.72368">
        <ele>406.36801147461</ele>
        <time>2009-10-10T13:32:24Z</time>
      </trkpt>
      <trkpt lat="45.28009" lon="4.72335">
        <ele>408.96200561523</ele>
        <time>2009-10-10T13:32:32Z</time>
      </trkpt>
      <trkpt lat="45.27975" lon="4.72305">
        <ele>410.71499633789</ele>
        <time>2009-10-10T13:32:38Z</time>
      </trkpt>
      <trkpt lat="45.27941" lon="4.72282">
        <ele>412.74398803711</ele>
        <time>2009-10-10T13:32:44Z</time>
      </trkpt>
      <trkpt lat="45.27905" lon="4.72259">
        <ele>414.35900878906</ele>
        <time>2009-10-10T13:32:52Z</time>
      </trkpt>
      <trkpt lat="45.27863" lon="4.72231">
        <ele>415.67599487305</ele>
        <time>2009-10-10T13:33:02Z</time>
      </trkpt>
      <trkpt lat="45.27832" lon="4.72211">
        <ele>416.85198974609</ele>
        <time>2009-10-10T13:33:10Z</time>
      </trkpt>
      <trkpt lat="45.27809" lon="4.72198">
        <ele>416.86401367188</ele>
        <time>2009-10-10T13:33:16Z</time>
      </trkpt>
      <trkpt lat="45.27776" lon="4.72181">
        <ele>416.51599121094</ele>
        <time>2009-10-10T13:33:24Z</time>
      </trkpt>
      <trkpt lat="45.27752" lon="4.72169">
        <ele>415.52099609375</ele>
        <time>2009-10-10T13:33:29Z</time>
      </trkpt>
      <trkpt lat="45.27729" lon="4.72156">
        <ele>414.51098632812</ele>
        <time>2009-10-10T13:33:33Z</time>
      </trkpt>
      <trkpt lat="45.27698" lon="4.72132">
        <ele>413.5299987793</ele>
        <time>2009-10-10T13:33:38Z</time>
      </trkpt>
      <trkpt lat="45.27662" lon="4.72094">
        <ele>413.70999145508</ele>
        <time>2009-10-10T13:33:44Z</time>
      </trkpt>
      <trkpt lat="45.27633" lon="4.72072">
        <ele>413.62298583984</ele>
        <time>2009-10-10T13:33:49Z</time>
      </trkpt>
      <trkpt lat="45.27621" lon="4.72065">
        <ele>413.55599975586</ele>
        <time>2009-10-10T13:33:51Z</time>
      </trkpt>
      <trkpt lat="45.27615" lon="4.72061">
        <ele>413.68798828125</ele>
        <time>2009-10-10T13:33:52Z</time>
      </trkpt>
      <trkpt lat="45.27587" lon="4.72044">
        <ele>414.9169921875</ele>
        <time>2009-10-10T13:33:57Z</time>
      </trkpt>
      <trkpt lat="45.27555" lon="4.72028">
        <ele>416.64801025391</ele>
        <time>2009-10-10T13:34:03Z</time>
      </trkpt>
      <trkpt lat="45.27535" lon="4.72016">
        <ele>417.79400634766</ele>
        <time>2009-10-10T13:34:07Z</time>
      </trkpt>
      <trkpt lat="45.27495" lon="4.71989">
        <ele>419.81399536133</ele>
        <time>2009-10-10T13:34:15Z</time>
      </trkpt>
      <trkpt lat="45.27461" lon="4.71956">
        <ele>420.14700317383</ele>
        <time>2009-10-10T13:34:22Z</time>
      </trkpt>
      <trkpt lat="45.27417" lon="4.71911">
        <ele>419.01098632812</ele>
        <time>2009-10-10T13:34:30Z</time>
      </trkpt>
      <trkpt lat="45.27375" lon="4.71868">
        <ele>417.46701049805</ele>
        <time>2009-10-10T13:34:37Z</time>
      </trkpt>
      <trkpt lat="45.2734" lon="4.71835">
        <ele>415.98400878906</ele>
        <time>2009-10-10T13:34:42Z</time>
      </trkpt>
      <trkpt lat="45.27318" lon="4.71813">
        <ele>414.55099487305</ele>
        <time>2009-10-10T13:34:45Z</time>
      </trkpt>
      <trkpt lat="45.2728" lon="4.7177">
        <ele>411.65200805664</ele>
        <time>2009-10-10T13:34:50Z</time>
      </trkpt>
      <trkpt lat="45.27267" lon="4.71747">
        <ele>410.75299072266</ele>
        <time>2009-10-10T13:34:52Z</time>
      </trkpt>
      <trkpt lat="45.27254" lon="4.71724">
        <ele>409.30801391602</ele>
        <time>2009-10-10T13:34:54Z</time>
      </trkpt>
      <trkpt lat="45.27226" lon="4.71702">
        <ele>407.61401367188</ele>
        <time>2009-10-10T13:34:57Z</time>
      </trkpt>
      <trkpt lat="45.27206" lon="4.71712">
        <ele>407.04800415039</ele>
        <time>2009-10-10T13:34:59Z</time>
      </trkpt>
      <trkpt lat="45.27185" lon="4.71724">
        <ele>405.64001464844</ele>
        <time>2009-10-10T13:35:01Z</time>
      </trkpt>
      <trkpt lat="45.27144" lon="4.71724">
        <ele>406.41198730469</ele>
        <time>2009-10-10T13:35:05Z</time>
      </trkpt>
      <trkpt lat="45.27121" lon="4.71712">
        <ele>407.29098510742</ele>
        <time>2009-10-10T13:35:08Z</time>
      </trkpt>
      <trkpt lat="45.27117" lon="4.7169">
        <ele>407.31201171875</ele>
        <time>2009-10-10T13:35:10Z</time>
      </trkpt>
      <trkpt lat="45.27118" lon="4.71679">
        <ele>407.22799682617</ele>
        <time>2009-10-10T13:35:11Z</time>
      </trkpt>
      <trkpt lat="45.2712" lon="4.71658">
        <ele>407.9469909668</ele>
        <time>2009-10-10T13:35:13Z</time>
      </trkpt>
      <trkpt lat="45.2712" lon="4.71632">
        <ele>408.3869934082</ele>
        <time>2009-10-10T13:35:16Z</time>
      </trkpt>
      <trkpt lat="45.27112" lon="4.71576">
        <ele>409.45999145508</ele>
        <time>2009-10-10T13:35:23Z</time>
      </trkpt>
      <trkpt lat="45.27099" lon="4.71534">
        <ele>410.27200317383</ele>
        <time>2009-10-10T13:35:29Z</time>
      </trkpt>
      <trkpt lat="45.27072" lon="4.71482">
        <ele>410.82901000977</ele>
        <time>2009-10-10T13:35:37Z</time>
      </trkpt>
      <trkpt lat="45.27027" lon="4.71419">
        <ele>412.10800170898</ele>
        <time>2009-10-10T13:35:47Z</time>
      </trkpt>
      <trkpt lat="45.26987" lon="4.71368">
        <ele>413.67498779297</ele>
        <time>2009-10-10T13:35:56Z</time>
      </trkpt>
      <trkpt lat="45.26956" lon="4.71339">
        <ele>414.79699707031</ele>
        <time>2009-10-10T13:36:02Z</time>
      </trkpt>
      <trkpt lat="45.26902" lon="4.71302">
        <ele>416.25100708008</ele>
        <time>2009-10-10T13:36:12Z</time>
      </trkpt>
      <trkpt lat="45.26854" lon="4.71268">
        <ele>418.10299682617</ele>
        <time>2009-10-10T13:36:21Z</time>
      </trkpt>
      <trkpt lat="45.26807" lon="4.71234">
        <ele>419.43399047852</ele>
        <time>2009-10-10T13:36:30Z</time>
      </trkpt>
      <trkpt lat="45.2676" lon="4.712">
        <ele>420.85501098633</ele>
        <time>2009-10-10T13:36:39Z</time>
      </trkpt>
      <trkpt lat="45.26702" lon="4.71161">
        <ele>422.56900024414</ele>
        <time>2009-10-10T13:36:50Z</time>
      </trkpt>
      <trkpt lat="45.26645" lon="4.71123">
        <ele>424.37200927734</ele>
        <time>2009-10-10T13:37:01Z</time>
      </trkpt>
      <trkpt lat="45.26593" lon="4.71088">
        <ele>425.61700439453</ele>
        <time>2009-10-10T13:37:11Z</time>
      </trkpt>
      <trkpt lat="45.26556" lon="4.71064">
        <ele>428.57998657227</ele>
        <time>2009-10-10T13:37:19Z</time>
      </trkpt>
      <trkpt lat="45.26522" lon="4.7104">
        <ele>430.4460144043</ele>
        <time>2009-10-10T13:37:26Z</time>
      </trkpt>
      <trkpt lat="45.26496" lon="4.71023">
        <ele>431.01800537109</ele>
        <time>2009-10-10T13:37:31Z</time>
      </trkpt>
      <trkpt lat="45.26451" lon="4.70991">
        <ele>432.40301513672</ele>
        <time>2009-10-10T13:37:40Z</time>
      </trkpt>
      <trkpt lat="45.26408" lon="4.70958">
        <ele>434.10198974609</ele>
        <time>2009-10-10T13:37:49Z</time>
      </trkpt>
      <trkpt lat="45.26359" lon="4.70914">
        <ele>435.33700561523</ele>
        <time>2009-10-10T13:38:00Z</time>
      </trkpt>
      <trkpt lat="45.2632" lon="4.70879">
        <ele>435.03201293945</ele>
        <time>2009-10-10T13:38:08Z</time>
      </trkpt>
      <trkpt lat="45.26282" lon="4.70849">
        <ele>434.77600097656</ele>
        <time>2009-10-10T13:38:15Z</time>
      </trkpt>
      <trkpt lat="45.26254" lon="4.70844">
        <ele>433.11499023438</ele>
        <time>2009-10-10T13:38:19Z</time>
      </trkpt>
      <trkpt lat="45.26246" lon="4.70844">
        <ele>432.88000488281</ele>
        <time>2009-10-10T13:38:20Z</time>
      </trkpt>
      <trkpt lat="45.26223" lon="4.70849">
        <ele>432.36401367188</ele>
        <time>2009-10-10T13:38:23Z</time>
      </trkpt>
      <trkpt lat="45.26192" lon="4.70843">
        <ele>431.56900024414</ele>
        <time>2009-10-10T13:38:27Z</time>
      </trkpt>
      <trkpt lat="45.26171" lon="4.70832">
        <ele>432.00399780273</ele>
        <time>2009-10-10T13:38:30Z</time>
      </trkpt>
      <trkpt lat="45.26141" lon="4.7081">
        <ele>433.07299804688</ele>
        <time>2009-10-10T13:38:35Z</time>
      </trkpt>
      <trkpt lat="45.26124" lon="4.70781">
        <ele>435.07501220703</ele>
        <time>2009-10-10T13:38:40Z</time>
      </trkpt>
      <trkpt lat="45.26122" lon="4.70755">
        <ele>436.72299194336</ele>
        <time>2009-10-10T13:38:44Z</time>
      </trkpt>
      <trkpt lat="45.2613" lon="4.70731">
        <ele>437.83599853516</ele>
        <time>2009-10-10T13:38:48Z</time>
      </trkpt>
      <trkpt lat="45.26148" lon="4.70713">
        <ele>440.17700195312</ele>
        <time>2009-10-10T13:38:53Z</time>
      </trkpt>
      <trkpt lat="45.26175" lon="4.7071">
        <ele>441.30700683594</ele>
        <time>2009-10-10T13:38:59Z</time>
      </trkpt>
      <trkpt lat="45.26191" lon="4.70719">
        <ele>441.10998535156</ele>
        <time>2009-10-10T13:39:04Z</time>
      </trkpt>
      <trkpt lat="45.262" lon="4.70735">
        <ele>440.60000610352</ele>
        <time>2009-10-10T13:39:08Z</time>
      </trkpt>
      <trkpt lat="45.26224" lon="4.70757">
        <ele>440.95001220703</ele>
        <time>2009-10-10T13:39:14Z</time>
      </trkpt>
      <trkpt lat="45.26246" lon="4.70752">
        <ele>441.54598999023</ele>
        <time>2009-10-10T13:39:18Z</time>
      </trkpt>
      <trkpt lat="45.26263" lon="4.70732">
        <ele>441.67199707031</ele>
        <time>2009-10-10T13:39:22Z</time>
      </trkpt>
      <trkpt lat="45.26267" lon="4.70708">
        <ele>441.90701293945</ele>
        <time>2009-10-10T13:39:25Z</time>
      </trkpt>
      <trkpt lat="45.26263" lon="4.70676">
        <ele>442.45199584961</ele>
        <time>2009-10-10T13:39:29Z</time>
      </trkpt>
      <trkpt lat="45.26252" lon="4.70659">
        <ele>442.94299316406</ele>
        <time>2009-10-10T13:39:32Z</time>
      </trkpt>
      <trkpt lat="45.26236" lon="4.7065">
        <ele>442.94198608398</ele>
        <time>2009-10-10T13:39:35Z</time>
      </trkpt>
      <trkpt lat="45.26212" lon="4.7063">
        <ele>443.17098999023</ele>
        <time>2009-10-10T13:39:40Z</time>
      </trkpt>
      <trkpt lat="45.26206" lon="4.70617">
        <ele>443.46701049805</ele>
        <time>2009-10-10T13:39:42Z</time>
      </trkpt>
      <trkpt lat="45.26198" lon="4.7059">
        <ele>443.80801391602</ele>
        <time>2009-10-10T13:39:47Z</time>
      </trkpt>
      <trkpt lat="45.26192" lon="4.70576">
        <ele>444.0950012207</ele>
        <time>2009-10-10T13:39:52Z</time>
      </trkpt>
      <trkpt lat="45.26181" lon="4.70555">
        <ele>444.62100219727</ele>
        <time>2009-10-10T13:39:57Z</time>
      </trkpt>
      <trkpt lat="45.26169" lon="4.70526">
        <ele>445.02801513672</ele>
        <time>2009-10-10T13:40:03Z</time>
      </trkpt>
      <trkpt lat="45.26161" lon="4.70507">
        <ele>444.80999755859</ele>
        <time>2009-10-10T13:40:07Z</time>
      </trkpt>
      <trkpt lat="45.26145" lon="4.70466">
        <ele>443.43099975586</ele>
        <time>2009-10-10T13:40:14Z</time>
      </trkpt>
      <trkpt lat="45.26141" lon="4.70438">
        <ele>442.85101318359</ele>
        <time>2009-10-10T13:40:18Z</time>
      </trkpt>
      <trkpt lat="45.26136" lon="4.70409">
        <ele>441.99899291992</ele>
        <time>2009-10-10T13:40:21Z</time>
      </trkpt>
      <trkpt lat="45.26121" lon="4.70386">
        <ele>441.69198608398</ele>
        <time>2009-10-10T13:40:24Z</time>
      </trkpt>
      <trkpt lat="45.26109" lon="4.70398">
        <ele>442.07400512695</ele>
        <time>2009-10-10T13:40:26Z</time>
      </trkpt>
      <trkpt lat="45.26098" lon="4.70426">
        <ele>442.48901367188</ele>
        <time>2009-10-10T13:40:29Z</time>
      </trkpt>
      <trkpt lat="45.26088" lon="4.70463">
        <ele>442.27801513672</ele>
        <time>2009-10-10T13:40:33Z</time>
      </trkpt>
      <trkpt lat="45.26073" lon="4.70493">
        <ele>443.99301147461</ele>
        <time>2009-10-10T13:40:37Z</time>
      </trkpt>
      <trkpt lat="45.2605" lon="4.7052">
        <ele>443.98699951172</ele>
        <time>2009-10-10T13:40:42Z</time>
      </trkpt>
      <trkpt lat="45.26011" lon="4.70542">
        <ele>443.12100219727</ele>
        <time>2009-10-10T13:40:48Z</time>
      </trkpt>
      <trkpt lat="45.25959" lon="4.70554">
        <ele>442.41799926758</ele>
        <time>2009-10-10T13:40:55Z</time>
      </trkpt>
      <trkpt lat="45.25879" lon="4.70568">
        <ele>442.82699584961</ele>
        <time>2009-10-10T13:41:05Z</time>
      </trkpt>
      <trkpt lat="45.25831" lon="4.70576">
        <ele>441.9280090332</ele>
        <time>2009-10-10T13:41:11Z</time>
      </trkpt>
      <trkpt lat="45.25782" lon="4.7059">
        <ele>441.04699707031</ele>
        <time>2009-10-10T13:41:17Z</time>
      </trkpt>
      <trkpt lat="45.2574" lon="4.70599">
        <ele>439.67001342773</ele>
        <time>2009-10-10T13:41:22Z</time>
      </trkpt>
      <trkpt lat="45.25715" lon="4.706">
        <ele>439.38101196289</ele>
        <time>2009-10-10T13:41:25Z</time>
      </trkpt>
      <trkpt lat="45.25683" lon="4.70609">
        <ele>438.24600219727</ele>
        <time>2009-10-10T13:41:29Z</time>
      </trkpt>
      <trkpt lat="45.25676" lon="4.70612">
        <ele>438.35101318359</ele>
        <time>2009-10-10T13:41:30Z</time>
      </trkpt>
      <trkpt lat="45.25652" lon="4.70616">
        <ele>438.43499755859</ele>
        <time>2009-10-10T13:41:33Z</time>
      </trkpt>
      <trkpt lat="45.25626" lon="4.70639">
        <ele>438.02099609375</ele>
        <time>2009-10-10T13:41:37Z</time>
      </trkpt>
      <trkpt lat="45.25594" lon="4.70671">
        <ele>437.27200317383</ele>
        <time>2009-10-10T13:41:42Z</time>
      </trkpt>
      <trkpt lat="45.25574" lon="4.70698">
        <ele>436.73999023438</ele>
        <time>2009-10-10T13:41:46Z</time>
      </trkpt>
      <trkpt lat="45.25565" lon="4.70711">
        <ele>436.84698486328</ele>
        <time>2009-10-10T13:41:48Z</time>
      </trkpt>
      <trkpt lat="45.25542" lon="4.70742">
        <ele>436.47698974609</ele>
        <time>2009-10-10T13:41:53Z</time>
      </trkpt>
      <trkpt lat="45.25536" lon="4.70781">
        <ele>436.95300292969</ele>
        <time>2009-10-10T13:41:57Z</time>
      </trkpt>
      <trkpt lat="45.25535" lon="4.70876">
        <ele>436.92599487305</ele>
        <time>2009-10-10T13:42:06Z</time>
      </trkpt>
      <trkpt lat="45.25534" lon="4.70963">
        <ele>437.55700683594</ele>
        <time>2009-10-10T13:42:14Z</time>
      </trkpt>
      <trkpt lat="45.25537" lon="4.7103">
        <ele>435.90600585938</ele>
        <time>2009-10-10T13:42:20Z</time>
      </trkpt>
      <trkpt lat="45.25547" lon="4.71091">
        <ele>434.33999633789</ele>
        <time>2009-10-10T13:42:25Z</time>
      </trkpt>
      <trkpt lat="45.25552" lon="4.71116">
        <ele>433.38101196289</ele>
        <time>2009-10-10T13:42:27Z</time>
      </trkpt>
      <trkpt lat="45.25566" lon="4.71197">
        <ele>430.8869934082</ele>
        <time>2009-10-10T13:42:33Z</time>
      </trkpt>
      <trkpt lat="45.25569" lon="4.71212">
        <ele>430.61999511719</ele>
        <time>2009-10-10T13:42:34Z</time>
      </trkpt>
      <trkpt lat="45.25576" lon="4.71255">
        <ele>428.3030090332</ele>
        <time>2009-10-10T13:42:37Z</time>
      </trkpt>
      <trkpt lat="45.25604" lon="4.71317">
        <ele>426.11401367188</ele>
        <time>2009-10-10T13:42:42Z</time>
      </trkpt>
      <trkpt lat="45.25612" lon="4.71327">
        <ele>425.55099487305</ele>
        <time>2009-10-10T13:42:43Z</time>
      </trkpt>
      <trkpt lat="45.25638" lon="4.71357">
        <ele>422.44400024414</ele>
        <time>2009-10-10T13:42:46Z</time>
      </trkpt>
      <trkpt lat="45.25647" lon="4.71368">
        <ele>422.36801147461</ele>
        <time>2009-10-10T13:42:47Z</time>
      </trkpt>
      <trkpt lat="45.25671" lon="4.71424">
        <ele>418.28900146484</ele>
        <time>2009-10-10T13:42:51Z</time>
      </trkpt>
      <trkpt lat="45.25675" lon="4.71475">
        <ele>416.79998779297</ele>
        <time>2009-10-10T13:42:54Z</time>
      </trkpt>
      <trkpt lat="45.25675" lon="4.71491">
        <ele>416.71200561523</ele>
        <time>2009-10-10T13:42:55Z</time>
      </trkpt>
      <trkpt lat="45.25674" lon="4.71507">
        <ele>416.45901489258</ele>
        <time>2009-10-10T13:42:56Z</time>
      </trkpt>
      <trkpt lat="45.25656" lon="4.71624">
        <ele>413.95401000977</ele>
        <time>2009-10-10T13:43:04Z</time>
      </trkpt>
      <trkpt lat="45.25634" lon="4.71687">
        <ele>413.19799804688</ele>
        <time>2009-10-10T13:43:09Z</time>
      </trkpt>
      <trkpt lat="45.25605" lon="4.71766">
        <ele>413.75900268555</ele>
        <time>2009-10-10T13:43:16Z</time>
      </trkpt>
      <trkpt lat="45.256" lon="4.71776">
        <ele>413.82998657227</ele>
        <time>2009-10-10T13:43:17Z</time>
      </trkpt>
      <trkpt lat="45.25573" lon="4.71803">
        <ele>413.98599243164</ele>
        <time>2009-10-10T13:43:21Z</time>
      </trkpt>
      <trkpt lat="45.25552" lon="4.71838">
        <ele>412.73599243164</ele>
        <time>2009-10-10T13:43:25Z</time>
      </trkpt>
      <trkpt lat="45.25544" lon="4.71859">
        <ele>412.23098754883</ele>
        <time>2009-10-10T13:43:27Z</time>
      </trkpt>
      <trkpt lat="45.25528" lon="4.71916">
        <ele>411.65899658203</ele>
        <time>2009-10-10T13:43:32Z</time>
      </trkpt>
      <trkpt lat="45.25531" lon="4.71967">
        <ele>410.26699829102</ele>
        <time>2009-10-10T13:43:36Z</time>
      </trkpt>
      <trkpt lat="45.25524" lon="4.72014">
        <ele>409.37200927734</ele>
        <time>2009-10-10T13:43:40Z</time>
      </trkpt>
      <trkpt lat="45.25497" lon="4.72096">
        <ele>408.07800292969</ele>
        <time>2009-10-10T13:43:48Z</time>
      </trkpt>
      <trkpt lat="45.2547" lon="4.72173">
        <ele>407.87899780273</ele>
        <time>2009-10-10T13:43:56Z</time>
      </trkpt>
      <trkpt lat="45.25441" lon="4.7226">
        <ele>406.77899169922</ele>
        <time>2009-10-10T13:44:05Z</time>
      </trkpt>
      <trkpt lat="45.25406" lon="4.72363">
        <ele>405.95901489258</ele>
        <time>2009-10-10T13:44:15Z</time>
      </trkpt>
      <trkpt lat="45.25374" lon="4.72459">
        <ele>405.24301147461</ele>
        <time>2009-10-10T13:44:24Z</time>
      </trkpt>
      <trkpt lat="45.25367" lon="4.72482">
        <ele>404.56201171875</ele>
        <time>2009-10-10T13:44:26Z</time>
      </trkpt>
      <trkpt lat="45.25351" lon="4.7253">
        <ele>402.67199707031</ele>
        <time>2009-10-10T13:44:30Z</time>
      </trkpt>
      <trkpt lat="45.25318" lon="4.72627">
        <ele>399.5719909668</ele>
        <time>2009-10-10T13:44:38Z</time>
      </trkpt>
      <trkpt lat="45.25293" lon="4.72705">
        <ele>399.13900756836</ele>
        <time>2009-10-10T13:44:44Z</time>
      </trkpt>
      <trkpt lat="45.25271" lon="4.72771">
        <ele>400.73001098633</ele>
        <time>2009-10-10T13:44:50Z</time>
      </trkpt>
      <trkpt lat="45.25252" lon="4.72828">
        <ele>401.14001464844</ele>
        <time>2009-10-10T13:44:56Z</time>
      </trkpt>
      <trkpt lat="45.25229" lon="4.72897">
        <ele>402.5419921875</ele>
        <time>2009-10-10T13:45:04Z</time>
      </trkpt>
      <trkpt lat="45.25212" lon="4.72946">
        <ele>402.07901000977</ele>
        <time>2009-10-10T13:45:10Z</time>
      </trkpt>
      <trkpt lat="45.2521" lon="4.72955">
        <ele>401.72399902344</ele>
        <time>2009-10-10T13:45:11Z</time>
      </trkpt>
      <trkpt lat="45.25206" lon="4.73003">
        <ele>399.92999267578</ele>
        <time>2009-10-10T13:45:16Z</time>
      </trkpt>
      <trkpt lat="45.25203" lon="4.73066">
        <ele>397.49499511719</ele>
        <time>2009-10-10T13:45:21Z</time>
      </trkpt>
      <trkpt lat="45.25188" lon="4.73122">
        <ele>394.1369934082</ele>
        <time>2009-10-10T13:45:26Z</time>
      </trkpt>
      <trkpt lat="45.25186" lon="4.73135">
        <ele>393.99398803711</ele>
        <time>2009-10-10T13:45:27Z</time>
      </trkpt>
      <trkpt lat="45.25179" lon="4.73168">
        <ele>394.66101074219</ele>
        <time>2009-10-10T13:45:30Z</time>
      </trkpt>
      <trkpt lat="45.25164" lon="4.73229">
        <ele>394.98300170898</ele>
        <time>2009-10-10T13:45:36Z</time>
      </trkpt>
      <trkpt lat="45.25159" lon="4.73249">
        <ele>394.05599975586</ele>
        <time>2009-10-10T13:45:38Z</time>
      </trkpt>
      <trkpt lat="45.25144" lon="4.73306">
        <ele>391.95098876953</ele>
        <time>2009-10-10T13:45:43Z</time>
      </trkpt>
      <trkpt lat="45.25129" lon="4.73357">
        <ele>389.81698608398</ele>
        <time>2009-10-10T13:45:47Z</time>
      </trkpt>
      <trkpt lat="45.25114" lon="4.73409">
        <ele>387.99700927734</ele>
        <time>2009-10-10T13:45:51Z</time>
      </trkpt>
      <trkpt lat="45.25106" lon="4.73435">
        <ele>386.75799560547</ele>
        <time>2009-10-10T13:45:53Z</time>
      </trkpt>
      <trkpt lat="45.25081" lon="4.7352">
        <ele>383.65200805664</ele>
        <time>2009-10-10T13:45:59Z</time>
      </trkpt>
      <trkpt lat="45.25046" lon="4.73643">
        <ele>379.19799804688</ele>
        <time>2009-10-10T13:46:07Z</time>
      </trkpt>
      <trkpt lat="45.25023" lon="4.73727">
        <ele>375.86199951172</ele>
        <time>2009-10-10T13:46:12Z</time>
      </trkpt>
      <trkpt lat="45.25013" lon="4.7376">
        <ele>374.27700805664</ele>
        <time>2009-10-10T13:46:14Z</time>
      </trkpt>
      <trkpt lat="45.2499" lon="4.73842">
        <ele>375.47900390625</ele>
        <time>2009-10-10T13:46:19Z</time>
      </trkpt>
      <trkpt lat="45.24985" lon="4.73858">
        <ele>375.60299682617</ele>
        <time>2009-10-10T13:46:20Z</time>
      </trkpt>
      <trkpt lat="45.24976" lon="4.7389">
        <ele>375.77301025391</ele>
        <time>2009-10-10T13:46:22Z</time>
      </trkpt>
      <trkpt lat="45.24959" lon="4.7395">
        <ele>377.54098510742</ele>
        <time>2009-10-10T13:46:26Z</time>
      </trkpt>
      <trkpt lat="45.24944" lon="4.74008">
        <ele>376.7380065918</ele>
        <time>2009-10-10T13:46:30Z</time>
      </trkpt>
      <trkpt lat="45.24932" lon="4.74048">
        <ele>378.98901367188</ele>
        <time>2009-10-10T13:46:33Z</time>
      </trkpt>
      <trkpt lat="45.24916" lon="4.74104">
        <ele>381.0710144043</ele>
        <time>2009-10-10T13:46:38Z</time>
      </trkpt>
      <trkpt lat="45.24897" lon="4.74169">
        <ele>382.28399658203</ele>
        <time>2009-10-10T13:46:45Z</time>
      </trkpt>
      <trkpt lat="45.24889" lon="4.74195">
        <ele>382.9169921875</ele>
        <time>2009-10-10T13:46:48Z</time>
      </trkpt>
      <trkpt lat="45.24867" lon="4.74228">
        <ele>383.25500488281</ele>
        <time>2009-10-10T13:46:53Z</time>
      </trkpt>
      <trkpt lat="45.24863" lon="4.74256">
        <ele>382.85000610352</ele>
        <time>2009-10-10T13:46:56Z</time>
      </trkpt>
      <trkpt lat="45.24858" lon="4.74305">
        <ele>381.59600830078</ele>
        <time>2009-10-10T13:47:01Z</time>
      </trkpt>
      <trkpt lat="45.2484" lon="4.7438">
        <ele>379.97900390625</ele>
        <time>2009-10-10T13:47:08Z</time>
      </trkpt>
      <trkpt lat="45.24814" lon="4.74463">
        <ele>378.49600219727</ele>
        <time>2009-10-10T13:47:16Z</time>
      </trkpt>
      <trkpt lat="45.2479" lon="4.74542">
        <ele>375.26501464844</ele>
        <time>2009-10-10T13:47:23Z</time>
      </trkpt>
      <trkpt lat="45.24776" lon="4.746">
        <ele>374.08599853516</ele>
        <time>2009-10-10T13:47:28Z</time>
      </trkpt>
      <trkpt lat="45.2477" lon="4.74636">
        <ele>372.30099487305</ele>
        <time>2009-10-10T13:47:31Z</time>
      </trkpt>
      <trkpt lat="45.24765" lon="4.74687">
        <ele>370.27600097656</ele>
        <time>2009-10-10T13:47:35Z</time>
      </trkpt>
      <trkpt lat="45.24768" lon="4.74768">
        <ele>366.50299072266</ele>
        <time>2009-10-10T13:47:41Z</time>
      </trkpt>
      <trkpt lat="45.2477" lon="4.74782">
        <ele>366.65600585938</ele>
        <time>2009-10-10T13:47:42Z</time>
      </trkpt>
      <trkpt lat="45.24786" lon="4.74857">
        <ele>362.25698852539</ele>
        <time>2009-10-10T13:47:47Z</time>
      </trkpt>
      <trkpt lat="45.24811" lon="4.74924">
        <ele>358.81600952148</ele>
        <time>2009-10-10T13:47:51Z</time>
      </trkpt>
      <trkpt lat="45.24834" lon="4.74979">
        <ele>355.84298706055</ele>
        <time>2009-10-10T13:47:54Z</time>
      </trkpt>
      <trkpt lat="45.24861" lon="4.75036">
        <ele>351.10198974609</ele>
        <time>2009-10-10T13:47:57Z</time>
      </trkpt>
      <trkpt lat="45.24878" lon="4.75074">
        <ele>348.95300292969</ele>
        <time>2009-10-10T13:47:59Z</time>
      </trkpt>
      <trkpt lat="45.24886" lon="4.75093">
        <ele>347.53601074219</ele>
        <time>2009-10-10T13:48:00Z</time>
      </trkpt>
      <trkpt lat="45.24893" lon="4.75112">
        <ele>346.21600341797</ele>
        <time>2009-10-10T13:48:01Z</time>
      </trkpt>
      <trkpt lat="45.24901" lon="4.75131">
        <ele>345.3039855957</ele>
        <time>2009-10-10T13:48:02Z</time>
      </trkpt>
      <trkpt lat="45.24923" lon="4.75185">
        <ele>343.36700439453</ele>
        <time>2009-10-10T13:48:05Z</time>
      </trkpt>
      <trkpt lat="45.24975" lon="4.75305">
        <ele>339.14300537109</ele>
        <time>2009-10-10T13:48:12Z</time>
      </trkpt>
      <trkpt lat="45.25021" lon="4.75397">
        <ele>334.03399658203</ele>
        <time>2009-10-10T13:48:18Z</time>
      </trkpt>
      <trkpt lat="45.25069" lon="4.75459">
        <ele>331.0530090332</ele>
        <time>2009-10-10T13:48:23Z</time>
      </trkpt>
      <trkpt lat="45.25135" lon="4.75544">
        <ele>325.90399169922</ele>
        <time>2009-10-10T13:48:30Z</time>
      </trkpt>
      <trkpt lat="45.25172" lon="4.75592">
        <ele>323.76998901367</ele>
        <time>2009-10-10T13:48:34Z</time>
      </trkpt>
      <trkpt lat="45.25235" lon="4.75673">
        <ele>322.00399780273</ele>
        <time>2009-10-10T13:48:41Z</time>
      </trkpt>
      <trkpt lat="45.25243" lon="4.75687">
        <ele>321.46499633789</ele>
        <time>2009-10-10T13:48:42Z</time>
      </trkpt>
      <trkpt lat="45.25264" lon="4.75755">
        <ele>318.74200439453</ele>
        <time>2009-10-10T13:48:46Z</time>
      </trkpt>
      <trkpt lat="45.2526" lon="4.7581">
        <ele>314.69100952148</ele>
        <time>2009-10-10T13:48:49Z</time>
      </trkpt>
      <trkpt lat="45.25254" lon="4.75827">
        <ele>313.57598876953</ele>
        <time>2009-10-10T13:48:50Z</time>
      </trkpt>
      <trkpt lat="45.25243" lon="4.75917">
        <ele>308.7799987793</ele>
        <time>2009-10-10T13:48:55Z</time>
      </trkpt>
      <trkpt lat="45.25248" lon="4.75997">
        <ele>304.04501342773</ele>
        <time>2009-10-10T13:48:59Z</time>
      </trkpt>
      <trkpt lat="45.25279" lon="4.76061">
        <ele>300.65399169922</ele>
        <time>2009-10-10T13:49:03Z</time>
      </trkpt>
      <trkpt lat="45.25299" lon="4.76092">
        <ele>299.2380065918</ele>
        <time>2009-10-10T13:49:05Z</time>
      </trkpt>
      <trkpt lat="45.25314" lon="4.76149">
        <ele>295.92300415039</ele>
        <time>2009-10-10T13:49:08Z</time>
      </trkpt>
      <trkpt lat="45.25314" lon="4.76169">
        <ele>295.62701416016</ele>
        <time>2009-10-10T13:49:09Z</time>
      </trkpt>
      <trkpt lat="45.25311" lon="4.76209">
        <ele>292.89001464844</ele>
        <time>2009-10-10T13:49:11Z</time>
      </trkpt>
      <trkpt lat="45.25298" lon="4.76372">
        <ele>286.5</ele>
        <time>2009-10-10T13:49:19Z</time>
      </trkpt>
      <trkpt lat="45.25286" lon="4.76471">
        <ele>284.5419921875</ele>
        <time>2009-10-10T13:49:24Z</time>
      </trkpt>
      <trkpt lat="45.25289" lon="4.76557">
        <ele>279.19400024414</ele>
        <time>2009-10-10T13:49:28Z</time>
      </trkpt>
      <trkpt lat="45.2531" lon="4.7664">
        <ele>274.00399780273</ele>
        <time>2009-10-10T13:49:32Z</time>
      </trkpt>
      <trkpt lat="45.25313" lon="4.76662">
        <ele>271.74700927734</ele>
        <time>2009-10-10T13:49:33Z</time>
      </trkpt>
      <trkpt lat="45.25314" lon="4.76768">
        <ele>266.27899169922</ele>
        <time>2009-10-10T13:49:38Z</time>
      </trkpt>
      <trkpt lat="45.25315" lon="4.76831">
        <ele>263.83700561523</ele>
        <time>2009-10-10T13:49:41Z</time>
      </trkpt>
      <trkpt lat="45.25324" lon="4.76913">
        <ele>260.54000854492</ele>
        <time>2009-10-10T13:49:45Z</time>
      </trkpt>
      <trkpt lat="45.25299" lon="4.76961">
        <ele>256.23999023438</ele>
        <time>2009-10-10T13:49:48Z</time>
      </trkpt>
      <trkpt lat="45.25275" lon="4.76981">
        <ele>255.5059967041</ele>
        <time>2009-10-10T13:49:50Z</time>
      </trkpt>
      <trkpt lat="45.25217" lon="4.77005">
        <ele>252.66700744629</ele>
        <time>2009-10-10T13:49:54Z</time>
      </trkpt>
      <trkpt lat="45.25174" lon="4.76983">
        <ele>250.41299438477</ele>
        <time>2009-10-10T13:49:57Z</time>
      </trkpt>
      <trkpt lat="45.25148" lon="4.76965">
        <ele>248.80799865723</ele>
        <time>2009-10-10T13:49:59Z</time>
      </trkpt>
      <trkpt lat="45.25111" lon="4.76964">
        <ele>246.72799682617</ele>
        <time>2009-10-10T13:50:02Z</time>
      </trkpt>
      <trkpt lat="45.2509" lon="4.76988">
        <ele>244.78500366211</ele>
        <time>2009-10-10T13:50:04Z</time>
      </trkpt>
      <trkpt lat="45.25079" lon="4.77051">
        <ele>240.21699523926</ele>
        <time>2009-10-10T13:50:07Z</time>
      </trkpt>
      <trkpt lat="45.25072" lon="4.77108">
        <ele>235.69599914551</ele>
        <time>2009-10-10T13:50:10Z</time>
      </trkpt>
      <trkpt lat="45.25042" lon="4.77119">
        <ele>232.62399291992</ele>
        <time>2009-10-10T13:50:12Z</time>
      </trkpt>
      <trkpt lat="45.24999" lon="4.77119">
        <ele>228.31100463867</ele>
        <time>2009-10-10T13:50:15Z</time>
      </trkpt>
      <trkpt lat="45.24985" lon="4.77124">
        <ele>228.2200012207</ele>
        <time>2009-10-10T13:50:16Z</time>
      </trkpt>
      <trkpt lat="45.24946" lon="4.77153">
        <ele>225.65699768066</ele>
        <time>2009-10-10T13:50:19Z</time>
      </trkpt>
      <trkpt lat="45.24927" lon="4.77183">
        <ele>222.72900390625</ele>
        <time>2009-10-10T13:50:21Z</time>
      </trkpt>
      <trkpt lat="45.24921" lon="4.77247">
        <ele>219.16799926758</ele>
        <time>2009-10-10T13:50:24Z</time>
      </trkpt>
      <trkpt lat="45.24924" lon="4.77268">
        <ele>217.63499450684</ele>
        <time>2009-10-10T13:50:25Z</time>
      </trkpt>
      <trkpt lat="45.24928" lon="4.77311">
        <ele>216.34800720215</ele>
        <time>2009-10-10T13:50:27Z</time>
      </trkpt>
      <trkpt lat="45.24933" lon="4.77396">
        <ele>213.39900207519</ele>
        <time>2009-10-10T13:50:31Z</time>
      </trkpt>
      <trkpt lat="45.24937" lon="4.77491">
        <ele>212.07699584961</ele>
        <time>2009-10-10T13:50:36Z</time>
      </trkpt>
      <trkpt lat="45.2492" lon="4.77562">
        <ele>208.46099853516</ele>
        <time>2009-10-10T13:50:40Z</time>
      </trkpt>
      <trkpt lat="45.24912" lon="4.77577">
        <ele>208.46600341797</ele>
        <time>2009-10-10T13:50:41Z</time>
      </trkpt>
      <trkpt lat="45.24891" lon="4.776">
        <ele>207.14300537109</ele>
        <time>2009-10-10T13:50:43Z</time>
      </trkpt>
      <trkpt lat="45.24868" lon="4.77617">
        <ele>206.05499267578</ele>
        <time>2009-10-10T13:50:45Z</time>
      </trkpt>
      <trkpt lat="45.24843" lon="4.7763">
        <ele>205.09599304199</ele>
        <time>2009-10-10T13:50:47Z</time>
      </trkpt>
      <trkpt lat="45.248" lon="4.77672">
        <ele>201.72200012207</ele>
        <time>2009-10-10T13:50:51Z</time>
      </trkpt>
      <trkpt lat="45.24788" lon="4.77704">
        <ele>199.65400695801</ele>
        <time>2009-10-10T13:50:53Z</time>
      </trkpt>
      <trkpt lat="45.24784" lon="4.77758">
        <ele>197.90299987793</ele>
        <time>2009-10-10T13:50:56Z</time>
      </trkpt>
      <trkpt lat="45.24792" lon="4.77868">
        <ele>193.06700134277</ele>
        <time>2009-10-10T13:51:02Z</time>
      </trkpt>
      <trkpt lat="45.24803" lon="4.78018">
        <ele>186.0299987793</ele>
        <time>2009-10-10T13:51:10Z</time>
      </trkpt>
      <trkpt lat="45.24802" lon="4.78135">
        <ele>180.16200256348</ele>
        <time>2009-10-10T13:51:16Z</time>
      </trkpt>
      <trkpt lat="45.24795" lon="4.78172">
        <ele>180.4109954834</ele>
        <time>2009-10-10T13:51:18Z</time>
      </trkpt>
      <trkpt lat="45.24771" lon="4.78217">
        <ele>177.67399597168</ele>
        <time>2009-10-10T13:51:21Z</time>
      </trkpt>
      <trkpt lat="45.24743" lon="4.78232">
        <ele>176.34800720215</ele>
        <time>2009-10-10T13:51:23Z</time>
      </trkpt>
      <trkpt lat="45.24701" lon="4.78237">
        <ele>173.43200683594</ele>
        <time>2009-10-10T13:51:26Z</time>
      </trkpt>
      <trkpt lat="45.24688" lon="4.78243">
        <ele>173.14700317383</ele>
        <time>2009-10-10T13:51:27Z</time>
      </trkpt>
      <trkpt lat="45.24664" lon="4.78259">
        <ele>172.06300354004</ele>
        <time>2009-10-10T13:51:29Z</time>
      </trkpt>
      <trkpt lat="45.24604" lon="4.78317">
        <ele>172.79600524902</ele>
        <time>2009-10-10T13:51:35Z</time>
      </trkpt>
      <trkpt lat="45.24575" lon="4.78359">
        <ele>173.35099792481</ele>
        <time>2009-10-10T13:51:39Z</time>
      </trkpt>
      <trkpt lat="45.24547" lon="4.78406">
        <ele>174.42900085449</ele>
        <time>2009-10-10T13:51:44Z</time>
      </trkpt>
      <trkpt lat="45.24519" lon="4.78451">
        <ele>176.06500244141</ele>
        <time>2009-10-10T13:51:50Z</time>
      </trkpt>
      <trkpt lat="45.24502" lon="4.78478">
        <ele>176.62100219727</ele>
        <time>2009-10-10T13:51:55Z</time>
      </trkpt>
      <trkpt lat="45.24488" lon="4.78503">
        <ele>177.30999755859</ele>
        <time>2009-10-10T13:52:01Z</time>
      </trkpt>
      <trkpt lat="45.24476" lon="4.78524">
        <ele>177.60499572754</ele>
        <time>2009-10-10T13:52:08Z</time>
      </trkpt>
      <trkpt lat="45.24461" lon="4.78557">
        <ele>176.79800415039</ele>
        <time>2009-10-10T13:52:17Z</time>
      </trkpt>
      <trkpt lat="45.24456" lon="4.78571">
        <ele>176.65600585938</ele>
        <time>2009-10-10T13:52:19Z</time>
      </trkpt>
      <trkpt lat="45.24441" lon="4.78603">
        <ele>175.35499572754</ele>
        <time>2009-10-10T13:52:23Z</time>
      </trkpt>
      <trkpt lat="45.2442" lon="4.78656">
        <ele>174.19200134277</ele>
        <time>2009-10-10T13:52:29Z</time>
      </trkpt>
      <trkpt lat="45.24397" lon="4.78708">
        <ele>173.91200256348</ele>
        <time>2009-10-10T13:52:35Z</time>
      </trkpt>
      <trkpt lat="45.24359" lon="4.78795">
        <ele>172.17900085449</ele>
        <time>2009-10-10T13:52:44Z</time>
      </trkpt>
      <trkpt lat="45.24313" lon="4.78901">
        <ele>170.06399536133</ele>
        <time>2009-10-10T13:52:54Z</time>
      </trkpt>
      <trkpt lat="45.24276" lon="4.7899">
        <ele>168.91700744629</ele>
        <time>2009-10-10T13:53:02Z</time>
      </trkpt>
      <trkpt lat="45.24248" lon="4.79064">
        <ele>168.48599243164</ele>
        <time>2009-10-10T13:53:09Z</time>
      </trkpt>
      <trkpt lat="45.24236" lon="4.79126">
        <ele>166.84100341797</ele>
        <time>2009-10-10T13:53:14Z</time>
      </trkpt>
      <trkpt lat="45.24215" lon="4.79207">
        <ele>164.01400756836</ele>
        <time>2009-10-10T13:53:20Z</time>
      </trkpt>
      <trkpt lat="45.24186" lon="4.79283">
        <ele>162.49899291992</ele>
        <time>2009-10-10T13:53:26Z</time>
      </trkpt>
      <trkpt lat="45.24149" lon="4.79378">
        <ele>159.83599853516</ele>
        <time>2009-10-10T13:53:34Z</time>
      </trkpt>
      <trkpt lat="45.24121" lon="4.79451">
        <ele>158.33399963379</ele>
        <time>2009-10-10T13:53:41Z</time>
      </trkpt>
      <trkpt lat="45.24095" lon="4.79517">
        <ele>157.24299621582</ele>
        <time>2009-10-10T13:53:48Z</time>
      </trkpt>
      <trkpt lat="45.24069" lon="4.79557">
        <ele>156.44000244141</ele>
        <time>2009-10-10T13:53:53Z</time>
      </trkpt>
      <trkpt lat="45.24049" lon="4.79575">
        <ele>154.5059967041</ele>
        <time>2009-10-10T13:53:56Z</time>
      </trkpt>
      <trkpt lat="45.2402" lon="4.79598">
        <ele>153.71299743652</ele>
        <time>2009-10-10T13:54:00Z</time>
      </trkpt>
      <trkpt lat="45.23989" lon="4.79605">
        <ele>151.69799804688</ele>
        <time>2009-10-10T13:54:04Z</time>
      </trkpt>
      <trkpt lat="45.23948" lon="4.79604">
        <ele>147.67599487305</ele>
        <time>2009-10-10T13:54:09Z</time>
      </trkpt>
      <trkpt lat="45.23919" lon="4.79585">
        <ele>144.7619934082</ele>
        <time>2009-10-10T13:54:13Z</time>
      </trkpt>
      <trkpt lat="45.23903" lon="4.79553">
        <ele>142.83599853516</ele>
        <time>2009-10-10T13:54:16Z</time>
      </trkpt>
      <trkpt lat="45.23898" lon="4.7954">
        <ele>142.58399963379</ele>
        <time>2009-10-10T13:54:17Z</time>
      </trkpt>
      <trkpt lat="45.23888" lon="4.79492">
        <ele>143.71000671387</ele>
        <time>2009-10-10T13:54:21Z</time>
      </trkpt>
      <trkpt lat="45.23888" lon="4.7947">
        <ele>144.78999328613</ele>
        <time>2009-10-10T13:54:23Z</time>
      </trkpt>
      <trkpt lat="45.23891" lon="4.79433">
        <ele>147.37300109863</ele>
        <time>2009-10-10T13:54:28Z</time>
      </trkpt>
      <trkpt lat="45.23891" lon="4.79428">
        <ele>148.10400390625</ele>
        <time>2009-10-10T13:54:29Z</time>
      </trkpt>
      <trkpt lat="45.23901" lon="4.79403">
        <ele>150.14399719238</ele>
        <time>2009-10-10T13:54:34Z</time>
      </trkpt>
      <trkpt lat="45.23911" lon="4.7938">
        <ele>152.02400207519</ele>
        <time>2009-10-10T13:54:39Z</time>
      </trkpt>
      <trkpt lat="45.23913" lon="4.79375">
        <ele>152.27699279785</ele>
        <time>2009-10-10T13:54:40Z</time>
      </trkpt>
      <trkpt lat="45.23918" lon="4.79367">
        <ele>152.49099731445</ele>
        <time>2009-10-10T13:54:42Z</time>
      </trkpt>
      <trkpt lat="45.23925" lon="4.79355">
        <ele>153.75300598144</ele>
        <time>2009-10-10T13:54:45Z</time>
      </trkpt>
      <trkpt lat="45.23939" lon="4.7933">
        <ele>155.61399841309</ele>
        <time>2009-10-10T13:54:51Z</time>
      </trkpt>
      <trkpt lat="45.23941" lon="4.79326">
        <ele>156.11799621582</ele>
        <time>2009-10-10T13:54:52Z</time>
      </trkpt>
      <trkpt lat="45.23941" lon="4.79303">
        <ele>157.59599304199</ele>
        <time>2009-10-10T13:54:57Z</time>
      </trkpt>
      <trkpt lat="45.23931" lon="4.79279">
        <ele>159.19599914551</ele>
        <time>2009-10-10T13:55:03Z</time>
      </trkpt>
      <trkpt lat="45.23915" lon="4.79267">
        <ele>160.64100646973</ele>
        <time>2009-10-10T13:55:09Z</time>
      </trkpt>
      <trkpt lat="45.23898" lon="4.79257">
        <ele>162.04299926758</ele>
        <time>2009-10-10T13:55:15Z</time>
      </trkpt>
      <trkpt lat="45.23875" lon="4.79245">
        <ele>163.77499389648</ele>
        <time>2009-10-10T13:55:23Z</time>
      </trkpt>
      <trkpt lat="45.23849" lon="4.79229">
        <ele>166.01899719238</ele>
        <time>2009-10-10T13:55:32Z</time>
      </trkpt>
      <trkpt lat="45.23835" lon="4.79215">
        <ele>167.53399658203</ele>
        <time>2009-10-10T13:55:38Z</time>
      </trkpt>
      <trkpt lat="45.23834" lon="4.79199">
        <ele>169.19099426269</ele>
        <time>2009-10-10T13:55:43Z</time>
      </trkpt>
      <trkpt lat="45.23841" lon="4.79186">
        <ele>170.50900268555</ele>
        <time>2009-10-10T13:55:48Z</time>
      </trkpt>
      <trkpt lat="45.23858" lon="4.79184">
        <ele>172.25700378418</ele>
        <time>2009-10-10T13:55:54Z</time>
      </trkpt>
      <trkpt lat="45.2388" lon="4.79186">
        <ele>174.3630065918</ele>
        <time>2009-10-10T13:56:01Z</time>
      </trkpt>
      <trkpt lat="45.23895" lon="4.79181">
        <ele>175.73899841309</ele>
        <time>2009-10-10T13:56:07Z</time>
      </trkpt>
      <trkpt lat="45.23911" lon="4.79167">
        <ele>177.31300354004</ele>
        <time>2009-10-10T13:56:14Z</time>
      </trkpt>
      <trkpt lat="45.2392" lon="4.79144">
        <ele>179.69700622559</ele>
        <time>2009-10-10T13:56:21Z</time>
      </trkpt>
      <trkpt lat="45.23919" lon="4.79116">
        <ele>181.21600341797</ele>
        <time>2009-10-10T13:56:28Z</time>
      </trkpt>
      <trkpt lat="45.23907" lon="4.79089">
        <ele>182.84300231934</ele>
        <time>2009-10-10T13:56:35Z</time>
      </trkpt>
      <trkpt lat="45.23889" lon="4.79072">
        <ele>184.07800292969</ele>
        <time>2009-10-10T13:56:40Z</time>
      </trkpt>
      <trkpt lat="45.23863" lon="4.79043">
        <ele>186.67700195312</ele>
        <time>2009-10-10T13:56:47Z</time>
      </trkpt>
      <trkpt lat="45.23848" lon="4.79015">
        <ele>189.09700012207</ele>
        <time>2009-10-10T13:56:53Z</time>
      </trkpt>
      <trkpt lat="45.23837" lon="4.78991">
        <ele>191.00500488281</ele>
        <time>2009-10-10T13:56:59Z</time>
      </trkpt>
      <trkpt lat="45.23824" lon="4.78965">
        <ele>191.78900146484</ele>
        <time>2009-10-10T13:57:06Z</time>
      </trkpt>
      <trkpt lat="45.23812" lon="4.7894">
        <ele>195.11399841309</ele>
        <time>2009-10-10T13:57:13Z</time>
      </trkpt>
      <trkpt lat="45.238" lon="4.78915">
        <ele>197.07699584961</ele>
        <time>2009-10-10T13:57:20Z</time>
      </trkpt>
      <trkpt lat="45.23792" lon="4.78891">
        <ele>198.77000427246</ele>
        <time>2009-10-10T13:57:27Z</time>
      </trkpt>
      <trkpt lat="45.23796" lon="4.78874">
        <ele>199.96499633789</ele>
        <time>2009-10-10T13:57:32Z</time>
      </trkpt>
      <trkpt lat="45.23803" lon="4.78856">
        <ele>201.29800415039</ele>
        <time>2009-10-10T13:57:37Z</time>
      </trkpt>
      <trkpt lat="45.23814" lon="4.7883">
        <ele>203.67900085449</ele>
        <time>2009-10-10T13:57:44Z</time>
      </trkpt>
      <trkpt lat="45.23822" lon="4.788">
        <ele>206.00700378418</ele>
        <time>2009-10-10T13:57:52Z</time>
      </trkpt>
      <trkpt lat="45.23824" lon="4.7877">
        <ele>208.21899414062</ele>
        <time>2009-10-10T13:57:59Z</time>
      </trkpt>
      <trkpt lat="45.23826" lon="4.78741">
        <ele>209.93699645996</ele>
        <time>2009-10-10T13:58:06Z</time>
      </trkpt>
      <trkpt lat="45.23835" lon="4.7872">
        <ele>211.70599365234</ele>
        <time>2009-10-10T13:58:12Z</time>
      </trkpt>
      <trkpt lat="45.23846" lon="4.78696">
        <ele>213.79600524902</ele>
        <time>2009-10-10T13:58:19Z</time>
      </trkpt>
      <trkpt lat="45.23845" lon="4.78673">
        <ele>215.375</ele>
        <time>2009-10-10T13:58:25Z</time>
      </trkpt>
      <trkpt lat="45.2384" lon="4.78649">
        <ele>217.2859954834</ele>
        <time>2009-10-10T13:58:31Z</time>
      </trkpt>
      <trkpt lat="45.23836" lon="4.78624">
        <ele>218.97200012207</ele>
        <time>2009-10-10T13:58:38Z</time>
      </trkpt>
      <trkpt lat="45.23825" lon="4.78591">
        <ele>221.44999694824</ele>
        <time>2009-10-10T13:58:46Z</time>
      </trkpt>
      <trkpt lat="45.23827" lon="4.78573">
        <ele>222.61999511719</ele>
        <time>2009-10-10T13:58:50Z</time>
      </trkpt>
      <trkpt lat="45.23837" lon="4.78555">
        <ele>224.1130065918</ele>
        <time>2009-10-10T13:58:55Z</time>
      </trkpt>
      <trkpt lat="45.23848" lon="4.7853">
        <ele>225.50300598144</ele>
        <time>2009-10-10T13:59:01Z</time>
      </trkpt>
      <trkpt lat="45.23853" lon="4.78521">
        <ele>226.30000305176</ele>
        <time>2009-10-10T13:59:04Z</time>
      </trkpt>
      <trkpt lat="45.23862" lon="4.78521">
        <ele>226.62300109863</ele>
        <time>2009-10-10T13:59:06Z</time>
      </trkpt>
      <trkpt lat="45.23868" lon="4.78506">
        <ele>227.75500488281</ele>
        <time>2009-10-10T13:59:10Z</time>
      </trkpt>
      <trkpt lat="45.23864" lon="4.78499">
        <ele>228.66700744629</ele>
        <time>2009-10-10T13:59:13Z</time>
      </trkpt>
      <trkpt lat="45.23852" lon="4.78504">
        <ele>229.92399597168</ele>
        <time>2009-10-10T13:59:17Z</time>
      </trkpt>
      <trkpt lat="45.23844" lon="4.78519">
        <ele>230.67500305176</ele>
        <time>2009-10-10T13:59:21Z</time>
      </trkpt>
      <trkpt lat="45.23843" lon="4.78523">
        <ele>230.95500183106</ele>
        <time>2009-10-10T13:59:22Z</time>
      </trkpt>
      <trkpt lat="45.2383" lon="4.78549">
        <ele>231.86599731445</ele>
        <time>2009-10-10T13:59:28Z</time>
      </trkpt>
      <trkpt lat="45.23811" lon="4.78558">
        <ele>233.42700195312</ele>
        <time>2009-10-10T13:59:33Z</time>
      </trkpt>
      <trkpt lat="45.238" lon="4.78569">
        <ele>234.61799621582</ele>
        <time>2009-10-10T13:59:37Z</time>
      </trkpt>
      <trkpt lat="45.23803" lon="4.78589">
        <ele>235.0950012207</ele>
        <time>2009-10-10T13:59:41Z</time>
      </trkpt>
      <trkpt lat="45.23807" lon="4.78614">
        <ele>236.77200317383</ele>
        <time>2009-10-10T13:59:46Z</time>
      </trkpt>
      <trkpt lat="45.23805" lon="4.78642">
        <ele>238.59300231934</ele>
        <time>2009-10-10T13:59:52Z</time>
      </trkpt>
      <trkpt lat="45.23798" lon="4.7867">
        <ele>240.59100341797</ele>
        <time>2009-10-10T13:59:59Z</time>
      </trkpt>
      <trkpt lat="45.23788" lon="4.7868">
        <ele>241.92900085449</ele>
        <time>2009-10-10T14:00:03Z</time>
      </trkpt>
      <trkpt lat="45.23772" lon="4.78689">
        <ele>243.90699768066</ele>
        <time>2009-10-10T14:00:09Z</time>
      </trkpt>
      <trkpt lat="45.23758" lon="4.7871">
        <ele>246.00100708008</ele>
        <time>2009-10-10T14:00:16Z</time>
      </trkpt>
      <trkpt lat="45.23756" lon="4.7872">
        <ele>246.82000732422</ele>
        <time>2009-10-10T14:00:18Z</time>
      </trkpt>
      <trkpt lat="45.23749" lon="4.78755">
        <ele>249.06399536133</ele>
        <time>2009-10-10T14:00:26Z</time>
      </trkpt>
      <trkpt lat="45.23741" lon="4.78772">
        <ele>249.91400146484</ele>
        <time>2009-10-10T14:00:30Z</time>
      </trkpt>
      <trkpt lat="45.23722" lon="4.78787">
        <ele>251.43699645996</ele>
        <time>2009-10-10T14:00:36Z</time>
      </trkpt>
      <trkpt lat="45.23702" lon="4.78791">
        <ele>252.94700622559</ele>
        <time>2009-10-10T14:00:42Z</time>
      </trkpt>
      <trkpt lat="45.23677" lon="4.78791">
        <ele>255.48599243164</ele>
        <time>2009-10-10T14:00:50Z</time>
      </trkpt>
      <trkpt lat="45.23655" lon="4.78788">
        <ele>257.33700561523</ele>
        <time>2009-10-10T14:00:57Z</time>
      </trkpt>
      <trkpt lat="45.23627" lon="4.78779">
        <ele>259.44299316406</ele>
        <time>2009-10-10T14:01:06Z</time>
      </trkpt>
      <trkpt lat="45.23606" lon="4.78775">
        <ele>261.41500854492</ele>
        <time>2009-10-10T14:01:13Z</time>
      </trkpt>
      <trkpt lat="45.23587" lon="4.78773">
        <ele>263.12100219727</ele>
        <time>2009-10-10T14:01:19Z</time>
      </trkpt>
      <trkpt lat="45.23566" lon="4.78781">
        <ele>265.1669921875</ele>
        <time>2009-10-10T14:01:25Z</time>
      </trkpt>
      <trkpt lat="45.23542" lon="4.78788">
        <ele>267.60101318359</ele>
        <time>2009-10-10T14:01:33Z</time>
      </trkpt>
      <trkpt lat="45.23524" lon="4.78787">
        <ele>268.99301147461</ele>
        <time>2009-10-10T14:01:39Z</time>
      </trkpt>
      <trkpt lat="45.23507" lon="4.78789">
        <ele>270.69000244141</ele>
        <time>2009-10-10T14:01:45Z</time>
      </trkpt>
      <trkpt lat="45.23493" lon="4.78803">
        <ele>272.54699707031</ele>
        <time>2009-10-10T14:01:51Z</time>
      </trkpt>
      <trkpt lat="45.23485" lon="4.78819">
        <ele>273.65899658203</ele>
        <time>2009-10-10T14:01:56Z</time>
      </trkpt>
      <trkpt lat="45.2347" lon="4.78839">
        <ele>275.26098632812</ele>
        <time>2009-10-10T14:02:03Z</time>
      </trkpt>
      <trkpt lat="45.23452" lon="4.78862">
        <ele>277.35699462891</ele>
        <time>2009-10-10T14:02:11Z</time>
      </trkpt>
      <trkpt lat="45.23434" lon="4.78871">
        <ele>278.84698486328</ele>
        <time>2009-10-10T14:02:17Z</time>
      </trkpt>
      <trkpt lat="45.23412" lon="4.78863">
        <ele>280.53298950195</ele>
        <time>2009-10-10T14:02:23Z</time>
      </trkpt>
      <trkpt lat="45.2338" lon="4.78846">
        <ele>283.12298583984</ele>
        <time>2009-10-10T14:02:32Z</time>
      </trkpt>
      <trkpt lat="45.23356" lon="4.78831">
        <ele>284.64898681641</ele>
        <time>2009-10-10T14:02:39Z</time>
      </trkpt>
      <trkpt lat="45.23335" lon="4.7881">
        <ele>286.25201416016</ele>
        <time>2009-10-10T14:02:46Z</time>
      </trkpt>
      <trkpt lat="45.23324" lon="4.78781">
        <ele>287.85699462891</ele>
        <time>2009-10-10T14:02:53Z</time>
      </trkpt>
      <trkpt lat="45.23314" lon="4.78755">
        <ele>289.9700012207</ele>
        <time>2009-10-10T14:03:00Z</time>
      </trkpt>
      <trkpt lat="45.233" lon="4.78728">
        <ele>291.66299438477</ele>
        <time>2009-10-10T14:03:07Z</time>
      </trkpt>
      <trkpt lat="45.23295" lon="4.78706">
        <ele>293.53100585938</ele>
        <time>2009-10-10T14:03:12Z</time>
      </trkpt>
      <trkpt lat="45.23292" lon="4.78697">
        <ele>294.23599243164</ele>
        <time>2009-10-10T14:03:14Z</time>
      </trkpt>
      <trkpt lat="45.23283" lon="4.78697">
        <ele>294.9580078125</ele>
        <time>2009-10-10T14:03:18Z</time>
      </trkpt>
      <trkpt lat="45.23281" lon="4.78701">
        <ele>295.15701293945</ele>
        <time>2009-10-10T14:03:19Z</time>
      </trkpt>
      <trkpt lat="45.23274" lon="4.78726">
        <ele>296.76800537109</ele>
        <time>2009-10-10T14:03:25Z</time>
      </trkpt>
      <trkpt lat="45.23273" lon="4.78747">
        <ele>297.85800170898</ele>
        <time>2009-10-10T14:03:29Z</time>
      </trkpt>
      <trkpt lat="45.23275" lon="4.7878">
        <ele>299.9700012207</ele>
        <time>2009-10-10T14:03:35Z</time>
      </trkpt>
      <trkpt lat="45.23267" lon="4.78807">
        <ele>302.07699584961</ele>
        <time>2009-10-10T14:03:41Z</time>
      </trkpt>
      <trkpt lat="45.2325" lon="4.78826">
        <ele>303.40899658203</ele>
        <time>2009-10-10T14:03:47Z</time>
      </trkpt>
      <trkpt lat="45.23233" lon="4.78832">
        <ele>304.99798583984</ele>
        <time>2009-10-10T14:03:52Z</time>
      </trkpt>
      <trkpt lat="45.23211" lon="4.78827">
        <ele>306.96798706055</ele>
        <time>2009-10-10T14:03:59Z</time>
      </trkpt>
      <trkpt lat="45.23192" lon="4.7881">
        <ele>308.96798706055</ele>
        <time>2009-10-10T14:04:05Z</time>
      </trkpt>
      <trkpt lat="45.23177" lon="4.78794">
        <ele>310.73599243164</ele>
        <time>2009-10-10T14:04:11Z</time>
      </trkpt>
      <trkpt lat="45.23163" lon="4.78786">
        <ele>311.90100097656</ele>
        <time>2009-10-10T14:04:16Z</time>
      </trkpt>
      <trkpt lat="45.23142" lon="4.78779">
        <ele>313.9289855957</ele>
        <time>2009-10-10T14:04:23Z</time>
      </trkpt>
      <trkpt lat="45.2312" lon="4.78773">
        <ele>315.83999633789</ele>
        <time>2009-10-10T14:04:31Z</time>
      </trkpt>
      <trkpt lat="45.23107" lon="4.78771">
        <ele>316.93701171875</ele>
        <time>2009-10-10T14:04:36Z</time>
      </trkpt>
      <trkpt lat="45.23086" lon="4.7877">
        <ele>318.64599609375</ele>
        <time>2009-10-10T14:04:44Z</time>
      </trkpt>
      <trkpt lat="45.23069" lon="4.78776">
        <ele>319.59399414062</ele>
        <time>2009-10-10T14:04:50Z</time>
      </trkpt>
      <trkpt lat="45.23066" lon="4.78792">
        <ele>320.14599609375</ele>
        <time>2009-10-10T14:04:54Z</time>
      </trkpt>
      <trkpt lat="45.23068" lon="4.78802">
        <ele>320.45098876953</ele>
        <time>2009-10-10T14:04:56Z</time>
      </trkpt>
      <trkpt lat="45.23084" lon="4.78822">
        <ele>321.26998901367</ele>
        <time>2009-10-10T14:05:01Z</time>
      </trkpt>
      <trkpt lat="45.23094" lon="4.78833">
        <ele>321.79598999023</ele>
        <time>2009-10-10T14:05:04Z</time>
      </trkpt>
      <trkpt lat="45.23108" lon="4.78863">
        <ele>323.62100219727</ele>
        <time>2009-10-10T14:05:10Z</time>
      </trkpt>
      <trkpt lat="45.23103" lon="4.78877">
        <ele>324.6669921875</ele>
        <time>2009-10-10T14:05:13Z</time>
      </trkpt>
      <trkpt lat="45.23088" lon="4.78882">
        <ele>326.16900634766</ele>
        <time>2009-10-10T14:05:17Z</time>
      </trkpt>
      <trkpt lat="45.2308" lon="4.78879">
        <ele>327.12399291992</ele>
        <time>2009-10-10T14:05:19Z</time>
      </trkpt>
      <trkpt lat="45.23051" lon="4.78864">
        <ele>328.88198852539</ele>
        <time>2009-10-10T14:05:27Z</time>
      </trkpt>
      <trkpt lat="45.23025" lon="4.78852">
        <ele>331.24899291992</ele>
        <time>2009-10-10T14:05:36Z</time>
      </trkpt>
      <trkpt lat="45.23" lon="4.78845">
        <ele>332.99600219727</ele>
        <time>2009-10-10T14:05:44Z</time>
      </trkpt>
      <trkpt lat="45.22973" lon="4.78839">
        <ele>335.22500610352</ele>
        <time>2009-10-10T14:05:53Z</time>
      </trkpt>
      <trkpt lat="45.22942" lon="4.78833">
        <ele>337.59600830078</ele>
        <time>2009-10-10T14:06:03Z</time>
      </trkpt>
      <trkpt lat="45.22919" lon="4.78831">
        <ele>339.58599853516</ele>
        <time>2009-10-10T14:06:11Z</time>
      </trkpt>
      <trkpt lat="45.229" lon="4.78827">
        <ele>341.32501220703</ele>
        <time>2009-10-10T14:06:18Z</time>
      </trkpt>
      <trkpt lat="45.22878" lon="4.78814">
        <ele>342.58599853516</ele>
        <time>2009-10-10T14:06:27Z</time>
      </trkpt>
      <trkpt lat="45.22859" lon="4.78793">
        <ele>342.58801269531</ele>
        <time>2009-10-10T14:06:35Z</time>
      </trkpt>
      <trkpt lat="45.22851" lon="4.7878">
        <ele>345.26000976562</ele>
        <time>2009-10-10T14:06:39Z</time>
      </trkpt>
      <trkpt lat="45.2284" lon="4.7875">
        <ele>345.32901000977</ele>
        <time>2009-10-10T14:06:46Z</time>
      </trkpt>
      <trkpt lat="45.22837" lon="4.78723">
        <ele>346.03799438477</ele>
        <time>2009-10-10T14:06:52Z</time>
      </trkpt>
      <trkpt lat="45.22841" lon="4.78694">
        <ele>346.5830078125</ele>
        <time>2009-10-10T14:06:58Z</time>
      </trkpt>
      <trkpt lat="45.22847" lon="4.78662">
        <ele>346.77099609375</ele>
        <time>2009-10-10T14:07:05Z</time>
      </trkpt>
      <trkpt lat="45.22854" lon="4.78624">
        <ele>346.77301025391</ele>
        <time>2009-10-10T14:07:13Z</time>
      </trkpt>
      <trkpt lat="45.22863" lon="4.78579">
        <ele>346.77801513672</ele>
        <time>2009-10-10T14:07:22Z</time>
      </trkpt>
      <trkpt lat="45.22865" lon="4.78564">
        <ele>349.22698974609</ele>
        <time>2009-10-10T14:07:25Z</time>
      </trkpt>
      <trkpt lat="45.22872" lon="4.78522">
        <ele>350.81900024414</ele>
        <time>2009-10-10T14:07:33Z</time>
      </trkpt>
      <trkpt lat="45.22872" lon="4.7848">
        <ele>352.34698486328</ele>
        <time>2009-10-10T14:07:41Z</time>
      </trkpt>
      <trkpt lat="45.22865" lon="4.78444">
        <ele>353.9580078125</ele>
        <time>2009-10-10T14:07:48Z</time>
      </trkpt>
      <trkpt lat="45.22849" lon="4.78411">
        <ele>355.41400146484</ele>
        <time>2009-10-10T14:07:55Z</time>
      </trkpt>
      <trkpt lat="45.22825" lon="4.78378">
        <ele>356.46301269531</ele>
        <time>2009-10-10T14:08:03Z</time>
      </trkpt>
      <trkpt lat="45.228" lon="4.78346">
        <ele>357.39999389648</ele>
        <time>2009-10-10T14:08:11Z</time>
      </trkpt>
      <trkpt lat="45.22776" lon="4.78311">
        <ele>357.44100952148</ele>
        <time>2009-10-10T14:08:19Z</time>
      </trkpt>
      <trkpt lat="45.22752" lon="4.78273">
        <ele>357.26501464844</ele>
        <time>2009-10-10T14:08:26Z</time>
      </trkpt>
      <trkpt lat="45.22736" lon="4.78248">
        <ele>357.86999511719</ele>
        <time>2009-10-10T14:08:31Z</time>
      </trkpt>
      <trkpt lat="45.22706" lon="4.78203">
        <ele>359.73199462891</ele>
        <time>2009-10-10T14:08:40Z</time>
      </trkpt>
      <trkpt lat="45.22677" lon="4.78157">
        <ele>361.45498657227</ele>
        <time>2009-10-10T14:08:49Z</time>
      </trkpt>
      <trkpt lat="45.22658" lon="4.78117">
        <ele>362.69400024414</ele>
        <time>2009-10-10T14:08:56Z</time>
      </trkpt>
      <trkpt lat="45.22657" lon="4.7811">
        <ele>362.85900878906</ele>
        <time>2009-10-10T14:08:57Z</time>
      </trkpt>
      <trkpt lat="45.22654" lon="4.78067">
        <ele>363.1789855957</ele>
        <time>2009-10-10T14:09:04Z</time>
      </trkpt>
      <trkpt lat="45.22656" lon="4.78031">
        <ele>363.03100585938</ele>
        <time>2009-10-10T14:09:10Z</time>
      </trkpt>
      <trkpt lat="45.22659" lon="4.77976">
        <ele>362.41598510742</ele>
        <time>2009-10-10T14:09:18Z</time>
      </trkpt>
      <trkpt lat="45.2266" lon="4.77933">
        <ele>362.01901245117</ele>
        <time>2009-10-10T14:09:24Z</time>
      </trkpt>
      <trkpt lat="45.22657" lon="4.77908">
        <ele>362.36199951172</ele>
        <time>2009-10-10T14:09:28Z</time>
      </trkpt>
      <trkpt lat="45.22644" lon="4.77872">
        <ele>362.95999145508</ele>
        <time>2009-10-10T14:09:34Z</time>
      </trkpt>
      <trkpt lat="45.22634" lon="4.77858">
        <ele>363.21301269531</ele>
        <time>2009-10-10T14:09:37Z</time>
      </trkpt>
      <trkpt lat="45.22602" lon="4.77832">
        <ele>365.12799072266</ele>
        <time>2009-10-10T14:09:45Z</time>
      </trkpt>
      <trkpt lat="45.22569" lon="4.77815">
        <ele>367.16000366211</ele>
        <time>2009-10-10T14:09:53Z</time>
      </trkpt>
      <trkpt lat="45.22534" lon="4.77801">
        <ele>368.04800415039</ele>
        <time>2009-10-10T14:10:01Z</time>
      </trkpt>
      <trkpt lat="45.22503" lon="4.77786">
        <ele>367.84201049805</ele>
        <time>2009-10-10T14:10:08Z</time>
      </trkpt>
      <trkpt lat="45.22472" lon="4.77766">
        <ele>366.30700683594</ele>
        <time>2009-10-10T14:10:14Z</time>
      </trkpt>
      <trkpt lat="45.22433" lon="4.77739">
        <ele>364.01599121094</ele>
        <time>2009-10-10T14:10:20Z</time>
      </trkpt>
      <trkpt lat="45.22401" lon="4.77738">
        <ele>363.39498901367</ele>
        <time>2009-10-10T14:10:24Z</time>
      </trkpt>
      <trkpt lat="45.22379" lon="4.77743">
        <ele>363.25399780273</ele>
        <time>2009-10-10T14:10:27Z</time>
      </trkpt>
      <trkpt lat="45.22365" lon="4.77748">
        <ele>363.63500976562</ele>
        <time>2009-10-10T14:10:29Z</time>
      </trkpt>
      <trkpt lat="45.22335" lon="4.77767">
        <ele>364.58999633789</ele>
        <time>2009-10-10T14:10:34Z</time>
      </trkpt>
      <trkpt lat="45.22308" lon="4.77794">
        <ele>366.8039855957</ele>
        <time>2009-10-10T14:10:40Z</time>
      </trkpt>
      <trkpt lat="45.22304" lon="4.77797">
        <ele>367.35101318359</ele>
        <time>2009-10-10T14:10:41Z</time>
      </trkpt>
      <trkpt lat="45.22294" lon="4.77802">
        <ele>368.10400390625</ele>
        <time>2009-10-10T14:10:43Z</time>
      </trkpt>
      <trkpt lat="45.22277" lon="4.778">
        <ele>369.49200439453</ele>
        <time>2009-10-10T14:10:47Z</time>
      </trkpt>
      <trkpt lat="45.22263" lon="4.77788">
        <ele>370.58200073242</ele>
        <time>2009-10-10T14:10:51Z</time>
      </trkpt>
      <trkpt lat="45.22252" lon="4.77771">
        <ele>371.48199462891</ele>
        <time>2009-10-10T14:10:57Z</time>
      </trkpt>
      <trkpt lat="45.22242" lon="4.77764">
        <ele>371.79400634766</ele>
        <time>2009-10-10T14:11:03Z</time>
      </trkpt>
      <trkpt lat="45.22233" lon="4.77756">
        <ele>372.24499511719</ele>
        <time>2009-10-10T14:11:07Z</time>
      </trkpt>
      <trkpt lat="45.22218" lon="4.77736">
        <ele>372.94400024414</ele>
        <time>2009-10-10T14:11:13Z</time>
      </trkpt>
      <trkpt lat="45.22216" lon="4.77733">
        <ele>372.73498535156</ele>
        <time>2009-10-10T14:11:14Z</time>
      </trkpt>
      <trkpt lat="45.22209" lon="4.77717">
        <ele>373.51699829102</ele>
        <time>2009-10-10T14:11:20Z</time>
      </trkpt>
      <trkpt lat="45.22199" lon="4.77706">
        <ele>373.98300170898</ele>
        <time>2009-10-10T14:11:24Z</time>
      </trkpt>
      <trkpt lat="45.22194" lon="4.77697">
        <ele>374.28298950195</ele>
        <time>2009-10-10T14:11:26Z</time>
      </trkpt>
      <trkpt lat="45.22189" lon="4.77671">
        <ele>374.65600585938</ele>
        <time>2009-10-10T14:11:31Z</time>
      </trkpt>
      <trkpt lat="45.22195" lon="4.77664">
        <ele>374.66400146484</ele>
        <time>2009-10-10T14:11:33Z</time>
      </trkpt>
      <trkpt lat="45.22219" lon="4.77636">
        <ele>374.9169921875</ele>
        <time>2009-10-10T14:11:41Z</time>
      </trkpt>
      <trkpt lat="45.22226" lon="4.77631">
        <ele>375.1369934082</ele>
        <time>2009-10-10T14:11:43Z</time>
      </trkpt>
      <trkpt lat="45.22231" lon="4.77637">
        <ele>375.06399536133</ele>
        <time>2009-10-10T14:11:48Z</time>
      </trkpt>
      <trkpt lat="45.2223" lon="4.77637">
        <ele>374.99600219727</ele>
        <time>2009-10-10T14:11:54Z</time>
      </trkpt>
      <trkpt lat="45.2223" lon="4.77637">
        <ele>375.00799560547</ele>
        <time>2009-10-10T14:12:25Z</time>
      </trkpt>
      <trkpt lat="45.22228" lon="4.77638">
        <ele>375.06100463867</ele>
        <time>2009-10-10T14:12:44Z</time>
      </trkpt>
      <trkpt lat="45.22229" lon="4.77639">
        <ele>375.00399780273</ele>
        <time>2009-10-10T14:12:57Z</time>
      </trkpt>
      <trkpt lat="45.22229" lon="4.77639">
        <ele>375.01901245117</ele>
        <time>2009-10-10T14:13:31Z</time>
      </trkpt>
      <trkpt lat="45.22228" lon="4.77638">
        <ele>375.06900024414</ele>
        <time>2009-10-10T14:13:32Z</time>
      </trkpt>
      <trkpt lat="45.22224" lon="4.77631">
        <ele>374.78698730469</ele>
        <time>2009-10-10T14:13:39Z</time>
      </trkpt>
      <trkpt lat="45.22222" lon="4.77633">
        <ele>374.64199829102</ele>
        <time>2009-10-10T14:13:41Z</time>
      </trkpt>
      <trkpt lat="45.22207" lon="4.77653">
        <ele>374.67599487305</ele>
        <time>2009-10-10T14:13:49Z</time>
      </trkpt>
      <trkpt lat="45.22192" lon="4.77669">
        <ele>374.82501220703</ele>
        <time>2009-10-10T14:13:55Z</time>
      </trkpt>
      <trkpt lat="45.22188" lon="4.77682">
        <ele>374.10198974609</ele>
        <time>2009-10-10T14:13:59Z</time>
      </trkpt>
      <trkpt lat="45.22197" lon="4.77708">
        <ele>373.17999267578</ele>
        <time>2009-10-10T14:14:05Z</time>
      </trkpt>
      <trkpt lat="45.2221" lon="4.77726">
        <ele>371.91500854492</ele>
        <time>2009-10-10T14:14:10Z</time>
      </trkpt>
      <trkpt lat="45.22231" lon="4.7776">
        <ele>371.39999389648</ele>
        <time>2009-10-10T14:14:18Z</time>
      </trkpt>
      <trkpt lat="45.22238" lon="4.77779">
        <ele>371.56799316406</ele>
        <time>2009-10-10T14:14:22Z</time>
      </trkpt>
      <trkpt lat="45.22241" lon="4.77791">
        <ele>370.89801025391</ele>
        <time>2009-10-10T14:14:26Z</time>
      </trkpt>
      <trkpt lat="45.2224" lon="4.77803">
        <ele>371.36700439453</ele>
        <time>2009-10-10T14:14:34Z</time>
      </trkpt>
      <trkpt lat="45.22241" lon="4.77803">
        <ele>371.24899291992</ele>
        <time>2009-10-10T14:14:36Z</time>
      </trkpt>
      <trkpt lat="45.22241" lon="4.77814">
        <ele>370.7919921875</ele>
        <time>2009-10-10T14:14:41Z</time>
      </trkpt>
      <trkpt lat="45.22238" lon="4.77841">
        <ele>370.23901367188</ele>
        <time>2009-10-10T14:14:47Z</time>
      </trkpt>
      <trkpt lat="45.22235" lon="4.77857">
        <ele>369.52899169922</ele>
        <time>2009-10-10T14:14:50Z</time>
      </trkpt>
      <trkpt lat="45.22227" lon="4.7788">
        <ele>368.77398681641</ele>
        <time>2009-10-10T14:14:54Z</time>
      </trkpt>
      <trkpt lat="45.22221" lon="4.77892">
        <ele>368.78799438477</ele>
        <time>2009-10-10T14:14:56Z</time>
      </trkpt>
      <trkpt lat="45.22206" lon="4.77911">
        <ele>367.45001220703</ele>
        <time>2009-10-10T14:14:59Z</time>
      </trkpt>
      <trkpt lat="45.22175" lon="4.77947">
        <ele>364.76998901367</ele>
        <time>2009-10-10T14:15:04Z</time>
      </trkpt>
      <trkpt lat="45.22137" lon="4.78">
        <ele>363.76998901367</ele>
        <time>2009-10-10T14:15:10Z</time>
      </trkpt>
      <trkpt lat="45.22128" lon="4.78043">
        <ele>363.34799194336</ele>
        <time>2009-10-10T14:15:14Z</time>
      </trkpt>
      <trkpt lat="45.22128" lon="4.78105">
        <ele>363.35998535156</ele>
        <time>2009-10-10T14:15:20Z</time>
      </trkpt>
      <trkpt lat="45.22138" lon="4.78149">
        <ele>363.76599121094</ele>
        <time>2009-10-10T14:15:25Z</time>
      </trkpt>
      <trkpt lat="45.2217" lon="4.782">
        <ele>364.40200805664</ele>
        <time>2009-10-10T14:15:33Z</time>
      </trkpt>
      <trkpt lat="45.22185" lon="4.78229">
        <ele>364.91598510742</ele>
        <time>2009-10-10T14:15:38Z</time>
      </trkpt>
      <trkpt lat="45.22189" lon="4.78241">
        <ele>364.99099731445</ele>
        <time>2009-10-10T14:15:40Z</time>
      </trkpt>
      <trkpt lat="45.22192" lon="4.7829">
        <ele>365.61801147461</ele>
        <time>2009-10-10T14:15:47Z</time>
      </trkpt>
      <trkpt lat="45.22193" lon="4.78322">
        <ele>365.64300537109</ele>
        <time>2009-10-10T14:15:51Z</time>
      </trkpt>
      <trkpt lat="45.22196" lon="4.7835">
        <ele>366.125</ele>
        <time>2009-10-10T14:15:55Z</time>
      </trkpt>
      <trkpt lat="45.22205" lon="4.78403">
        <ele>366.55801391602</ele>
        <time>2009-10-10T14:16:02Z</time>
      </trkpt>
      <trkpt lat="45.22208" lon="4.78432">
        <ele>366.18899536133</ele>
        <time>2009-10-10T14:16:06Z</time>
      </trkpt>
      <trkpt lat="45.22204" lon="4.78511">
        <ele>364.93600463867</ele>
        <time>2009-10-10T14:16:16Z</time>
      </trkpt>
      <trkpt lat="45.22204" lon="4.78527">
        <ele>364.60800170898</ele>
        <time>2009-10-10T14:16:18Z</time>
      </trkpt>
      <trkpt lat="45.22208" lon="4.78577">
        <ele>364.37200927734</ele>
        <time>2009-10-10T14:16:25Z</time>
      </trkpt>
      <trkpt lat="45.22216" lon="4.78639">
        <ele>361.71798706055</ele>
        <time>2009-10-10T14:16:33Z</time>
      </trkpt>
      <trkpt lat="45.22207" lon="4.78691">
        <ele>358.35699462891</ele>
        <time>2009-10-10T14:16:38Z</time>
      </trkpt>
      <trkpt lat="45.22199" lon="4.78728">
        <ele>356.2380065918</ele>
        <time>2009-10-10T14:16:41Z</time>
      </trkpt>
      <trkpt lat="45.22178" lon="4.7882">
        <ele>352.86801147461</ele>
        <time>2009-10-10T14:16:48Z</time>
      </trkpt>
      <trkpt lat="45.22169" lon="4.78859">
        <ele>351.30899047852</ele>
        <time>2009-10-10T14:16:51Z</time>
      </trkpt>
      <trkpt lat="45.22153" lon="4.78929">
        <ele>347.24600219727</ele>
        <time>2009-10-10T14:16:56Z</time>
      </trkpt>
      <trkpt lat="45.22144" lon="4.78959">
        <ele>344.40301513672</ele>
        <time>2009-10-10T14:16:58Z</time>
      </trkpt>
      <trkpt lat="45.22139" lon="4.78975">
        <ele>343.41799926758</ele>
        <time>2009-10-10T14:16:59Z</time>
      </trkpt>
      <trkpt lat="45.2213" lon="4.79008">
        <ele>340.5830078125</ele>
        <time>2009-10-10T14:17:01Z</time>
      </trkpt>
      <trkpt lat="45.22124" lon="4.79024">
        <ele>339.9469909668</ele>
        <time>2009-10-10T14:17:02Z</time>
      </trkpt>
      <trkpt lat="45.22098" lon="4.79061">
        <ele>337.13900756836</ele>
        <time>2009-10-10T14:17:05Z</time>
      </trkpt>
      <trkpt lat="45.22086" lon="4.79068">
        <ele>334.35598754883</ele>
        <time>2009-10-10T14:17:06Z</time>
      </trkpt>
      <trkpt lat="45.22018" lon="4.79098">
        <ele>329.09201049805</ele>
        <time>2009-10-10T14:17:11Z</time>
      </trkpt>
      <trkpt lat="45.21957" lon="4.79119">
        <ele>323.875</ele>
        <time>2009-10-10T14:17:15Z</time>
      </trkpt>
      <trkpt lat="45.21898" lon="4.79144">
        <ele>318.32800292969</ele>
        <time>2009-10-10T14:17:19Z</time>
      </trkpt>
      <trkpt lat="45.21851" lon="4.79142">
        <ele>313.45001220703</ele>
        <time>2009-10-10T14:17:22Z</time>
      </trkpt>
      <trkpt lat="45.21827" lon="4.7912">
        <ele>311.98498535156</ele>
        <time>2009-10-10T14:17:24Z</time>
      </trkpt>
      <trkpt lat="45.21817" lon="4.79089">
        <ele>308.8219909668</ele>
        <time>2009-10-10T14:17:26Z</time>
      </trkpt>
      <trkpt lat="45.21806" lon="4.79074">
        <ele>307.61700439453</ele>
        <time>2009-10-10T14:17:28Z</time>
      </trkpt>
      <trkpt lat="45.21788" lon="4.79083">
        <ele>305.33898925781</ele>
        <time>2009-10-10T14:17:30Z</time>
      </trkpt>
      <trkpt lat="45.21766" lon="4.79092">
        <ele>303.44299316406</ele>
        <time>2009-10-10T14:17:32Z</time>
      </trkpt>
      <trkpt lat="45.2173" lon="4.79102">
        <ele>298.3330078125</ele>
        <time>2009-10-10T14:17:35Z</time>
      </trkpt>
      <trkpt lat="45.21688" lon="4.79097">
        <ele>293.54299926758</ele>
        <time>2009-10-10T14:17:38Z</time>
      </trkpt>
      <trkpt lat="45.21629" lon="4.79105">
        <ele>287.7919921875</ele>
        <time>2009-10-10T14:17:42Z</time>
      </trkpt>
      <trkpt lat="45.21554" lon="4.79123">
        <ele>279.27801513672</ele>
        <time>2009-10-10T14:17:47Z</time>
      </trkpt>
      <trkpt lat="45.21507" lon="4.79138">
        <ele>274.46099853516</ele>
        <time>2009-10-10T14:17:50Z</time>
      </trkpt>
      <trkpt lat="45.21443" lon="4.79149">
        <ele>267.86898803711</ele>
        <time>2009-10-10T14:17:54Z</time>
      </trkpt>
      <trkpt lat="45.21395" lon="4.79169">
        <ele>265.28201293945</ele>
        <time>2009-10-10T14:17:57Z</time>
      </trkpt>
      <trkpt lat="45.21355" lon="4.79188">
        <ele>261.26998901367</ele>
        <time>2009-10-10T14:18:00Z</time>
      </trkpt>
      <trkpt lat="45.21342" lon="4.79199">
        <ele>259.83700561523</ele>
        <time>2009-10-10T14:18:01Z</time>
      </trkpt>
      <trkpt lat="45.2128" lon="4.79262">
        <ele>251.59199523926</ele>
        <time>2009-10-10T14:18:06Z</time>
      </trkpt>
      <trkpt lat="45.21268" lon="4.79274">
        <ele>250.07099914551</ele>
        <time>2009-10-10T14:18:07Z</time>
      </trkpt>
      <trkpt lat="45.21225" lon="4.79328">
        <ele>245.70100402832</ele>
        <time>2009-10-10T14:18:11Z</time>
      </trkpt>
      <trkpt lat="45.21181" lon="4.79377">
        <ele>241.28399658203</ele>
        <time>2009-10-10T14:18:15Z</time>
      </trkpt>
      <trkpt lat="45.21176" lon="4.79395">
        <ele>240.45399475098</ele>
        <time>2009-10-10T14:18:16Z</time>
      </trkpt>
      <trkpt lat="45.21154" lon="4.79469">
        <ele>234.14300537109</ele>
        <time>2009-10-10T14:18:20Z</time>
      </trkpt>
      <trkpt lat="45.21134" lon="4.79522">
        <ele>231.14599609375</ele>
        <time>2009-10-10T14:18:23Z</time>
      </trkpt>
      <trkpt lat="45.21129" lon="4.79538">
        <ele>229.67799377441</ele>
        <time>2009-10-10T14:18:24Z</time>
      </trkpt>
      <trkpt lat="45.21138" lon="4.79615">
        <ele>224.11500549316</ele>
        <time>2009-10-10T14:18:28Z</time>
      </trkpt>
      <trkpt lat="45.21146" lon="4.79655">
        <ele>222.30299377441</ele>
        <time>2009-10-10T14:18:30Z</time>
      </trkpt>
      <trkpt lat="45.21157" lon="4.79736">
        <ele>216.2619934082</ele>
        <time>2009-10-10T14:18:34Z</time>
      </trkpt>
      <trkpt lat="45.21156" lon="4.79757">
        <ele>214.88299560547</ele>
        <time>2009-10-10T14:18:35Z</time>
      </trkpt>
      <trkpt lat="45.21125" lon="4.79872">
        <ele>208.17399597168</ele>
        <time>2009-10-10T14:18:41Z</time>
      </trkpt>
      <trkpt lat="45.2111" lon="4.79909">
        <ele>206.18899536133</ele>
        <time>2009-10-10T14:18:43Z</time>
      </trkpt>
      <trkpt lat="45.21076" lon="4.79946">
        <ele>202.40800476074</ele>
        <time>2009-10-10T14:18:46Z</time>
      </trkpt>
      <trkpt lat="45.21034" lon="4.7997">
        <ele>198.81100463867</ele>
        <time>2009-10-10T14:18:49Z</time>
      </trkpt>
      <trkpt lat="45.20995" lon="4.80005">
        <ele>195.91999816894</ele>
        <time>2009-10-10T14:18:52Z</time>
      </trkpt>
      <trkpt lat="45.20925" lon="4.80061">
        <ele>188.79499816894</ele>
        <time>2009-10-10T14:18:57Z</time>
      </trkpt>
      <trkpt lat="45.20861" lon="4.8009">
        <ele>183.10499572754</ele>
        <time>2009-10-10T14:19:01Z</time>
      </trkpt>
      <trkpt lat="45.20831" lon="4.80102">
        <ele>181.29100036621</ele>
        <time>2009-10-10T14:19:03Z</time>
      </trkpt>
      <trkpt lat="45.20798" lon="4.80098">
        <ele>180.5</ele>
        <time>2009-10-10T14:19:06Z</time>
      </trkpt>
      <trkpt lat="45.2079" lon="4.80105">
        <ele>178.88299560547</ele>
        <time>2009-10-10T14:19:08Z</time>
      </trkpt>
      <trkpt lat="45.20797" lon="4.80125">
        <ele>176.57800292969</ele>
        <time>2009-10-10T14:19:10Z</time>
      </trkpt>
      <trkpt lat="45.20817" lon="4.8015">
        <ele>172.45599365234</ele>
        <time>2009-10-10T14:19:13Z</time>
      </trkpt>
      <trkpt lat="45.20827" lon="4.80153">
        <ele>172.35699462891</ele>
        <time>2009-10-10T14:19:14Z</time>
      </trkpt>
      <trkpt lat="45.20854" lon="4.80146">
        <ele>170.64700317383</ele>
        <time>2009-10-10T14:19:17Z</time>
      </trkpt>
      <trkpt lat="45.20904" lon="4.80123">
        <ele>165.00799560547</ele>
        <time>2009-10-10T14:19:22Z</time>
      </trkpt>
      <trkpt lat="45.20928" lon="4.80117">
        <ele>163.2440032959</ele>
        <time>2009-10-10T14:19:24Z</time>
      </trkpt>
      <trkpt lat="45.20963" lon="4.80101">
        <ele>159.88000488281</ele>
        <time>2009-10-10T14:19:27Z</time>
      </trkpt>
      <trkpt lat="45.20974" lon="4.80096">
        <ele>160.13400268555</ele>
        <time>2009-10-10T14:19:28Z</time>
      </trkpt>
      <trkpt lat="45.20986" lon="4.80103">
        <ele>158.88400268555</ele>
        <time>2009-10-10T14:19:31Z</time>
      </trkpt>
      <trkpt lat="45.20971" lon="4.80117">
        <ele>157.46600341797</ele>
        <time>2009-10-10T14:19:34Z</time>
      </trkpt>
      <trkpt lat="45.20963" lon="4.8012">
        <ele>157.39199829102</ele>
        <time>2009-10-10T14:19:35Z</time>
      </trkpt>
      <trkpt lat="45.20914" lon="4.80152">
        <ele>153.64700317383</ele>
        <time>2009-10-10T14:19:41Z</time>
      </trkpt>
      <trkpt lat="45.20878" lon="4.80178">
        <ele>150.11099243164</ele>
        <time>2009-10-10T14:19:46Z</time>
      </trkpt>
      <trkpt lat="45.20871" lon="4.80184">
        <ele>150.02400207519</ele>
        <time>2009-10-10T14:19:47Z</time>
      </trkpt>
      <trkpt lat="45.20839" lon="4.80215">
        <ele>145.50100708008</ele>
        <time>2009-10-10T14:19:51Z</time>
      </trkpt>
      <trkpt lat="45.20824" lon="4.80226">
        <ele>144.66000366211</ele>
        <time>2009-10-10T14:19:53Z</time>
      </trkpt>
      <trkpt lat="45.20811" lon="4.80243">
        <ele>143.24099731445</ele>
        <time>2009-10-10T14:19:56Z</time>
      </trkpt>
      <trkpt lat="45.2081" lon="4.80254">
        <ele>142.05700683594</ele>
        <time>2009-10-10T14:19:58Z</time>
      </trkpt>
      <trkpt lat="45.2081" lon="4.80277">
        <ele>140.82299804688</ele>
        <time>2009-10-10T14:20:03Z</time>
      </trkpt>
      <trkpt lat="45.20808" lon="4.80285">
        <ele>140.55599975586</ele>
        <time>2009-10-10T14:20:08Z</time>
      </trkpt>
      <trkpt lat="45.2081" lon="4.80285">
        <ele>140.72200012207</ele>
        <time>2009-10-10T14:20:15Z</time>
      </trkpt>
      <trkpt lat="45.20811" lon="4.80286">
        <ele>140.62199401856</ele>
        <time>2009-10-10T14:20:39Z</time>
      </trkpt>
      <trkpt lat="45.20811" lon="4.80286">
        <ele>140.63800048828</ele>
        <time>2009-10-10T14:20:41Z</time>
      </trkpt>
      <trkpt lat="45.20811" lon="4.80286">
        <ele>140.42199707031</ele>
        <time>2009-10-10T14:20:42Z</time>
      </trkpt>
      <trkpt lat="45.20811" lon="4.80286">
        <ele>141.07600402832</ele>
        <time>2009-10-10T14:20:50Z</time>
      </trkpt>
      <trkpt lat="45.20801" lon="4.80285">
        <ele>141.10899353027</ele>
        <time>2009-10-10T14:20:56Z</time>
      </trkpt>
      <trkpt lat="45.20785" lon="4.80278">
        <ele>140.5299987793</ele>
        <time>2009-10-10T14:21:00Z</time>
      </trkpt>
      <trkpt lat="45.20752" lon="4.80268">
        <ele>140.82800292969</ele>
        <time>2009-10-10T14:21:07Z</time>
      </trkpt>
      <trkpt lat="45.2071" lon="4.80255">
        <ele>141.26699829102</ele>
        <time>2009-10-10T14:21:15Z</time>
      </trkpt>
      <trkpt lat="45.20669" lon="4.8024">
        <ele>140.76100158691</ele>
        <time>2009-10-10T14:21:22Z</time>
      </trkpt>
      <trkpt lat="45.20631" lon="4.80227">
        <ele>140.46299743652</ele>
        <time>2009-10-10T14:21:28Z</time>
      </trkpt>
      <trkpt lat="45.2058" lon="4.8021">
        <ele>139.00700378418</ele>
        <time>2009-10-10T14:21:35Z</time>
      </trkpt>
      <trkpt lat="45.2052" lon="4.80198">
        <ele>137.09899902344</ele>
        <time>2009-10-10T14:21:43Z</time>
      </trkpt>
      <trkpt lat="45.2046" lon="4.80192">
        <ele>136.32400512695</ele>
        <time>2009-10-10T14:21:51Z</time>
      </trkpt>
      <trkpt lat="45.20382" lon="4.80185">
        <ele>136.31500244141</ele>
        <time>2009-10-10T14:22:01Z</time>
      </trkpt>
      <trkpt lat="45.20322" lon="4.80179">
        <ele>136.20300292969</ele>
        <time>2009-10-10T14:22:09Z</time>
      </trkpt>
      <trkpt lat="45.20255" lon="4.80173">
        <ele>136.35800170898</ele>
        <time>2009-10-10T14:22:18Z</time>
      </trkpt>
      <trkpt lat="45.20192" lon="4.80168">
        <ele>136.10400390625</ele>
        <time>2009-10-10T14:22:26Z</time>
      </trkpt>
      <trkpt lat="45.20113" lon="4.80161">
        <ele>135.92999267578</ele>
        <time>2009-10-10T14:22:36Z</time>
      </trkpt>
      <trkpt lat="45.20034" lon="4.80153">
        <ele>135.91499328613</ele>
        <time>2009-10-10T14:22:46Z</time>
      </trkpt>
      <trkpt lat="45.19962" lon="4.80147">
        <ele>135.95700073242</ele>
        <time>2009-10-10T14:22:55Z</time>
      </trkpt>
      <trkpt lat="45.19897" lon="4.80142">
        <ele>135.96699523926</ele>
        <time>2009-10-10T14:23:03Z</time>
      </trkpt>
      <trkpt lat="45.19849" lon="4.80138">
        <ele>135.80799865723</ele>
        <time>2009-10-10T14:23:09Z</time>
      </trkpt>
      <trkpt lat="45.19761" lon="4.80129">
        <ele>135.55400085449</ele>
        <time>2009-10-10T14:23:19Z</time>
      </trkpt>
      <trkpt lat="45.1969" lon="4.80124">
        <ele>134.74899291992</ele>
        <time>2009-10-10T14:23:27Z</time>
      </trkpt>
      <trkpt lat="45.19608" lon="4.80116">
        <ele>134.45599365234</ele>
        <time>2009-10-10T14:23:36Z</time>
      </trkpt>
      <trkpt lat="45.19506" lon="4.80107">
        <ele>134.54499816894</ele>
        <time>2009-10-10T14:23:47Z</time>
      </trkpt>
      <trkpt lat="45.194" lon="4.80095">
        <ele>134.63800048828</ele>
        <time>2009-10-10T14:23:58Z</time>
      </trkpt>
      <trkpt lat="45.19352" lon="4.80078">
        <ele>134.64999389648</ele>
        <time>2009-10-10T14:24:03Z</time>
      </trkpt>
      <trkpt lat="45.19307" lon="4.80047">
        <ele>134.98699951172</ele>
        <time>2009-10-10T14:24:08Z</time>
      </trkpt>
      <trkpt lat="45.19263" lon="4.79992">
        <ele>135.52499389648</ele>
        <time>2009-10-10T14:24:14Z</time>
      </trkpt>
      <trkpt lat="45.19201" lon="4.79914">
        <ele>137.96499633789</ele>
        <time>2009-10-10T14:24:23Z</time>
      </trkpt>
      <trkpt lat="45.19141" lon="4.79837">
        <ele>137.91200256348</ele>
        <time>2009-10-10T14:24:32Z</time>
      </trkpt>
      <trkpt lat="45.19106" lon="4.79816">
        <ele>137.38999938965</ele>
        <time>2009-10-10T14:24:36Z</time>
      </trkpt>
      <trkpt lat="45.19087" lon="4.79816">
        <ele>136.79100036621</ele>
        <time>2009-10-10T14:24:38Z</time>
      </trkpt>
      <trkpt lat="45.18981" lon="4.79837">
        <ele>136.63400268555</ele>
        <time>2009-10-10T14:24:49Z</time>
      </trkpt>
      <trkpt lat="45.18869" lon="4.79859">
        <ele>137.22799682617</ele>
        <time>2009-10-10T14:25:01Z</time>
      </trkpt>
      <trkpt lat="45.18807" lon="4.79874">
        <ele>137.30700683594</ele>
        <time>2009-10-10T14:25:08Z</time>
      </trkpt>
      <trkpt lat="45.18768" lon="4.79882">
        <ele>137.53199768066</ele>
        <time>2009-10-10T14:25:13Z</time>
      </trkpt>
      <trkpt lat="45.18755" lon="4.79897">
        <ele>138.21800231934</ele>
        <time>2009-10-10T14:25:16Z</time>
      </trkpt>
      <trkpt lat="45.18756" lon="4.79904">
        <ele>138.42700195312</ele>
        <time>2009-10-10T14:25:19Z</time>
      </trkpt>
      <trkpt lat="45.18755" lon="4.79903">
        <ele>138.12899780273</ele>
        <time>2009-10-10T14:25:37Z</time>
      </trkpt>
      <trkpt lat="45.18757" lon="4.7991">
        <ele>138.08799743652</ele>
        <time>2009-10-10T14:25:42Z</time>
      </trkpt>
      <trkpt lat="45.18757" lon="4.79919">
        <ele>137.85000610352</ele>
        <time>2009-10-10T14:25:44Z</time>
      </trkpt>
      <trkpt lat="45.18757" lon="4.79933">
        <ele>137.38999938965</ele>
        <time>2009-10-10T14:25:46Z</time>
      </trkpt>
      <trkpt lat="45.18756" lon="4.79961">
        <ele>137.06199645996</ele>
        <time>2009-10-10T14:25:50Z</time>
      </trkpt>
      <trkpt lat="45.18753" lon="4.79987">
        <ele>137.09199523926</ele>
        <time>2009-10-10T14:25:54Z</time>
      </trkpt>
      <trkpt lat="45.1874" lon="4.79994">
        <ele>136.96699523926</ele>
        <time>2009-10-10T14:25:58Z</time>
      </trkpt>
      <trkpt lat="45.18731" lon="4.79994">
        <ele>137.12600708008</ele>
        <time>2009-10-10T14:26:00Z</time>
      </trkpt>
      <trkpt lat="45.18712" lon="4.79989">
        <ele>137.51600646973</ele>
        <time>2009-10-10T14:26:04Z</time>
      </trkpt>
      <trkpt lat="45.18694" lon="4.79987">
        <ele>138.3690032959</ele>
        <time>2009-10-10T14:26:09Z</time>
      </trkpt>
      <trkpt lat="45.18686" lon="4.79985">
        <ele>138.70700073242</ele>
        <time>2009-10-10T14:26:13Z</time>
      </trkpt>
      <trkpt lat="45.18674" lon="4.79982">
        <ele>138.54200744629</ele>
        <time>2009-10-10T14:26:20Z</time>
      </trkpt>
      <trkpt lat="45.1867" lon="4.79979">
        <ele>138.26300048828</ele>
        <time>2009-10-10T14:26:28Z</time>
      </trkpt>
      <trkpt lat="45.18668" lon="4.79978">
        <ele>138.40199279785</ele>
        <time>2009-10-10T14:26:31Z</time>
      </trkpt>
      <trkpt lat="45.18664" lon="4.79991">
        <ele>138.13400268555</ele>
        <time>2009-10-10T14:26:35Z</time>
      </trkpt>
      <trkpt lat="45.18667" lon="4.80015">
        <ele>137.68299865723</ele>
        <time>2009-10-10T14:26:39Z</time>
      </trkpt>
      <trkpt lat="45.18671" lon="4.80076">
        <ele>137.01100158691</ele>
        <time>2009-10-10T14:26:48Z</time>
      </trkpt>
      <trkpt lat="45.18673" lon="4.801">
        <ele>137.07699584961</ele>
        <time>2009-10-10T14:26:51Z</time>
      </trkpt>
      <trkpt lat="45.18663" lon="4.80132">
        <ele>136.45199584961</ele>
        <time>2009-10-10T14:26:55Z</time>
      </trkpt>
      <trkpt lat="45.18631" lon="4.80202">
        <ele>138.26800537109</ele>
        <time>2009-10-10T14:27:04Z</time>
      </trkpt>
      <trkpt lat="45.18628" lon="4.80207">
        <ele>138.55700683594</ele>
        <time>2009-10-10T14:27:05Z</time>
      </trkpt>
      <trkpt lat="45.18611" lon="4.8024">
        <ele>137.61999511719</ele>
        <time>2009-10-10T14:27:11Z</time>
      </trkpt>
      <trkpt lat="45.18589" lon="4.80292">
        <ele>137.12699890137</ele>
        <time>2009-10-10T14:27:18Z</time>
      </trkpt>
      <trkpt lat="45.18561" lon="4.80359">
        <ele>136.04299926758</ele>
        <time>2009-10-10T14:27:26Z</time>
      </trkpt>
      <trkpt lat="45.18554" lon="4.80375">
        <ele>136.22900390625</ele>
        <time>2009-10-10T14:27:28Z</time>
      </trkpt>
      <trkpt lat="45.18538" lon="4.80407">
        <ele>134.68699645996</ele>
        <time>2009-10-10T14:27:32Z</time>
      </trkpt>
      <trkpt lat="45.18515" lon="4.8046">
        <ele>134.66299438477</ele>
        <time>2009-10-10T14:27:39Z</time>
      </trkpt>
      <trkpt lat="45.18491" lon="4.80518">
        <ele>134.43200683594</ele>
        <time>2009-10-10T14:27:47Z</time>
      </trkpt>
      <trkpt lat="45.18465" lon="4.80585">
        <ele>134.63499450684</ele>
        <time>2009-10-10T14:27:56Z</time>
      </trkpt>
      <trkpt lat="45.1845" lon="4.80622">
        <ele>134.94000244141</ele>
        <time>2009-10-10T14:28:02Z</time>
      </trkpt>
      <trkpt lat="45.18432" lon="4.80665">
        <ele>135.0059967041</ele>
        <time>2009-10-10T14:28:09Z</time>
      </trkpt>
      <trkpt lat="45.18423" lon="4.80685">
        <ele>135.17999267578</ele>
        <time>2009-10-10T14:28:12Z</time>
      </trkpt>
      <trkpt lat="45.18406" lon="4.80731">
        <ele>135.39399719238</ele>
        <time>2009-10-10T14:28:19Z</time>
      </trkpt>
      <trkpt lat="45.18394" lon="4.80749">
        <ele>135.58700561523</ele>
        <time>2009-10-10T14:28:22Z</time>
      </trkpt>
      <trkpt lat="45.18382" lon="4.8078">
        <ele>134.98500061035</ele>
        <time>2009-10-10T14:28:26Z</time>
      </trkpt>
      <trkpt lat="45.18381" lon="4.80789">
        <ele>135.01499938965</ele>
        <time>2009-10-10T14:28:27Z</time>
      </trkpt>
      <trkpt lat="45.18367" lon="4.80864">
        <ele>136.47999572754</ele>
        <time>2009-10-10T14:28:36Z</time>
      </trkpt>
      <trkpt lat="45.18362" lon="4.80915">
        <ele>137.58599853516</ele>
        <time>2009-10-10T14:28:42Z</time>
      </trkpt>
      <trkpt lat="45.18361" lon="4.80953">
        <ele>138.42599487305</ele>
        <time>2009-10-10T14:28:47Z</time>
      </trkpt>
      <trkpt lat="45.18366" lon="4.81004">
        <ele>140.1549987793</ele>
        <time>2009-10-10T14:28:55Z</time>
      </trkpt>
      <trkpt lat="45.18372" lon="4.81035">
        <ele>140.93699645996</ele>
        <time>2009-10-10T14:29:00Z</time>
      </trkpt>
      <trkpt lat="45.18376" lon="4.81058">
        <ele>141.18299865723</ele>
        <time>2009-10-10T14:29:04Z</time>
      </trkpt>
      <trkpt lat="45.1839" lon="4.81128">
        <ele>142.74000549316</ele>
        <time>2009-10-10T14:29:15Z</time>
      </trkpt>
      <trkpt lat="45.18403" lon="4.81194">
        <ele>142.72300720215</ele>
        <time>2009-10-10T14:29:25Z</time>
      </trkpt>
      <trkpt lat="45.18417" lon="4.81268">
        <ele>142.71200561523</ele>
        <time>2009-10-10T14:29:35Z</time>
      </trkpt>
      <trkpt lat="45.18428" lon="4.81326">
        <ele>142.69999694824</ele>
        <time>2009-10-10T14:29:42Z</time>
      </trkpt>
      <trkpt lat="45.18432" lon="4.81348">
        <ele>141.4880065918</ele>
        <time>2009-10-10T14:29:45Z</time>
      </trkpt>
      <trkpt lat="45.18428" lon="4.81371">
        <ele>141.00500488281</ele>
        <time>2009-10-10T14:29:49Z</time>
      </trkpt>
      <trkpt lat="45.18423" lon="4.81396">
        <ele>140.97999572754</ele>
        <time>2009-10-10T14:29:53Z</time>
      </trkpt>
      <trkpt lat="45.18416" lon="4.81409">
        <ele>140.9940032959</ele>
        <time>2009-10-10T14:29:56Z</time>
      </trkpt>
      <trkpt lat="45.18411" lon="4.8141">
        <ele>141.16600036621</ele>
        <time>2009-10-10T14:29:57Z</time>
      </trkpt>
      <trkpt lat="45.18385" lon="4.81413">
        <ele>140.70199584961</ele>
        <time>2009-10-10T14:30:03Z</time>
      </trkpt>
      <trkpt lat="45.18357" lon="4.81421">
        <ele>140.68899536133</ele>
        <time>2009-10-10T14:30:10Z</time>
      </trkpt>
      <trkpt lat="45.18322" lon="4.8143">
        <ele>140.68699645996</ele>
        <time>2009-10-10T14:30:17Z</time>
      </trkpt>
      <trkpt lat="45.18286" lon="4.81439">
        <ele>141.42700195312</ele>
        <time>2009-10-10T14:30:24Z</time>
      </trkpt>
      <trkpt lat="45.18248" lon="4.81446">
        <ele>141.44799804688</ele>
        <time>2009-10-10T14:30:30Z</time>
      </trkpt>
      <trkpt lat="45.18216" lon="4.81454">
        <ele>141.47900390625</ele>
        <time>2009-10-10T14:30:36Z</time>
      </trkpt>
      <trkpt lat="45.1818" lon="4.81461">
        <ele>141.50900268555</ele>
        <time>2009-10-10T14:30:42Z</time>
      </trkpt>
      <trkpt lat="45.18138" lon="4.81471">
        <ele>140.08200073242</ele>
        <time>2009-10-10T14:30:48Z</time>
      </trkpt>
      <trkpt lat="45.18099" lon="4.81482">
        <ele>140.17999267578</ele>
        <time>2009-10-10T14:30:54Z</time>
      </trkpt>
      <trkpt lat="45.18076" lon="4.81486">
        <ele>140.20799255371</ele>
        <time>2009-10-10T14:30:58Z</time>
      </trkpt>
      <trkpt lat="45.1805" lon="4.81476">
        <ele>140.22999572754</ele>
        <time>2009-10-10T14:31:02Z</time>
      </trkpt>
      <trkpt lat="45.18025" lon="4.81453">
        <ele>140.00199890137</ele>
        <time>2009-10-10T14:31:07Z</time>
      </trkpt>
      <trkpt lat="45.18015" lon="4.81444">
        <ele>140.01800537109</ele>
        <time>2009-10-10T14:31:09Z</time>
      </trkpt>
      <trkpt lat="45.17984" lon="4.81422">
        <ele>140.08000183106</ele>
        <time>2009-10-10T14:31:15Z</time>
      </trkpt>
      <trkpt lat="45.1795" lon="4.81408">
        <ele>140.14100646973</ele>
        <time>2009-10-10T14:31:21Z</time>
      </trkpt>
      <trkpt lat="45.17914" lon="4.81394">
        <ele>137.72300720215</ele>
        <time>2009-10-10T14:31:27Z</time>
      </trkpt>
      <trkpt lat="45.17908" lon="4.81391">
        <ele>137.69099426269</ele>
        <time>2009-10-10T14:31:28Z</time>
      </trkpt>
      <trkpt lat="45.17861" lon="4.81384">
        <ele>137.73100280762</ele>
        <time>2009-10-10T14:31:35Z</time>
      </trkpt>
      <trkpt lat="45.17843" lon="4.81382">
        <ele>137.75399780273</ele>
        <time>2009-10-10T14:31:38Z</time>
      </trkpt>
      <trkpt lat="45.17816" lon="4.81389">
        <ele>136.18699645996</ele>
        <time>2009-10-10T14:31:43Z</time>
      </trkpt>
      <trkpt lat="45.17805" lon="4.81393">
        <ele>135.52400207519</ele>
        <time>2009-10-10T14:31:45Z</time>
      </trkpt>
      <trkpt lat="45.17783" lon="4.81402">
        <ele>135.99499511719</ele>
        <time>2009-10-10T14:31:50Z</time>
      </trkpt>
      <trkpt lat="45.17775" lon="4.81405">
        <ele>135.82600402832</ele>
        <time>2009-10-10T14:31:52Z</time>
      </trkpt>
      <trkpt lat="45.1776" lon="4.81419">
        <ele>136.05000305176</ele>
        <time>2009-10-10T14:31:57Z</time>
      </trkpt>
      <trkpt lat="45.17742" lon="4.81434">
        <ele>136.11099243164</ele>
        <time>2009-10-10T14:32:04Z</time>
      </trkpt>
      <trkpt lat="45.1774" lon="4.81436">
        <ele>136.08000183106</ele>
        <time>2009-10-10T14:32:05Z</time>
      </trkpt>
      <trkpt lat="45.17722" lon="4.81455">
        <ele>136.14700317383</ele>
        <time>2009-10-10T14:32:11Z</time>
      </trkpt>
      <trkpt lat="45.17718" lon="4.81459">
        <ele>136.19700622559</ele>
        <time>2009-10-10T14:32:12Z</time>
      </trkpt>
      <trkpt lat="45.17686" lon="4.81489">
        <ele>135.84899902344</ele>
        <time>2009-10-10T14:32:20Z</time>
      </trkpt>
      <trkpt lat="45.17664" lon="4.81509">
        <ele>135.62899780273</ele>
        <time>2009-10-10T14:32:25Z</time>
      </trkpt>
      <trkpt lat="45.17641" lon="4.81538">
        <ele>135.43899536133</ele>
        <time>2009-10-10T14:32:31Z</time>
      </trkpt>
      <trkpt lat="45.17641" lon="4.81555">
        <ele>135.27900695801</ele>
        <time>2009-10-10T14:32:34Z</time>
      </trkpt>
      <trkpt lat="45.17638" lon="4.81581">
        <ele>135.15600585938</ele>
        <time>2009-10-10T14:32:39Z</time>
      </trkpt>
      <trkpt lat="45.17622" lon="4.81587">
        <ele>134.90699768066</ele>
        <time>2009-10-10T14:32:43Z</time>
      </trkpt>
      <trkpt lat="45.17599" lon="4.81604">
        <ele>135.20500183106</ele>
        <time>2009-10-10T14:32:49Z</time>
      </trkpt>
      <trkpt lat="45.17583" lon="4.81628">
        <ele>135.11500549316</ele>
        <time>2009-10-10T14:32:54Z</time>
      </trkpt>
      <trkpt lat="45.17561" lon="4.81672">
        <ele>135.06700134277</ele>
        <time>2009-10-10T14:33:02Z</time>
      </trkpt>
      <trkpt lat="45.17557" lon="4.81677">
        <ele>134.90699768066</ele>
        <time>2009-10-10T14:33:03Z</time>
      </trkpt>
      <trkpt lat="45.17545" lon="4.81699">
        <ele>135.01100158691</ele>
        <time>2009-10-10T14:33:07Z</time>
      </trkpt>
      <trkpt lat="45.17534" lon="4.81715">
        <ele>134.72500610352</ele>
        <time>2009-10-10T14:33:10Z</time>
      </trkpt>
      <trkpt lat="45.17504" lon="4.81759">
        <ele>134.48100280762</ele>
        <time>2009-10-10T14:33:18Z</time>
      </trkpt>
      <trkpt lat="45.17483" lon="4.81781">
        <ele>134.57000732422</ele>
        <time>2009-10-10T14:33:23Z</time>
      </trkpt>
      <trkpt lat="45.17453" lon="4.81801">
        <ele>134.30299377441</ele>
        <time>2009-10-10T14:33:29Z</time>
      </trkpt>
      <trkpt lat="45.1741" lon="4.81821">
        <ele>134.13999938965</ele>
        <time>2009-10-10T14:33:37Z</time>
      </trkpt>
      <trkpt lat="45.1737" lon="4.8184">
        <ele>133.97900390625</ele>
        <time>2009-10-10T14:33:44Z</time>
      </trkpt>
      <trkpt lat="45.17333" lon="4.8186">
        <ele>133.38400268555</ele>
        <time>2009-10-10T14:33:51Z</time>
      </trkpt>
      <trkpt lat="45.17294" lon="4.81882">
        <ele>133.62699890137</ele>
        <time>2009-10-10T14:33:59Z</time>
      </trkpt>
      <trkpt lat="45.17255" lon="4.81904">
        <ele>133.42700195312</ele>
        <time>2009-10-10T14:34:06Z</time>
      </trkpt>
      <trkpt lat="45.17226" lon="4.81919">
        <ele>133.33500671387</ele>
        <time>2009-10-10T14:34:11Z</time>
      </trkpt>
      <trkpt lat="45.17215" lon="4.81925">
        <ele>133.11700439453</ele>
        <time>2009-10-10T14:34:13Z</time>
      </trkpt>
      <trkpt lat="45.17203" lon="4.81931">
        <ele>133.11799621582</ele>
        <time>2009-10-10T14:34:15Z</time>
      </trkpt>
      <trkpt lat="45.17176" lon="4.81945">
        <ele>132.93200683594</ele>
        <time>2009-10-10T14:34:20Z</time>
      </trkpt>
      <trkpt lat="45.17131" lon="4.81971">
        <ele>133.11199951172</ele>
        <time>2009-10-10T14:34:28Z</time>
      </trkpt>
      <trkpt lat="45.17107" lon="4.81985">
        <ele>133.31500244141</ele>
        <time>2009-10-10T14:34:32Z</time>
      </trkpt>
      <trkpt lat="45.1709" lon="4.81993">
        <ele>133.27200317383</ele>
        <time>2009-10-10T14:34:35Z</time>
      </trkpt>
      <trkpt lat="45.17075" lon="4.82001">
        <ele>133.36799621582</ele>
        <time>2009-10-10T14:34:38Z</time>
      </trkpt>
      <trkpt lat="45.17045" lon="4.82017">
        <ele>133.32400512695</ele>
        <time>2009-10-10T14:34:44Z</time>
      </trkpt>
      <trkpt lat="45.17032" lon="4.8203">
        <ele>133.96099853516</ele>
        <time>2009-10-10T14:34:47Z</time>
      </trkpt>
      <trkpt lat="45.17009" lon="4.82051">
        <ele>134.37399291992</ele>
        <time>2009-10-10T14:34:52Z</time>
      </trkpt>
      <trkpt lat="45.17002" lon="4.82063">
        <ele>134.11999511719</ele>
        <time>2009-10-10T14:34:54Z</time>
      </trkpt>
      <trkpt lat="45.16984" lon="4.82077">
        <ele>134.10200500488</ele>
        <time>2009-10-10T14:34:58Z</time>
      </trkpt>
      <trkpt lat="45.16968" lon="4.82073">
        <ele>134.26100158691</ele>
        <time>2009-10-10T14:35:01Z</time>
      </trkpt>
      <trkpt lat="45.16933" lon="4.82067">
        <ele>134.36799621582</ele>
        <time>2009-10-10T14:35:07Z</time>
      </trkpt>
      <trkpt lat="45.16891" lon="4.82065">
        <ele>134.17799377441</ele>
        <time>2009-10-10T14:35:14Z</time>
      </trkpt>
      <trkpt lat="45.16846" lon="4.8207">
        <ele>134.00700378418</ele>
        <time>2009-10-10T14:35:22Z</time>
      </trkpt>
      <trkpt lat="45.16819" lon="4.82077">
        <ele>133.82400512695</ele>
        <time>2009-10-10T14:35:27Z</time>
      </trkpt>
      <trkpt lat="45.1679" lon="4.82077">
        <ele>133.57899475098</ele>
        <time>2009-10-10T14:35:32Z</time>
      </trkpt>
      <trkpt lat="45.16787" lon="4.82083">
        <ele>133.49000549316</ele>
        <time>2009-10-10T14:35:33Z</time>
      </trkpt>
      <trkpt lat="45.16762" lon="4.82108">
        <ele>133.89199829102</ele>
        <time>2009-10-10T14:35:39Z</time>
      </trkpt>
      <trkpt lat="45.1672" lon="4.82133">
        <ele>134.20300292969</ele>
        <time>2009-10-10T14:35:47Z</time>
      </trkpt>
      <trkpt lat="45.16674" lon="4.82161">
        <ele>134.65100097656</ele>
        <time>2009-10-10T14:35:55Z</time>
      </trkpt>
      <trkpt lat="45.16637" lon="4.82185">
        <ele>135.27200317383</ele>
        <time>2009-10-10T14:36:02Z</time>
      </trkpt>
      <trkpt lat="45.16599" lon="4.82217">
        <ele>135.53999328613</ele>
        <time>2009-10-10T14:36:10Z</time>
      </trkpt>
      <trkpt lat="45.16594" lon="4.82221">
        <ele>135.81599426269</ele>
        <time>2009-10-10T14:36:11Z</time>
      </trkpt>
      <trkpt lat="45.16577" lon="4.82224">
        <ele>135.68200683594</ele>
        <time>2009-10-10T14:36:15Z</time>
      </trkpt>
      <trkpt lat="45.1657" lon="4.82216">
        <ele>134.7559967041</ele>
        <time>2009-10-10T14:36:17Z</time>
      </trkpt>
      <trkpt lat="45.1656" lon="4.82194">
        <ele>132.45899963379</ele>
        <time>2009-10-10T14:36:20Z</time>
      </trkpt>
      <trkpt lat="45.16542" lon="4.82168">
        <ele>131.57699584961</ele>
        <time>2009-10-10T14:36:24Z</time>
      </trkpt>
      <trkpt lat="45.16537" lon="4.82163">
        <ele>131.51899719238</ele>
        <time>2009-10-10T14:36:26Z</time>
      </trkpt>
      <trkpt lat="45.1653" lon="4.82158">
        <ele>131.39500427246</ele>
        <time>2009-10-10T14:36:30Z</time>
      </trkpt>
      <trkpt lat="45.16523" lon="4.82163">
        <ele>130.83799743652</ele>
        <time>2009-10-10T14:36:35Z</time>
      </trkpt>
      <trkpt lat="45.16519" lon="4.82182">
        <ele>131.00500488281</ele>
        <time>2009-10-10T14:36:40Z</time>
      </trkpt>
      <trkpt lat="45.16515" lon="4.8221">
        <ele>130.87899780273</ele>
        <time>2009-10-10T14:36:46Z</time>
      </trkpt>
      <trkpt lat="45.16509" lon="4.82221">
        <ele>130.42500305176</ele>
        <time>2009-10-10T14:36:49Z</time>
      </trkpt>
      <trkpt lat="45.16493" lon="4.82222">
        <ele>129.76899719238</ele>
        <time>2009-10-10T14:36:53Z</time>
      </trkpt>
      <trkpt lat="45.16454" lon="4.82207">
        <ele>130.31399536133</ele>
        <time>2009-10-10T14:37:01Z</time>
      </trkpt>
      <trkpt lat="45.16449" lon="4.82199">
        <ele>130.50399780273</ele>
        <time>2009-10-10T14:37:03Z</time>
      </trkpt>
      <trkpt lat="45.16452" lon="4.82175">
        <ele>131.25700378418</ele>
        <time>2009-10-10T14:37:07Z</time>
      </trkpt>
      <trkpt lat="45.16466" lon="4.82158">
        <ele>131.78900146484</ele>
        <time>2009-10-10T14:37:11Z</time>
      </trkpt>
      <trkpt lat="45.16479" lon="4.82164">
        <ele>132.60899353027</ele>
        <time>2009-10-10T14:37:14Z</time>
      </trkpt>
      <trkpt lat="45.16484" lon="4.82179">
        <ele>133.70500183106</ele>
        <time>2009-10-10T14:37:17Z</time>
      </trkpt>
      <trkpt lat="45.16485" lon="4.82187">
        <ele>133.82499694824</ele>
        <time>2009-10-10T14:37:19Z</time>
      </trkpt>
      <trkpt lat="45.16486" lon="4.82205">
        <ele>134.36599731445</ele>
        <time>2009-10-10T14:37:23Z</time>
      </trkpt>
      <trkpt lat="45.16466" lon="4.82253">
        <ele>134.78900146484</ele>
        <time>2009-10-10T14:37:31Z</time>
      </trkpt>
      <trkpt lat="45.16444" lon="4.82309">
        <ele>135.86399841309</ele>
        <time>2009-10-10T14:37:39Z</time>
      </trkpt>
      <trkpt lat="45.16421" lon="4.82365">
        <ele>136.34399414062</ele>
        <time>2009-10-10T14:37:48Z</time>
      </trkpt>
      <trkpt lat="45.16399" lon="4.82419">
        <ele>137.42599487305</ele>
        <time>2009-10-10T14:37:57Z</time>
      </trkpt>
      <trkpt lat="45.16371" lon="4.82493">
        <ele>138.68800354004</ele>
        <time>2009-10-10T14:38:09Z</time>
      </trkpt>
      <trkpt lat="45.16349" lon="4.82549">
        <ele>139.01800537109</ele>
        <time>2009-10-10T14:38:18Z</time>
      </trkpt>
      <trkpt lat="45.16327" lon="4.82605">
        <ele>139.80700683594</ele>
        <time>2009-10-10T14:38:27Z</time>
      </trkpt>
      <trkpt lat="45.1631" lon="4.82648">
        <ele>139.60000610352</ele>
        <time>2009-10-10T14:38:34Z</time>
      </trkpt>
      <trkpt lat="45.16292" lon="4.82692">
        <ele>139.14999389648</ele>
        <time>2009-10-10T14:38:40Z</time>
      </trkpt>
      <trkpt lat="45.16275" lon="4.82737">
        <ele>139.74099731445</ele>
        <time>2009-10-10T14:38:46Z</time>
      </trkpt>
      <trkpt lat="45.16256" lon="4.82783">
        <ele>139.85899353027</ele>
        <time>2009-10-10T14:38:53Z</time>
      </trkpt>
      <trkpt lat="45.16239" lon="4.82827">
        <ele>140.44500732422</ele>
        <time>2009-10-10T14:38:59Z</time>
      </trkpt>
      <trkpt lat="45.16217" lon="4.82873">
        <ele>140.25999450684</ele>
        <time>2009-10-10T14:39:06Z</time>
      </trkpt>
      <trkpt lat="45.16192" lon="4.82917">
        <ele>140.32800292969</ele>
        <time>2009-10-10T14:39:13Z</time>
      </trkpt>
      <trkpt lat="45.16177" lon="4.8294">
        <ele>140.47399902344</ele>
        <time>2009-10-10T14:39:17Z</time>
      </trkpt>
      <trkpt lat="45.16144" lon="4.82982">
        <ele>140.83700561523</ele>
        <time>2009-10-10T14:39:25Z</time>
      </trkpt>
      <trkpt lat="45.161" lon="4.83026">
        <ele>140.42999267578</ele>
        <time>2009-10-10T14:39:34Z</time>
      </trkpt>
      <trkpt lat="45.16057" lon="4.8306">
        <ele>139.91400146484</ele>
        <time>2009-10-10T14:39:42Z</time>
      </trkpt>
      <trkpt lat="45.16012" lon="4.83091">
        <ele>139.2799987793</ele>
        <time>2009-10-10T14:39:50Z</time>
      </trkpt>
      <trkpt lat="45.15995" lon="4.83103">
        <ele>139.05999755859</ele>
        <time>2009-10-10T14:39:53Z</time>
      </trkpt>
      <trkpt lat="45.1596" lon="4.83125">
        <ele>138.87800598144</ele>
        <time>2009-10-10T14:39:59Z</time>
      </trkpt>
      <trkpt lat="45.15921" lon="4.83154">
        <ele>138.62899780273</ele>
        <time>2009-10-10T14:40:06Z</time>
      </trkpt>
      <trkpt lat="45.15892" lon="4.83173">
        <ele>138.38400268555</ele>
        <time>2009-10-10T14:40:11Z</time>
      </trkpt>
      <trkpt lat="45.15855" lon="4.83191">
        <ele>137.14500427246</ele>
        <time>2009-10-10T14:40:17Z</time>
      </trkpt>
      <trkpt lat="45.15842" lon="4.83212">
        <ele>136.67199707031</ele>
        <time>2009-10-10T14:40:20Z</time>
      </trkpt>
      <trkpt lat="45.15849" lon="4.83229">
        <ele>136.67399597168</ele>
        <time>2009-10-10T14:40:22Z</time>
      </trkpt>
      <trkpt lat="45.15854" lon="4.83244">
        <ele>136.46200561523</ele>
        <time>2009-10-10T14:40:24Z</time>
      </trkpt>
      <trkpt lat="45.15864" lon="4.83297">
        <ele>136.41900634766</ele>
        <time>2009-10-10T14:40:30Z</time>
      </trkpt>
      <trkpt lat="45.15876" lon="4.83342">
        <ele>137.9940032959</ele>
        <time>2009-10-10T14:40:36Z</time>
      </trkpt>
      <trkpt lat="45.15888" lon="4.83378">
        <ele>138.01600646973</ele>
        <time>2009-10-10T14:40:41Z</time>
      </trkpt>
      <trkpt lat="45.15894" lon="4.834">
        <ele>138.17700195312</ele>
        <time>2009-10-10T14:40:44Z</time>
      </trkpt>
      <trkpt lat="45.15895" lon="4.83432">
        <ele>137.22099304199</ele>
        <time>2009-10-10T14:40:48Z</time>
      </trkpt>
      <trkpt lat="45.15893" lon="4.83474">
        <ele>136.10400390625</ele>
        <time>2009-10-10T14:40:53Z</time>
      </trkpt>
      <trkpt lat="45.15896" lon="4.83507">
        <ele>135.85400390625</ele>
        <time>2009-10-10T14:40:57Z</time>
      </trkpt>
      <trkpt lat="45.15895" lon="4.83554">
        <ele>136.74299621582</ele>
        <time>2009-10-10T14:41:04Z</time>
      </trkpt>
      <trkpt lat="45.159" lon="4.83577">
        <ele>136.82400512695</ele>
        <time>2009-10-10T14:41:08Z</time>
      </trkpt>
      <trkpt lat="45.15912" lon="4.8362">
        <ele>136.69999694824</ele>
        <time>2009-10-10T14:41:15Z</time>
      </trkpt>
      <trkpt lat="45.15916" lon="4.83641">
        <ele>137.22200012207</ele>
        <time>2009-10-10T14:41:18Z</time>
      </trkpt>
      <trkpt lat="45.15929" lon="4.83666">
        <ele>138.19700622559</ele>
        <time>2009-10-10T14:41:23Z</time>
      </trkpt>
      <trkpt lat="45.15939" lon="4.83664">
        <ele>138.50900268555</ele>
        <time>2009-10-10T14:41:25Z</time>
      </trkpt>
      <trkpt lat="45.15949" lon="4.83662">
        <ele>138.40299987793</ele>
        <time>2009-10-10T14:41:27Z</time>
      </trkpt>
      <trkpt lat="45.15972" lon="4.83658">
        <ele>138.81700134277</ele>
        <time>2009-10-10T14:41:31Z</time>
      </trkpt>
      <trkpt lat="45.15996" lon="4.83684">
        <ele>139.14599609375</ele>
        <time>2009-10-10T14:41:37Z</time>
      </trkpt>
      <trkpt lat="45.16" lon="4.83716">
        <ele>139.06599426269</ele>
        <time>2009-10-10T14:41:41Z</time>
      </trkpt>
      <trkpt lat="45.16002" lon="4.83778">
        <ele>139.64799499512</ele>
        <time>2009-10-10T14:41:49Z</time>
      </trkpt>
      <trkpt lat="45.16004" lon="4.83815">
        <ele>140.49499511719</ele>
        <time>2009-10-10T14:41:54Z</time>
      </trkpt>
      <trkpt lat="45.16006" lon="4.83828">
        <ele>140.74000549316</ele>
        <time>2009-10-10T14:41:56Z</time>
      </trkpt>
      <trkpt lat="45.16007" lon="4.83842">
        <ele>140.56700134277</ele>
        <time>2009-10-10T14:41:58Z</time>
      </trkpt>
      <trkpt lat="45.16001" lon="4.83869">
        <ele>141.07699584961</ele>
        <time>2009-10-10T14:42:02Z</time>
      </trkpt>
      <trkpt lat="45.15993" lon="4.83878">
        <ele>140.86999511719</ele>
        <time>2009-10-10T14:42:04Z</time>
      </trkpt>
      <trkpt lat="45.15976" lon="4.83897">
        <ele>141.26100158691</ele>
        <time>2009-10-10T14:42:08Z</time>
      </trkpt>
      <trkpt lat="45.15958" lon="4.83937">
        <ele>141.83399963379</ele>
        <time>2009-10-10T14:42:14Z</time>
      </trkpt>
      <trkpt lat="45.1596" lon="4.8396">
        <ele>141.97200012207</ele>
        <time>2009-10-10T14:42:17Z</time>
      </trkpt>
      <trkpt lat="45.15963" lon="4.83974">
        <ele>142.40100097656</ele>
        <time>2009-10-10T14:42:19Z</time>
      </trkpt>
      <trkpt lat="45.15963" lon="4.84001">
        <ele>143.2380065918</ele>
        <time>2009-10-10T14:42:23Z</time>
      </trkpt>
      <trkpt lat="45.15958" lon="4.84047">
        <ele>144.91700744629</ele>
        <time>2009-10-10T14:42:30Z</time>
      </trkpt>
      <trkpt lat="45.1595" lon="4.84093">
        <ele>146.57899475098</ele>
        <time>2009-10-10T14:42:37Z</time>
      </trkpt>
      <trkpt lat="45.15947" lon="4.84105">
        <ele>147.2200012207</ele>
        <time>2009-10-10T14:42:39Z</time>
      </trkpt>
      <trkpt lat="45.15936" lon="4.84143">
        <ele>148.79200744629</ele>
        <time>2009-10-10T14:42:46Z</time>
      </trkpt>
      <trkpt lat="45.15913" lon="4.84184">
        <ele>149.24699401856</ele>
        <time>2009-10-10T14:42:54Z</time>
      </trkpt>
      <trkpt lat="45.15878" lon="4.8425">
        <ele>149.11799621582</ele>
        <time>2009-10-10T14:43:06Z</time>
      </trkpt>
      <trkpt lat="45.15874" lon="4.84256">
        <ele>149.11700439453</ele>
        <time>2009-10-10T14:43:07Z</time>
      </trkpt>
      <trkpt lat="45.15859" lon="4.84304">
        <ele>149.1190032959</ele>
        <time>2009-10-10T14:43:15Z</time>
      </trkpt>
      <trkpt lat="45.15854" lon="4.84315">
        <ele>149.11999511719</ele>
        <time>2009-10-10T14:43:17Z</time>
      </trkpt>
      <trkpt lat="45.15839" lon="4.84338">
        <ele>152.23500061035</ele>
        <time>2009-10-10T14:43:22Z</time>
      </trkpt>
      <trkpt lat="45.15826" lon="4.84366">
        <ele>152.65899658203</ele>
        <time>2009-10-10T14:43:28Z</time>
      </trkpt>
      <trkpt lat="45.15823" lon="4.84401">
        <ele>152.66700744629</ele>
        <time>2009-10-10T14:43:35Z</time>
      </trkpt>
      <trkpt lat="45.15817" lon="4.84434">
        <ele>157.66499328613</ele>
        <time>2009-10-10T14:43:42Z</time>
      </trkpt>
      <trkpt lat="45.15816" lon="4.8444">
        <ele>157.83999633789</ele>
        <time>2009-10-10T14:43:43Z</time>
      </trkpt>
      <trkpt lat="45.15807" lon="4.8447">
        <ele>160.19099426269</ele>
        <time>2009-10-10T14:43:49Z</time>
      </trkpt>
      <trkpt lat="45.15794" lon="4.84482">
        <ele>160.68400573731</ele>
        <time>2009-10-10T14:43:53Z</time>
      </trkpt>
      <trkpt lat="45.15781" lon="4.84493">
        <ele>162.02099609375</ele>
        <time>2009-10-10T14:43:57Z</time>
      </trkpt>
      <trkpt lat="45.15763" lon="4.84507">
        <ele>163.33999633789</ele>
        <time>2009-10-10T14:44:02Z</time>
      </trkpt>
      <trkpt lat="45.15747" lon="4.8453">
        <ele>165.07099914551</ele>
        <time>2009-10-10T14:44:08Z</time>
      </trkpt>
      <trkpt lat="45.15738" lon="4.84546">
        <ele>166.19299316406</ele>
        <time>2009-10-10T14:44:12Z</time>
      </trkpt>
      <trkpt lat="45.15728" lon="4.84579">
        <ele>168.69900512695</ele>
        <time>2009-10-10T14:44:19Z</time>
      </trkpt>
      <trkpt lat="45.1572" lon="4.84597">
        <ele>170.03300476074</ele>
        <time>2009-10-10T14:44:23Z</time>
      </trkpt>
      <trkpt lat="45.15701" lon="4.84606">
        <ele>171.36799621582</ele>
        <time>2009-10-10T14:44:28Z</time>
      </trkpt>
      <trkpt lat="45.15659" lon="4.84622">
        <ele>172.86799621582</ele>
        <time>2009-10-10T14:44:38Z</time>
      </trkpt>
      <trkpt lat="45.1565" lon="4.84628">
        <ele>173.06100463867</ele>
        <time>2009-10-10T14:44:40Z</time>
      </trkpt>
      <trkpt lat="45.15636" lon="4.8465">
        <ele>173.74000549316</ele>
        <time>2009-10-10T14:44:44Z</time>
      </trkpt>
      <trkpt lat="45.15633" lon="4.84681">
        <ele>173.61500549316</ele>
        <time>2009-10-10T14:44:48Z</time>
      </trkpt>
      <trkpt lat="45.15637" lon="4.84716">
        <ele>174.36799621582</ele>
        <time>2009-10-10T14:44:52Z</time>
      </trkpt>
      <trkpt lat="45.15652" lon="4.84748">
        <ele>174.71299743652</ele>
        <time>2009-10-10T14:44:56Z</time>
      </trkpt>
      <trkpt lat="45.15673" lon="4.84785">
        <ele>175.64399719238</ele>
        <time>2009-10-10T14:45:01Z</time>
      </trkpt>
      <trkpt lat="45.15671" lon="4.84822">
        <ele>176.34700012207</ele>
        <time>2009-10-10T14:45:05Z</time>
      </trkpt>
      <trkpt lat="45.15664" lon="4.84839">
        <ele>176.95599365234</ele>
        <time>2009-10-10T14:45:07Z</time>
      </trkpt>
      <trkpt lat="45.15644" lon="4.84901">
        <ele>178.50900268555</ele>
        <time>2009-10-10T14:45:14Z</time>
      </trkpt>
      <trkpt lat="45.15628" lon="4.84967">
        <ele>179.55900573731</ele>
        <time>2009-10-10T14:45:21Z</time>
      </trkpt>
      <trkpt lat="45.15614" lon="4.85027">
        <ele>180.46600341797</ele>
        <time>2009-10-10T14:45:27Z</time>
      </trkpt>
      <trkpt lat="45.15611" lon="4.85037">
        <ele>180.44099426269</ele>
        <time>2009-10-10T14:45:28Z</time>
      </trkpt>
      <trkpt lat="45.15591" lon="4.85072">
        <ele>180.7559967041</ele>
        <time>2009-10-10T14:45:32Z</time>
      </trkpt>
      <trkpt lat="45.15584" lon="4.85078">
        <ele>180.52200317383</ele>
        <time>2009-10-10T14:45:33Z</time>
      </trkpt>
      <trkpt lat="45.15533" lon="4.85116">
        <ele>180.85499572754</ele>
        <time>2009-10-10T14:45:40Z</time>
      </trkpt>
      <trkpt lat="45.15504" lon="4.8514">
        <ele>181.3690032959</ele>
        <time>2009-10-10T14:45:44Z</time>
      </trkpt>
      <trkpt lat="45.1547" lon="4.8519">
        <ele>181.45199584961</ele>
        <time>2009-10-10T14:45:50Z</time>
      </trkpt>
      <trkpt lat="45.15435" lon="4.85219">
        <ele>182.66299438477</ele>
        <time>2009-10-10T14:45:55Z</time>
      </trkpt>
      <trkpt lat="45.15427" lon="4.85223">
        <ele>182.69799804688</ele>
        <time>2009-10-10T14:45:56Z</time>
      </trkpt>
      <trkpt lat="45.15361" lon="4.85249">
        <ele>183.77400207519</ele>
        <time>2009-10-10T14:46:04Z</time>
      </trkpt>
      <trkpt lat="45.15337" lon="4.85257">
        <ele>184.22700500488</ele>
        <time>2009-10-10T14:46:07Z</time>
      </trkpt>
      <trkpt lat="45.15312" lon="4.85264">
        <ele>184.54899597168</ele>
        <time>2009-10-10T14:46:10Z</time>
      </trkpt>
      <trkpt lat="45.15281" lon="4.85287">
        <ele>184.55999755859</ele>
        <time>2009-10-10T14:46:14Z</time>
      </trkpt>
      <trkpt lat="45.1524" lon="4.85312">
        <ele>184.78399658203</ele>
        <time>2009-10-10T14:46:19Z</time>
      </trkpt>
      <trkpt lat="45.15208" lon="4.85329">
        <ele>185.53799438477</ele>
        <time>2009-10-10T14:46:23Z</time>
      </trkpt>
      <trkpt lat="45.15191" lon="4.85356">
        <ele>185.49699401856</ele>
        <time>2009-10-10T14:46:26Z</time>
      </trkpt>
      <trkpt lat="45.15186" lon="4.85391">
        <ele>186.13999938965</ele>
        <time>2009-10-10T14:46:29Z</time>
      </trkpt>
      <trkpt lat="45.15187" lon="4.85403">
        <ele>186.18299865723</ele>
        <time>2009-10-10T14:46:30Z</time>
      </trkpt>
      <trkpt lat="45.15181" lon="4.85447">
        <ele>186.46800231934</ele>
        <time>2009-10-10T14:46:34Z</time>
      </trkpt>
      <trkpt lat="45.15163" lon="4.85457">
        <ele>186.97900390625</ele>
        <time>2009-10-10T14:46:37Z</time>
      </trkpt>
      <trkpt lat="45.15146" lon="4.8546">
        <ele>187.23699951172</ele>
        <time>2009-10-10T14:46:39Z</time>
      </trkpt>
      <trkpt lat="45.15117" lon="4.85486">
        <ele>187.63900756836</ele>
        <time>2009-10-10T14:46:43Z</time>
      </trkpt>
      <trkpt lat="45.15108" lon="4.85525">
        <ele>188.0359954834</ele>
        <time>2009-10-10T14:46:46Z</time>
      </trkpt>
      <trkpt lat="45.15107" lon="4.85535">
        <ele>188.11700439453</ele>
        <time>2009-10-10T14:46:47Z</time>
      </trkpt>
      <trkpt lat="45.15105" lon="4.85573">
        <ele>188.40100097656</ele>
        <time>2009-10-10T14:46:50Z</time>
      </trkpt>
      <trkpt lat="45.15105" lon="4.85608">
        <ele>188.73699951172</ele>
        <time>2009-10-10T14:46:53Z</time>
      </trkpt>
      <trkpt lat="45.15107" lon="4.8564">
        <ele>189.58999633789</ele>
        <time>2009-10-10T14:46:56Z</time>
      </trkpt>
      <trkpt lat="45.15129" lon="4.85679">
        <ele>190.26300048828</ele>
        <time>2009-10-10T14:47:00Z</time>
      </trkpt>
      <trkpt lat="45.15157" lon="4.85741">
        <ele>191.17399597168</ele>
        <time>2009-10-10T14:47:06Z</time>
      </trkpt>
      <trkpt lat="45.15182" lon="4.85768">
        <ele>192.79100036621</ele>
        <time>2009-10-10T14:47:10Z</time>
      </trkpt>
      <trkpt lat="45.15221" lon="4.85799">
        <ele>194.37399291992</ele>
        <time>2009-10-10T14:47:16Z</time>
      </trkpt>
      <trkpt lat="45.15248" lon="4.85837">
        <ele>194.86599731445</ele>
        <time>2009-10-10T14:47:21Z</time>
      </trkpt>
      <trkpt lat="45.15285" lon="4.85893">
        <ele>196.13200378418</ele>
        <time>2009-10-10T14:47:28Z</time>
      </trkpt>
      <trkpt lat="45.15316" lon="4.85945">
        <ele>196.76499938965</ele>
        <time>2009-10-10T14:47:34Z</time>
      </trkpt>
      <trkpt lat="45.15347" lon="4.86007">
        <ele>197.93600463867</ele>
        <time>2009-10-10T14:47:41Z</time>
      </trkpt>
      <trkpt lat="45.1538" lon="4.86076">
        <ele>199.66299438477</ele>
        <time>2009-10-10T14:47:49Z</time>
      </trkpt>
      <trkpt lat="45.15398" lon="4.86134">
        <ele>201.22999572754</ele>
        <time>2009-10-10T14:47:56Z</time>
      </trkpt>
      <trkpt lat="45.15415" lon="4.86194">
        <ele>202.59100341797</ele>
        <time>2009-10-10T14:48:04Z</time>
      </trkpt>
      <trkpt lat="45.15427" lon="4.86229">
        <ele>203.57600402832</ele>
        <time>2009-10-10T14:48:10Z</time>
      </trkpt>
      <trkpt lat="45.15437" lon="4.86252">
        <ele>204.3390045166</ele>
        <time>2009-10-10T14:48:15Z</time>
      </trkpt>
      <trkpt lat="45.15456" lon="4.86272">
        <ele>205.30000305176</ele>
        <time>2009-10-10T14:48:20Z</time>
      </trkpt>
      <trkpt lat="45.15472" lon="4.86271">
        <ele>205.32499694824</ele>
        <time>2009-10-10T14:48:23Z</time>
      </trkpt>
      <trkpt lat="45.1552" lon="4.86251">
        <ele>205.38600158691</ele>
        <time>2009-10-10T14:48:31Z</time>
      </trkpt>
      <trkpt lat="45.15539" lon="4.86245">
        <ele>205.84399414062</ele>
        <time>2009-10-10T14:48:34Z</time>
      </trkpt>
      <trkpt lat="45.1558" lon="4.86244">
        <ele>207.94500732422</ele>
        <time>2009-10-10T14:48:41Z</time>
      </trkpt>
      <trkpt lat="45.15619" lon="4.86241">
        <ele>210.70399475098</ele>
        <time>2009-10-10T14:48:49Z</time>
      </trkpt>
      <trkpt lat="45.15651" lon="4.86237">
        <ele>213.60000610352</ele>
        <time>2009-10-10T14:48:56Z</time>
      </trkpt>
      <trkpt lat="45.15678" lon="4.86229">
        <ele>215.73199462891</ele>
        <time>2009-10-10T14:49:02Z</time>
      </trkpt>
      <trkpt lat="45.15683" lon="4.86228">
        <ele>215.80900573731</ele>
        <time>2009-10-10T14:49:03Z</time>
      </trkpt>
      <trkpt lat="45.15723" lon="4.86209">
        <ele>218.5950012207</ele>
        <time>2009-10-10T14:49:12Z</time>
      </trkpt>
      <trkpt lat="45.1575" lon="4.86198">
        <ele>220.78399658203</ele>
        <time>2009-10-10T14:49:19Z</time>
      </trkpt>
      <trkpt lat="45.15771" lon="4.86188">
        <ele>222.16700744629</ele>
        <time>2009-10-10T14:49:25Z</time>
      </trkpt>
      <trkpt lat="45.15794" lon="4.86174">
        <ele>223.36199951172</ele>
        <time>2009-10-10T14:49:31Z</time>
      </trkpt>
      <trkpt lat="45.15805" lon="4.86147">
        <ele>223.62699890137</ele>
        <time>2009-10-10T14:49:36Z</time>
      </trkpt>
      <trkpt lat="45.15799" lon="4.86126">
        <ele>223.90400695801</ele>
        <time>2009-10-10T14:49:39Z</time>
      </trkpt>
      <trkpt lat="45.15781" lon="4.8611">
        <ele>224.71299743652</ele>
        <time>2009-10-10T14:49:43Z</time>
      </trkpt>
      <trkpt lat="45.15768" lon="4.86101">
        <ele>225.61700439453</ele>
        <time>2009-10-10T14:49:46Z</time>
      </trkpt>
      <trkpt lat="45.15742" lon="4.86096">
        <ele>227.68200683594</ele>
        <time>2009-10-10T14:49:52Z</time>
      </trkpt>
      <trkpt lat="45.15738" lon="4.86097">
        <ele>227.81700134277</ele>
        <time>2009-10-10T14:49:53Z</time>
      </trkpt>
      <trkpt lat="45.15722" lon="4.86101">
        <ele>229.74299621582</ele>
        <time>2009-10-10T14:49:58Z</time>
      </trkpt>
      <trkpt lat="45.15713" lon="4.8608">
        <ele>231.84399414062</ele>
        <time>2009-10-10T14:50:02Z</time>
      </trkpt>
      <trkpt lat="45.15716" lon="4.86062">
        <ele>232.96000671387</ele>
        <time>2009-10-10T14:50:05Z</time>
      </trkpt>
      <trkpt lat="45.15714" lon="4.86025">
        <ele>235.14399719238</ele>
        <time>2009-10-10T14:50:12Z</time>
      </trkpt>
      <trkpt lat="45.15702" lon="4.85993">
        <ele>237.30299377441</ele>
        <time>2009-10-10T14:50:19Z</time>
      </trkpt>
      <trkpt lat="45.15691" lon="4.85959">
        <ele>239.58299255371</ele>
        <time>2009-10-10T14:50:27Z</time>
      </trkpt>
      <trkpt lat="45.15693" lon="4.85941">
        <ele>240.7859954834</ele>
        <time>2009-10-10T14:50:31Z</time>
      </trkpt>
      <trkpt lat="45.15706" lon="4.85935">
        <ele>242.21600341797</ele>
        <time>2009-10-10T14:50:35Z</time>
      </trkpt>
      <trkpt lat="45.1573" lon="4.85929">
        <ele>244.63999938965</ele>
        <time>2009-10-10T14:50:40Z</time>
      </trkpt>
      <trkpt lat="45.15753" lon="4.85923">
        <ele>247.04400634766</ele>
        <time>2009-10-10T14:50:46Z</time>
      </trkpt>
      <trkpt lat="45.1577" lon="4.85917">
        <ele>249.20799255371</ele>
        <time>2009-10-10T14:50:52Z</time>
      </trkpt>
      <trkpt lat="45.1579" lon="4.85911">
        <ele>250.53999328613</ele>
        <time>2009-10-10T14:50:59Z</time>
      </trkpt>
      <trkpt lat="45.15807" lon="4.85906">
        <ele>252.12800598144</ele>
        <time>2009-10-10T14:51:05Z</time>
      </trkpt>
      <trkpt lat="45.15828" lon="4.859">
        <ele>253.92599487305</ele>
        <time>2009-10-10T14:51:10Z</time>
      </trkpt>
      <trkpt lat="45.15841" lon="4.85896">
        <ele>254.19400024414</ele>
        <time>2009-10-10T14:51:13Z</time>
      </trkpt>
      <trkpt lat="45.15865" lon="4.85888">
        <ele>255.86099243164</ele>
        <time>2009-10-10T14:51:19Z</time>
      </trkpt>
      <trkpt lat="45.15885" lon="4.85883">
        <ele>256.66500854492</ele>
        <time>2009-10-10T14:51:25Z</time>
      </trkpt>
      <trkpt lat="45.15913" lon="4.85869">
        <ele>257.7799987793</ele>
        <time>2009-10-10T14:51:33Z</time>
      </trkpt>
      <trkpt lat="45.1594" lon="4.85854">
        <ele>258.04800415039</ele>
        <time>2009-10-10T14:51:40Z</time>
      </trkpt>
      <trkpt lat="45.15955" lon="4.85848">
        <ele>258.02398681641</ele>
        <time>2009-10-10T14:51:43Z</time>
      </trkpt>
      <trkpt lat="45.15977" lon="4.85845">
        <ele>257.49301147461</ele>
        <time>2009-10-10T14:51:47Z</time>
      </trkpt>
      <trkpt lat="45.16" lon="4.85851">
        <ele>258.80099487305</ele>
        <time>2009-10-10T14:51:51Z</time>
      </trkpt>
      <trkpt lat="45.16036" lon="4.85875">
        <ele>259.74499511719</ele>
        <time>2009-10-10T14:51:59Z</time>
      </trkpt>
      <trkpt lat="45.16062" lon="4.85893">
        <ele>260.54400634766</ele>
        <time>2009-10-10T14:52:06Z</time>
      </trkpt>
      <trkpt lat="45.16084" lon="4.85899">
        <ele>259.53799438477</ele>
        <time>2009-10-10T14:52:12Z</time>
      </trkpt>
      <trkpt lat="45.16096" lon="4.85898">
        <ele>258.22399902344</ele>
        <time>2009-10-10T14:52:17Z</time>
      </trkpt>
      <trkpt lat="45.161" lon="4.85888">
        <ele>258.63000488281</ele>
        <time>2009-10-10T14:52:21Z</time>
      </trkpt>
      <trkpt lat="45.16096" lon="4.85889">
        <ele>258.81600952148</ele>
        <time>2009-10-10T14:52:24Z</time>
      </trkpt>
      <trkpt lat="45.16093" lon="4.85894">
        <ele>258.92700195312</ele>
        <time>2009-10-10T14:52:28Z</time>
      </trkpt>
      <trkpt lat="45.16097" lon="4.85899">
        <ele>258.34100341797</ele>
        <time>2009-10-10T14:52:33Z</time>
      </trkpt>
      <trkpt lat="45.16101" lon="4.85894">
        <ele>257.98400878906</ele>
        <time>2009-10-10T14:52:37Z</time>
      </trkpt>
      <trkpt lat="45.16098" lon="4.85888">
        <ele>258.71499633789</ele>
        <time>2009-10-10T14:52:40Z</time>
      </trkpt>
      <trkpt lat="45.16094" lon="4.85889">
        <ele>258.68499755859</ele>
        <time>2009-10-10T14:52:45Z</time>
      </trkpt>
      <trkpt lat="45.16094" lon="4.85885">
        <ele>258.57000732422</ele>
        <time>2009-10-10T14:53:42Z</time>
      </trkpt>
      <trkpt lat="45.16092" lon="4.85887">
        <ele>258.50900268555</ele>
        <time>2009-10-10T14:53:55Z</time>
      </trkpt>
      <trkpt lat="45.16092" lon="4.85888">
        <ele>258.50399780273</ele>
        <time>2009-10-10T14:54:06Z</time>
      </trkpt>
      <trkpt lat="45.16092" lon="4.8589">
        <ele>258.36099243164</ele>
        <time>2009-10-10T14:54:16Z</time>
      </trkpt>
      <trkpt lat="45.16088" lon="4.85896">
        <ele>258.92700195312</ele>
        <time>2009-10-10T14:54:22Z</time>
      </trkpt>
      <trkpt lat="45.16083" lon="4.85916">
        <ele>261.05200195312</ele>
        <time>2009-10-10T14:54:29Z</time>
      </trkpt>
      <trkpt lat="45.16081" lon="4.85924">
        <ele>261.90600585938</ele>
        <time>2009-10-10T14:54:31Z</time>
      </trkpt>
      <trkpt lat="45.16078" lon="4.85936">
        <ele>263.65798950195</ele>
        <time>2009-10-10T14:54:35Z</time>
      </trkpt>
      <trkpt lat="45.16074" lon="4.85947">
        <ele>264.35400390625</ele>
        <time>2009-10-10T14:54:38Z</time>
      </trkpt>
      <trkpt lat="45.1607" lon="4.85967">
        <ele>264.47500610352</ele>
        <time>2009-10-10T14:54:43Z</time>
      </trkpt>
      <trkpt lat="45.1606" lon="4.85998">
        <ele>263.00799560547</ele>
        <time>2009-10-10T14:54:48Z</time>
      </trkpt>
      <trkpt lat="45.16038" lon="4.8604">
        <ele>262.93200683594</ele>
        <time>2009-10-10T14:54:54Z</time>
      </trkpt>
      <trkpt lat="45.16022" lon="4.8607">
        <ele>263.66799926758</ele>
        <time>2009-10-10T14:54:59Z</time>
      </trkpt>
      <trkpt lat="45.16018" lon="4.86101">
        <ele>264.54299926758</ele>
        <time>2009-10-10T14:55:04Z</time>
      </trkpt>
      <trkpt lat="45.16021" lon="4.86106">
        <ele>264.93499755859</ele>
        <time>2009-10-10T14:55:05Z</time>
      </trkpt>
      <trkpt lat="45.16029" lon="4.86136">
        <ele>268.36199951172</ele>
        <time>2009-10-10T14:55:12Z</time>
      </trkpt>
      <trkpt lat="45.16027" lon="4.86152">
        <ele>270.28900146484</ele>
        <time>2009-10-10T14:55:16Z</time>
      </trkpt>
      <trkpt lat="45.1602" lon="4.86172">
        <ele>271.95599365234</ele>
        <time>2009-10-10T14:55:22Z</time>
      </trkpt>
      <trkpt lat="45.16015" lon="4.86189">
        <ele>273.36401367188</ele>
        <time>2009-10-10T14:55:27Z</time>
      </trkpt>
      <trkpt lat="45.16013" lon="4.86205">
        <ele>274.97500610352</ele>
        <time>2009-10-10T14:55:32Z</time>
      </trkpt>
      <trkpt lat="45.1601" lon="4.86225">
        <ele>276.96798706055</ele>
        <time>2009-10-10T14:55:38Z</time>
      </trkpt>
      <trkpt lat="45.16008" lon="4.86241">
        <ele>278.35800170898</ele>
        <time>2009-10-10T14:55:43Z</time>
      </trkpt>
      <trkpt lat="45.16005" lon="4.86258">
        <ele>280.2799987793</ele>
        <time>2009-10-10T14:55:48Z</time>
      </trkpt>
      <trkpt lat="45.16002" lon="4.86289">
        <ele>282.40200805664</ele>
        <time>2009-10-10T14:55:56Z</time>
      </trkpt>
      <trkpt lat="45.16005" lon="4.86307">
        <ele>282.86599731445</ele>
        <time>2009-10-10T14:56:01Z</time>
      </trkpt>
      <trkpt lat="45.16012" lon="4.86332">
        <ele>282.08499145508</ele>
        <time>2009-10-10T14:56:07Z</time>
      </trkpt>
      <trkpt lat="45.16023" lon="4.86358">
        <ele>279.42700195312</ele>
        <time>2009-10-10T14:56:11Z</time>
      </trkpt>
      <trkpt lat="45.16027" lon="4.86366">
        <ele>278.26699829102</ele>
        <time>2009-10-10T14:56:12Z</time>
      </trkpt>
      <trkpt lat="45.16037" lon="4.86412">
        <ele>273.57598876953</ele>
        <time>2009-10-10T14:56:16Z</time>
      </trkpt>
      <trkpt lat="45.16053" lon="4.86466">
        <ele>270.62799072266</ele>
        <time>2009-10-10T14:56:20Z</time>
      </trkpt>
      <trkpt lat="45.16062" lon="4.86493">
        <ele>269.21798706055</ele>
        <time>2009-10-10T14:56:22Z</time>
      </trkpt>
      <trkpt lat="45.16068" lon="4.86521">
        <ele>268.08099365234</ele>
        <time>2009-10-10T14:56:24Z</time>
      </trkpt>
      <trkpt lat="45.16073" lon="4.86588">
        <ele>266.29998779297</ele>
        <time>2009-10-10T14:56:29Z</time>
      </trkpt>
      <trkpt lat="45.1608" lon="4.86614">
        <ele>265.69198608398</ele>
        <time>2009-10-10T14:56:31Z</time>
      </trkpt>
      <trkpt lat="45.16082" lon="4.86626">
        <ele>266.06500244141</ele>
        <time>2009-10-10T14:56:32Z</time>
      </trkpt>
      <trkpt lat="45.16085" lon="4.86659">
        <ele>267.23599243164</ele>
        <time>2009-10-10T14:56:35Z</time>
      </trkpt>
      <trkpt lat="45.16085" lon="4.86667">
        <ele>267.34799194336</ele>
        <time>2009-10-10T14:56:36Z</time>
      </trkpt>
      <trkpt lat="45.16084" lon="4.86689">
        <ele>267.50698852539</ele>
        <time>2009-10-10T14:56:39Z</time>
      </trkpt>
      <trkpt lat="45.16071" lon="4.86722">
        <ele>268.37200927734</ele>
        <time>2009-10-10T14:56:45Z</time>
      </trkpt>
      <trkpt lat="45.16062" lon="4.86736">
        <ele>268.8210144043</ele>
        <time>2009-10-10T14:56:48Z</time>
      </trkpt>
      <trkpt lat="45.16053" lon="4.86751">
        <ele>268.79699707031</ele>
        <time>2009-10-10T14:56:51Z</time>
      </trkpt>
      <trkpt lat="45.16042" lon="4.86771">
        <ele>267.70001220703</ele>
        <time>2009-10-10T14:56:55Z</time>
      </trkpt>
      <trkpt lat="45.16029" lon="4.86824">
        <ele>265.81399536133</ele>
        <time>2009-10-10T14:57:02Z</time>
      </trkpt>
      <trkpt lat="45.16026" lon="4.8684">
        <ele>264.98699951172</ele>
        <time>2009-10-10T14:57:04Z</time>
      </trkpt>
      <trkpt lat="45.16024" lon="4.86848">
        <ele>264.40798950195</ele>
        <time>2009-10-10T14:57:05Z</time>
      </trkpt>
      <trkpt lat="45.16008" lon="4.86886">
        <ele>262.57901000977</ele>
        <time>2009-10-10T14:57:10Z</time>
      </trkpt>
      <trkpt lat="45.16003" lon="4.86893">
        <ele>261.94299316406</ele>
        <time>2009-10-10T14:57:11Z</time>
      </trkpt>
      <trkpt lat="45.15993" lon="4.86905">
        <ele>261.03799438477</ele>
        <time>2009-10-10T14:57:13Z</time>
      </trkpt>
      <trkpt lat="45.15981" lon="4.86914">
        <ele>259.74200439453</ele>
        <time>2009-10-10T14:57:15Z</time>
      </trkpt>
      <trkpt lat="45.15966" lon="4.86921">
        <ele>258.81698608398</ele>
        <time>2009-10-10T14:57:17Z</time>
      </trkpt>
      <trkpt lat="45.15929" lon="4.86946">
        <ele>255.87699890137</ele>
        <time>2009-10-10T14:57:22Z</time>
      </trkpt>
      <trkpt lat="45.1592" lon="4.86953">
        <ele>255.59199523926</ele>
        <time>2009-10-10T14:57:23Z</time>
      </trkpt>
      <trkpt lat="45.15886" lon="4.86983">
        <ele>252.75700378418</ele>
        <time>2009-10-10T14:57:27Z</time>
      </trkpt>
      <trkpt lat="45.15833" lon="4.87044">
        <ele>251.43200683594</ele>
        <time>2009-10-10T14:57:34Z</time>
      </trkpt>
      <trkpt lat="45.15804" lon="4.87088">
        <ele>252.28100585938</ele>
        <time>2009-10-10T14:57:39Z</time>
      </trkpt>
      <trkpt lat="45.15783" lon="4.87127">
        <ele>253.72700500488</ele>
        <time>2009-10-10T14:57:44Z</time>
      </trkpt>
      <trkpt lat="45.15777" lon="4.87143">
        <ele>254.46299743652</ele>
        <time>2009-10-10T14:57:46Z</time>
      </trkpt>
      <trkpt lat="45.15766" lon="4.87183">
        <ele>255.15899658203</ele>
        <time>2009-10-10T14:57:51Z</time>
      </trkpt>
      <trkpt lat="45.15757" lon="4.87216">
        <ele>254.86000061035</ele>
        <time>2009-10-10T14:57:55Z</time>
      </trkpt>
      <trkpt lat="45.15735" lon="4.87263">
        <ele>253.8869934082</ele>
        <time>2009-10-10T14:58:01Z</time>
      </trkpt>
      <trkpt lat="45.15712" lon="4.87301">
        <ele>252.33700561523</ele>
        <time>2009-10-10T14:58:06Z</time>
      </trkpt>
      <trkpt lat="45.15686" lon="4.87323">
        <ele>252.08299255371</ele>
        <time>2009-10-10T14:58:10Z</time>
      </trkpt>
      <trkpt lat="45.1566" lon="4.87353">
        <ele>252.44099426269</ele>
        <time>2009-10-10T14:58:15Z</time>
      </trkpt>
      <trkpt lat="45.1564" lon="4.87373">
        <ele>253.12800598144</ele>
        <time>2009-10-10T14:58:19Z</time>
      </trkpt>
      <trkpt lat="45.15613" lon="4.87399">
        <ele>255.93400573731</ele>
        <time>2009-10-10T14:58:25Z</time>
      </trkpt>
      <trkpt lat="45.15612" lon="4.8742">
        <ele>256.10198974609</ele>
        <time>2009-10-10T14:58:28Z</time>
      </trkpt>
      <trkpt lat="45.15621" lon="4.87428">
        <ele>256.13598632812</ele>
        <time>2009-10-10T14:58:30Z</time>
      </trkpt>
      <trkpt lat="45.15632" lon="4.87433">
        <ele>255.60699462891</ele>
        <time>2009-10-10T14:58:32Z</time>
      </trkpt>
      <trkpt lat="45.15649" lon="4.87457">
        <ele>255.04100036621</ele>
        <time>2009-10-10T14:58:36Z</time>
      </trkpt>
      <trkpt lat="45.15652" lon="4.87475">
        <ele>255.83399963379</ele>
        <time>2009-10-10T14:58:38Z</time>
      </trkpt>
      <trkpt lat="45.15652" lon="4.87516">
        <ele>257.51998901367</ele>
        <time>2009-10-10T14:58:44Z</time>
      </trkpt>
      <trkpt lat="45.15652" lon="4.87541">
        <ele>257.04699707031</ele>
        <time>2009-10-10T14:58:51Z</time>
      </trkpt>
      <trkpt lat="45.15652" lon="4.87547">
        <ele>256.64001464844</ele>
        <time>2009-10-10T14:58:57Z</time>
      </trkpt>
      <trkpt lat="45.15648" lon="4.87555">
        <ele>256.3330078125</ele>
        <time>2009-10-10T14:59:12Z</time>
      </trkpt>
      <trkpt lat="45.15633" lon="4.87562">
        <ele>256.04800415039</ele>
        <time>2009-10-10T14:59:17Z</time>
      </trkpt>
      <trkpt lat="45.15624" lon="4.87562">
        <ele>256.02801513672</ele>
        <time>2009-10-10T14:59:19Z</time>
      </trkpt>
      <trkpt lat="45.15594" lon="4.8756">
        <ele>256.14999389648</ele>
        <time>2009-10-10T14:59:26Z</time>
      </trkpt>
      <trkpt lat="45.15565" lon="4.87556">
        <ele>256.03799438477</ele>
        <time>2009-10-10T14:59:32Z</time>
      </trkpt>
      <trkpt lat="45.15519" lon="4.87555">
        <ele>255.625</ele>
        <time>2009-10-10T14:59:40Z</time>
      </trkpt>
      <trkpt lat="45.1549" lon="4.87565">
        <ele>255.62699890137</ele>
        <time>2009-10-10T14:59:45Z</time>
      </trkpt>
      <trkpt lat="45.15445" lon="4.87585">
        <ele>256.42999267578</ele>
        <time>2009-10-10T14:59:53Z</time>
      </trkpt>
      <trkpt lat="45.1543" lon="4.87587">
        <ele>257.10501098633</ele>
        <time>2009-10-10T14:59:56Z</time>
      </trkpt>
      <trkpt lat="45.15384" lon="4.87588">
        <ele>257.9289855957</ele>
        <time>2009-10-10T15:00:05Z</time>
      </trkpt>
      <trkpt lat="45.1535" lon="4.87606">
        <ele>256.83999633789</ele>
        <time>2009-10-10T15:00:11Z</time>
      </trkpt>
      <trkpt lat="45.15331" lon="4.8762">
        <ele>255.54400634766</ele>
        <time>2009-10-10T15:00:14Z</time>
      </trkpt>
      <trkpt lat="45.15304" lon="4.87642">
        <ele>254.15400695801</ele>
        <time>2009-10-10T15:00:18Z</time>
      </trkpt>
      <trkpt lat="45.15274" lon="4.87677">
        <ele>254.30700683594</ele>
        <time>2009-10-10T15:00:23Z</time>
      </trkpt>
      <trkpt lat="45.15237" lon="4.87734">
        <ele>255.33399963379</ele>
        <time>2009-10-10T15:00:31Z</time>
      </trkpt>
      <trkpt lat="45.15197" lon="4.87793">
        <ele>255.86199951172</ele>
        <time>2009-10-10T15:00:40Z</time>
      </trkpt>
      <trkpt lat="45.15169" lon="4.8782">
        <ele>255.69400024414</ele>
        <time>2009-10-10T15:00:45Z</time>
      </trkpt>
      <trkpt lat="45.15114" lon="4.8786">
        <ele>255.14799499512</ele>
        <time>2009-10-10T15:00:53Z</time>
      </trkpt>
      <trkpt lat="45.1506" lon="4.87896">
        <ele>254.79499816894</ele>
        <time>2009-10-10T15:01:01Z</time>
      </trkpt>
      <trkpt lat="45.14997" lon="4.87928">
        <ele>253.60400390625</ele>
        <time>2009-10-10T15:01:10Z</time>
      </trkpt>
      <trkpt lat="45.14953" lon="4.87949">
        <ele>253.14199829102</ele>
        <time>2009-10-10T15:01:16Z</time>
      </trkpt>
      <trkpt lat="45.14897" lon="4.87975">
        <ele>252.70199584961</ele>
        <time>2009-10-10T15:01:24Z</time>
      </trkpt>
      <trkpt lat="45.14854" lon="4.87985">
        <ele>252.8869934082</ele>
        <time>2009-10-10T15:01:30Z</time>
      </trkpt>
      <trkpt lat="45.14808" lon="4.87996">
        <ele>251.31100463867</ele>
        <time>2009-10-10T15:01:36Z</time>
      </trkpt>
      <trkpt lat="45.14757" lon="4.88005">
        <ele>249.90100097656</ele>
        <time>2009-10-10T15:01:42Z</time>
      </trkpt>
      <trkpt lat="45.14724" lon="4.87993">
        <ele>248.67700195312</ele>
        <time>2009-10-10T15:01:46Z</time>
      </trkpt>
      <trkpt lat="45.14677" lon="4.87953">
        <ele>247.25700378418</ele>
        <time>2009-10-10T15:01:53Z</time>
      </trkpt>
      <trkpt lat="45.14664" lon="4.87942">
        <ele>247.34700012207</ele>
        <time>2009-10-10T15:01:55Z</time>
      </trkpt>
      <trkpt lat="45.14629" lon="4.87913">
        <ele>245.37699890137</ele>
        <time>2009-10-10T15:02:00Z</time>
      </trkpt>
      <trkpt lat="45.14613" lon="4.87871">
        <ele>244.31199645996</ele>
        <time>2009-10-10T15:02:04Z</time>
      </trkpt>
      <trkpt lat="45.14616" lon="4.87849">
        <ele>243.88900756836</ele>
        <time>2009-10-10T15:02:06Z</time>
      </trkpt>
      <trkpt lat="45.14628" lon="4.87833">
        <ele>244.68400573731</ele>
        <time>2009-10-10T15:02:08Z</time>
      </trkpt>
      <trkpt lat="45.14668" lon="4.87795">
        <ele>246.58999633789</ele>
        <time>2009-10-10T15:02:15Z</time>
      </trkpt>
      <trkpt lat="45.14706" lon="4.87755">
        <ele>248.4880065918</ele>
        <time>2009-10-10T15:02:23Z</time>
      </trkpt>
      <trkpt lat="45.14725" lon="4.87725">
        <ele>249.37399291992</ele>
        <time>2009-10-10T15:02:28Z</time>
      </trkpt>
      <trkpt lat="45.14739" lon="4.87697">
        <ele>250.62399291992</ele>
        <time>2009-10-10T15:02:33Z</time>
      </trkpt>
      <trkpt lat="45.14744" lon="4.87672">
        <ele>251.44999694824</ele>
        <time>2009-10-10T15:02:38Z</time>
      </trkpt>
      <trkpt lat="45.14744" lon="4.87669">
        <ele>251.69099426269</ele>
        <time>2009-10-10T15:02:39Z</time>
      </trkpt>
      <trkpt lat="45.14741" lon="4.87654">
        <ele>252.17500305176</ele>
        <time>2009-10-10T15:02:43Z</time>
      </trkpt>
      <trkpt lat="45.1472" lon="4.87639">
        <ele>252.55799865723</ele>
        <time>2009-10-10T15:02:48Z</time>
      </trkpt>
      <trkpt lat="45.14708" lon="4.87641">
        <ele>252.32600402832</ele>
        <time>2009-10-10T15:02:50Z</time>
      </trkpt>
      <trkpt lat="45.14696" lon="4.87646">
        <ele>251.85600280762</ele>
        <time>2009-10-10T15:02:52Z</time>
      </trkpt>
      <trkpt lat="45.14649" lon="4.87661">
        <ele>251.70399475098</ele>
        <time>2009-10-10T15:02:59Z</time>
      </trkpt>
      <trkpt lat="45.14614" lon="4.87673">
        <ele>251.22300720215</ele>
        <time>2009-10-10T15:03:04Z</time>
      </trkpt>
      <trkpt lat="45.14592" lon="4.87678">
        <ele>251.02000427246</ele>
        <time>2009-10-10T15:03:07Z</time>
      </trkpt>
      <trkpt lat="45.14564" lon="4.87668">
        <ele>251.25300598144</ele>
        <time>2009-10-10T15:03:11Z</time>
      </trkpt>
      <trkpt lat="45.1451" lon="4.87627">
        <ele>250.81500244141</ele>
        <time>2009-10-10T15:03:19Z</time>
      </trkpt>
      <trkpt lat="45.14462" lon="4.87595">
        <ele>250.11700439453</ele>
        <time>2009-10-10T15:03:26Z</time>
      </trkpt>
      <trkpt lat="45.14429" lon="4.87571">
        <ele>250.23300170898</ele>
        <time>2009-10-10T15:03:31Z</time>
      </trkpt>
      <trkpt lat="45.1441" lon="4.87562">
        <ele>249.86500549316</ele>
        <time>2009-10-10T15:03:34Z</time>
      </trkpt>
      <trkpt lat="45.14396" lon="4.87562">
        <ele>250.14300537109</ele>
        <time>2009-10-10T15:03:36Z</time>
      </trkpt>
      <trkpt lat="45.14364" lon="4.87546">
        <ele>249.57600402832</ele>
        <time>2009-10-10T15:03:41Z</time>
      </trkpt>
      <trkpt lat="45.14359" lon="4.87527">
        <ele>249.40299987793</ele>
        <time>2009-10-10T15:03:43Z</time>
      </trkpt>
      <trkpt lat="45.14366" lon="4.87498">
        <ele>249.84800720215</ele>
        <time>2009-10-10T15:03:46Z</time>
      </trkpt>
      <trkpt lat="45.14381" lon="4.87497">
        <ele>250.71699523926</ele>
        <time>2009-10-10T15:03:48Z</time>
      </trkpt>
      <trkpt lat="45.14388" lon="4.87498">
        <ele>250.56900024414</ele>
        <time>2009-10-10T15:03:49Z</time>
      </trkpt>
      <trkpt lat="45.14431" lon="4.87513">
        <ele>252.23899841309</ele>
        <time>2009-10-10T15:03:56Z</time>
      </trkpt>
      <trkpt lat="45.14443" lon="4.87517">
        <ele>252.44599914551</ele>
        <time>2009-10-10T15:03:58Z</time>
      </trkpt>
      <trkpt lat="45.14465" lon="4.87513">
        <ele>253.09199523926</ele>
        <time>2009-10-10T15:04:02Z</time>
      </trkpt>
      <trkpt lat="45.1447" lon="4.87493">
        <ele>253.72399902344</ele>
        <time>2009-10-10T15:04:05Z</time>
      </trkpt>
      <trkpt lat="45.14461" lon="4.87476">
        <ele>254.52799987793</ele>
        <time>2009-10-10T15:04:08Z</time>
      </trkpt>
      <trkpt lat="45.14446" lon="4.87466">
        <ele>255.31300354004</ele>
        <time>2009-10-10T15:04:11Z</time>
      </trkpt>
      <trkpt lat="45.14396" lon="4.87444">
        <ele>257.71798706055</ele>
        <time>2009-10-10T15:04:21Z</time>
      </trkpt>
      <trkpt lat="45.14362" lon="4.87429">
        <ele>259.41598510742</ele>
        <time>2009-10-10T15:04:28Z</time>
      </trkpt>
      <trkpt lat="45.14327" lon="4.87414">
        <ele>261.06399536133</ele>
        <time>2009-10-10T15:04:35Z</time>
      </trkpt>
      <trkpt lat="45.143" lon="4.87399">
        <ele>262.24200439453</ele>
        <time>2009-10-10T15:04:41Z</time>
      </trkpt>
      <trkpt lat="45.14257" lon="4.87379">
        <ele>264.20300292969</ele>
        <time>2009-10-10T15:04:50Z</time>
      </trkpt>
      <trkpt lat="45.1422" lon="4.87359">
        <ele>265.91101074219</ele>
        <time>2009-10-10T15:04:58Z</time>
      </trkpt>
      <trkpt lat="45.14178" lon="4.87335">
        <ele>267.70300292969</ele>
        <time>2009-10-10T15:05:08Z</time>
      </trkpt>
      <trkpt lat="45.14153" lon="4.87316">
        <ele>269.12701416016</ele>
        <time>2009-10-10T15:05:15Z</time>
      </trkpt>
      <trkpt lat="45.1414" lon="4.87299">
        <ele>270.19100952148</ele>
        <time>2009-10-10T15:05:21Z</time>
      </trkpt>
      <trkpt lat="45.14141" lon="4.87299">
        <ele>270.08200073242</ele>
        <time>2009-10-10T15:05:27Z</time>
      </trkpt>
      <trkpt lat="45.1414" lon="4.87296">
        <ele>270.14999389648</ele>
        <time>2009-10-10T15:05:45Z</time>
      </trkpt>
      <trkpt lat="45.1414" lon="4.87297">
        <ele>269.96600341797</ele>
        <time>2009-10-10T15:05:55Z</time>
      </trkpt>
      <trkpt lat="45.14136" lon="4.87292">
        <ele>270.3219909668</ele>
        <time>2009-10-10T15:06:00Z</time>
      </trkpt>
      <trkpt lat="45.14126" lon="4.8728">
        <ele>271.125</ele>
        <time>2009-10-10T15:06:08Z</time>
      </trkpt>
      <trkpt lat="45.14116" lon="4.87267">
        <ele>272.1669921875</ele>
        <time>2009-10-10T15:06:16Z</time>
      </trkpt>
      <trkpt lat="45.14105" lon="4.87256">
        <ele>272.6969909668</ele>
        <time>2009-10-10T15:06:23Z</time>
      </trkpt>
      <trkpt lat="45.14098" lon="4.8725">
        <ele>273.70498657227</ele>
        <time>2009-10-10T15:06:28Z</time>
      </trkpt>
      <trkpt lat="45.14085" lon="4.87241">
        <ele>274.46499633789</ele>
        <time>2009-10-10T15:06:36Z</time>
      </trkpt>
      <trkpt lat="45.14068" lon="4.87234">
        <ele>275.67001342773</ele>
        <time>2009-10-10T15:06:45Z</time>
      </trkpt>
      <trkpt lat="45.14042" lon="4.8723">
        <ele>277.28100585938</ele>
        <time>2009-10-10T15:06:56Z</time>
      </trkpt>
      <trkpt lat="45.14012" lon="4.87227">
        <ele>279.55899047852</ele>
        <time>2009-10-10T15:07:07Z</time>
      </trkpt>
      <trkpt lat="45.13989" lon="4.87226">
        <ele>281.09298706055</ele>
        <time>2009-10-10T15:07:16Z</time>
      </trkpt>
      <trkpt lat="45.13963" lon="4.87225">
        <ele>282.74798583984</ele>
        <time>2009-10-10T15:07:26Z</time>
      </trkpt>
      <trkpt lat="45.13956" lon="4.87226">
        <ele>283.15600585938</ele>
        <time>2009-10-10T15:07:29Z</time>
      </trkpt>
      <trkpt lat="45.13943" lon="4.87237">
        <ele>283.13500976562</ele>
        <time>2009-10-10T15:07:35Z</time>
      </trkpt>
      <trkpt lat="45.13938" lon="4.87242">
        <ele>282.72198486328</ele>
        <time>2009-10-10T15:07:40Z</time>
      </trkpt>
      <trkpt lat="45.13929" lon="4.8725">
        <ele>282.20401000977</ele>
        <time>2009-10-10T15:07:45Z</time>
      </trkpt>
      <trkpt lat="45.13918" lon="4.8726">
        <ele>281.21099853516</ele>
        <time>2009-10-10T15:07:49Z</time>
      </trkpt>
      <trkpt lat="45.13915" lon="4.87263">
        <ele>280.93600463867</ele>
        <time>2009-10-10T15:07:50Z</time>
      </trkpt>
      <trkpt lat="45.13898" lon="4.87278">
        <ele>279.95401000977</ele>
        <time>2009-10-10T15:07:54Z</time>
      </trkpt>
      <trkpt lat="45.13864" lon="4.87313">
        <ele>277.84698486328</ele>
        <time>2009-10-10T15:08:01Z</time>
      </trkpt>
      <trkpt lat="45.13829" lon="4.87361">
        <ele>276.4460144043</ele>
        <time>2009-10-10T15:08:08Z</time>
      </trkpt>
      <trkpt lat="45.13794" lon="4.87415">
        <ele>276.77700805664</ele>
        <time>2009-10-10T15:08:16Z</time>
      </trkpt>
      <trkpt lat="45.13779" lon="4.87438">
        <ele>277.95599365234</ele>
        <time>2009-10-10T15:08:21Z</time>
      </trkpt>
      <trkpt lat="45.13768" lon="4.87458">
        <ele>278.90798950195</ele>
        <time>2009-10-10T15:08:26Z</time>
      </trkpt>
      <trkpt lat="45.13756" lon="4.87473">
        <ele>279.47198486328</ele>
        <time>2009-10-10T15:08:31Z</time>
      </trkpt>
      <trkpt lat="45.1374" lon="4.87489">
        <ele>279.55200195312</ele>
        <time>2009-10-10T15:08:37Z</time>
      </trkpt>
      <trkpt lat="45.13732" lon="4.87493">
        <ele>279.52700805664</ele>
        <time>2009-10-10T15:08:39Z</time>
      </trkpt>
      <trkpt lat="45.13728" lon="4.87495">
        <ele>279.11499023438</ele>
        <time>2009-10-10T15:08:40Z</time>
      </trkpt>
      <trkpt lat="45.13718" lon="4.87498">
        <ele>278.63000488281</ele>
        <time>2009-10-10T15:08:42Z</time>
      </trkpt>
      <trkpt lat="45.13706" lon="4.875">
        <ele>278.03601074219</ele>
        <time>2009-10-10T15:08:44Z</time>
      </trkpt>
      <trkpt lat="45.13664" lon="4.87504">
        <ele>275.17599487305</ele>
        <time>2009-10-10T15:08:50Z</time>
      </trkpt>
      <trkpt lat="45.13647" lon="4.87504">
        <ele>273.90301513672</ele>
        <time>2009-10-10T15:08:52Z</time>
      </trkpt>
      <trkpt lat="45.13621" lon="4.87496">
        <ele>272.58401489258</ele>
        <time>2009-10-10T15:08:55Z</time>
      </trkpt>
      <trkpt lat="45.13595" lon="4.87475">
        <ele>270.81698608398</ele>
        <time>2009-10-10T15:08:58Z</time>
      </trkpt>
      <trkpt lat="45.1357" lon="4.87436">
        <ele>269.35198974609</ele>
        <time>2009-10-10T15:09:02Z</time>
      </trkpt>
      <trkpt lat="45.13565" lon="4.87403">
        <ele>268.12399291992</ele>
        <time>2009-10-10T15:09:05Z</time>
      </trkpt>
      <trkpt lat="45.13564" lon="4.87392">
        <ele>267.60699462891</ele>
        <time>2009-10-10T15:09:06Z</time>
      </trkpt>
      <trkpt lat="45.13564" lon="4.87373">
        <ele>267.02801513672</ele>
        <time>2009-10-10T15:09:08Z</time>
      </trkpt>
      <trkpt lat="45.13551" lon="4.87347">
        <ele>265.53500366211</ele>
        <time>2009-10-10T15:09:12Z</time>
      </trkpt>
      <trkpt lat="45.13539" lon="4.87354">
        <ele>264.87799072266</ele>
        <time>2009-10-10T15:09:14Z</time>
      </trkpt>
      <trkpt lat="45.13535" lon="4.8738">
        <ele>264.18499755859</ele>
        <time>2009-10-10T15:09:17Z</time>
      </trkpt>
      <trkpt lat="45.13537" lon="4.87388">
        <ele>263.9289855957</ele>
        <time>2009-10-10T15:09:18Z</time>
      </trkpt>
      <trkpt lat="45.13556" lon="4.87452">
        <ele>261.24798583984</ele>
        <time>2009-10-10T15:09:26Z</time>
      </trkpt>
      <trkpt lat="45.13581" lon="4.8752">
        <ele>258.23001098633</ele>
        <time>2009-10-10T15:09:34Z</time>
      </trkpt>
      <trkpt lat="45.13612" lon="4.87552">
        <ele>255.99200439453</ele>
        <time>2009-10-10T15:09:39Z</time>
      </trkpt>
      <trkpt lat="45.13632" lon="4.87573">
        <ele>254.00399780273</ele>
        <time>2009-10-10T15:09:42Z</time>
      </trkpt>
      <trkpt lat="45.13643" lon="4.87606">
        <ele>253.2440032959</ele>
        <time>2009-10-10T15:09:45Z</time>
      </trkpt>
      <trkpt lat="45.13647" lon="4.87629">
        <ele>252.69500732422</ele>
        <time>2009-10-10T15:09:47Z</time>
      </trkpt>
      <trkpt lat="45.13651" lon="4.87653">
        <ele>252.39300537109</ele>
        <time>2009-10-10T15:09:49Z</time>
      </trkpt>
      <trkpt lat="45.13662" lon="4.87709">
        <ele>251.92399597168</ele>
        <time>2009-10-10T15:09:54Z</time>
      </trkpt>
      <trkpt lat="45.13659" lon="4.87755">
        <ele>250.97599792481</ele>
        <time>2009-10-10T15:09:58Z</time>
      </trkpt>
      <trkpt lat="45.13655" lon="4.87765">
        <ele>250.80900573731</ele>
        <time>2009-10-10T15:09:59Z</time>
      </trkpt>
      <trkpt lat="45.13638" lon="4.87814">
        <ele>249.85400390625</ele>
        <time>2009-10-10T15:10:04Z</time>
      </trkpt>
      <trkpt lat="45.13619" lon="4.87858">
        <ele>248.92199707031</ele>
        <time>2009-10-10T15:10:09Z</time>
      </trkpt>
      <trkpt lat="45.13599" lon="4.87873">
        <ele>248.40800476074</ele>
        <time>2009-10-10T15:10:12Z</time>
      </trkpt>
      <trkpt lat="45.13584" lon="4.87895">
        <ele>247.74899291992</ele>
        <time>2009-10-10T15:10:15Z</time>
      </trkpt>
      <trkpt lat="45.13578" lon="4.87915">
        <ele>247.55400085449</ele>
        <time>2009-10-10T15:10:17Z</time>
      </trkpt>
      <trkpt lat="45.13553" lon="4.87958">
        <ele>245.67100524902</ele>
        <time>2009-10-10T15:10:22Z</time>
      </trkpt>
      <trkpt lat="45.13507" lon="4.8801">
        <ele>243.70500183106</ele>
        <time>2009-10-10T15:10:29Z</time>
      </trkpt>
      <trkpt lat="45.13487" lon="4.8803">
        <ele>243.03799438477</ele>
        <time>2009-10-10T15:10:32Z</time>
      </trkpt>
      <trkpt lat="45.1344" lon="4.88049">
        <ele>242.50300598144</ele>
        <time>2009-10-10T15:10:38Z</time>
      </trkpt>
      <trkpt lat="45.13388" lon="4.88065">
        <ele>241.42799377441</ele>
        <time>2009-10-10T15:10:45Z</time>
      </trkpt>
      <trkpt lat="45.13375" lon="4.88072">
        <ele>241.43899536133</ele>
        <time>2009-10-10T15:10:47Z</time>
      </trkpt>
      <trkpt lat="45.13338" lon="4.88106">
        <ele>241.5359954834</ele>
        <time>2009-10-10T15:10:54Z</time>
      </trkpt>
      <trkpt lat="45.13307" lon="4.88146">
        <ele>241.05700683594</ele>
        <time>2009-10-10T15:11:01Z</time>
      </trkpt>
      <trkpt lat="45.13292" lon="4.88184">
        <ele>239.46299743652</ele>
        <time>2009-10-10T15:11:06Z</time>
      </trkpt>
      <trkpt lat="45.13276" lon="4.8823">
        <ele>237.9049987793</ele>
        <time>2009-10-10T15:11:11Z</time>
      </trkpt>
      <trkpt lat="45.13269" lon="4.88273">
        <ele>236.72900390625</ele>
        <time>2009-10-10T15:11:15Z</time>
      </trkpt>
      <trkpt lat="45.13265" lon="4.88363">
        <ele>235.97599792481</ele>
        <time>2009-10-10T15:11:23Z</time>
      </trkpt>
      <trkpt lat="45.13253" lon="4.88415">
        <ele>235.33700561523</ele>
        <time>2009-10-10T15:11:28Z</time>
      </trkpt>
      <trkpt lat="45.13235" lon="4.88449">
        <ele>234.19900512695</ele>
        <time>2009-10-10T15:11:32Z</time>
      </trkpt>
      <trkpt lat="45.13209" lon="4.88465">
        <ele>233.51100158691</ele>
        <time>2009-10-10T15:11:36Z</time>
      </trkpt>
      <trkpt lat="45.13202" lon="4.88467">
        <ele>233.32600402832</ele>
        <time>2009-10-10T15:11:37Z</time>
      </trkpt>
      <trkpt lat="45.13147" lon="4.88479">
        <ele>232.45899963379</ele>
        <time>2009-10-10T15:11:45Z</time>
      </trkpt>
      <trkpt lat="45.13127" lon="4.88485">
        <ele>232.21800231934</ele>
        <time>2009-10-10T15:11:48Z</time>
      </trkpt>
      <trkpt lat="45.13103" lon="4.885">
        <ele>231.70799255371</ele>
        <time>2009-10-10T15:11:52Z</time>
      </trkpt>
      <trkpt lat="45.13081" lon="4.8852">
        <ele>231.00399780273</ele>
        <time>2009-10-10T15:11:56Z</time>
      </trkpt>
      <trkpt lat="45.13048" lon="4.88533">
        <ele>230.80400085449</ele>
        <time>2009-10-10T15:12:01Z</time>
      </trkpt>
      <trkpt lat="45.13041" lon="4.88533">
        <ele>230.45799255371</ele>
        <time>2009-10-10T15:12:02Z</time>
      </trkpt>
      <trkpt lat="45.12978" lon="4.88527">
        <ele>229.19700622559</ele>
        <time>2009-10-10T15:12:11Z</time>
      </trkpt>
      <trkpt lat="45.12922" lon="4.8852">
        <ele>228.50500488281</ele>
        <time>2009-10-10T15:12:19Z</time>
      </trkpt>
      <trkpt lat="45.12875" lon="4.88513">
        <ele>228.50399780273</ele>
        <time>2009-10-10T15:12:26Z</time>
      </trkpt>
      <trkpt lat="45.12812" lon="4.88504">
        <ele>227.93200683594</ele>
        <time>2009-10-10T15:12:36Z</time>
      </trkpt>
      <trkpt lat="45.12778" lon="4.88501">
        <ele>227.94299316406</ele>
        <time>2009-10-10T15:12:42Z</time>
      </trkpt>
      <trkpt lat="45.12762" lon="4.88505">
        <ele>227.52099609375</ele>
        <time>2009-10-10T15:12:45Z</time>
      </trkpt>
      <trkpt lat="45.12728" lon="4.88519">
        <ele>226.68600463867</ele>
        <time>2009-10-10T15:12:51Z</time>
      </trkpt>
      <trkpt lat="45.12679" lon="4.88541">
        <ele>225.43200683594</ele>
        <time>2009-10-10T15:12:59Z</time>
      </trkpt>
      <trkpt lat="45.12652" lon="4.88571">
        <ele>224.07299804688</ele>
        <time>2009-10-10T15:13:04Z</time>
      </trkpt>
      <trkpt lat="45.12646" lon="4.88601">
        <ele>222.89100646973</ele>
        <time>2009-10-10T15:13:07Z</time>
      </trkpt>
      <trkpt lat="45.12648" lon="4.88633">
        <ele>221.79800415039</ele>
        <time>2009-10-10T15:13:10Z</time>
      </trkpt>
      <trkpt lat="45.12669" lon="4.88702">
        <ele>221.09899902344</ele>
        <time>2009-10-10T15:13:17Z</time>
      </trkpt>
      <trkpt lat="45.12672" lon="4.88712">
        <ele>221.19200134277</ele>
        <time>2009-10-10T15:13:18Z</time>
      </trkpt>
      <trkpt lat="45.12692" lon="4.88787">
        <ele>219.97399902344</ele>
        <time>2009-10-10T15:13:26Z</time>
      </trkpt>
      <trkpt lat="45.12708" lon="4.88868">
        <ele>219.87199401856</ele>
        <time>2009-10-10T15:13:35Z</time>
      </trkpt>
      <trkpt lat="45.12709" lon="4.88904">
        <ele>219.69000244141</ele>
        <time>2009-10-10T15:13:39Z</time>
      </trkpt>
      <trkpt lat="45.12698" lon="4.88987">
        <ele>218.38200378418</ele>
        <time>2009-10-10T15:13:48Z</time>
      </trkpt>
      <trkpt lat="45.12687" lon="4.89051">
        <ele>217.43499755859</ele>
        <time>2009-10-10T15:13:55Z</time>
      </trkpt>
      <trkpt lat="45.12666" lon="4.89097">
        <ele>216.89700317383</ele>
        <time>2009-10-10T15:14:01Z</time>
      </trkpt>
      <trkpt lat="45.12621" lon="4.89158">
        <ele>216.11500549316</ele>
        <time>2009-10-10T15:14:11Z</time>
      </trkpt>
      <trkpt lat="45.12581" lon="4.89204">
        <ele>215.31399536133</ele>
        <time>2009-10-10T15:14:19Z</time>
      </trkpt>
      <trkpt lat="45.12539" lon="4.8923">
        <ele>214.49200439453</ele>
        <time>2009-10-10T15:14:26Z</time>
      </trkpt>
      <trkpt lat="45.12485" lon="4.89262">
        <ele>213.44500732422</ele>
        <time>2009-10-10T15:14:35Z</time>
      </trkpt>
      <trkpt lat="45.12416" lon="4.89301">
        <ele>212.52600097656</ele>
        <time>2009-10-10T15:14:46Z</time>
      </trkpt>
      <trkpt lat="45.12358" lon="4.89328">
        <ele>211.70399475098</ele>
        <time>2009-10-10T15:14:55Z</time>
      </trkpt>
      <trkpt lat="45.123" lon="4.89357">
        <ele>210.67799377441</ele>
        <time>2009-10-10T15:15:04Z</time>
      </trkpt>
      <trkpt lat="45.12251" lon="4.89375">
        <ele>209.90299987793</ele>
        <time>2009-10-10T15:15:12Z</time>
      </trkpt>
      <trkpt lat="45.12214" lon="4.89378">
        <ele>210.22999572754</ele>
        <time>2009-10-10T15:15:19Z</time>
      </trkpt>
      <trkpt lat="45.1219" lon="4.89385">
        <ele>210.34700012207</ele>
        <time>2009-10-10T15:15:24Z</time>
      </trkpt>
      <trkpt lat="45.12151" lon="4.894">
        <ele>210.27400207519</ele>
        <time>2009-10-10T15:15:33Z</time>
      </trkpt>
      <trkpt lat="45.12141" lon="4.894">
        <ele>209.81500244141</ele>
        <time>2009-10-10T15:15:35Z</time>
      </trkpt>
      <trkpt lat="45.12102" lon="4.89402">
        <ele>209.0359954834</ele>
        <time>2009-10-10T15:15:42Z</time>
      </trkpt>
      <trkpt lat="45.12065" lon="4.89411">
        <ele>207.7200012207</ele>
        <time>2009-10-10T15:15:48Z</time>
      </trkpt>
      <trkpt lat="45.12014" lon="4.89439">
        <ele>206.25300598144</ele>
        <time>2009-10-10T15:15:56Z</time>
      </trkpt>
      <trkpt lat="45.11982" lon="4.89459">
        <ele>205.35499572754</ele>
        <time>2009-10-10T15:16:01Z</time>
      </trkpt>
      <trkpt lat="45.11951" lon="4.8948">
        <ele>205.04699707031</ele>
        <time>2009-10-10T15:16:06Z</time>
      </trkpt>
      <trkpt lat="45.1194" lon="4.89473">
        <ele>205.26300048828</ele>
        <time>2009-10-10T15:16:08Z</time>
      </trkpt>
      <trkpt lat="45.1193" lon="4.89465">
        <ele>206.10400390625</ele>
        <time>2009-10-10T15:16:10Z</time>
      </trkpt>
      <trkpt lat="45.11909" lon="4.89452">
        <ele>207.16600036621</ele>
        <time>2009-10-10T15:16:16Z</time>
      </trkpt>
      <trkpt lat="45.11906" lon="4.8945">
        <ele>207.08299255371</ele>
        <time>2009-10-10T15:16:20Z</time>
      </trkpt>
      <trkpt lat="45.11901" lon="4.89448">
        <ele>207.71000671387</ele>
        <time>2009-10-10T15:16:25Z</time>
      </trkpt>
      <trkpt lat="45.11891" lon="4.89445">
        <ele>208.59199523926</ele>
        <time>2009-10-10T15:16:35Z</time>
      </trkpt>
      <trkpt lat="45.11884" lon="4.89441">
        <ele>209.33999633789</ele>
        <time>2009-10-10T15:16:44Z</time>
      </trkpt>
      <trkpt lat="45.11874" lon="4.89435">
        <ele>209.84300231934</ele>
        <time>2009-10-10T15:16:55Z</time>
      </trkpt>
      <trkpt lat="45.11863" lon="4.89428">
        <ele>210.59599304199</ele>
        <time>2009-10-10T15:17:07Z</time>
      </trkpt>
      <trkpt lat="45.11857" lon="4.89423">
        <ele>210.92599487305</ele>
        <time>2009-10-10T15:17:14Z</time>
      </trkpt>
      <trkpt lat="45.1185" lon="4.89417">
        <ele>211.26400756836</ele>
        <time>2009-10-10T15:17:23Z</time>
      </trkpt>
      <trkpt lat="45.1184" lon="4.89409">
        <ele>211.62100219727</ele>
        <time>2009-10-10T15:17:35Z</time>
      </trkpt>
      <trkpt lat="45.11831" lon="4.89402">
        <ele>212.0299987793</ele>
        <time>2009-10-10T15:17:45Z</time>
      </trkpt>
      <trkpt lat="45.11822" lon="4.89393">
        <ele>212.51600646973</ele>
        <time>2009-10-10T15:17:57Z</time>
      </trkpt>
      <trkpt lat="45.11813" lon="4.89386">
        <ele>212.55299377441</ele>
        <time>2009-10-10T15:18:08Z</time>
      </trkpt>
      <trkpt lat="45.11805" lon="4.89379">
        <ele>212.58200073242</ele>
        <time>2009-10-10T15:18:18Z</time>
      </trkpt>
      <trkpt lat="45.11803" lon="4.89378">
        <ele>212.77799987793</ele>
        <time>2009-10-10T15:18:20Z</time>
      </trkpt>
      <trkpt lat="45.11802" lon="4.89377">
        <ele>212.85200500488</ele>
        <time>2009-10-10T15:18:21Z</time>
      </trkpt>
      <trkpt lat="45.11797" lon="4.89373">
        <ele>212.90899658203</ele>
        <time>2009-10-10T15:18:27Z</time>
      </trkpt>
      <trkpt lat="45.11792" lon="4.89368">
        <ele>213.06100463867</ele>
        <time>2009-10-10T15:18:34Z</time>
      </trkpt>
      <trkpt lat="45.11783" lon="4.89358">
        <ele>213.3390045166</ele>
        <time>2009-10-10T15:18:46Z</time>
      </trkpt>
      <trkpt lat="45.11779" lon="4.89349">
        <ele>213.38000488281</ele>
        <time>2009-10-10T15:18:54Z</time>
      </trkpt>
      <trkpt lat="45.11779" lon="4.89339">
        <ele>213.57699584961</ele>
        <time>2009-10-10T15:19:01Z</time>
      </trkpt>
      <trkpt lat="45.11779" lon="4.89331">
        <ele>213.76100158691</ele>
        <time>2009-10-10T15:19:07Z</time>
      </trkpt>
      <trkpt lat="45.11779" lon="4.89327">
        <ele>213.91700744629</ele>
        <time>2009-10-10T15:19:11Z</time>
      </trkpt>
      <trkpt lat="45.11777" lon="4.89322">
        <ele>213.87800598144</ele>
        <time>2009-10-10T15:19:15Z</time>
      </trkpt>
      <trkpt lat="45.11773" lon="4.89311">
        <ele>213.75999450684</ele>
        <time>2009-10-10T15:19:26Z</time>
      </trkpt>
      <trkpt lat="45.11773" lon="4.89311">
        <ele>213.91799926758</ele>
        <time>2009-10-10T15:19:28Z</time>
      </trkpt>
      <trkpt lat="45.11871" lon="4.89631">
        <ele>213.91799926758</ele>
        <time>2009-10-10T15:19:28Z</time>
      </trkpt>
      <trkpt lat="45.12008" lon="4.90117">
        <ele>213.91799926758</ele>
        <time>2009-10-10T15:19:28Z</time>
      </trkpt>
      <trkpt lat="45.11691" lon="4.90396">
        <ele>213.91799926758</ele>
        <time>2009-10-10T15:19:28Z</time>
      </trkpt>
      <trkpt lat="45.11691" lon="4.90918">
        <ele>213.91799926758</ele>
        <time>2009-10-10T15:19:28Z</time>
      </trkpt>
      <trkpt lat="45.1158" lon="4.91294">
        <ele>213.91799926758</ele>
        <time>2009-10-10T15:19:28Z</time>
      </trkpt>
      <trkpt lat="45.11486" lon="4.91634">
        <ele>213.91799926758</ele>
        <time>2009-10-10T15:19:28Z</time>
      </trkpt>
      <trkpt lat="45.11349" lon="4.91877">
        <ele>213.91799926758</ele>
        <time>2009-10-10T15:19:28Z</time>
      </trkpt>
      <trkpt lat="45.10972" lon="4.92216">
        <ele>213.91799926758</ele>
        <time>2009-10-10T15:19:28Z</time>
      </trkpt>
      <trkpt lat="45.11066" lon="4.92969">
        <ele>213.91799926758</ele>
        <time>2009-10-10T15:19:28Z</time>
      </trkpt>
      <trkpt lat="45.11255" lon="4.93491">
        <ele>213.91799926758</ele>
        <time>2009-10-10T15:19:28Z</time>
      </trkpt>
      <trkpt lat="45.11426" lon="4.9377">
        <ele>213.91799926758</ele>
        <time>2009-10-10T15:19:28Z</time>
      </trkpt>
      <trkpt lat="45.11546" lon="4.94049">
        <ele>213.91799926758</ele>
        <time>2009-10-10T15:19:28Z</time>
      </trkpt>
      <trkpt lat="45.11657" lon="4.9411">
        <ele>213.91799926758</ele>
        <time>2009-10-10T15:19:28Z</time>
      </trkpt>
      <trkpt lat="45.11563" lon="4.94583">
        <ele>213.91799926758</ele>
        <time>2009-10-10T15:19:28Z</time>
      </trkpt>
      <trkpt lat="45.11623" lon="4.95033">
        <ele>213.91799926758</ele>
        <time>2009-10-10T15:19:28Z</time>
      </trkpt>
      <trkpt lat="45.11717" lon="4.953">
        <ele>213.91799926758</ele>
        <time>2009-10-10T15:19:28Z</time>
      </trkpt>
      <trkpt lat="45.11828" lon="4.9547">
        <ele>213.91799926758</ele>
        <time>2009-10-10T15:19:28Z</time>
      </trkpt>
      <trkpt lat="45.11743" lon="4.95785">
        <ele>213.91799926758</ele>
        <time>2009-10-10T15:19:28Z</time>
      </trkpt>
      <trkpt lat="45.1176" lon="4.95919">
        <ele>213.91799926758</ele>
        <time>2009-10-10T15:19:28Z</time>
      </trkpt>
      <trkpt lat="45.11666" lon="4.96004">
        <ele>213.91799926758</ele>
        <time>2009-10-10T15:19:28Z</time>
      </trkpt>
      <trkpt lat="45.11572" lon="4.96137">
        <ele>213.91799926758</ele>
        <time>2009-10-10T15:19:28Z</time>
      </trkpt>
    </trkseg>
  </trk>
</gpx>